
Distance (Route):
Temperature : 20.7°C
Humidity : 64.2%
Pressure : 942.8hPa| Receiver | Frames | First received | Last received |
|---|---|---|---|
| DK7TD | 769 | 2026-08-30 10:47:49 | 2026-08-30 12:52:33 |
| DM0DOS-11 | 369 | 2026-08-30 11:12:05 | 2026-08-30 12:40:22 |
| DO3MHA-12 | 197 | 2026-08-30 11:12:08 | 2026-08-30 12:55:49 |
| HSKMA3-T | 155 | 2026-08-30 11:44:29 | 2026-08-30 12:30:37 |
| DL1NUX | 136 | 2026-08-30 11:50:30 | 2026-08-30 12:31:34 |
| DL1XH-west | 123 | 2026-08-30 11:57:53 | 2026-08-30 12:23:17 |
| DF8AY | 98 | 2026-08-30 11:55:35 | 2026-08-30 12:22:50 |
| DL1XH1-15 | 95 | 2026-08-30 11:59:09 | 2026-08-30 12:23:22 |
| NBG1-10 | 90 | 2026-08-30 11:13:47 | 2026-08-30 12:57:38 |
| DJ8HS-15 | 66 | 2026-08-30 11:13:48 | 2026-08-30 12:40:28 |
| BIOWL1-15 | 64 | 2026-08-30 11:10:30 | 2026-08-30 12:07:53 |
| DF3TZ-5 | 61 | 2026-08-30 10:47:30 | 2026-08-30 12:54:49 |
| DB0UT-7 | 61 | 2026-08-30 11:12:42 | 2026-08-30 12:39:15 |
| DF7PN | 56 | 2026-08-30 10:53:47 | 2026-08-30 12:49:46 |
| DB0ND-19 | 50 | 2026-08-30 11:04:50 | 2026-08-30 12:53:58 |
| AZAK | 48 | 2026-08-30 10:45:22 | 2026-08-30 12:39:01 |
| DL9SK-14 | 48 | 2026-08-30 10:46:23 | 2026-08-30 12:41:50 |
| DF1GD-15 | 44 | 2026-08-30 11:14:49 | 2026-08-30 12:39:12 |
| SONCRA | 43 | 2026-08-30 11:34:22 | 2026-08-30 12:32:51 |
| DL6DJ-15 | 38 | 2026-08-30 11:12:47 | 2026-08-30 12:41:51 |
| DM7RM-13 | 37 | 2026-08-30 11:14:36 | 2026-08-30 12:40:29 |
| OE5DRO-10 | 36 | 2026-08-30 11:29:32 | 2026-08-30 12:26:33 |
| DL1ZP-14 | 35 | 2026-08-30 11:12:31 | 2026-08-30 12:37:58 |
| DN1GJH-1 | 35 | 2026-08-30 11:38:34 | 2026-08-30 12:32:37 |
| OE9MKV-15 | 29 | 2026-08-30 11:37:44 | 2026-08-30 12:26:18 |
| OE5DXL-15 | 25 | 2026-08-30 11:23:09 | 2026-08-30 12:25:40 |
| SO1NDE-10 | 22 | 2026-08-30 11:52:24 | 2026-08-30 12:28:41 |
| DG1MJG | 18 | 2026-08-30 11:15:32 | 2026-08-30 12:39:09 |
| DJ2DS-15 | 18 | 2026-08-30 11:58:57 | 2026-08-30 12:24:15 |
| DJTTGO | 12 | 2026-08-30 11:23:34 | 2026-08-30 12:37:55 |
| AA1-15 | 12 | 2026-08-30 12:15:05 | 2026-08-30 12:18:37 |
| PG1ADW-2 | 11 | 2026-08-30 11:56:56 | 2026-08-30 12:23:31 |
| OE5WHR-10 | 9 | 2026-08-30 11:48:25 | 2026-08-30 12:02:51 |
| DC4HF-4 | 7 | 2026-08-30 11:47:35 | 2026-08-30 12:21:16 |
| DL8DAS-14 | 7 | 2026-08-30 11:51:35 | 2026-08-30 12:23:39 |
| SONDE2-11 | 7 | 2026-08-30 12:11:44 | 2026-08-30 12:26:14 |
| DG9SBQ-11 | 5 | 2026-08-30 11:12:29 | 2026-08-30 11:23:35 |
| EDDB2-11 | 5 | 2026-08-30 12:17:41 | 2026-08-30 12:24:24 |
| KANTATE | 4 | 2026-08-30 11:42:47 | 2026-08-30 11:52:38 |
| DL8DAS-15 | 4 | 2026-08-30 11:52:36 | 2026-08-30 12:24:03 |
| S52SK | 3 | 2026-08-30 12:12:24 | 2026-08-30 12:13:27 |
| BIOWL9-15 | 2 | 2026-08-30 11:20:45 | 2026-08-30 11:23:20 |
| OE3JTB-15 | 1 | 2026-08-30 11:19:59 | 2026-08-30 11:19:59 |
| DL1XH-15 | 1 | 2026-08-30 12:16:37 | 2026-08-30 12:16:37 |
| Receiver | Date | Latitude | Longitude | Direction | Speed | Altitude | Climb | Temperature | Humidity | Pressure | Voltage | Killtimer | Uptime | BKT | XDATA |
|---|---|---|---|---|---|---|---|---|---|---|---|---|---|---|---|
| NBG1-10 | 2026-08-30 12:57:38 | 49.00991 | 10.43313 | 101° | 15km/h | 675m | -3.7m/s | 20.7°C | 64.2% | 942.8hPa | 2.7V | 00:00:00 | 02:39:17 | 00:00:00 | |
| NBG1-10 | 2026-08-30 12:57:36 | 49.00993 | 10.43301 | 102° | 15km/h | 683m | -4.0m/s | 20.6°C | 64.5% | 942.0hPa | 2.7V | 00:00:00 | 02:39:15 | 00:00:00 | |
| NBG1-10 | 2026-08-30 12:57:34 | 49.00994 | 10.43290 | 96° | 15km/h | 691m | -4.1m/s | 20.5°C | 64.8% | 941.1hPa | 2.7V | 07:51:00 | 02:39:13 | 00:00:00 | |
| NBG1-10 | 2026-08-30 12:57:32 | 49.00995 | 10.43279 | 97° | 15km/h | 699m | -4.4m/s | 20.4°C | 65.0% | 940.3hPa | 2.7V | 00:00:00 | 02:39:11 | 00:00:00 | |
| NBG1-10 | 2026-08-30 12:57:30 | 49.00996 | 10.43267 | 97° | 15km/h | 708m | -4.6m/s | 20.3°C | 65.3% | 939.3hPa | 2.7V | 00:00:00 | 02:39:09 | 00:00:00 | |
| NBG1-10 | 2026-08-30 12:57:28 | 49.00997 | 10.43256 | 96° | 15km/h | 717m | -4.6m/s | 20.3°C | 65.6% | 938.4hPa | 2.7V | 00:00:00 | 02:39:07 | 00:00:00 | |
| NBG1-10 | 2026-08-30 12:57:26 | 49.00998 | 10.43245 | 101° | 15km/h | 726m | -4.1m/s | 20.2°C | 65.7% | 937.2hPa | 2.7V | 00:00:00 | 02:39:05 | 00:00:00 | |
| NBG1-10 | 2026-08-30 12:57:24 | 49.00999 | 10.43234 | 100° | 13km/h | 734m | -4.0m/s | 20.1°C | 66.0% | 936.5hPa | 2.7V | 00:00:00 | 02:39:03 | 00:00:00 | |
| NBG1-10 | 2026-08-30 12:57:22 | 49.01001 | 10.43224 | 101° | 15km/h | 742m | -4.1m/s | 20.0°C | 66.1% | 935.6hPa | 2.7V | 00:00:00 | 02:39:01 | 00:00:00 | |
| NBG1-10 | 2026-08-30 12:57:20 | 49.01002 | 10.43214 | 104° | 15km/h | 750m | -4.4m/s | 19.9°C | 66.7% | 934.6hPa | 2.7V | 00:00:00 | 02:38:59 | 00:00:00 | |
| NBG1-10 | 2026-08-30 12:57:18 | 49.01004 | 10.43203 | 104° | 15km/h | 760m | -4.7m/s | 19.8°C | 66.9% | 933.7hPa | 2.7V | 07:51:00 | 02:38:57 | 00:00:00 | |
| NBG1-10 | 2026-08-30 12:57:16 | 49.01005 | 10.43192 | 99° | 13km/h | 769m | -4.8m/s | 19.7°C | 66.9% | 932.8hPa | 2.7V | 00:00:00 | 02:38:55 | 00:00:00 | |
| NBG1-10 | 2026-08-30 12:57:14 | 49.01006 | 10.43182 | 103° | 13km/h | 778m | -4.3m/s | 19.7°C | 67.3% | 931.6hPa | 2.7V | 00:00:00 | 02:38:53 | 00:00:00 | |
| NBG1-10 | 2026-08-30 12:57:12 | 49.01007 | 10.43172 | 101° | 13km/h | 787m | -3.9m/s | 19.6°C | 67.4% | 930.7hPa | 2.7V | 00:00:00 | 02:38:51 | 00:00:00 | |
| NBG1-10 | 2026-08-30 12:57:10 | 49.01009 | 10.43163 | 102° | 13km/h | 794m | -3.7m/s | 19.5°C | 67.8% | 929.8hPa | 2.7V | 00:00:00 | 02:38:49 | 00:00:00 | |
| NBG1-10 | 2026-08-30 12:57:08 | 49.01010 | 10.43153 | 100° | 13km/h | 803m | -4.0m/s | 19.4°C | 68.1% | 928.9hPa | 2.7V | 00:00:00 | 02:38:47 | 00:00:00 | |
| NBG1-10 | 2026-08-30 12:57:06 | 49.01011 | 10.43143 | 96° | 13km/h | 812m | -4.9m/s | 19.3°C | 68.3% | 927.9hPa | 2.7V | 00:00:00 | 02:38:45 | 00:00:00 | |
| NBG1-10 | 2026-08-30 12:57:04 | 49.01011 | 10.43133 | 96° | 13km/h | 822m | -4.7m/s | 19.2°C | 68.6% | 926.9hPa | 2.7V | 00:00:00 | 02:38:43 | 00:00:00 | |
| NBG1-10 | 2026-08-30 12:57:02 | 49.01012 | 10.43123 | 95° | 11km/h | 832m | -5.2m/s | 19.1°C | 68.9% | 925.8hPa | 2.7V | 07:51:00 | 02:38:41 | 00:00:00 | |
| NBG1-10 | 2026-08-30 12:57:00 | 49.01012 | 10.43114 | 88° | 11km/h | 842m | -4.9m/s | 19.0°C | 69.4% | 924.7hPa | 2.7V | 00:00:00 | 02:38:39 | 00:00:00 | |
| NBG1-10 | 2026-08-30 12:56:58 | 49.01012 | 10.43106 | 86° | 9km/h | 852m | -5.2m/s | 18.9°C | 69.9% | 923.8hPa | 2.7V | 00:00:00 | 02:38:37 | 00:00:00 | |
| NBG1-10 | 2026-08-30 12:56:56 | 49.01011 | 10.43099 | 84° | 9km/h | 863m | -4.8m/s | 18.9°C | 69.9% | 922.6hPa | 2.7V | 00:00:00 | 02:38:35 | 00:00:00 | |
| NBG1-10 | 2026-08-30 12:56:54 | 49.01010 | 10.43093 | 80° | 9km/h | 871m | -4.4m/s | 18.7°C | 70.3% | 921.7hPa | 2.7V | 00:00:00 | 02:38:33 | 00:00:00 | |
| NBG1-10 | 2026-08-30 12:56:52 | 49.01008 | 10.43086 | 71° | 11km/h | 880m | -4.5m/s | 18.7°C | 70.7% | 920.6hPa | 2.7V | 00:00:00 | 02:38:31 | 00:00:00 | |
| NBG1-10 | 2026-08-30 12:56:50 | 49.01006 | 10.43078 | 68° | 13km/h | 889m | -4.2m/s | 18.6°C | 71.2% | 919.7hPa | 2.7V | 00:00:00 | 02:38:29 | 00:00:00 | |
| NBG1-10 | 2026-08-30 12:56:48 | 49.01004 | 10.43069 | 72° | 11km/h | 898m | -4.2m/s | 18.5°C | 71.4% | 918.9hPa | 2.7V | 00:00:00 | 02:38:27 | 00:00:00 | |
| NBG1-10 | 2026-08-30 12:56:46 | 49.01003 | 10.43061 | 72° | 11km/h | 907m | -5.1m/s | 18.4°C | 71.5% | 917.9hPa | 2.7V | 07:52:00 | 02:38:25 | 00:00:00 | |
| NBG1-10 | 2026-08-30 12:56:39 | 49.00997 | 10.43031 | 80° | 9km/h | 939m | -4.6m/s | 18.1°C | 73.5% | 914.4hPa | 2.7V | 00:00:00 | 02:38:18 | 00:00:00 | |
| NBG1-10 | 2026-08-30 12:56:32 | 49.00993 | 10.43006 | 59° | 11km/h | 974m | -4.9m/s | 17.8°C | 74.4% | 910.8hPa | 2.7V | 00:00:00 | 02:38:11 | 00:00:00 | |
| NBG1-10 | 2026-08-30 12:56:25 | 49.00979 | 10.42987 | 48° | 11km/h | 1011m | -5.1m/s | 17.5°C | 76.0% | 907.0hPa | 2.7V | 00:00:00 | 02:38:04 | 00:00:00 | |
| NBG1-10 | 2026-08-30 12:56:18 | 49.00968 | 10.42963 | 67° | 7km/h | 1047m | -5.0m/s | 17.2°C | 76.1% | 903.2hPa | 2.7V | 00:00:00 | 02:37:57 | 00:00:00 | |
| NBG1-10 | 2026-08-30 12:56:11 | 49.00958 | 10.42947 | 39° | 13km/h | 1085m | -5.9m/s | 16.8°C | 77.6% | 899.2hPa | 2.7V | 00:00:00 | 02:37:50 | 00:00:00 | |
| NBG1-10 | 2026-08-30 12:56:04 | 49.00944 | 10.42922 | 48° | 13km/h | 1122m | -5.1m/s | 16.5°C | 78.9% | 895.5hPa | 2.7V | 00:00:00 | 02:37:43 | 00:00:00 | |
| NBG1-10 | 2026-08-30 12:55:57 | 49.00927 | 10.42897 | 38° | 15km/h | 1154m | -4.2m/s | 16.2°C | 80.0% | 891.9hPa | 2.7V | 00:00:00 | 02:37:36 | 00:00:00 | |
| NBG1-10 | 2026-08-30 12:55:50 | 49.00910 | 10.42867 | 62° | 15km/h | 1184m | -4.3m/s | 15.9°C | 81.3% | 889.1hPa | 2.6V | 07:53:00 | 02:37:29 | 00:00:00 | |
| DO3MHA-12 | 2026-08-30 12:55:49 | 49.00908 | 10.42862 | 65° | 13km/h | 1188m | -4.4m/s | 15.8°C | 81.5% | 888.7hPa | 2.6V | 00:00:00 | 02:37:28 | 00:00:00 | |
| DO3MHA-12 | 2026-08-30 12:55:45 | 49.00903 | 10.42844 | 54° | 15km/h | 1205m | -3.2m/s | 15.6°C | 82.7% | 886.7hPa | 2.7V | 00:00:00 | 02:37:24 | 00:00:00 | |
| NBG1-10 | 2026-08-30 12:55:43 | 49.00898 | 10.42834 | 55° | 16km/h | 1212m | -4.6m/s | 15.6°C | 82.4% | 886.0hPa | 2.7V | 00:00:00 | 02:37:22 | 00:00:00 | |
| DO3MHA-12 | 2026-08-30 12:55:43 | 49.00898 | 10.42834 | 55° | 16km/h | 1212m | -4.6m/s | 15.6°C | 82.4% | 886.0hPa | 2.7V | 07:53:00 | 02:37:22 | 00:00:00 | |
| DO3MHA-12 | 2026-08-30 12:55:41 | 49.00893 | 10.42823 | 59° | 16km/h | 1222m | -5.1m/s | 15.4°C | 82.9% | 885.0hPa | 2.7V | 00:00:00 | 02:37:20 | 00:00:00 | |
| DO3MHA-12 | 2026-08-30 12:55:39 | 49.00889 | 10.42813 | 56° | 15km/h | 1233m | -5.2m/s | 15.4°C | 83.2% | 883.9hPa | 2.7V | 00:00:00 | 02:37:18 | 00:00:00 | |
| DO3MHA-12 | 2026-08-30 12:55:37 | 49.00885 | 10.42803 | 58° | 13km/h | 1243m | -5.1m/s | 15.2°C | 83.9% | 882.7hPa | 2.7V | 00:00:00 | 02:37:16 | 00:00:00 | |
| NBG1-10 | 2026-08-30 12:55:36 | 49.00883 | 10.42799 | 59° | 13km/h | 1249m | -5.7m/s | 15.2°C | 84.0% | 882.2hPa | 2.7V | 00:00:00 | 02:37:15 | 00:00:00 | |
| DO3MHA-12 | 2026-08-30 12:55:35 | 49.00882 | 10.42795 | 58° | 11km/h | 1255m | -5.9m/s | 15.1°C | 84.4% | 881.5hPa | 2.6V | 00:00:00 | 02:37:14 | 00:00:00 | |
| DO3MHA-12 | 2026-08-30 12:55:33 | 49.00879 | 10.42788 | 57° | 13km/h | 1266m | -5.4m/s | 15.0°C | 84.7% | 880.2hPa | 2.7V | 00:00:00 | 02:37:12 | 00:00:00 | |
| DO3MHA-12 | 2026-08-30 12:55:31 | 49.00875 | 10.42779 | 64° | 15km/h | 1277m | -4.8m/s | 15.0°C | 84.6% | 879.2hPa | 2.7V | 00:00:00 | 02:37:10 | 00:00:00 | |
| NBG1-10 | 2026-08-30 12:55:29 | 49.00872 | 10.42769 | 68° | 15km/h | 1287m | -5.2m/s | 14.8°C | 85.4% | 878.3hPa | 2.7V | 00:00:00 | 02:37:08 | 00:00:00 | |
| DO3MHA-12 | 2026-08-30 12:55:29 | 49.00872 | 10.42769 | 68° | 16km/h | 1287m | -5.2m/s | 14.8°C | 85.4% | 878.3hPa | 2.7V | 00:00:00 | 02:37:08 | 00:00:00 | |
| DO3MHA-12 | 2026-08-30 12:55:27 | 49.00869 | 10.42757 | 70° | 15km/h | 1298m | -5.3m/s | 14.7°C | 85.6% | 877.1hPa | 2.7V | 07:53:00 | 02:37:06 | 00:00:00 | |
| DO3MHA-12 | 2026-08-30 12:55:25 | 49.00867 | 10.42747 | 71° | 13km/h | 1308m | -4.8m/s | 14.7°C | 85.2% | 875.9hPa | 2.7V | 00:00:00 | 02:37:04 | 00:00:00 | |
| NBG1-10 | 2026-08-30 12:55:22 | 49.00863 | 10.42734 | 64° | 15km/h | 1323m | -4.7m/s | 14.5°C | 86.9% | 874.4hPa | 2.7V | 00:00:00 | 02:37:01 | 00:00:00 | |
| DO3MHA-12 | 2026-08-30 12:55:21 | 49.00861 | 10.42730 | 59° | 13km/h | 1327m | -4.6m/s | 14.5°C | 87.2% | 873.8hPa | 2.7V | 00:00:00 | 02:37:00 | 00:00:00 | |
| DO3MHA-12 | 2026-08-30 12:55:19 | 49.00858 | 10.42721 | 58° | 15km/h | 1337m | -4.7m/s | 14.4°C | 87.4% | 872.8hPa | 2.7V | 00:00:00 | 02:36:58 | 00:00:00 | |
| DO3MHA-12 | 2026-08-30 12:55:17 | 49.00853 | 10.42710 | 63° | 16km/h | 1347m | -5.0m/s | 14.3°C | 87.7% | 872.0hPa | 2.7V | 00:00:00 | 02:36:56 | 00:00:00 | |
| NBG1-10 | 2026-08-30 12:55:15 | 49.00850 | 10.42698 | 68° | 18km/h | 1356m | -4.6m/s | 14.2°C | 87.9% | 870.9hPa | 2.6V | 00:00:00 | 02:36:54 | 00:00:00 | |
| DO3MHA-12 | 2026-08-30 12:55:15 | 49.00850 | 10.42698 | 68° | 18km/h | 1356m | -4.6m/s | 14.2°C | 87.9% | 870.9hPa | 2.7V | 00:00:00 | 02:36:54 | 00:00:00 | |
| DO3MHA-12 | 2026-08-30 12:55:13 | 49.00847 | 10.42685 | 75° | 18km/h | 1365m | -4.3m/s | 14.1°C | 87.3% | 870.0hPa | 2.7V | 00:00:00 | 02:36:52 | 00:00:00 | |
| DO3MHA-12 | 2026-08-30 12:55:11 | 49.00845 | 10.42672 | 77° | 18km/h | 1374m | -3.6m/s | 14.0°C | 88.7% | 869.0hPa | 2.7V | 07:53:00 | 02:36:50 | 00:00:00 | |
| DO3MHA-12 | 2026-08-30 12:55:09 | 49.00843 | 10.42659 | 80° | 16km/h | 1382m | -3.9m/s | 14.0°C | 88.7% | 868.3hPa | 2.7V | 00:00:00 | 02:36:48 | 00:00:00 | |
| NBG1-10 | 2026-08-30 12:55:08 | 49.00842 | 10.42653 | 81° | 15km/h | 1386m | -4.5m/s | 13.9°C | 88.5% | 868.0hPa | 2.7V | 00:00:00 | 02:36:47 | 00:00:00 | |
| DO3MHA-12 | 2026-08-30 12:55:07 | 49.00842 | 10.42647 | 75° | 15km/h | 1391m | -5.5m/s | 13.9°C | 88.5% | 867.4hPa | 2.7V | 00:00:00 | 02:36:46 | 00:00:00 | |
| DO3MHA-12 | 2026-08-30 12:55:05 | 49.00839 | 10.42636 | 69° | 15km/h | 1402m | -5.4m/s | 13.8°C | 88.2% | 866.4hPa | 2.7V | 00:00:00 | 02:36:44 | 00:00:00 | |
| DO3MHA-12 | 2026-08-30 12:55:03 | 49.00837 | 10.42624 | 68° | 15km/h | 1415m | -5.8m/s | 13.7°C | 88.0% | 865.2hPa | 2.7V | 00:00:00 | 02:36:42 | 00:00:00 | |
| DF3TZ-5 | 2026-08-30 12:54:49 | 49.00808 | 10.42531 | 66° | 20km/h | 1496m | -3.7m/s | 13.1°C | 88.9% | 856.7hPa | 2.7V | 00:00:00 | 00:00:00 | 00:00:00 | |
| NBG1-10 | 2026-08-30 12:54:47 | 49.00806 | 10.42523 | 64° | 24km/h | 1500m | -3.5m/s | 13.0°C | 90.0% | 856.3hPa | 2.7V | 00:00:00 | 02:36:26 | 00:00:00 | |
| DO3MHA-12 | 2026-08-30 12:54:47 | 49.00806 | 10.42523 | 64° | 24km/h | 1500m | -3.5m/s | 13.0°C | 90.0% | 856.3hPa | 2.7V | 00:00:00 | 02:36:26 | 00:00:00 | |
| DO3MHA-12 | 2026-08-30 12:54:42 | 49.00791 | 10.42482 | 61° | 24km/h | 1520m | -4.2m/s | 12.8°C | 92.0% | 854.2hPa | 2.6V | 00:00:00 | 02:36:21 | 00:00:00 | |
| DO3MHA-12 | 2026-08-30 12:54:37 | 49.00778 | 10.42442 | 73° | 26km/h | 1541m | -4.2m/s | 12.5°C | 93.4% | 852.3hPa | 2.6V | 00:00:00 | 02:36:16 | 00:00:00 | |
| NBG1-10 | 2026-08-30 12:54:33 | 49.00773 | 10.42405 | 82° | 35km/h | 1560m | -4.9m/s | 12.3°C | 95.0% | 850.3hPa | 2.6V | 00:00:00 | 02:36:12 | 00:00:00 | |
| DO3MHA-12 | 2026-08-30 12:54:32 | 49.00772 | 10.42395 | 80° | 29km/h | 1566m | -5.8m/s | 12.3°C | 94.9% | 849.7hPa | 2.6V | 00:00:00 | 02:36:11 | 00:00:00 | |
| DO3MHA-12 | 2026-08-30 12:54:27 | 49.00763 | 10.42338 | 73° | 31km/h | 1599m | -6.9m/s | 11.8°C | 0% | 846.4hPa | 2.7V | 07:54:00 | 02:36:06 | 00:00:00 | |
| DO3MHA-12 | 2026-08-30 12:54:22 | 49.00751 | 10.42280 | 77° | 37km/h | 1636m | -7.4m/s | 11.5°C | 0% | 842.8hPa | 2.7V | 00:00:00 | 02:36:01 | 00:00:00 | |
| DF3TZ-5 | 2026-08-30 12:54:17 | 49.00743 | 10.42212 | 77° | 38km/h | 1674m | -7.4m/s | 11.8°C | 92.3% | 838.9hPa | 2.7V | 00:00:00 | 00:00:00 | 00:00:00 | |
| DO3MHA-12 | 2026-08-30 12:54:17 | 49.00742 | 10.42212 | 78° | 40km/h | 1674m | -7.4m/s | 11.7°C | 93.2% | 838.9hPa | 2.7V | 00:00:00 | 02:35:56 | 00:00:00 | |
| DO3MHA-12 | 2026-08-30 12:54:12 | 49.00729 | 10.42139 | 73° | 38km/h | 1708m | -6.4m/s | 11.2°C | 0% | 835.2hPa | 2.7V | 00:00:00 | 02:35:51 | 00:00:00 | |
| NBG1-10 | 2026-08-30 12:54:11 | 49.00726 | 10.42125 | 69° | 40km/h | 1715m | -6.7m/s | 11.2°C | 0% | 834.7hPa | 2.7V | 00:00:00 | 02:35:50 | 00:00:00 | |
| DO3MHA-12 | 2026-08-30 12:54:08 | 49.00711 | 10.42069 | 69° | 42km/h | 1742m | -6.9m/s | 11.2°C | 99.5% | 831.9hPa | 2.7V | 00:00:00 | 02:35:46 | 00:00:00 | |
| DB0ND-19 | 2026-08-30 12:53:58 | 49.00676 | 10.41939 | 66° | 38km/h | 1803m | -7.1m/s | 11.1°C | 89.1% | 825.7hPa | 2.7V | 00:00:00 | 00:00:00 | 00:00:00 | |
| DF3TZ-5 | 2026-08-30 12:53:46 | 49.00624 | 10.41765 | 67° | 42km/h | 1886m | -6.9m/s | 10.7°C | 87.5% | 817.5hPa | 2.7V | 00:00:00 | 00:00:00 | 00:00:00 | |
| DO3MHA-12 | 2026-08-30 12:53:42 | 49.00606 | 10.41704 | 63° | 44km/h | 1913m | -6.6m/s | 10.8°C | 84.9% | 814.7hPa | 2.7V | 00:00:00 | 02:35:21 | 00:00:00 | |
| DO3MHA-12 | 2026-08-30 12:53:37 | 49.00580 | 10.41628 | 62° | 46km/h | 1946m | -6.9m/s | 10.6°C | 83.8% | 811.6hPa | 2.7V | 00:00:00 | 02:35:16 | 00:00:00 | |
| DO3MHA-12 | 2026-08-30 12:53:32 | 49.00553 | 10.41548 | 62° | 47km/h | 1979m | -7.1m/s | 10.3°C | 85.0% | 808.4hPa | 2.7V | 00:00:00 | 02:35:11 | 00:00:00 | |
| DO3MHA-12 | 2026-08-30 12:53:27 | 49.00525 | 10.41468 | 61° | 49km/h | 2015m | -7.2m/s | 10.0°C | 85.6% | 804.9hPa | 2.7V | 00:00:00 | 02:35:06 | 00:00:00 | |
| DO3MHA-12 | 2026-08-30 12:53:22 | 49.00495 | 10.41384 | 62° | 53km/h | 2051m | -7.4m/s | 9.7°C | 86.8% | 801.4hPa | 2.7V | 00:00:00 | 02:35:01 | 00:00:00 | |
| DO3MHA-12 | 2026-08-30 12:53:17 | 49.00463 | 10.41297 | 61° | 53km/h | 2087m | -7.2m/s | 9.4°C | 86.9% | 797.9hPa | 2.7V | 00:00:00 | 02:34:56 | 00:00:00 | |
| DF3TZ-5 | 2026-08-30 12:53:15 | 49.00451 | 10.41260 | 62° | 53km/h | 2101m | -7.2m/s | 9.3°C | 86.6% | 796.6hPa | 2.7V | 00:00:00 | 00:00:00 | 00:00:00 | |
| DO3MHA-12 | 2026-08-30 12:53:12 | 49.00432 | 10.41206 | 63° | 53km/h | 2123m | -7.5m/s | 9.2°C | 86.8% | 794.4hPa | 2.7V | 00:00:00 | 02:34:51 | 00:00:00 | |
| DO3MHA-12 | 2026-08-30 12:53:07 | 49.00401 | 10.41113 | 64° | 55km/h | 2161m | -7.9m/s | 9.0°C | 84.7% | 790.9hPa | 2.7V | 07:55:00 | 02:34:46 | 00:00:00 | |
| NBG1-10 | 2026-08-30 12:53:05 | 49.00389 | 10.41076 | 64° | 53km/h | 2176m | -7.1m/s | 9.1°C | 82.7% | 789.5hPa | 2.7V | 00:00:00 | 02:34:44 | 00:00:00 | |
| DB0ND-19 | 2026-08-30 12:52:56 | 49.00333 | 10.40909 | 63° | 55km/h | 2243m | -7.6m/s | 9.0°C | 79.3% | 783.3hPa | 2.6V | 00:00:00 | 00:00:00 | 00:00:00 | |
| DO3MHA-12 | 2026-08-30 12:52:52 | 49.00310 | 10.40833 | 66° | 55km/h | 2272m | -7.2m/s | 8.7°C | 80.8% | 780.5hPa | 2.6V | 00:00:00 | 02:34:31 | 00:00:00 | |
| DK7TD | 2026-08-30 12:52:33 | 49.00202 | 10.40457 | 68° | 53km/h | 2408m | -6.5m/s | 7.6°C | 90.5% | 767.7hPa | 2.6V | 07:56:39 | 02:34:11 | 00:00:00 | |
| DK7TD | 2026-08-30 12:52:21 | 49.00147 | 10.40246 | 69° | 55km/h | 2481m | -7m/s | 7.1°C | 95.1% | 761hPa | 2.7V | 07:56:39 | 02:34:00 | 00:00:00 | |
| DK7TD | 2026-08-30 12:52:11 | 49.00105 | 10.40056 | 73° | 51km/h | 2550m | -6.7m/s | 6.5°C | 96.9% | 754.6hPa | 2.7V | 07:57:30 | 02:33:50 | 00:00:00 | |
| DK7TD | 2026-08-30 12:52:00 | 49.00065 | 10.39846 | 75° | 53km/h | 2624m | -7.3m/s | 5.9°C | 99.3% | 747.9hPa | 2.7V | 07:57:30 | 02:33:39 | 00:00:00 | |
| DK7TD | 2026-08-30 12:51:50 | 49.00034 | 10.39654 | 77° | 51km/h | 2687m | -6.1m/s | 5.4°C | 98.4% | 742hPa | 2.6V | 07:57:30 | 02:33:29 | 00:00:00 | |
| DK7TD | 2026-08-30 12:51:39 | 48.99998 | 10.39443 | 72° | 49km/h | 2756m | -6.4m/s | 4.9°C | 98.2% | 735.8hPa | 2.7V | 07:57:30 | 02:33:18 | 00:00:00 | |
| DK7TD | 2026-08-30 12:51:30 | 48.99955 | 10.39267 | 68° | 47km/h | 2819m | -6.2m/s | 5.5°C | 90% | 730.2hPa | 2.7V | 07:57:30 | 02:33:08 | 00:00:00 | |
| DK7TD | 2026-08-30 12:51:18 | 48.99898 | 10.39090 | 64° | 46km/h | 2890m | -6.5m/s | 5.8°C | 85.7% | 723.8hPa | 2.6V | 07:58:21 | 02:32:57 | 00:00:00 | |
| DK7TD | 2026-08-30 12:51:08 | 48.99845 | 10.38935 | 64° | 46km/h | 2955m | -6.7m/s | 5.4°C | 86% | 718.1hPa | 2.7V | 07:58:21 | 02:32:47 | 00:00:00 | |
| DK7TD | 2026-08-30 12:50:57 | 48.99787 | 10.38768 | 62° | 46km/h | 3026m | -6.3m/s | 4.7°C | 88.7% | 711.9hPa | 2.7V | 07:58:21 | 02:32:36 | 00:00:00 | |
| DK7TD | 2026-08-30 12:50:46 | 48.99724 | 10.38601 | 60° | 44km/h | 3099m | -6.5m/s | 4.1°C | 90.5% | 705.6hPa | 2.7V | 07:58:21 | 02:32:25 | 00:00:00 | |
| DK7TD | 2026-08-30 12:50:36 | 48.99669 | 10.38446 | 63° | 46km/h | 3166m | -6.6m/s | 3.6°C | 88.6% | 699.8hPa | 2.7V | 07:58:21 | 02:32:15 | 00:00:00 | |
| DK7TD | 2026-08-30 12:50:26 | 48.99608 | 10.38270 | 67° | 47km/h | 3240m | -6.8m/s | 3.5°C | 78.3% | 693.4hPa | 2.7V | 07:59:12 | 02:32:04 | 00:00:00 | |
| DK7TD | 2026-08-30 12:50:15 | 48.99560 | 10.38101 | 68° | 47km/h | 3308m | -6.8m/s | 3.2°C | 77% | 687.6hPa | 2.6V | 07:59:12 | 02:31:54 | 00:00:00 | |
| DK7TD | 2026-08-30 12:50:05 | 48.99521 | 10.37926 | 73° | 47km/h | 3376m | -7m/s | 3.4°C | 60.3% | 681.9hPa | 2.7V | 07:59:12 | 02:31:44 | 00:00:00 | |
| DK7TD | 2026-08-30 12:49:55 | 48.99488 | 10.37753 | 74° | 46km/h | 3444m | -6.8m/s | 3.6°C | 17.9% | 676.1hPa | 2.6V | 07:59:12 | 02:31:34 | 00:00:00 | |
| DB0ND-19 | 2026-08-30 12:49:50 | 48.99472 | 10.37666 | 75° | 47km/h | 3477m | -7.0m/s | 3.4°C | 14.2% | 673.3hPa | 2.7V | 00:00:00 | 00:00:00 | 00:00:00 | |
| DF7PN | 2026-08-30 12:49:46 | 48.99459 | 10.37596 | 73° | 46km/h | 3505m | -6.8m/s | 3.2°C | 14.3% | 671.0hPa | 2.7V | 00:00:00 | 00:00:00 | 00:00:00 | |
| DK7TD | 2026-08-30 12:49:44 | 48.99452 | 10.37561 | 74° | 47km/h | 3518m | -6.9m/s | 3.1°C | 17% | 670hPa | 2.7V | 07:59:12 | 02:31:23 | 00:00:00 | |
| DK7TD | 2026-08-30 12:49:33 | 48.99414 | 10.37370 | 71° | 47km/h | 3593m | -6.7m/s | 2.6°C | 21.9% | 663.8hPa | 2.7V | 08:00:03 | 02:31:12 | 00:00:00 | |
| DK7TD | 2026-08-30 12:49:24 | 48.99374 | 10.37200 | 69° | 46km/h | 3661m | -6.8m/s | 2.6°C | 19.2% | 658.3hPa | 2.6V | 08:00:03 | 02:31:02 | 00:00:00 | |
| DK7TD | 2026-08-30 12:49:12 | 48.99326 | 10.37019 | 70° | 46km/h | 3737m | -7m/s | 2.7°C | 9.2% | 652.1hPa | 2.7V | 08:00:03 | 02:30:51 | 00:00:00 | |
| DK7TD | 2026-08-30 12:49:02 | 48.99287 | 10.36853 | 71° | 47km/h | 3806m | -6.7m/s | 2.1°C | 9.4% | 646.7hPa | 2.7V | 08:00:03 | 02:30:41 | 00:00:00 | |
| DK7TD | 2026-08-30 12:48:51 | 48.99242 | 10.36671 | 69° | 46km/h | 3882m | -6.9m/s | 1.5°C | 8.4% | 640.5hPa | 2.6V | 08:00:03 | 02:30:30 | 00:00:00 | |
| DK7TD | 2026-08-30 12:48:41 | 48.99203 | 10.36511 | 71° | 44km/h | 3951m | -7m/s | 1.1°C | 8.9% | 635.1hPa | 2.7V | 08:00:54 | 02:30:20 | 00:00:00 | |
| DK7TD | 2026-08-30 12:48:30 | 48.99162 | 10.36340 | 71° | 42km/h | 4026m | -7.4m/s | 0.4°C | 8.1% | 629hPa | 2.7V | 08:00:54 | 02:30:09 | 00:00:00 | |
| DK7TD | 2026-08-30 12:48:19 | 48.99125 | 10.36173 | 71° | 42km/h | 4100m | -6.6m/s | -0.1°C | 5.1% | 623.2hPa | 2.7V | 08:00:54 | 02:29:58 | 00:00:00 | |
| DK7TD | 2026-08-30 12:48:09 | 48.99091 | 10.36018 | 73° | 44km/h | 4168m | -6.9m/s | -0.4°C | 3.6% | 618hPa | 2.6V | 08:00:54 | 02:29:48 | 00:00:00 | |
| DK7TD | 2026-08-30 12:47:58 | 48.99058 | 10.35838 | 76° | 46km/h | 4244m | -7.1m/s | -0.7°C | 6% | 612.1hPa | 2.6V | 08:00:54 | 02:29:37 | 00:00:00 | |
| DK7TD | 2026-08-30 12:47:48 | 48.99025 | 10.35672 | 73° | 46km/h | 4315m | -7.1m/s | -1.1°C | 4.2% | 606.7hPa | 2.6V | 08:01:45 | 02:29:27 | 00:00:00 | |
| DB0ND-19 | 2026-08-30 12:47:46 | 48.99015 | 10.35621 | 74° | 44km/h | 4335m | -6.9m/s | -1.3°C | 9.6% | 605.1hPa | 2.6V | 00:00:00 | 00:00:00 | 00:00:00 | |
| DK7TD | 2026-08-30 12:47:37 | 48.98988 | 10.35486 | 71° | 47km/h | 4394m | -7.5m/s | -1.7°C | 4.9% | 600.6hPa | 2.6V | 08:01:45 | 02:29:16 | 00:00:00 | |
| DK7TD | 2026-08-30 12:47:26 | 48.98949 | 10.35303 | 73° | 46km/h | 4474m | -7.6m/s | -2.4°C | 8.6% | 594.5hPa | 2.6V | 08:01:45 | 02:29:05 | 00:00:00 | |
| DK7TD | 2026-08-30 12:47:15 | 48.98915 | 10.35120 | 74° | 46km/h | 4557m | -7.7m/s | -3.1°C | 13% | 588.3hPa | 2.6V | 08:01:45 | 02:28:54 | 00:00:00 | |
| DK7TD | 2026-08-30 12:47:05 | 48.98881 | 10.34948 | 72° | 46km/h | 4633m | -7.8m/s | -3.7°C | 14.2% | 582.7hPa | 2.6V | 08:02:36 | 02:28:44 | 00:00:00 | |
| DK7TD | 2026-08-30 12:46:54 | 48.98844 | 10.34758 | 75° | 46km/h | 4717m | -8m/s | -4.1°C | 13.3% | 576.4hPa | 2.6V | 08:02:36 | 02:28:33 | 00:00:00 | |
| DK7TD | 2026-08-30 12:46:44 | 48.98815 | 10.34571 | 81° | 46km/h | 4803m | -7.5m/s | -4.7°C | 9.9% | 570.2hPa | 2.6V | 08:02:36 | 02:28:22 | 00:00:00 | |
| DK7TD | 2026-08-30 12:46:32 | 48.98791 | 10.34380 | 79° | 47km/h | 4889m | -8.6m/s | -4.9°C | 9.4% | 564hPa | 2.6V | 08:02:36 | 02:28:11 | 00:00:00 | |
| DK7TD | 2026-08-30 12:46:21 | 48.98767 | 10.34190 | 81° | 46km/h | 4975m | -7.9m/s | -5.3°C | 9.6% | 557.8hPa | 2.6V | 08:02:36 | 02:28:00 | 00:00:00 | |
| DK7TD | 2026-08-30 12:46:10 | 48.98752 | 10.34001 | 86° | 44km/h | 5060m | -8.2m/s | -5.8°C | 3.9% | 551.6hPa | 2.6V | 08:03:27 | 02:27:49 | 00:00:00 | |
| DK7TD | 2026-08-30 12:46:00 | 48.98746 | 10.33832 | 89° | 46km/h | 5145m | -8.3m/s | -6.1°C | 4.6% | 545.7hPa | 2.6V | 08:03:27 | 02:27:39 | 00:00:00 | |
| DK7TD | 2026-08-30 12:45:50 | 48.98745 | 10.33661 | 91° | 46km/h | 5229m | -8.4m/s | -6.8°C | 8.6% | 539.8hPa | 2.5V | 08:03:27 | 02:27:29 | 00:00:00 | |
| DK7TD | 2026-08-30 12:45:39 | 48.98744 | 10.33471 | 91° | 46km/h | 5324m | -8.4m/s | -7.5°C | 17.3% | 533.2hPa | 2.6V | 08:03:27 | 02:27:18 | 00:00:00 | |
| DK7TD | 2026-08-30 12:45:29 | 48.98743 | 10.33288 | 91° | 47km/h | 5410m | -8.8m/s | -8.3°C | 17.4% | 527.4hPa | 2.6V | 08:03:27 | 02:27:08 | 00:00:00 | |
| DK7TD | 2026-08-30 12:45:19 | 48.98745 | 10.33043 | 91° | 51km/h | 5525m | -8.6m/s | -9°C | 9.8% | 519.8hPa | 2.5V | 08:04:18 | 02:26:55 | 00:00:00 | |
| DK7TD | 2026-08-30 12:45:05 | 48.98743 | 10.32826 | 89° | 51km/h | 5619m | -8.6m/s | -9.6°C | 8.6% | 513.6hPa | 2.5V | 08:04:18 | 02:26:44 | 00:00:00 | |
| DK7TD | 2026-08-30 12:44:54 | 48.98740 | 10.32598 | 88° | 55km/h | 5720m | -9.1m/s | -10.2°C | 9.7% | 507.1hPa | 2.5V | 08:04:18 | 02:26:33 | 00:00:00 | |
| DK7TD | 2026-08-30 12:44:44 | 48.98734 | 10.32395 | 87° | 55km/h | 5813m | -9.4m/s | -10.9°C | 12% | 501hPa | 2.6V | 08:04:18 | 02:26:23 | 00:00:00 | |
| DK7TD | 2026-08-30 12:44:34 | 48.98724 | 10.32191 | 83° | 55km/h | 5907m | -9.7m/s | -11.7°C | 12.1% | 494.9hPa | 2.6V | 08:04:18 | 02:26:13 | 00:00:00 | |
| DK7TD | 2026-08-30 12:44:24 | 48.98713 | 10.31964 | 87° | 53km/h | 6009m | -8.9m/s | -12.6°C | 9.2% | 488.3hPa | 2.6V | 08:05:09 | 02:26:02 | 00:00:00 | |
| DK7TD | 2026-08-30 12:44:12 | 48.98701 | 10.31728 | 88° | 55km/h | 6114m | -9.4m/s | -13.5°C | 13.5% | 481.6hPa | 2.6V | 08:05:09 | 02:25:51 | 00:00:00 | |
| DK7TD | 2026-08-30 12:44:02 | 48.98693 | 10.31491 | 87° | 57km/h | 6223m | -10m/s | -14.3°C | 10.9% | 474.9hPa | 2.5V | 08:05:09 | 02:25:40 | 00:00:00 | |
| DK7TD | 2026-08-30 12:43:51 | 48.98682 | 10.31274 | 86° | 57km/h | 6318m | -8.7m/s | -15°C | 11.8% | 468.9hPa | 2.6V | 08:05:09 | 02:25:30 | 00:00:00 | |
| DK7TD | 2026-08-30 12:43:40 | 48.98674 | 10.31028 | 90° | 57km/h | 6422m | -9.1m/s | -15.7°C | 10.8% | 462.5hPa | 2.6V | 08:06:00 | 02:25:19 | 00:00:00 | |
| DK7TD | 2026-08-30 12:43:29 | 48.98670 | 10.30783 | 89° | 57km/h | 6522m | -9.2m/s | -16.4°C | 3.6% | 456.4hPa | 2.5V | 08:06:00 | 02:25:08 | 00:00:00 | |
| DK7TD | 2026-08-30 12:43:18 | 48.98670 | 10.30537 | 89° | 58km/h | 6623m | -9.6m/s | -17.1°C | 5.7% | 450hPa | 2.5V | 08:06:00 | 02:24:57 | 00:00:00 | |
| DK7TD | 2026-08-30 12:43:08 | 48.98661 | 10.30297 | 87° | 66km/h | 6721m | -10m/s | -17.8°C | 6.1% | 444.3hPa | 2.6V | 08:06:00 | 02:24:47 | 00:00:00 | |
| DK7TD | 2026-08-30 12:42:58 | 48.98651 | 10.30048 | 87° | 68km/h | 6820m | -10.3m/s | -18.4°C | 8.6% | 438.5hPa | 2.5V | 08:06:00 | 02:24:37 | 00:00:00 | |
| DK7TD | 2026-08-30 12:42:47 | 48.98643 | 10.29768 | 89° | 66km/h | 6930m | -10.5m/s | -19.1°C | 9.4% | 432.1hPa | 2.5V | 08:06:51 | 02:24:26 | 00:00:00 | |
| DK7TD | 2026-08-30 12:42:37 | 48.98634 | 10.29514 | 85° | 68km/h | 7031m | -9.8m/s | -19.9°C | 9.6% | 426.1hPa | 2.6V | 08:06:51 | 02:24:16 | 00:00:00 | |
| DK7TD | 2026-08-30 12:42:27 | 48.98614 | 10.29224 | 81° | 71km/h | 7145m | -10.6m/s | -20.7°C | 8.9% | 419.5hPa | 2.5V | 08:06:51 | 02:24:05 | 00:00:00 | |
| DK7TD | 2026-08-30 12:42:16 | 48.98591 | 10.28941 | 82° | 77km/h | 7254m | -10.5m/s | -21.5°C | 10.3% | 413.2hPa | 2.5V | 08:06:51 | 02:23:55 | 00:00:00 | |
| DK7TD | 2026-08-30 12:42:05 | 48.98566 | 10.28617 | 84° | 78km/h | 7373m | -11m/s | -22.4°C | 10.4% | 406.7hPa | 2.6V | 08:06:51 | 02:23:44 | 00:00:00 | |
| DK7TD | 2026-08-30 12:41:54 | 48.98545 | 10.28290 | 83° | 77km/h | 7492m | -10.7m/s | -23.3°C | 13.4% | 400.2hPa | 2.6V | 08:07:42 | 02:23:33 | 00:00:00 | |
| DF3TZ-5 | 2026-08-30 12:41:52 | 48.98541 | 10.28231 | 85° | 78km/h | 7513m | -11.9m/s | -23.4°C | 15.3% | 399.0hPa | 2.6V | 00:00:00 | 00:00:00 | 00:00:00 | |
| DL6DJ-15 | 2026-08-30 12:41:51 | 48.98538 | 10.28171 | 84° | 77km/h | 7536m | -10.5m/s | -23.6°C | 15.6% | 397.8hPa | 2.6V | 00:00:00 | 00:00:00 | 00:00:00 | |
| DL9SK-14 | 2026-08-30 12:41:50 | 48.98538 | 10.28171 | 84° | 77km/h | 7536m | -10.5m/s | -23.6°C | 15.6% | 397.8hPa | 2.6V | 00:00:00 | 00:00:00 | 00:00:00 | |
| DK7TD | 2026-08-30 12:41:43 | 48.98527 | 10.27968 | 84° | 75km/h | 7608m | -10.3m/s | -24.2°C | 22.9% | 394hPa | 2.6V | 08:07:42 | 02:23:22 | 00:00:00 | |
| DK7TD | 2026-08-30 12:41:33 | 48.98514 | 10.27678 | 88° | 77km/h | 7717m | -10.8m/s | -25.2°C | 27.9% | 388.1hPa | 2.5V | 08:07:42 | 02:23:12 | 00:00:00 | |
| DK7TD | 2026-08-30 12:41:22 | 48.98502 | 10.27354 | 88° | 78km/h | 7828m | -10.2m/s | -26.1°C | 26% | 382.1hPa | 2.6V | 08:07:42 | 02:23:01 | 00:00:00 | |
| DK7TD | 2026-08-30 12:41:12 | 48.98488 | 10.27049 | 87° | 82km/h | 7933m | -11.2m/s | -27°C | 21.1% | 376.6hPa | 2.6V | 08:07:42 | 02:22:51 | 00:00:00 | |
| DK7TD | 2026-08-30 12:41:01 | 48.98469 | 10.26706 | 85° | 84km/h | 8052m | -11.8m/s | -27.4°C | 35.9% | 370.6hPa | 2.5V | 08:08:33 | 02:22:40 | 00:00:00 | |
| DK7TD | 2026-08-30 12:40:50 | 48.98441 | 10.26355 | 82° | 86km/h | 8172m | -11.7m/s | -28.2°C | 20.3% | 364.4hPa | 2.5V | 08:08:33 | 02:22:29 | 00:00:00 | |
| DL6DJ-15 | 2026-08-30 12:40:49 | 48.98435 | 10.26289 | 82° | 86km/h | 8195m | -11.9m/s | -28.4°C | 15.7% | 363.3hPa | 2.6V | 00:00:00 | 00:00:00 | 00:00:00 | |
| DL9SK-14 | 2026-08-30 12:40:48 | 48.98435 | 10.26289 | 82° | 86km/h | 8195m | -11.9m/s | -28.4°C | 15.7% | 363.3hPa | 2.6V | 00:00:00 | 00:00:00 | 00:00:00 | |
| DK7TD | 2026-08-30 12:40:40 | 48.98408 | 10.26029 | 82° | 88km/h | 8284m | -11.3m/s | -29.1°C | 19.6% | 358.8hPa | 2.6V | 08:08:33 | 02:22:19 | 00:00:00 | |
| DK7TD | 2026-08-30 12:40:30 | 48.98372 | 10.25669 | 81° | 86km/h | 8401m | -11.1m/s | -29.8°C | 37.8% | 353hPa | 2.5V | 08:08:33 | 02:22:08 | 00:00:00 | |
| DM7RM-13 | 2026-08-30 12:40:29 | 48.98375 | 10.25701 | 83° | 86km/h | 8390m | -11.7m/s | -29.7°C | 29.8% | 353.6hPa | 2.5V | 08:08:00 | 00:00:00 | 00:00:00 | |
| DJ8HS-15 | 2026-08-30 12:40:28 | 48.98369 | 10.25636 | 82° | 89km/h | 8412m | -11.0m/s | -29.9°C | 35.5% | 352.4hPa | 2.5V | 00:00:00 | 02:22:07 | 00:00:00 | |
| DF7PN | 2026-08-30 12:40:27 | 48.98361 | 10.25570 | 80° | 86km/h | 8434m | -10.5m/s | -30.1°C | 35.8% | 351.4hPa | 2.6V | 00:00:00 | 00:00:00 | 00:00:00 | |
| DM0DOS-11 | 2026-08-30 12:40:22 | 48.98328 | 10.25268 | 81° | 88km/h | 8531m | -10.8m/s | -31°C | 42% | 346.3hPa | 2.6V | 08:08:34 | 02:21:56 | 00:00:00 | |
| DK7TD | 2026-08-30 12:40:19 | 48.98335 | 10.25336 | 80° | 88km/h | 8511m | -11m/s | -30.8°C | 45.7% | 347.4hPa | 2.6V | 08:08:33 | 02:21:58 | 00:00:00 | |
| DK7TD | 2026-08-30 12:40:08 | 48.98299 | 10.24961 | 83° | 93km/h | 8625m | -10.7m/s | -31.9°C | 55.7% | 341.8hPa | 2.5V | 08:09:24 | 02:21:47 | 00:00:00 | |
| DK7TD | 2026-08-30 12:39:57 | 48.98267 | 10.24568 | 84° | 97km/h | 8739m | -10.6m/s | -32.8°C | 67.4% | 336.3hPa | 2.5V | 08:09:24 | 02:21:36 | 00:00:00 | |
| DK7TD | 2026-08-30 12:39:47 | 48.98242 | 10.24208 | 85° | 93km/h | 8847m | -11.4m/s | -33.5°C | 72.5% | 331.4hPa | 2.6V | 08:09:24 | 02:21:26 | 00:00:00 | |
| DL9SK-14 | 2026-08-30 12:39:46 | 48.98238 | 10.24137 | 85° | 89km/h | 8868m | -11.4m/s | -33.6°C | 65.8% | 330.3hPa | 2.6V | 00:00:00 | 00:00:00 | 00:00:00 | |
| DK7TD | 2026-08-30 12:39:37 | 48.98222 | 10.23853 | 86° | 93km/h | 8954m | -11m/s | -34°C | 74.6% | 326.2hPa | 2.6V | 08:09:24 | 02:21:16 | 00:00:00 | |
| DK7TD | 2026-08-30 12:39:26 | 48.98198 | 10.23459 | 83° | 93km/h | 9067m | -10.5m/s | -34.8°C | 75.2% | 321hPa | 2.6V | 08:10:15 | 02:21:05 | 00:00:00 | |
| DK7TD | 2026-08-30 12:39:15 | 48.98173 | 10.23063 | 85° | 93km/h | 9187m | -10.9m/s | -35.8°C | 75.3% | 315.5hPa | 2.5V | 08:10:15 | 02:20:54 | 00:00:00 | |
| DB0UT-7 | 2026-08-30 12:39:15 | 48.98173 | 10.23063 | 86° | 91km/h | 9187m | -10.8m/s | -35.7°C | 72.0% | 315.5hPa | 2.5V | 00:00:00 | 02:20:54 | 00:00:00 | |
| DF1GD-15 | 2026-08-30 12:39:12 | 48.98169 | 10.22992 | 86° | 95km/h | 9209m | -11.6m/s | -36.0°C | 67.2% | 314.6hPa | 2.5V | 08:10:00 | 00:00:00 | 00:00:00 | |
| DO3MHA-12 | 2026-08-30 12:39:10 | 48.98162 | 10.22884 | 85° | 93km/h | 9244m | -11.4m/s | -36.2°C | 73.6% | 313.0hPa | 2.5V | 08:09:00 | 02:20:49 | 00:00:00 | |
| DG1MJG | 2026-08-30 12:39:09 | 48.98162 | 10.22884 | 86° | 93km/h | 9244m | -11.5m/s | -36.3°C | 68.2% | 313.1hPa | 2.5V | 08:10:00 | 00:00:00 | 00:00:00 | |
| DJ8HS-15 | 2026-08-30 12:39:08 | 48.98157 | 10.22814 | 83° | 91km/h | 9267m | -11.2m/s | -36.5°C | 74.3% | 311.9hPa | 2.5V | 00:00:00 | 02:20:47 | 00:00:00 | |
| DM7RM-13 | 2026-08-30 12:39:07 | 48.98157 | 10.22814 | 83° | 93km/h | 9267m | -11.2m/s | -36.5°C | 68.8% | 312.0hPa | 2.5V | 08:10:00 | 00:00:00 | 00:00:00 | |
| DM0DOS-11 | 2026-08-30 12:39:05 | 48.98147 | 10.22672 | 82° | 93km/h | 9311m | -11.1m/s | -36.9°C | 75.4% | 310hPa | 2.5V | 08:09:47 | 02:20:43 | 00:00:00 | |
| DK7TD | 2026-08-30 12:39:05 | 48.98149 | 10.22707 | 84° | 91km/h | 9301m | -11.3m/s | -36.8°C | 77.5% | 310.5hPa | 2.5V | 08:10:15 | 02:20:44 | 00:00:00 | |
| NBG1-10 | 2026-08-30 12:39:02 | 48.98142 | 10.22601 | 85° | 91km/h | 9333m | -11.1m/s | -37.1°C | 75.0% | 309.0hPa | 2.5V | 00:00:00 | 02:20:41 | 00:00:00 | |
| AZAK | 2026-08-30 12:39:01 | 48.98142 | 10.22601 | 85° | 89km/h | 9333m | -11.2m/s | -37.1°C | 69.4% | 309.0hPa | 2.5V | 08:10:00 | 00:00:00 | 00:00:00 | |
| DO3MHA-12 | 2026-08-30 12:39:00 | 48.98136 | 10.22531 | 85° | 91km/h | 9356m | -11.3m/s | -37.2°C | 75.3% | 308.0hPa | 2.5V | 00:00:00 | 02:20:39 | 00:00:00 | |
| DM0DOS-11 | 2026-08-30 12:38:59 | 48.98122 | 10.22322 | 85° | 89km/h | 9419m | -11m/s | -37.9°C | 74.8% | 305.1hPa | 2.5V | 08:09:57 | 02:20:33 | 00:00:00 | |
| DK7TD | 2026-08-30 12:38:55 | 48.98124 | 10.22357 | 85° | 93km/h | 9408m | -11.4m/s | -37.8°C | 77.1% | 305.7hPa | 2.5V | 08:10:15 | 02:20:34 | 00:00:00 | |
| DF7PN | 2026-08-30 12:38:53 | 48.98120 | 10.22287 | 83° | 89km/h | 9429m | -10.6m/s | -38.0°C | 68.7% | 304.7hPa | 2.5V | 00:00:00 | 00:00:00 | 00:00:00 | |
| DF1GD-15 | 2026-08-30 12:38:52 | 48.98120 | 10.22287 | 85° | 91km/h | 9429m | -10.6m/s | -38.0°C | 68.7% | 304.7hPa | 2.5V | 08:10:00 | 00:00:00 | 00:00:00 | |
| DO3MHA-12 | 2026-08-30 12:38:50 | 48.98114 | 10.22182 | 85° | 91km/h | 9462m | -10.6m/s | -38.2°C | 73.5% | 303.2hPa | 2.5V | 00:00:00 | 02:20:29 | 00:00:00 | |
| DM0DOS-11 | 2026-08-30 12:38:48 | 48.98105 | 10.21940 | 87° | 93km/h | 9537m | -11.4m/s | -38.8°C | 71% | 300hPa | 2.5V | 08:10:08 | 02:20:22 | 00:00:00 | |
| DK7TD | 2026-08-30 12:38:44 | 48.98106 | 10.21975 | 86° | 89km/h | 9527m | -11.3m/s | -38.7°C | 73.1% | 300.5hPa | 2.5V | 08:10:15 | 02:20:23 | 00:00:00 | |
| DK7TD | 2026-08-30 12:38:33 | 48.98102 | 10.21583 | 91° | 97km/h | 9640m | -10.7m/s | -39.5°C | 70.9% | 295.4hPa | 2.5V | 08:11:06 | 02:20:12 | 00:00:00 | |
| DK7TD | 2026-08-30 12:38:22 | 48.98103 | 10.21179 | 90° | 97km/h | 9754m | -10.3m/s | -40.4°C | 67.4% | 290.6hPa | 2.6V | 08:11:06 | 02:20:01 | 00:00:00 | |
| AZAK | 2026-08-30 12:38:20 | 48.98103 | 10.21068 | 92° | 95km/h | 9784m | -10.0m/s | -40.7°C | 60.1% | 289.4hPa | 2.5V | 08:11:00 | 00:00:00 | 00:00:00 | |
| DB0UT-7 | 2026-08-30 12:38:15 | 48.98104 | 10.20920 | 91° | 97km/h | 9824m | -10.6m/s | -41.0°C | 66.4% | 287.6hPa | 2.5V | 00:00:00 | 02:19:54 | 00:00:00 | |
| DM0DOS-11 | 2026-08-30 12:38:13 | 48.98105 | 10.20662 | 90° | 99km/h | 9896m | -11.2m/s | -41.7°C | 67.1% | 284.5hPa | 2.5V | 08:10:43 | 02:19:47 | 00:00:00 | |
| DK7TD | 2026-08-30 12:38:12 | 48.98105 | 10.20810 | 91° | 95km/h | 9854m | -10.4m/s | -41.3°C | 68.8% | 286.3hPa | 2.5V | 08:11:06 | 02:19:51 | 00:00:00 | |
| DF1GD-15 | 2026-08-30 12:38:11 | 48.98105 | 10.20773 | 91° | 97km/h | 9865m | -10.8m/s | -41.4°C | 60.6% | 285.9hPa | 2.6V | 08:11:00 | 00:00:00 | 00:00:00 | |
| DO3MHA-12 | 2026-08-30 12:38:10 | 48.98105 | 10.20736 | 92° | 97km/h | 9876m | -10.5m/s | -41.4°C | 66.6% | 285.4hPa | 2.6V | 00:00:00 | 02:19:49 | 00:00:00 | |
| DG1MJG | 2026-08-30 12:38:08 | 48.98105 | 10.20662 | 92° | 99km/h | 9896m | -11.2m/s | -41.7°C | 61.2% | 284.5hPa | 2.6V | 08:11:00 | 00:00:00 | 00:00:00 | |
| DM7RM-13 | 2026-08-30 12:38:04 | 48.98106 | 10.20549 | 92° | 97km/h | 9929m | -10.3m/s | -41.9°C | 62.0% | 283.2hPa | 2.6V | 08:11:00 | 00:00:00 | 00:00:00 | |
| DM0DOS-11 | 2026-08-30 12:38:02 | 48.98108 | 10.20286 | 89° | 97km/h | 10001m | -10.5m/s | -42.6°C | 69.3% | 280.3hPa | 2.6V | 08:10:53 | 02:19:37 | 00:00:00 | |
| DK7TD | 2026-08-30 12:38:01 | 48.98107 | 10.20399 | 91° | 97km/h | 9970m | -10.2m/s | -42.3°C | 71.3% | 281.5hPa | 2.5V | 08:11:06 | 02:19:40 | 00:00:00 | |
| DL1ZP-14 | 2026-08-30 12:37:58 | 48.98108 | 10.20248 | 90° | 99km/h | 10011m | -11.2m/s | -42.7°C | 63.2% | 279.8hPa | 2.5V | 00:00:00 | 00:00:00 | 00:00:00 | |
| NBG1-10 | 2026-08-30 12:37:56 | 48.98108 | 10.20210 | 91° | 102km/h | 10022m | -10.2m/s | -42.7°C | 69.4% | 279.3hPa | 2.5V | 08:10:00 | 02:19:35 | 00:00:00 | |
| DJTTGO | 2026-08-30 12:37:55 | 48.98108 | 10.20210 | 92° | 97km/h | 10022m | -10.3m/s | -42.8°C | 63.2% | 279.4hPa | 2.6V | 08:11:00 | 00:00:00 | 00:00:00 | |
| DM0DOS-11 | 2026-08-30 12:37:53 | 48.98109 | 10.19910 | 91° | 97km/h | 10103m | -10.3m/s | -43.5°C | 69.9% | 276hPa | 2.6V | 08:11:03 | 02:19:27 | 00:00:00 | |
| DK7TD | 2026-08-30 12:37:50 | 48.98108 | 10.19986 | 91° | 97km/h | 10082m | -10.5m/s | -43.3°C | 72% | 276.9hPa | 2.5V | 08:11:06 | 02:19:29 | 00:00:00 | |
| DO3MHA-12 | 2026-08-30 12:37:50 | 48.98108 | 10.19986 | 91° | 99km/h | 10082m | -10.4m/s | -43.2°C | 69.5% | 276.8hPa | 2.5V | 00:00:00 | 02:19:29 | 00:00:00 | |
| DJ8HS-15 | 2026-08-30 12:37:48 | 48.98109 | 10.19910 | 92° | 102km/h | 10103m | -10.3m/s | -43.4°C | 69.9% | 276.0hPa | 2.5V | 00:00:00 | 02:19:27 | 00:00:00 | |
| DB0UT-7 | 2026-08-30 12:37:45 | 48.98110 | 10.19796 | 91° | 106km/h | 10134m | -10.6m/s | -43.7°C | 69.9% | 274.7hPa | 2.5V | 00:00:00 | 00:00:00 | 00:00:00 | |
| DF3TZ-5 | 2026-08-30 12:37:44 | 48.98112 | 10.19643 | 91° | 97km/h | 10178m | -10.7m/s | -44.2°C | 63.6% | 273.0hPa | 2.5V | 00:00:00 | 00:00:00 | 00:00:00 | |
| DM0DOS-11 | 2026-08-30 12:37:43 | 48.98113 | 10.19527 | 90° | 100km/h | 10211m | -11.1m/s | -44.5°C | 70.2% | 271.7hPa | 2.5V | 08:11:13 | 02:19:17 | 00:00:00 | |
| DK7TD | 2026-08-30 12:37:39 | 48.98113 | 10.19566 | 92° | 100km/h | 10200m | -11m/s | -44.3°C | 73% | 272.1hPa | 2.5V | 08:11:57 | 02:19:18 | 00:00:00 | |
| DG1MJG | 2026-08-30 12:37:37 | 48.98113 | 10.19527 | 91° | 100km/h | 10211m | -11.1m/s | -44.5°C | 63.5% | 271.7hPa | 2.5V | 08:11:00 | 00:00:00 | 00:00:00 | |
| AZAK | 2026-08-30 12:37:36 | 48.98114 | 10.19488 | 93° | 104km/h | 10222m | -10.8m/s | -44.6°C | 63.5% | 271.2hPa | 2.5V | 08:11:00 | 00:00:00 | 00:00:00 | |
| DJTTGO | 2026-08-30 12:37:35 | 48.98114 | 10.19449 | 93° | 100km/h | 10233m | -11.2m/s | -44.7°C | 63.3% | 270.8hPa | 2.5V | 00:00:00 | 00:00:00 | 00:00:00 | |
| DM0DOS-11 | 2026-08-30 12:37:30 | 48.98122 | 10.19130 | 92° | 108km/h | 10322m | -11.5m/s | -45.3°C | 67.5% | 267.2hPa | 2.5V | 08:11:23 | 02:19:07 | 00:00:00 | |
| DK7TD | 2026-08-30 12:37:29 | 48.98121 | 10.19170 | 93° | 104km/h | 10311m | -10.9m/s | -45.3°C | 70.2% | 267.6hPa | 2.5V | 08:11:57 | 02:19:08 | 00:00:00 | |
| DK7TD | 2026-08-30 12:37:18 | 48.98134 | 10.18709 | 93° | 115km/h | 10429m | -10.7m/s | -46.1°C | 70.4% | 262.9hPa | 2.5V | 08:11:57 | 02:18:57 | 00:00:00 | |
| AZAK | 2026-08-30 12:37:16 | 48.98135 | 10.18665 | 94° | 111km/h | 10440m | -10.9m/s | -46.1°C | 60.7% | 262.5hPa | 2.6V | 08:11:00 | 00:00:00 | 00:00:00 | |
| DB0UT-7 | 2026-08-30 12:37:15 | 48.98138 | 10.18577 | 93° | 119km/h | 10462m | -11.2m/s | -46.2°C | 67.2% | 261.6hPa | 2.6V | 00:00:00 | 02:18:54 | 00:00:00 | |
| DM0DOS-11 | 2026-08-30 12:37:10 | 48.98145 | 10.18356 | 92° | 117km/h | 10516m | -11.1m/s | -46.6°C | 67% | 259.5hPa | 2.6V | 08:11:41 | 02:18:49 | 00:00:00 | |
| DK7TD | 2026-08-30 12:37:07 | 48.98150 | 10.18222 | 94° | 115km/h | 10549m | -10.6m/s | -46.7°C | 66.9% | 258.2hPa | 2.5V | 08:11:57 | 02:18:46 | 00:00:00 | |
| DM7RM-13 | 2026-08-30 12:37:02 | 48.98156 | 10.18040 | 94° | 117km/h | 10591m | -10.5m/s | -47.1°C | 57.3% | 256.6hPa | 2.6V | 08:11:00 | 00:00:00 | 00:00:00 | |
| DM0DOS-11 | 2026-08-30 12:37:00 | 48.98161 | 10.17903 | 92° | 120km/h | 10623m | -12m/s | -47.4°C | 64.3% | 255.3hPa | 2.6V | 08:11:51 | 02:18:39 | 00:00:00 | |
| DK7TD | 2026-08-30 12:36:56 | 48.98166 | 10.17718 | 93° | 119km/h | 10668m | -11.6m/s | -47.7°C | 68.2% | 253.7hPa | 2.5V | 08:11:57 | 02:18:35 | 00:00:00 | |
| DK7TD | 2026-08-30 12:36:46 | 48.98178 | 10.17262 | 91° | 119km/h | 10777m | -11.4m/s | -48.7°C | 67.4% | 249.5hPa | 2.5V | 08:12:48 | 02:18:25 | 00:00:00 | |
| DB0UT-7 | 2026-08-30 12:36:45 | 48.98178 | 10.17216 | 91° | 117km/h | 10788m | -10.8m/s | -48.7°C | 64.0% | 248.9hPa | 2.5V | 00:00:00 | 00:00:00 | 00:00:00 | |
| DM0DOS-11 | 2026-08-30 12:36:40 | 48.98180 | 10.16988 | 90° | 117km/h | 10842m | -11.1m/s | -49.2°C | 64.1% | 247hPa | 2.5V | 08:12:11 | 02:18:19 | 00:00:00 | |
| DK7TD | 2026-08-30 12:36:35 | 48.98186 | 10.16761 | 93° | 117km/h | 10898m | -10.7m/s | -49.6°C | 68.6% | 244.9hPa | 2.5V | 08:12:48 | 02:18:14 | 00:00:00 | |
| AZAK | 2026-08-30 12:36:34 | 48.98186 | 10.16761 | 94° | 117km/h | 10898m | -10.7m/s | -49.6°C | 58.1% | 244.9hPa | 2.5V | 08:12:00 | 00:00:00 | 00:00:00 | |
| DM0DOS-11 | 2026-08-30 12:36:30 | 48.98192 | 10.16536 | 91° | 119km/h | 10954m | -12.4m/s | -50.1°C | 68.1% | 242.8hPa | 2.5V | 08:12:21 | 02:18:09 | 00:00:00 | |
| DK7TD | 2026-08-30 12:36:24 | 48.98197 | 10.16265 | 92° | 117km/h | 11022m | -11.5m/s | -50.6°C | 73.3% | 240.3hPa | 2.5V | 08:12:48 | 02:18:03 | 00:00:00 | |
| DM0DOS-11 | 2026-08-30 12:36:23 | 48.98199 | 10.16088 | 90° | 115km/h | 11065m | -11.3m/s | -50.9°C | 68.4% | 238.7hPa | 2.5V | 08:12:31 | 02:17:59 | 00:00:00 | |
| DK7TD | 2026-08-30 12:36:14 | 48.98202 | 10.15817 | 91° | 117km/h | 11130m | -11.1m/s | -51.4°C | 67.2% | 236.3hPa | 2.5V | 08:12:48 | 02:17:53 | 00:00:00 | |
| DM0DOS-11 | 2026-08-30 12:36:12 | 48.98200 | 10.15499 | 89° | 120km/h | 11204m | -11.8m/s | -51.8°C | 59.7% | 233.6hPa | 2.6V | 08:12:44 | 02:17:46 | 00:00:00 | |
| DK7TD | 2026-08-30 12:36:04 | 48.98200 | 10.15360 | 90° | 120km/h | 11237m | -10.5m/s | -52.1°C | 65.3% | 232.4hPa | 2.5V | 08:12:48 | 02:17:43 | 00:00:00 | |
| DK7TD | 2026-08-30 12:35:53 | 48.98193 | 10.14847 | 89° | 124km/h | 11357m | -11.2m/s | -53°C | 67.7% | 228.1hPa | 2.5V | 08:13:39 | 02:17:32 | 00:00:00 | |
| DB0ND-19 | 2026-08-30 12:35:52 | 48.98193 | 10.14800 | 89° | 120km/h | 11368m | -10.8m/s | -53.1°C | 56.1% | 227.7hPa | 2.5V | 00:00:00 | 00:00:00 | 00:00:00 | |
| DF7PN | 2026-08-30 12:35:47 | 48.98190 | 10.14562 | 88° | 122km/h | 11425m | -10.9m/s | -53.5°C | 56.0% | 225.8hPa | 2.5V | 00:00:00 | 00:00:00 | 00:00:00 | |
| DK7TD | 2026-08-30 12:35:42 | 48.98188 | 10.14325 | 89° | 126km/h | 11477m | -10.7m/s | -54°C | 66.7% | 223.9hPa | 2.5V | 08:13:39 | 02:17:21 | 00:00:00 | |
| DO3MHA-12 | 2026-08-30 12:35:40 | 48.98187 | 10.14229 | 90° | 124km/h | 11497m | -10.9m/s | -54.1°C | 63.5% | 223.1hPa | 2.6V | 00:00:00 | 02:17:19 | 00:00:00 | |
| DM0DOS-11 | 2026-08-30 12:35:38 | 48.98186 | 10.14086 | 89° | 126km/h | 11529m | -10.7m/s | -54.5°C | 62.7% | 222hPa | 2.5V | 08:13:14 | 02:17:16 | 00:00:00 | |
| DK7TD | 2026-08-30 12:35:32 | 48.98183 | 10.13847 | 89° | 124km/h | 11584m | -11m/s | -54.9°C | 62.9% | 220.2hPa | 2.5V | 08:13:39 | 02:17:11 | 00:00:00 | |
| DO3MHA-12 | 2026-08-30 12:35:30 | 48.98182 | 10.13752 | 89° | 124km/h | 11605m | -9.9m/s | -55.1°C | 59.3% | 219.4hPa | 2.5V | 00:00:00 | 02:17:09 | 00:00:00 | |
| DM0DOS-11 | 2026-08-30 12:35:28 | 48.98179 | 10.13610 | 87° | 124km/h | 11638m | -12m/s | -55.4°C | 57.3% | 218.4hPa | 2.5V | 08:13:24 | 02:17:06 | 00:00:00 | |
| DK7TD | 2026-08-30 12:35:21 | 48.98170 | 10.13321 | 88° | 126km/h | 11704m | -11.1m/s | -55.9°C | 57.3% | 216.1hPa | 2.5V | 08:13:39 | 02:17:00 | 00:00:00 | |
| DO3MHA-12 | 2026-08-30 12:35:20 | 48.98169 | 10.13272 | 88° | 128km/h | 11715m | -11.0m/s | -55.9°C | 54.5% | 215.7hPa | 2.5V | 00:00:00 | 02:16:59 | 00:00:00 | |
| DM7RM-13 | 2026-08-30 12:35:19 | 48.98169 | 10.13272 | 88° | 128km/h | 11715m | -11.0m/s | -56.0°C | 46.5% | 215.7hPa | 2.5V | 00:00:00 | 00:00:00 | 00:00:00 | |
| DM0DOS-11 | 2026-08-30 12:35:18 | 48.98166 | 10.13124 | 87° | 128km/h | 11748m | -11.6m/s | -56.2°C | 53% | 214.5hPa | 2.5V | 08:13:34 | 02:16:56 | 00:00:00 | |
| DK7TD | 2026-08-30 12:35:10 | 48.98161 | 10.12780 | 89° | 128km/h | 11824m | -10.7m/s | -56.7°C | 52.2% | 212hPa | 2.5V | 08:14:30 | 02:16:49 | 00:00:00 | |
| DO3MHA-12 | 2026-08-30 12:35:10 | 48.98161 | 10.12780 | 89° | 128km/h | 11825m | -10.7m/s | -56.7°C | 50.3% | 211.9hPa | 2.5V | 00:00:00 | 02:16:49 | 00:00:00 | |
| DM0DOS-11 | 2026-08-30 12:35:07 | 48.98161 | 10.12633 | 90° | 128km/h | 11856m | -11.1m/s | -57°C | 49.1% | 210.9hPa | 2.6V | 08:13:44 | 02:16:46 | 00:00:00 | |
| DF1GD-15 | 2026-08-30 12:35:07 | 48.98160 | 10.12633 | 92° | 128km/h | 11856m | -11.1m/s | -57.0°C | 41.2% | 210.9hPa | 2.6V | 08:14:00 | 00:00:00 | 00:00:00 | |
| DL9SK-14 | 2026-08-30 12:35:06 | 48.98161 | 10.12584 | 89° | 126km/h | 11867m | -11.2m/s | -57.1°C | 40.6% | 210.6hPa | 2.6V | 00:00:00 | 00:00:00 | 00:00:00 | |
| DG1MJG | 2026-08-30 12:35:04 | 48.98161 | 10.12535 | 92° | 126km/h | 11878m | -11.4m/s | -57.2°C | 40.2% | 210.2hPa | 2.6V | 08:14:00 | 00:00:00 | 00:00:00 | |
| DM0DOS-11 | 2026-08-30 12:35:02 | 48.98162 | 10.12143 | 88° | 128km/h | 11969m | -11.1m/s | -57.9°C | 44.7% | 207.2hPa | 2.6V | 08:13:54 | 02:16:36 | 00:00:00 | |
| DK7TD | 2026-08-30 12:34:59 | 48.98163 | 10.12242 | 90° | 130km/h | 11946m | -12m/s | -57.8°C | 45.8% | 208hPa | 2.5V | 08:14:30 | 02:16:38 | 00:00:00 | |
| DM7RM-13 | 2026-08-30 12:34:58 | 48.98163 | 10.12242 | 91° | 130km/h | 11946m | -12.0m/s | -57.8°C | 37.6% | 208.0hPa | 2.5V | 08:14:00 | 00:00:00 | 00:00:00 | |
| DM0DOS-11 | 2026-08-30 12:34:52 | 48.98162 | 10.11664 | 91° | 122km/h | 12078m | -12m/s | -58.7°C | 37.8% | 203.6hPa | 2.5V | 08:14:04 | 02:16:26 | 00:00:00 | |
| DK7TD | 2026-08-30 12:34:49 | 48.98160 | 10.11758 | 92° | 124km/h | 12056m | -10.7m/s | -58.6°C | 38.1% | 204.3hPa | 2.5V | 08:14:30 | 02:16:28 | 00:00:00 | |
| DJ8HS-15 | 2026-08-30 12:34:48 | 48.98161 | 10.11710 | 92° | 110km/h | 12067m | -11.4m/s | -58.6°C | 38.7% | 203.9hPa | 2.5V | 00:00:00 | 02:16:27 | 00:00:00 | |
| DJTTGO | 2026-08-30 12:34:47 | 48.98161 | 10.11710 | 93° | 122km/h | 12067m | -11.5m/s | -58.6°C | 31.2% | 204.0hPa | 2.5V | 00:00:00 | 00:00:00 | 00:00:00 | |
| DF1GD-15 | 2026-08-30 12:34:46 | 48.98163 | 10.11617 | 93° | 120km/h | 12091m | -12.3m/s | -58.7°C | 29.7% | 203.2hPa | 2.5V | 08:14:00 | 00:00:00 | 00:00:00 | |
| DF7PN | 2026-08-30 12:34:45 | 48.98167 | 10.11525 | 94° | 117km/h | 12114m | -11.7m/s | -58.6°C | 28.0% | 202.5hPa | 2.5V | 00:00:00 | 00:00:00 | 00:00:00 | |
| DB0UT-7 | 2026-08-30 12:34:43 | 48.98169 | 10.11480 | 96° | 104km/h | 12125m | -10.4m/s | -58.6°C | 33.9% | 202.1hPa | 2.5V | 00:00:00 | 00:00:00 | 00:00:00 | |
| DM0DOS-11 | 2026-08-30 12:34:41 | 48.98186 | 10.11225 | 95° | 108km/h | 12190m | -11.4m/s | -58.4°C | 26.2% | 200hPa | 2.5V | 08:14:14 | 02:16:16 | 00:00:00 | |
| DK7TD | 2026-08-30 12:34:38 | 48.98184 | 10.11266 | 95° | 108km/h | 12180m | -11m/s | -58.4°C | 25.8% | 200.3hPa | 2.6V | 08:14:30 | 02:16:17 | 00:00:00 | |
| NBG1-10 | 2026-08-30 12:34:38 | 48.98184 | 10.11266 | 96° | 102km/h | 12180m | -10.9m/s | -58.4°C | 27.3% | 200.3hPa | 2.6V | 00:00:00 | 02:16:17 | 00:00:00 | |
| DF3TZ-5 | 2026-08-30 12:34:37 | 48.98186 | 10.11225 | 95° | 106km/h | 12190m | -11.4m/s | -58.4°C | 20.1% | 200.0hPa | 2.5V | 00:00:00 | 00:00:00 | 00:00:00 | |
| DL9SK-14 | 2026-08-30 12:34:35 | 48.98192 | 10.11144 | 95° | 104km/h | 12212m | -11.2m/s | -58.2°C | 18.1% | 199.2hPa | 2.5V | 00:00:00 | 00:00:00 | 00:00:00 | |
| DG1MJG | 2026-08-30 12:34:33 | 48.98194 | 10.11104 | 96° | 104km/h | 12224m | -11.9m/s | -58.1°C | 17.3% | 198.9hPa | 2.5V | 08:14:00 | 00:00:00 | 00:00:00 | |
| DM0DOS-11 | 2026-08-30 12:34:31 | 48.98201 | 10.10837 | 89° | 99km/h | 12305m | -12.3m/s | -57.9°C | 18.1% | 196.3hPa | 2.5V | 08:14:24 | 02:16:06 | 00:00:00 | |
| DK7TD | 2026-08-30 12:34:28 | 48.98201 | 10.10874 | 91° | 99km/h | 12293m | -12.1m/s | -57.9°C | 17.1% | 196.7hPa | 2.6V | 08:14:30 | 02:16:07 | 00:00:00 | |
| DJ8HS-15 | 2026-08-30 12:34:28 | 48.98201 | 10.10874 | 91° | 100km/h | 12293m | -12.0m/s | -57.8°C | 18.7% | 196.6hPa | 2.6V | 00:00:00 | 02:16:07 | 00:00:00 | |
| DF1GD-15 | 2026-08-30 12:34:24 | 48.98200 | 10.10761 | 89° | 100km/h | 12329m | -11.7m/s | -57.9°C | 12.0% | 195.6hPa | 2.5V | 08:14:00 | 00:00:00 | 00:00:00 | |
| DM0DOS-11 | 2026-08-30 12:34:21 | 48.98185 | 10.10448 | 83° | 104km/h | 12423m | -12.6m/s | -57.8°C | 12.8% | 192.7hPa | 2.5V | 08:14:34 | 02:15:56 | 00:00:00 | |
| DK7TD | 2026-08-30 12:34:17 | 48.98184 | 10.10448 | 84° | 104km/h | 12423m | -12.6m/s | -57.8°C | 10.4% | 192.7hPa | 2.5V | 08:15:21 | 02:15:56 | 00:00:00 | |
| DF7PN | 2026-08-30 12:34:14 | 48.98171 | 10.10293 | 81° | 100km/h | 12470m | -11.7m/s | -57.1°C | 7.0% | 191.3hPa | 2.5V | 00:00:00 | 00:00:00 | 00:00:00 | |
| DB0UT-7 | 2026-08-30 12:34:13 | 48.98171 | 10.10293 | 82° | 106km/h | 12470m | -11.7m/s | -57.0°C | 11.0% | 191.3hPa | 2.5V | 00:00:00 | 02:15:52 | 00:00:00 | |
| DM0DOS-11 | 2026-08-30 12:34:11 | 48.98144 | 10.10062 | 78° | 106km/h | 12540m | -12.1m/s | -55.9°C | 9.4% | 189.1hPa | 2.5V | 08:14:44 | 02:15:46 | 00:00:00 | |
| DK7TD | 2026-08-30 12:34:07 | 48.98144 | 10.10062 | 79° | 106km/h | 12540m | -12.1m/s | -55.9°C | 7.7% | 189.1hPa | 2.5V | 08:15:21 | 02:15:46 | 00:00:00 | |
| DF3TZ-5 | 2026-08-30 12:34:06 | 48.98138 | 10.10022 | 77° | 104km/h | 12552m | -12.1m/s | -55.9°C | 5.8% | 188.8hPa | 2.5V | 00:00:00 | 00:00:00 | 00:00:00 | |
| NBG1-10 | 2026-08-30 12:34:05 | 48.98132 | 10.09982 | 78° | 111km/h | 12564m | -12.1m/s | -55.9°C | 9.3% | 188.5hPa | 2.5V | 00:00:00 | 02:15:44 | 00:00:00 | |
| DF1GD-15 | 2026-08-30 12:34:04 | 48.98127 | 10.09942 | 80° | 106km/h | 12576m | -12.2m/s | -56.0°C | 5.7% | 188.1hPa | 2.5V | 08:15:00 | 00:00:00 | 00:00:00 | |
| DM0DOS-11 | 2026-08-30 12:34:01 | 48.98090 | 10.09663 | 77° | 106km/h | 12661m | -12.6m/s | -56.2°C | 9.2% | 185.6hPa | 2.5V | 08:14:54 | 02:15:36 | 00:00:00 | |
| DK7TD | 2026-08-30 12:33:56 | 48.98084 | 10.09624 | 78° | 106km/h | 12673m | -11.4m/s | -56.2°C | 7.3% | 185.3hPa | 2.6V | 08:15:21 | 02:15:35 | 00:00:00 | |
| DM0DOS-11 | 2026-08-30 12:33:51 | 48.98037 | 10.09255 | 78° | 113km/h | 12782m | -12.2m/s | -56°C | 8.7% | 182.1hPa | 2.5V | 08:15:04 | 02:15:26 | 00:00:00 | |
| DK7TD | 2026-08-30 12:33:46 | 48.98031 | 10.09213 | 80° | 111km/h | 12795m | -12.4m/s | -56.1°C | 7% | 181.8hPa | 2.6V | 08:15:21 | 02:15:25 | 00:00:00 | |
| DF7PN | 2026-08-30 12:33:43 | 48.98011 | 10.09041 | 80° | 115km/h | 12842m | -13.1m/s | -56.4°C | 5.4% | 180.4hPa | 2.5V | 00:00:00 | 00:00:00 | 00:00:00 | |
| DM0DOS-11 | 2026-08-30 12:33:41 | 48.97989 | 10.08822 | 81° | 117km/h | 12906m | -12.7m/s | -56.4°C | 8.6% | 178.6hPa | 2.5V | 08:15:14 | 02:15:16 | 00:00:00 | |
| DK7TD | 2026-08-30 12:33:36 | 48.97985 | 10.08778 | 83° | 115km/h | 12918m | -12.5m/s | -56.5°C | 6.3% | 178.2hPa | 2.6V | 08:15:21 | 02:15:15 | 00:00:00 | |
| DF3TZ-5 | 2026-08-30 12:33:35 | 48.97981 | 10.08734 | 82° | 117km/h | 12930m | -12.9m/s | -56.5°C | 5.0% | 177.9hPa | 2.5V | 00:00:00 | 00:00:00 | 00:00:00 | |
| DL9SK-14 | 2026-08-30 12:33:34 | 48.97974 | 10.08645 | 84° | 115km/h | 12955m | -12.6m/s | -56.6°C | 5.0% | 177.2hPa | 2.5V | 00:00:00 | 00:00:00 | 00:00:00 | |
| NBG1-10 | 2026-08-30 12:33:32 | 48.97971 | 10.08601 | 85° | 104km/h | 12968m | -13.4m/s | -56.6°C | 8.5% | 176.8hPa | 2.5V | 00:00:00 | 02:15:11 | 00:00:00 | |
| DM0DOS-11 | 2026-08-30 12:33:31 | 48.97958 | 10.08383 | 86° | 113km/h | 13031m | -12.5m/s | -56.6°C | 8.1% | 175.1hPa | 2.5V | 08:15:24 | 02:15:06 | 00:00:00 | |
| DK7TD | 2026-08-30 12:33:25 | 48.97954 | 10.08296 | 86° | 113km/h | 13055m | -12.2m/s | -56.3°C | 5.2% | 174.4hPa | 2.6V | 08:17:03 | 02:15:04 | 00:00:00 | |
| DF1GD-15 | 2026-08-30 12:33:22 | 48.97950 | 10.08210 | 88° | 111km/h | 13080m | -12.3m/s | -56.2°C | 4.3% | 173.7hPa | 2.5V | 08:16:00 | 00:00:00 | 00:00:00 | |
| DM0DOS-11 | 2026-08-30 12:33:21 | 48.97944 | 10.07961 | 88° | 106km/h | 13154m | -12.8m/s | -56°C | 7.5% | 171.7hPa | 2.5V | 08:15:34 | 02:14:56 | 00:00:00 | |
| DK7TD | 2026-08-30 12:33:15 | 48.97942 | 10.07880 | 88° | 106km/h | 13179m | -12m/s | -55.9°C | 4.8% | 171hPa | 2.6V | 08:17:03 | 02:14:54 | 00:00:00 | |
| DB0UT-7 | 2026-08-30 12:33:13 | 48.97940 | 10.07801 | 87° | 93km/h | 13203m | -12.4m/s | -55.9°C | 7.2% | 170.4hPa | 2.5V | 00:00:00 | 02:14:52 | 00:00:00 | |
| DF7PN | 2026-08-30 12:33:12 | 48.97937 | 10.07726 | 86° | 97km/h | 13226m | -11.5m/s | -56.0°C | 3.8% | 169.7hPa | 2.5V | 00:00:00 | 00:00:00 | 00:00:00 | |
| DM0DOS-11 | 2026-08-30 12:33:10 | 48.97932 | 10.07581 | 87° | 95km/h | 13273m | -12.4m/s | -56°C | 6.8% | 168.5hPa | 2.5V | 08:15:44 | 02:14:46 | 00:00:00 | |
| DK7TD | 2026-08-30 12:33:05 | 48.97930 | 10.07472 | 88° | 95km/h | 13309m | -12m/s | -56.1°C | 3.9% | 167.5hPa | 2.5V | 08:17:03 | 02:14:43 | 00:00:00 | |
| DF3TZ-5 | 2026-08-30 12:33:04 | 48.97930 | 10.07472 | 88° | 93km/h | 13309m | -12.0m/s | -56.1°C | 3.5% | 167.5hPa | 2.5V | 00:00:00 | 00:00:00 | 00:00:00 | |
| DG1MJG | 2026-08-30 12:33:02 | 48.97927 | 10.07399 | 88° | 95km/h | 13333m | -12.1m/s | -56.0°C | 3.4% | 166.9hPa | 2.5V | 08:16:00 | 00:00:00 | 00:00:00 | |
| DF1GD-15 | 2026-08-30 12:33:01 | 48.97927 | 10.07399 | 88° | 95km/h | 13333m | -12.1m/s | -56.0°C | 3.4% | 166.9hPa | 2.5V | 08:16:00 | 00:00:00 | 00:00:00 | |
| DM0DOS-11 | 2026-08-30 12:33:00 | 48.97924 | 10.07216 | 89° | 95km/h | 13393m | -12.5m/s | -55.6°C | 6.2% | 165.3hPa | 2.5V | 08:15:54 | 02:14:36 | 00:00:00 | |
| DK7TD | 2026-08-30 12:32:54 | 48.97924 | 10.07108 | 90° | 95km/h | 13429m | -13.2m/s | -55.7°C | 3.3% | 164.4hPa | 2.5V | 08:17:03 | 02:14:33 | 00:00:00 | |
| SONCRA | 2026-08-30 12:32:51 | 48.97925 | 10.06964 | 91° | 89km/h | 13480m | -12.3m/s | -55.5°C | 2.9% | 163.1hPa | 2.5V | 00:00:00 | 00:00:00 | 00:00:00 | |
| DM0DOS-11 | 2026-08-30 12:32:50 | 48.97926 | 10.06860 | 91° | 89km/h | 13515m | -11.6m/s | -55.7°C | 5.9% | 162.3hPa | 2.5V | 08:16:04 | 02:14:26 | 00:00:00 | |
| DL1ZP-14 | 2026-08-30 12:32:47 | 48.97926 | 10.06860 | 91° | 88km/h | 13515m | -11.6m/s | -55.7°C | 2.9% | 162.3hPa | 2.5V | 00:00:00 | 00:00:00 | 00:00:00 | |
| DB0ND-19 | 2026-08-30 12:32:46 | 48.97927 | 10.06825 | 91° | 89km/h | 13527m | -12.3m/s | -55.7°C | 2.9% | 161.9hPa | 2.5V | 00:00:00 | 00:00:00 | 00:00:00 | |
| DK7TD | 2026-08-30 12:32:43 | 48.97928 | 10.06724 | 91° | 88km/h | 13564m | -12.2m/s | -55.7°C | 3% | 161hPa | 2.5V | 08:17:03 | 02:14:22 | 00:00:00 | |
| DB0UT-7 | 2026-08-30 12:32:43 | 48.97928 | 10.06724 | 91° | 84km/h | 13564m | -12.2m/s | -55.7°C | 5.9% | 161.0hPa | 2.5V | 00:00:00 | 00:00:00 | 00:00:00 | |
| DF7PN | 2026-08-30 12:32:41 | 48.97929 | 10.06627 | 89° | 84km/h | 13600m | -13.2m/s | -55.7°C | 2.8% | 160.0hPa | 2.5V | 00:00:00 | 00:00:00 | 00:00:00 | |
| DM0DOS-11 | 2026-08-30 12:32:40 | 48.97926 | 10.06531 | 85° | 82km/h | 13638m | -12.7m/s | -55.9°C | 5.9% | 159.1hPa | 2.5V | 08:16:14 | 02:14:16 | 00:00:00 | |
| DO3MHA-12 | 2026-08-30 12:32:40 | 48.97929 | 10.06627 | 90° | 82km/h | 13600m | -13.2m/s | -55.7°C | 5.9% | 160.0hPa | 2.6V | 00:00:00 | 02:14:19 | 00:00:00 | |
| DN1GJH-1 | 2026-08-30 12:32:37 | 48.97927 | 10.06563 | 89° | 82km/h | 13626m | -12.5m/s | -55.8°C | 2.9% | 159.5hPa | 2.5V | 08:17:00 | 00:00:00 | 00:00:00 | |
| DM7RM-13 | 2026-08-30 12:32:36 | 48.97926 | 10.06531 | 87° | 82km/h | 13638m | -12.7m/s | -55.9°C | 2.9% | 159.1hPa | 2.5V | 08:17:00 | 00:00:00 | 00:00:00 | |
| DF3TZ-5 | 2026-08-30 12:32:33 | 48.97918 | 10.06407 | 82° | 78km/h | 13687m | -12.1m/s | -55.9°C | 2.8% | 157.9hPa | 2.5V | 00:00:00 | 00:00:00 | 00:00:00 | |
| DL6DJ-15 | 2026-08-30 12:32:32 | 48.97913 | 10.06345 | 83° | 82km/h | 13711m | -11.7m/s | -56.0°C | 2.8% | 157.3hPa | 2.5V | 00:00:00 | 00:00:00 | 00:00:00 | |
| DL9SK-14 | 2026-08-30 12:32:31 | 48.97911 | 10.06313 | 83° | 80km/h | 13722m | -11.6m/s | -56.1°C | 2.9% | 157.1hPa | 2.5V | 00:00:00 | 00:00:00 | 00:00:00 | |
| DO3MHA-12 | 2026-08-30 12:32:30 | 48.97910 | 10.06313 | 84° | 82km/h | 13723m | -11.5m/s | -56.0°C | 6.0% | 157.0hPa | 2.5V | 00:00:00 | 02:14:09 | 00:00:00 | |
| DM0DOS-11 | 2026-08-30 12:32:28 | 48.97902 | 10.06219 | 82° | 82km/h | 13757m | -12.7m/s | -56.1°C | 6% | 156.2hPa | 2.5V | 08:16:24 | 02:14:06 | 00:00:00 | |
| DK7TD | 2026-08-30 12:32:28 | 48.97905 | 10.06251 | 82° | 82km/h | 13745m | -11.9m/s | -56.1°C | 3% | 156.5hPa | 2.5V | 08:17:03 | 02:14:07 | 00:00:00 | |
| DJ8HS-15 | 2026-08-30 12:32:28 | 48.97905 | 10.06251 | 82° | 88km/h | 13745m | -11.9m/s | -56.0°C | 6.0% | 156.5hPa | 2.5V | 08:16:00 | 02:14:07 | 00:00:00 | |
| NBG1-10 | 2026-08-30 12:32:26 | 48.97899 | 10.06188 | 84° | 84km/h | 13770m | -13.1m/s | -56.0°C | 5.9% | 155.8hPa | 2.5V | 00:00:00 | 02:14:05 | 00:00:00 | |
| AZAK | 2026-08-30 12:32:24 | 48.97897 | 10.06156 | 85° | 84km/h | 13783m | -12.9m/s | -56.1°C | 2.8% | 155.6hPa | 2.5V | 08:17:00 | 00:00:00 | 00:00:00 | |
| DM0DOS-11 | 2026-08-30 12:32:22 | 48.97878 | 10.05895 | 82° | 89km/h | 13882m | -12.1m/s | -56.3°C | 6% | 153.1hPa | 2.5V | 08:16:34 | 02:13:56 | 00:00:00 | |
| DK7TD | 2026-08-30 12:32:16 | 48.97875 | 10.05861 | 83° | 89km/h | 13894m | -12.4m/s | -56.3°C | 2.8% | 152.8hPa | 2.6V | 08:17:03 | 02:13:55 | 00:00:00 | |
| DL1ZP-14 | 2026-08-30 12:32:16 | 48.97875 | 10.05861 | 82° | 89km/h | 13894m | -12.4m/s | -56.3°C | 2.8% | 152.8hPa | 2.6V | 00:00:00 | 00:00:00 | 00:00:00 | |
| DB0ND-19 | 2026-08-30 12:32:15 | 48.97872 | 10.05827 | 83° | 89km/h | 13907m | -12.0m/s | -56.3°C | 2.8% | 152.5hPa | 2.5V | 00:00:00 | 00:00:00 | 00:00:00 | |
| DB0UT-7 | 2026-08-30 12:32:13 | 48.97866 | 10.05756 | 83° | 82km/h | 13930m | -12.2m/s | -56.1°C | 6.0% | 151.9hPa | 2.5V | 00:00:00 | 02:13:52 | 00:00:00 | |
| DM0DOS-11 | 2026-08-30 12:32:10 | 48.97851 | 10.05553 | 83° | 88km/h | 14003m | -12.3m/s | -56.3°C | 5.9% | 150.3hPa | 2.5V | 08:16:44 | 02:13:46 | 00:00:00 | |
| DK7TD | 2026-08-30 12:32:05 | 48.97846 | 10.05487 | 83° | 84km/h | 14027m | -11.7m/s | -56.3°C | 2.5% | 149.7hPa | 2.6V | 08:17:03 | 02:13:44 | 00:00:00 | |
| AZAK | 2026-08-30 12:32:04 | 48.97846 | 10.05487 | 84° | 84km/h | 14028m | -11.7m/s | -56.3°C | 2.6% | 149.7hPa | 2.5V | 08:17:00 | 00:00:00 | 00:00:00 | |
| DF3TZ-5 | 2026-08-30 12:32:02 | 48.97838 | 10.05391 | 82° | 82km/h | 14065m | -12.9m/s | -56.1°C | 2.5% | 148.8hPa | 2.5V | 00:00:00 | 00:00:00 | 00:00:00 | |
| DG1MJG | 2026-08-30 12:32:01 | 48.97835 | 10.05360 | 81° | 80km/h | 14077m | -12.1m/s | -56.0°C | 2.4% | 148.5hPa | 2.5V | 08:17:00 | 00:00:00 | 00:00:00 | |
| DM0DOS-11 | 2026-08-30 12:32:00 | 48.97821 | 10.05243 | 77° | 77km/h | 14124m | -12.7m/s | -55.4°C | 5.3% | 147.4hPa | 2.5V | 08:16:54 | 02:13:36 | 00:00:00 | |
| DK7TD | 2026-08-30 12:31:54 | 48.97809 | 10.05156 | 78° | 78km/h | 14160m | -12.8m/s | -55.2°C | 2.1% | 146.6hPa | 2.5V | 08:17:03 | 02:13:33 | 00:00:00 | |
| SONCRA | 2026-08-30 12:31:49 | 48.97793 | 10.04975 | 85° | 78km/h | 14231m | -12.5m/s | -55.2°C | 2.3% | 144.9hPa | 2.5V | 00:00:00 | 00:00:00 | 00:00:00 | |
| DM0DOS-11 | 2026-08-30 12:31:48 | 48.97791 | 10.04945 | 84° | 78km/h | 14243m | -12.8m/s | -55.2°C | 5.3% | 144.7hPa | 2.5V | 08:17:04 | 02:13:26 | 00:00:00 | |
| DK7TD | 2026-08-30 12:31:43 | 48.97783 | 10.04827 | 83° | 75km/h | 14293m | -13.4m/s | -55.4°C | 2.3% | 143.5hPa | 2.5V | 08:17:54 | 02:13:22 | 00:00:00 | |
| DB0UT-7 | 2026-08-30 12:31:43 | 48.97783 | 10.04827 | 84° | 68km/h | 14293m | -13.4m/s | -55.3°C | 5.4% | 143.5hPa | 2.5V | 08:17:00 | 00:00:00 | 00:00:00 | |
| DF1GD-15 | 2026-08-30 12:31:41 | 48.97781 | 10.04799 | 84° | 75km/h | 14305m | -12.3m/s | -55.4°C | 2.5% | 143.3hPa | 2.6V | 08:17:00 | 00:00:00 | 00:00:00 | |
| DO3MHA-12 | 2026-08-30 12:31:40 | 48.97777 | 10.04743 | 85° | 69km/h | 14327m | -11.3m/s | -55.3°C | 5.5% | 142.7hPa | 2.6V | 08:17:00 | 02:13:19 | 00:00:00 | |
| DF7PN | 2026-08-30 12:31:39 | 48.97772 | 10.04689 | 81° | 69km/h | 14351m | -12.4m/s | -55.2°C | 2.4% | 142.2hPa | 2.5V | 00:00:00 | 00:00:00 | 00:00:00 | |
| DN1GJH-1 | 2026-08-30 12:31:35 | 48.97767 | 10.04637 | 81° | 68km/h | 14375m | -12.5m/s | -55.2°C | 2.5% | 141.7hPa | 2.5V | 08:17:00 | 00:00:00 | 00:00:00 | |
| DL1NUX | 2026-08-30 12:31:34 | 48.97757 | 10.04560 | 79° | 68km/h | 14410m | -13.2m/s | -55.1°C | 5.6% | 140.9hPa | 2.5V | 08:17:18 | 02:13:12 | 00:00:00 | |
| DK7TD | 2026-08-30 12:31:33 | 48.97757 | 10.04560 | 79° | 68km/h | 14410m | -13.2m/s | -55.1°C | 2.6% | 140.9hPa | 2.5V | 08:17:54 | 02:13:12 | 00:00:00 | |
| DF3TZ-5 | 2026-08-30 12:31:31 | 48.97750 | 10.04511 | 78° | 66km/h | 14435m | -12.6m/s | -55.2°C | 2.6% | 140.4hPa | 2.6V | 00:00:00 | 00:00:00 | 00:00:00 | |
| DO3MHA-12 | 2026-08-30 12:31:30 | 48.97747 | 10.04486 | 79° | 69km/h | 14448m | -13.1m/s | -55.2°C | 5.6% | 140.0hPa | 2.6V | 00:00:00 | 02:13:09 | 00:00:00 | |
| DM0DOS-11 | 2026-08-30 12:31:29 | 48.97737 | 10.04410 | 78° | 69km/h | 14485m | -13.4m/s | -55.4°C | 5.7% | 139.4hPa | 2.6V | 08:17:24 | 02:13:06 | 00:00:00 | |
| DK7TD | 2026-08-30 12:31:22 | 48.97722 | 10.04279 | 81° | 69km/h | 14551m | -11.9m/s | -55.5°C | 2.9% | 137.9hPa | 2.6V | 08:17:54 | 02:13:01 | 00:00:00 | |
| DO3MHA-12 | 2026-08-30 12:31:20 | 48.97716 | 10.04227 | 78° | 64km/h | 14575m | -11.8m/s | -55.4°C | 5.9% | 137.3hPa | 2.6V | 00:00:00 | 02:12:59 | 00:00:00 | |
| DM0DOS-11 | 2026-08-30 12:31:19 | 48.97704 | 10.04153 | 72° | 64km/h | 14613m | -12.9m/s | -55.4°C | 5.8% | 136.6hPa | 2.6V | 08:17:34 | 02:12:56 | 00:00:00 | |
| DK7TD | 2026-08-30 12:31:11 | 48.97669 | 10.04019 | 63° | 62km/h | 14686m | -11.8m/s | -55°C | 2.8% | 135hPa | 2.6V | 08:17:54 | 02:12:50 | 00:00:00 | |
| DO3MHA-12 | 2026-08-30 12:31:10 | 48.97662 | 10.03998 | 63° | 62km/h | 14698m | -11.9m/s | -55.0°C | 5.7% | 134.7hPa | 2.6V | 00:00:00 | 02:12:49 | 00:00:00 | |
| DM0DOS-11 | 2026-08-30 12:31:09 | 48.97642 | 10.03936 | 66° | 62km/h | 14733m | -11.7m/s | -55.2°C | 5.8% | 134hPa | 2.6V | 08:17:44 | 02:12:46 | 00:00:00 | |
| DK7TD | 2026-08-30 12:31:00 | 48.97597 | 10.03781 | 67° | 68km/h | 14814m | -11.8m/s | -55.1°C | 2.7% | 132.3hPa | 2.6V | 08:17:54 | 02:12:39 | 00:00:00 | |
| DO3MHA-12 | 2026-08-30 12:31:00 | 48.97597 | 10.03781 | 68° | 68km/h | 14814m | -11.8m/s | -55.0°C | 5.7% | 132.3hPa | 2.6V | 00:00:00 | 02:12:39 | 00:00:00 | |
| DM0DOS-11 | 2026-08-30 12:30:59 | 48.97576 | 10.03711 | 66° | 69km/h | 14850m | -12.9m/s | -55°C | 5.5% | 131.5hPa | 2.6V | 08:17:54 | 02:12:36 | 00:00:00 | |
| DL9SK-14 | 2026-08-30 12:30:58 | 48.97576 | 10.03711 | 66° | 68km/h | 14850m | -12.9m/s | -55.0°C | 2.5% | 131.6hPa | 2.6V | 00:00:00 | 00:00:00 | 00:00:00 | |
| DL1NUX | 2026-08-30 12:30:54 | 48.97548 | 10.03617 | 66° | 68km/h | 14899m | -11.8m/s | -54.6°C | 5.2% | 130.6hPa | 2.6V | 08:17:58 | 02:12:32 | 00:00:00 | |
| DK7TD | 2026-08-30 12:30:50 | 48.97530 | 10.03546 | 71° | 66km/h | 14935m | -12.6m/s | -54.6°C | 2.1% | 129.8hPa | 2.6V | 08:18:45 | 02:12:29 | 00:00:00 | |
| DO3MHA-12 | 2026-08-30 12:30:50 | 48.97530 | 10.03546 | 72° | 73km/h | 14935m | -12.5m/s | -54.6°C | 5.1% | 129.8hPa | 2.6V | 00:00:00 | 02:12:29 | 00:00:00 | |
| DM0DOS-11 | 2026-08-30 12:30:47 | 48.97513 | 10.03469 | 70° | 71km/h | 14971m | -11.8m/s | -54.9°C | 5.1% | 129.1hPa | 2.6V | 08:18:04 | 02:12:26 | 00:00:00 | |
| SONCRA | 2026-08-30 12:30:47 | 48.97507 | 10.03443 | 71° | 71km/h | 14983m | -11.6m/s | -54.9°C | 2.2% | 128.8hPa | 2.6V | 00:00:00 | 00:00:00 | 00:00:00 | |
| DL1ZP-14 | 2026-08-30 12:30:43 | 48.97486 | 10.03335 | 73° | 73km/h | 15030m | -11.9m/s | -55.2°C | 2.1% | 127.9hPa | 2.6V | 00:00:00 | 00:00:00 | 00:00:00 | |
| DM0DOS-11 | 2026-08-30 12:30:42 | 48.97460 | 10.03199 | 72° | 73km/h | 15091m | -12m/s | -55°C | 5% | 126.6hPa | 2.6V | 08:18:14 | 02:12:16 | 00:00:00 | |
| DK7TD | 2026-08-30 12:30:39 | 48.97471 | 10.03253 | 75° | 75km/h | 15067m | -12.8m/s | -55.2°C | 1.8% | 127.2hPa | 2.5V | 08:18:45 | 02:12:18 | 00:00:00 | |
| HSKMA3-T | 2026-08-30 12:30:37 | 48.97460 | 10.03199 | 73° | 73km/h | 15091m | -12m/s | -55°C | 1.7% | 126.6hPa | 2.6V | 08:20:27 | 02:12:16 | 00:00:00 | |
| DF7PN | 2026-08-30 12:30:36 | 48.97455 | 10.03172 | 73° | 71km/h | 15103m | -12.6m/s | -55.0°C | 2.0% | 126.5hPa | 2.6V | 00:00:00 | 00:00:00 | 00:00:00 | |
| DN1GJH-1 | 2026-08-30 12:30:33 | 48.97443 | 10.03120 | 74° | 69km/h | 15128m | -12.1m/s | -55.1°C | 2.0% | 126.0hPa | 2.6V | 08:18:00 | 00:00:00 | 00:00:00 | |
| DM0DOS-11 | 2026-08-30 12:30:31 | 48.97414 | 10.02922 | 82° | 66km/h | 15228m | -12.7m/s | -55.7°C | 5% | 124.1hPa | 2.6V | 08:18:25 | 02:12:05 | 00:00:00 | |
| DK7TD | 2026-08-30 12:30:29 | 48.97422 | 10.02996 | 80° | 68km/h | 15189m | -12.9m/s | -55.5°C | 1.6% | 124.8hPa | 2.5V | 08:18:45 | 02:12:08 | 00:00:00 | |
| DF3TZ-5 | 2026-08-30 12:30:29 | 48.97422 | 10.02996 | 79° | 66km/h | 15189m | -12.9m/s | -55.5°C | 1.9% | 124.8hPa | 2.6V | 00:00:00 | 00:00:00 | 00:00:00 | |
| DJ8HS-15 | 2026-08-30 12:30:28 | 48.97419 | 10.02971 | 79° | 57km/h | 15202m | -12.7m/s | -55.5°C | 5.0% | 124.5hPa | 2.6V | 00:00:00 | 02:12:07 | 00:00:00 | |
| DL9SK-14 | 2026-08-30 12:30:27 | 48.97414 | 10.02922 | 82° | 66km/h | 15228m | -12.7m/s | -55.7°C | 1.9% | 124.1hPa | 2.5V | 00:00:00 | 00:00:00 | 00:00:00 | |
| DO3MHA-12 | 2026-08-30 12:30:20 | 48.97404 | 10.02780 | 85° | 55km/h | 15301m | -12.9m/s | -55.5°C | 4.9% | 122.5hPa | 2.5V | 00:00:00 | 02:11:59 | 00:00:00 | |
| DM0DOS-11 | 2026-08-30 12:30:19 | 48.97397 | 10.02695 | 79° | 55km/h | 15351m | -12.8m/s | -55.1°C | 4.7% | 121.6hPa | 2.5V | 08:18:35 | 02:11:55 | 00:00:00 | |
| DK7TD | 2026-08-30 12:30:18 | 48.97402 | 10.02736 | 83° | 55km/h | 15326m | -13.2m/s | -55.3°C | 1.3% | 122.1hPa | 2.6V | 08:18:45 | 02:11:57 | 00:00:00 | |
| SONCRA | 2026-08-30 12:30:16 | 48.97394 | 10.02676 | 76° | 51km/h | 15363m | -11.8m/s | -55.1°C | 1.7% | 121.4hPa | 2.6V | 00:00:00 | 00:00:00 | 00:00:00 | |
| NBG1-10 | 2026-08-30 12:30:14 | 48.97391 | 10.02657 | 75° | 42km/h | 15374m | -11.6m/s | -54.9°C | 4.6% | 121.1hPa | 2.6V | 00:00:00 | 02:11:53 | 00:00:00 | |
| DB0UT-7 | 2026-08-30 12:30:13 | 48.97387 | 10.02638 | 70° | 40km/h | 15386m | -12.3m/s | -54.7°C | 4.5% | 120.8hPa | 2.6V | 00:00:00 | 02:11:52 | 00:00:00 | |
| DL1ZP-14 | 2026-08-30 12:30:12 | 48.97378 | 10.02601 | 69° | 51km/h | 15412m | -14.3m/s | -55.0°C | 1.7% | 120.4hPa | 2.6V | 00:00:00 | 00:00:00 | 00:00:00 | |
| DB0ND-19 | 2026-08-30 12:30:11 | 48.97373 | 10.02583 | 67° | 51km/h | 15425m | -13.8m/s | -55.1°C | 1.7% | 120.2hPa | 2.6V | 00:00:00 | 00:00:00 | 00:00:00 | |
| DO3MHA-12 | 2026-08-30 12:30:10 | 48.97373 | 10.02583 | 68° | 47km/h | 15425m | -13.8m/s | -55.1°C | 4.6% | 120.1hPa | 2.6V | 08:18:00 | 02:11:49 | 00:00:00 | |
| DM0DOS-11 | 2026-08-30 12:30:09 | 48.97352 | 10.02514 | 64° | 47km/h | 15481m | -14.1m/s | -55.2°C | 4.7% | 119.2hPa | 2.6V | 08:18:45 | 02:11:45 | 00:00:00 | |
| DK7TD | 2026-08-30 12:30:07 | 48.97358 | 10.02531 | 65° | 49km/h | 15467m | -15.1m/s | -55.1°C | 1.2% | 119.4hPa | 2.5V | 08:18:45 | 02:11:46 | 00:00:00 | |
| DF7PN | 2026-08-30 12:30:05 | 48.97347 | 10.02497 | 64° | 46km/h | 15495m | -13.3m/s | -55.3°C | 1.7% | 118.9hPa | 2.6V | 00:00:00 | 00:00:00 | 00:00:00 | |
| DF3TZ-5 | 2026-08-30 12:29:58 | 48.97294 | 10.02339 | 68° | 35km/h | 15659m | -15.3m/s | -54.8°C | 1.5% | 115.9hPa | 2.6V | 00:00:00 | 00:00:00 | 00:00:00 | |
| DM0DOS-11 | 2026-08-30 12:29:57 | 48.97304 | 10.02374 | 65° | 33km/h | 15619m | -14m/s | -54.9°C | 4.5% | 116.6hPa | 2.6V | 08:18:55 | 02:11:35 | 00:00:00 | |
| DK7TD | 2026-08-30 12:29:56 | 48.97304 | 10.02374 | 66° | 33km/h | 15619m | -14m/s | -54.9°C | 1% | 116.7hPa | 2.6V | 08:19:36 | 02:11:35 | 00:00:00 | |
| DL9SK-14 | 2026-08-30 12:29:56 | 48.97301 | 10.02363 | 66° | 31km/h | 15632m | -13.2m/s | -54.9°C | 1.6% | 116.4hPa | 2.6V | 00:00:00 | 00:00:00 | 00:00:00 | |
| DN1GJH-1 | 2026-08-30 12:29:52 | 48.97294 | 10.02339 | 70° | 35km/h | 15660m | -15.3m/s | -54.8°C | 1.6% | 115.9hPa | 2.6V | 08:19:00 | 00:00:00 | 00:00:00 | |
| DM0DOS-11 | 2026-08-30 12:29:51 | 48.97271 | 10.02254 | 66° | 37km/h | 15757m | -14.8m/s | -54.9°C | 4.4% | 114.1hPa | 2.6V | 08:19:05 | 02:11:25 | 00:00:00 | |
| DK7TD | 2026-08-30 12:29:45 | 48.97267 | 10.02241 | 62° | 38km/h | 15772m | -14.5m/s | -55°C | 0.9% | 113.8hPa | 2.6V | 08:19:36 | 02:11:24 | 00:00:00 | |
| SONCRA | 2026-08-30 12:29:45 | 48.97263 | 10.02228 | 66° | 40km/h | 15785m | -13.7m/s | -54.9°C | 1.5% | 113.6hPa | 2.6V | 00:00:00 | 00:00:00 | 00:00:00 | |
| DB0UT-7 | 2026-08-30 12:29:43 | 48.97258 | 10.02214 | 66° | 44km/h | 15800m | -14.5m/s | -54.7°C | 4.3% | 113.3hPa | 2.6V | 00:00:00 | 00:00:00 | 00:00:00 | |
| DM0DOS-11 | 2026-08-30 12:29:41 | 48.97223 | 10.02108 | 64° | 49km/h | 15898m | -14.8m/s | -55.1°C | 4.5% | 111.6hPa | 2.6V | 08:19:15 | 02:11:15 | 00:00:00 | |
| HSKMA3-T | 2026-08-30 12:29:38 | 48.97233 | 10.02141 | 63° | 47km/h | 15869m | -14m/s | -54.9°C | 0.9% | 112.1hPa | 2.6V | 08:20:27 | 02:11:17 | 00:00:00 | |
| DK7TD | 2026-08-30 12:29:35 | 48.97217 | 10.02090 | 66° | 53km/h | 15912m | -14.2m/s | -55.3°C | 1% | 111.4hPa | 2.6V | 08:19:36 | 02:11:14 | 00:00:00 | |
| DF7PN | 2026-08-30 12:29:34 | 48.97211 | 10.02072 | 64° | 51km/h | 15926m | -13.4m/s | -55.3°C | 1.6% | 111.1hPa | 2.6V | 00:00:00 | 00:00:00 | 00:00:00 | |
| DM0DOS-11 | 2026-08-30 12:29:31 | 48.97172 | 10.01922 | 70° | 47km/h | 16038m | -15.7m/s | -55.4°C | 4.6% | 109.2hPa | 2.6V | 08:19:25 | 02:11:05 | 00:00:00 | |
| DK7TD | 2026-08-30 12:29:24 | 48.97164 | 10.01889 | 68° | 46km/h | 16067m | -13.8m/s | -54.7°C | 0.8% | 108.7hPa | 2.6V | 08:19:36 | 02:11:03 | 00:00:00 | |
| DM0DOS-11 | 2026-08-30 12:29:21 | 48.97138 | 10.01783 | 68° | 29km/h | 16178m | -13.5m/s | -54.8°C | 4.2% | 106.8hPa | 2.6V | 08:19:35 | 02:10:55 | 00:00:00 | |
| HSKMA3-T | 2026-08-30 12:29:20 | 48.97149 | 10.01831 | 69° | 37km/h | 16124m | -14.6m/s | -54.7°C | 0.7% | 107.8hPa | 2.6V | 08:20:27 | 02:10:59 | 00:00:00 | |
| DK7TD | 2026-08-30 12:29:14 | 48.97134 | 10.01763 | 76° | 26km/h | 16205m | -13.6m/s | -54.8°C | 0.7% | 106.4hPa | 2.6V | 08:20:27 | 02:10:53 | 00:00:00 | |
| DB0UT-7 | 2026-08-30 12:29:13 | 48.97132 | 10.01753 | 76° | 33km/h | 16218m | -13.0m/s | -54.7°C | 4.2% | 106.1hPa | 2.6V | 00:00:00 | 02:10:52 | 00:00:00 | |
| DM7RM-13 | 2026-08-30 12:29:10 | 48.97126 | 10.01724 | 75° | 27km/h | 16256m | -12.5m/s | -54.6°C | 1.4% | 105.5hPa | 2.6V | 08:20:00 | 00:00:00 | 00:00:00 | |
| DL1ZP-14 | 2026-08-30 12:29:09 | 48.97125 | 10.01714 | 79° | 26km/h | 16268m | -13.4m/s | -54.8°C | 1.4% | 105.3hPa | 2.6V | 00:00:00 | 00:00:00 | 00:00:00 | |
| DM0DOS-11 | 2026-08-30 12:29:07 | 48.97119 | 10.01683 | 68° | 29km/h | 16307m | -13.8m/s | -55°C | 4.2% | 104.7hPa | 2.6V | 08:19:45 | 02:10:45 | 00:00:00 | |
| HSKMA3-T | 2026-08-30 12:29:04 | 48.97113 | 10.01664 | 63° | 29km/h | 16335m | -13.7m/s | -55.2°C | 0.7% | 104.2hPa | 2.6V | 08:20:27 | 02:10:43 | 00:00:00 | |
| DK7TD | 2026-08-30 12:28:55 | 48.97071 | 10.01553 | 65° | 38km/h | 16468m | -14m/s | -55.6°C | 0.6% | 102.1hPa | 2.6V | 08:20:27 | 02:10:33 | 00:00:00 | |
| HSKMA3-T | 2026-08-30 12:28:55 | 48.97067 | 10.01539 | 66° | 42km/h | 16481m | -13.3m/s | -55.7°C | 0.7% | 101.8hPa | 2.6V | 08:20:27 | 02:10:32 | 00:00:00 | |
| DL9SK-14 | 2026-08-30 12:28:54 | 48.97067 | 10.01539 | 66° | 40km/h | 16481m | -13.3m/s | -55.7°C | 1.4% | 101.8hPa | 2.6V | 00:00:00 | 00:00:00 | 00:00:00 | |
| DL1NUX | 2026-08-30 12:28:51 | 48.97042 | 10.01436 | 73° | 42km/h | 16574m | -14.3m/s | -55.7°C | 4.4% | 100.4hPa | 2.6V | 08:20:05 | 02:10:25 | 00:00:00 | |
| DM0DOS-11 | 2026-08-30 12:28:50 | 48.97039 | 10.01420 | 71° | 44km/h | 16588m | -13.6m/s | -55.8°C | 4.4% | 100.2hPa | 2.6V | 08:20:06 | 02:10:24 | 00:00:00 | |
| DK7TD | 2026-08-30 12:28:43 | 48.97032 | 10.01387 | 71° | 47km/h | 16615m | -13.5m/s | -56°C | 0.7% | 99.8hPa | 2.6V | 08:20:27 | 02:10:22 | 00:00:00 | |
| HSKMA3-T | 2026-08-30 12:28:41 | 48.97024 | 10.01353 | 69° | 47km/h | 16641m | -13.4m/s | -56.2°C | 0.8% | 99.4hPa | 2.6V | 08:20:27 | 02:10:20 | 00:00:00 | |
| SO1NDE-10 | 2026-08-30 12:28:41 | 48.97024 | 10.01353 | 69° | 44km/h | 16641m | -13.4m/s | -56.2°C | 4.5% | 99.3hPa | 2.6V | 00:00:00 | 02:10:20 | 00:00:00 | |
| DL1NUX | 2026-08-30 12:28:40 | 48.96994 | 10.01250 | 65° | 46km/h | 16719m | -13.2m/s | -56.2°C | 4.6% | 98.2hPa | 2.6V | 08:20:16 | 02:10:14 | 00:00:00 | |
| DK7TD | 2026-08-30 12:28:32 | 48.96978 | 10.01206 | 60° | 44km/h | 16758m | -12.3m/s | -55.3°C | 0.6% | 97.6hPa | 2.6V | 08:20:27 | 02:10:11 | 00:00:00 | |
| HSKMA3-T | 2026-08-30 12:28:28 | 48.96951 | 10.01154 | 46° | 42km/h | 16808m | -13.5m/s | -55.3°C | 0.6% | 96.8hPa | 2.6V | 08:20:27 | 02:10:07 | 00:00:00 | |
| DJ8HS-15 | 2026-08-30 12:28:28 | 48.96951 | 10.01153 | 47° | 42km/h | 16809m | -13.5m/s | -55.2°C | 4.2% | 96.8hPa | 2.6V | 00:00:00 | 02:10:07 | 00:00:00 | |
| DM0DOS-11 | 2026-08-30 12:28:25 | 48.96927 | 10.01120 | 42° | 44km/h | 16849m | -14.2m/s | -55.1°C | 4.1% | 96.3hPa | 2.6V | 08:20:26 | 02:10:04 | 00:00:00 | |
| DK7TD | 2026-08-30 12:28:22 | 48.96902 | 10.01088 | 41° | 44km/h | 16890m | -13.5m/s | -55.3°C | 0.5% | 95.6hPa | 2.6V | 08:21:18 | 02:10:01 | 00:00:00 | |
| DL1NUX | 2026-08-30 12:28:20 | 48.96848 | 10.01004 | 52° | 40km/h | 16982m | -14m/s | -55.4°C | 4.1% | 94.2hPa | 2.6V | 08:20:36 | 02:09:54 | 00:00:00 | |
| HSKMA3-T | 2026-08-30 12:28:18 | 48.96869 | 10.01041 | 47° | 42km/h | 16941m | -12.9m/s | -55.3°C | 0.5% | 94.8hPa | 2.6V | 08:21:18 | 02:09:57 | 00:00:00 | |
| DK7TD | 2026-08-30 12:28:11 | 48.96823 | 10.00952 | 54° | 42km/h | 17038m | -13.7m/s | -55.5°C | 0.5% | 93.4hPa | 2.6V | 08:21:18 | 02:09:50 | 00:00:00 | |
| SO1NDE-10 | 2026-08-30 12:28:11 | 48.96823 | 10.00952 | 54° | 46km/h | 17038m | -13.7m/s | -55.5°C | 4.1% | 93.4hPa | 2.6V | 00:00:00 | 02:09:50 | 00:00:00 | |
| DO3MHA-12 | 2026-08-30 12:28:10 | 48.96816 | 10.00939 | 55° | 42km/h | 17051m | -13.0m/s | -55.5°C | 4.1% | 93.2hPa | 2.6V | 00:00:00 | 02:09:49 | 00:00:00 | |
| DN1GJH-1 | 2026-08-30 12:28:09 | 48.96816 | 10.00939 | 56° | 42km/h | 17051m | -13.1m/s | -55.5°C | 1.3% | 93.2hPa | 2.6V | 08:21:00 | 00:00:00 | 00:00:00 | |
| DJ8HS-15 | 2026-08-30 12:28:08 | 48.96804 | 10.00912 | 57° | 46km/h | 17079m | -13.2m/s | -55.6°C | 4.1% | 92.7hPa | 2.6V | 00:00:00 | 02:09:47 | 00:00:00 | |
| DM0DOS-11 | 2026-08-30 12:28:07 | 48.96786 | 10.00873 | 54° | 42km/h | 17119m | -13.9m/s | -55.8°C | 4.2% | 92.2hPa | 2.6V | 08:20:46 | 02:09:44 | 00:00:00 | |
| HSKMA3-T | 2026-08-30 12:28:07 | 48.96798 | 10.00899 | 56° | 42km/h | 17092m | -13.4m/s | -55.7°C | 0.5% | 92.6hPa | 2.7V | 08:21:18 | 02:09:46 | 00:00:00 | |
| DL1NUX | 2026-08-30 12:28:05 | 48.96780 | 10.00860 | 53° | 42km/h | 17133m | -13.1m/s | -55.9°C | 4.2% | 92hPa | 2.6V | 08:20:47 | 02:09:43 | 00:00:00 | |
| DK7TD | 2026-08-30 12:28:01 | 48.96760 | 10.00820 | 54° | 44km/h | 17173m | -14.7m/s | -56.1°C | 0.5% | 91.5hPa | 2.6V | 08:21:18 | 02:09:40 | 00:00:00 | |
| DF7PN | 2026-08-30 12:28:01 | 48.96760 | 10.00820 | 53° | 44km/h | 17173m | -14.7m/s | -56.1°C | 1.3% | 91.5hPa | 2.6V | 00:00:00 | 00:00:00 | 00:00:00 | |
| DO3MHA-12 | 2026-08-30 12:28:00 | 48.96753 | 10.00806 | 55° | 47km/h | 17187m | -14.0m/s | -56.2°C | 4.3% | 91.2hPa | 2.6V | 00:00:00 | 02:09:39 | 00:00:00 | |
| DL1NUX | 2026-08-30 12:27:59 | 48.96709 | 10.00721 | 53° | 47km/h | 17269m | -15m/s | -56.7°C | 4.5% | 90hPa | 2.6V | 08:20:57 | 02:09:33 | 00:00:00 | |
| HSKMA3-T | 2026-08-30 12:27:56 | 48.96724 | 10.00750 | 50° | 49km/h | 17241m | -13.1m/s | -56.5°C | 0.7% | 90.4hPa | 2.6V | 08:21:18 | 02:09:35 | 00:00:00 | |
| DK7TD | 2026-08-30 12:27:51 | 48.96687 | 10.00675 | 57° | 53km/h | 17313m | -15.1m/s | -56.8°C | 0.7% | 89.4hPa | 2.6V | 08:21:18 | 02:09:30 | 00:00:00 | |
| DO3MHA-12 | 2026-08-30 12:27:50 | 48.96680 | 10.00658 | 58° | 47km/h | 17328m | -14.0m/s | -56.9°C | 4.8% | 89.1hPa | 2.6V | 00:00:00 | 02:09:29 | 00:00:00 | |
| DL1NUX | 2026-08-30 12:27:49 | 48.96638 | 10.00560 | 58° | 46km/h | 17410m | -13.1m/s | -57.3°C | 5.2% | 88hPa | 2.6V | 08:21:07 | 02:09:23 | 00:00:00 | |
| HSKMA3-T | 2026-08-30 12:27:45 | 48.96645 | 10.00576 | 58° | 47km/h | 17397m | -12.9m/s | -57.2°C | 0.9% | 88.2hPa | 2.6V | 08:21:18 | 02:09:24 | 00:00:00 | |
| DK7TD | 2026-08-30 12:27:40 | 48.96618 | 10.00503 | 68° | 40km/h | 17465m | -13.5m/s | -57.1°C | 1.1% | 87.3hPa | 2.6V | 08:21:18 | 02:09:19 | 00:00:00 | |
| DK7TD | 2026-08-30 12:27:30 | 48.96580 | 10.00350 | 72° | 42km/h | 17608m | -15.2m/s | -53.8°C | 0.5% | 85.3hPa | 2.6V | 08:22:09 | 02:09:09 | 00:00:00 | |
| DO3MHA-12 | 2026-08-30 12:27:30 | 48.96580 | 10.00350 | 73° | 33km/h | 17608m | -15.2m/s | -53.8°C | 4.2% | 85.2hPa | 2.7V | 00:00:00 | 02:09:09 | 00:00:00 | |
| DL1NUX | 2026-08-30 12:27:29 | 48.96568 | 10.00272 | 84° | 27km/h | 17696m | -15.4m/s | -52.3°C | 3.7% | 84.2hPa | 2.7V | 08:21:27 | 02:09:03 | 00:00:00 | |
| HSKMA3-T | 2026-08-30 12:27:27 | 48.96572 | 10.00308 | 77° | 37km/h | 17652m | -15.4m/s | -53.3°C | 0.4% | 84.7hPa | 2.6V | 18:12:15 | 02:09:06 | 00:00:00 | |
| DK7TD | 2026-08-30 12:27:19 | 48.96567 | 10.00224 | 97° | 22km/h | 17769m | -15.7m/s | -51.3°C | 0% | 83.2hPa | 2.6V | 08:22:09 | 02:08:58 | 00:00:00 | |
| DL1NUX | 2026-08-30 12:27:15 | 48.96571 | 10.00185 | 99° | 18km/h | 17845m | -15.6m/s | -51.4°C | 3.3% | 82.3hPa | 2.6V | 08:21:37 | 02:08:53 | 00:00:00 | |
| HSKMA3-T | 2026-08-30 12:27:15 | 48.96570 | 10.00192 | 105° | 18km/h | 17829m | -16.6m/s | -51.3°C | 0% | 82.5hPa | 2.6V | 18:12:15 | 02:08:54 | 00:00:00 | |
| DK7TD | 2026-08-30 12:27:08 | 48.96580 | 10.00150 | 129° | 16km/h | 17949m | -17.4m/s | -52.1°C | 0.1% | 81hPa | 2.6V | 08:22:09 | 02:08:47 | 00:00:00 | |
| DJ8HS-15 | 2026-08-30 12:27:08 | 48.96580 | 10.00150 | 130° | 11km/h | 17950m | -17.3m/s | -52.0°C | 3.5% | 80.9hPa | 2.7V | 00:00:00 | 02:08:47 | 00:00:00 | |
| DN1GJH-1 | 2026-08-30 12:27:07 | 48.96580 | 10.00150 | 130° | 16km/h | 17950m | -17.4m/s | -52.1°C | 1.0% | 81.0hPa | 2.7V | 08:22:00 | 00:00:00 | 00:00:00 | |
| DM0DOS-11 | 2026-08-30 12:27:06 | 48.96590 | 10.00128 | 118° | 18km/h | 18011m | -13.8m/s | -52.6°C | 3.5% | 80.2hPa | 2.7V | 08:21:47 | 02:08:43 | 00:00:00 | |
| HSKMA3-T | 2026-08-30 12:27:04 | 48.96591 | 10.00127 | 119° | 18km/h | 18011m | -13.8m/s | -52.6°C | 0.1% | 80.2hPa | 2.7V | 18:12:15 | 02:08:43 | 00:00:00 | |
| DK7TD | 2026-08-30 12:26:57 | 48.96596 | 10.00102 | 91° | 4km/h | 18115m | -14.4m/s | -53.4°C | 0.3% | 78.9hPa | 2.7V | 08:22:09 | 02:08:36 | 00:00:00 | |
| DM0DOS-11 | 2026-08-30 12:26:55 | 48.96593 | 10.00097 | 5° | 5km/h | 18161m | -16.1m/s | -53.2°C | 3.6% | 78.4hPa | 2.6V | 08:21:57 | 02:08:33 | 00:00:00 | |
| HSKMA3-T | 2026-08-30 12:26:53 | 48.96592 | 10.00098 | 356° | 5km/h | 18176m | -15m/s | -53.2°C | 0.2% | 78.2hPa | 2.6V | 18:12:15 | 02:08:32 | 00:00:00 | |
| DK7TD | 2026-08-30 12:26:46 | 48.96580 | 10.00098 | 348° | 9km/h | 18280m | -14.6m/s | -53.7°C | 0.2% | 76.9hPa | 2.6V | 08:22:09 | 02:08:25 | 00:00:00 | |
| DM0DOS-11 | 2026-08-30 12:26:45 | 48.96575 | 10.00100 | 354° | 11km/h | 18310m | -15.1m/s | -54°C | 3.7% | 76.5hPa | 2.6V | 08:22:07 | 02:08:23 | 00:00:00 | |
| DK7TD | 2026-08-30 12:26:35 | 48.96542 | 10.00112 | 349° | 16km/h | 18448m | -15.9m/s | -55°C | 0.5% | 74.9hPa | 2.7V | 08:23:00 | 02:08:14 | 00:00:00 | |
| DL1NUX | 2026-08-30 12:26:34 | 48.96538 | 10.00114 | 349° | 16km/h | 18464m | -14.5m/s | -55.2°C | 4.1% | 74.7hPa | 2.6V | 08:22:17 | 02:08:13 | 00:00:00 | |
| AZAK | 2026-08-30 12:26:34 | 48.96538 | 10.00114 | 351° | 16km/h | 18464m | -14.5m/s | -55.2°C | 1.2% | 74.7hPa | 2.6V | 08:23:00 | 00:00:00 | 00:00:00 | |
| OE5DRO-10 | 2026-08-30 12:26:33 | 48.96534 | 10.00115 | 352° | 18km/h | 18479m | -15.6m/s | -55.3°C | 4.1% | 74.5hPa | 2.6V | 00:00:00 | 00:00:00 | 00:00:00 | |
| DF1GD-15 | 2026-08-30 12:26:31 | 48.96529 | 10.00116 | 353° | 18km/h | 18495m | -17.0m/s | -55.4°C | 1.2% | 74.4hPa | 2.6V | 08:23:00 | 00:00:00 | 00:00:00 | |
| DO3MHA-12 | 2026-08-30 12:26:30 | 48.96520 | 10.00119 | 350° | 26km/h | 18528m | -15.6m/s | -55.6°C | 4.4% | 73.9hPa | 2.6V | 00:00:00 | 02:08:09 | 00:00:00 | |
| DM0DOS-11 | 2026-08-30 12:26:29 | 48.96484 | 10.00125 | 349° | 26km/h | 18615m | -14.4m/s | -55.5°C | 4.4% | 73hPa | 2.6V | 08:22:27 | 02:08:03 | 00:00:00 | |
| DL1NUX | 2026-08-30 12:26:28 | 48.96477 | 10.00127 | 349° | 27km/h | 18629m | -13.9m/s | -55.5°C | 4.4% | 72.8hPa | 2.6V | 08:22:28 | 02:08:02 | 00:00:00 | |
| DK7TD | 2026-08-30 12:26:25 | 48.96490 | 10.00123 | 349° | 26km/h | 18600m | -14.8m/s | -55.5°C | 0.6% | 73.2hPa | 2.7V | 08:23:00 | 02:08:04 | 00:00:00 | |
| DG1MJG | 2026-08-30 12:26:24 | 48.96490 | 10.00123 | 350° | 26km/h | 18600m | -14.8m/s | -55.5°C | 1.2% | 73.2hPa | 2.6V | 00:00:00 | 00:00:00 | 00:00:00 | |
| NBG1-10 | 2026-08-30 12:26:23 | 48.96477 | 10.00127 | 350° | 20km/h | 18629m | -13.9m/s | -55.5°C | 4.4% | 72.8hPa | 2.6V | 00:00:00 | 02:08:02 | 00:00:00 | |
| DF3TZ-5 | 2026-08-30 12:26:21 | 48.96456 | 10.00128 | 5° | 31km/h | 18675m | -16.6m/s | -55.0°C | 1.2% | 72.3hPa | 2.6V | 00:00:00 | 00:00:00 | 00:00:00 | |
| DO3MHA-12 | 2026-08-30 12:26:20 | 48.96456 | 10.00128 | 6° | 29km/h | 18675m | -16.5m/s | -55.0°C | 4.1% | 72.3hPa | 2.6V | 00:00:00 | 02:07:59 | 00:00:00 | |
| DL6DJ-15 | 2026-08-30 12:26:19 | 48.96440 | 10.00126 | 7° | 29km/h | 18706m | -15.4m/s | -55.0°C | 1.2% | 72.0hPa | 2.6V | 00:00:00 | 00:00:00 | 00:00:00 | |
| OE9MKV-15 | 2026-08-30 12:26:18 | 48.96440 | 10.00126 | 8° | 22km/h | 18706m | -15.3m/s | -55.0°C | 4.1% | 71.9hPa | 2.6V | 00:00:00 | 02:07:57 | 00:00:00 | |
| DM0DOS-11 | 2026-08-30 12:26:15 | 48.96412 | 10.00115 | 21° | 29km/h | 18770m | -15.4m/s | -55.3°C | 4.2% | 71.2hPa | 2.6V | 08:22:37 | 02:07:53 | 00:00:00 | |
| DL1NUX | 2026-08-30 12:26:14 | 48.96405 | 10.00110 | 27° | 29km/h | 18786m | -16.3m/s | -55.4°C | 4.2% | 71.1hPa | 2.7V | 08:22:38 | 02:07:52 | 00:00:00 | |
| DK7TD | 2026-08-30 12:26:14 | 48.96411 | 10.00115 | 21° | 29km/h | 18770m | -15.4m/s | -55.3°C | 0.5% | 71.2hPa | 2.6V | 08:23:00 | 02:07:53 | 00:00:00 | |
| SONDE2-11 | 2026-08-30 12:26:14 | 48.96405 | 10.00110 | 27° | 29km/h | 18786m | -16.3m/s | -55.4°C | 1.2% | 71.1hPa | 2.6V | 00:00:00 | 00:00:00 | 00:00:00 | |
| DB0UT-7 | 2026-08-30 12:26:13 | 48.96405 | 10.00110 | 28° | 18km/h | 18786m | -16.3m/s | -55.3°C | 4.2% | 71.0hPa | 2.6V | 00:00:00 | 02:07:52 | 00:00:00 | |
| AZAK | 2026-08-30 12:26:12 | 48.96405 | 10.00110 | 29° | 29km/h | 18786m | -16.3m/s | -55.4°C | 1.2% | 71.1hPa | 2.6V | 08:23:00 | 00:00:00 | 00:00:00 | |
| SO1NDE-10 | 2026-08-30 12:26:11 | 48.96393 | 10.00099 | 40° | 16km/h | 18820m | -16.9m/s | -55.4°C | 4.2% | 70.6hPa | 2.6V | 00:00:00 | 02:07:50 | 00:00:00 | |
| DO3MHA-12 | 2026-08-30 12:26:10 | 48.96388 | 10.00093 | 37° | 18km/h | 18835m | -15.6m/s | -55.4°C | 4.2% | 70.4hPa | 2.6V | 00:00:00 | 02:07:49 | 00:00:00 | |
| DL1NUX | 2026-08-30 12:26:08 | 48.96365 | 10.00056 | 55° | 11km/h | 18953m | -16.9m/s | -55.1°C | 4.1% | 69.2hPa | 2.6V | 08:22:48 | 02:07:42 | 00:00:00 | |
| DJ8HS-15 | 2026-08-30 12:26:08 | 48.96379 | 10.00081 | 42° | 15km/h | 18870m | -17.8m/s | -55.4°C | 4.3% | 70.1hPa | 2.6V | 00:00:00 | 02:07:47 | 00:00:00 | |
| SONCRA | 2026-08-30 12:26:07 | 48.96375 | 10.00075 | 43° | 20km/h | 18886m | -16.6m/s | -55.3°C | 1.2% | 70.0hPa | 2.6V | 00:00:00 | 00:00:00 | 00:00:00 | |
| DM0DOS-11 | 2026-08-30 12:26:05 | 48.96367 | 10.00060 | 50° | 16km/h | 18936m | -17.9m/s | -55.1°C | 4.1% | 69.4hPa | 2.6V | 08:22:47 | 02:07:43 | 00:00:00 | |
| DK7TD | 2026-08-30 12:26:03 | 48.96365 | 10.00056 | 55° | 11km/h | 18953m | -16.9m/s | -55.1°C | 0.5% | 69.2hPa | 2.6V | 08:23:00 | 02:07:42 | 00:00:00 | |
| DL1ZP-14 | 2026-08-30 12:26:03 | 48.96365 | 10.00056 | 55° | 11km/h | 18953m | -16.9m/s | -55.1°C | 1.1% | 69.2hPa | 2.6V | 00:00:00 | 00:00:00 | 00:00:00 | |
| DB0ND-19 | 2026-08-30 12:26:02 | 48.96363 | 10.00052 | 61° | 11km/h | 18969m | -16.3m/s | -55.2°C | 1.1% | 69.0hPa | 2.7V | 00:00:00 | 00:00:00 | 00:00:00 | |
| DO3MHA-12 | 2026-08-30 12:26:00 | 48.96360 | 10.00046 | 66° | 13km/h | 19003m | -19.0m/s | -55.0°C | 4.0% | 68.7hPa | 2.7V | 00:00:00 | 02:07:39 | 00:00:00 | |
| DM0DOS-11 | 2026-08-30 12:25:59 | 48.96349 | 10.00028 | 44° | 16km/h | 19107m | -17.1m/s | -55.5°C | 4.3% | 67.5hPa | 2.7V | 08:22:57 | 02:07:33 | 00:00:00 | |
| DF7PN | 2026-08-30 12:25:57 | 48.96354 | 10.00035 | 31° | 13km/h | 19072m | -17.5m/s | -55.5°C | 1.2% | 67.9hPa | 2.6V | 00:00:00 | 00:00:00 | 00:00:00 | |
| DL1NUX | 2026-08-30 12:25:54 | 48.96345 | 10.00024 | 35° | 18km/h | 19124m | -17.1m/s | -55.4°C | 4.2% | 67.4hPa | 2.6V | 08:22:58 | 02:07:32 | 00:00:00 | |
| DK7TD | 2026-08-30 12:25:52 | 48.96342 | 10.00021 | 38° | 18km/h | 19140m | -16.5m/s | -55.3°C | 0.5% | 67.2hPa | 2.6V | 08:23:00 | 02:07:31 | 00:00:00 | |
| AZAK | 2026-08-30 12:25:51 | 48.96342 | 10.00021 | 39° | 18km/h | 19141m | -16.5m/s | -55.3°C | 1.1% | 67.2hPa | 2.6V | 08:23:00 | 00:00:00 | 00:00:00 | |
| DO3MHA-12 | 2026-08-30 12:25:50 | 48.96334 | 10.00010 | 44° | 18km/h | 19174m | -16.7m/s | -55.4°C | 4.2% | 66.8hPa | 2.6V | 00:00:00 | 02:07:29 | 00:00:00 | |
| DM0DOS-11 | 2026-08-30 12:25:49 | 48.96310 | 9.99982 | 30° | 18km/h | 19269m | -16.1m/s | -55.9°C | 4.4% | 65.8hPa | 2.6V | 08:23:07 | 02:07:23 | 00:00:00 | |
| DL1NUX | 2026-08-30 12:25:49 | 48.96306 | 9.99978 | 39° | 15km/h | 19285m | -17m/s | -55.9°C | 4.3% | 65.7hPa | 2.6V | 08:23:08 | 02:07:22 | 00:00:00 | |
| DL9SK-14 | 2026-08-30 12:25:47 | 48.96322 | 9.99995 | 32° | 20km/h | 19223m | -15.5m/s | -55.8°C | 1.2% | 66.3hPa | 2.6V | 00:00:00 | 00:00:00 | 00:00:00 | |
| DK7TD | 2026-08-30 12:25:42 | 48.96303 | 9.99975 | 43° | 15km/h | 19301m | -15.9m/s | -55.8°C | 0.6% | 65.5hPa | 2.6V | 08:23:51 | 02:07:21 | 00:00:00 | |
| DB0UT-7 | 2026-08-30 12:25:42 | 48.96303 | 9.99975 | 43° | 22km/h | 19301m | -15.9m/s | -55.8°C | 4.3% | 65.4hPa | 2.6V | 00:00:00 | 00:00:00 | 00:00:00 | |
| OE5DXL-15 | 2026-08-30 12:25:40 | 48.96299 | 9.99969 | 31° | 22km/h | 19334m | -15.6m/s | -55.9°C | 4.4% | 65.1hPa | 2.7V | 00:00:00 | 00:00:00 | 00:00:00 | |
| DL1NUX | 2026-08-30 12:25:38 | 48.96276 | 9.99973 | 346° | 20km/h | 19453m | -18.3m/s | -55.5°C | 4.3% | 63.9hPa | 2.7V | 08:23:18 | 02:07:12 | 00:00:00 | |
| DM0DOS-11 | 2026-08-30 12:25:35 | 48.96281 | 9.99971 | 337° | 15km/h | 19436m | -17.5m/s | -55.6°C | 4.4% | 64.1hPa | 2.7V | 08:23:17 | 02:07:13 | 00:00:00 | |
| DK7TD | 2026-08-30 12:25:31 | 48.96267 | 9.99975 | 3° | 22km/h | 19490m | -18.9m/s | -55.4°C | 0.6% | 63.6hPa | 2.6V | 08:23:51 | 02:07:10 | 00:00:00 | |
| DO3MHA-12 | 2026-08-30 12:25:30 | 48.96262 | 9.99974 | 4° | 26km/h | 19509m | -19.0m/s | -55.4°C | 4.4% | 63.4hPa | 2.6V | 00:00:00 | 02:07:09 | 00:00:00 | |
| DM0DOS-11 | 2026-08-30 12:25:29 | 48.96227 | 9.99949 | 37° | 27km/h | 19617m | -19m/s | -55.5°C | 4.4% | 62.3hPa | 2.6V | 08:23:27 | 02:07:03 | 00:00:00 | |
| DL1NUX | 2026-08-30 12:25:28 | 48.96222 | 9.99943 | 34° | 27km/h | 19636m | -18.2m/s | -55.5°C | 4.4% | 62.1hPa | 2.7V | 08:23:28 | 02:07:02 | 00:00:00 | |
| DK7TD | 2026-08-30 12:25:21 | 48.96211 | 9.99931 | 36° | 26km/h | 19673m | -19.9m/s | -55.6°C | 0.6% | 61.8hPa | 2.6V | 08:23:51 | 02:07:00 | 00:00:00 | |
| DO3MHA-12 | 2026-08-30 12:25:20 | 48.96206 | 9.99925 | 48° | 26km/h | 19692m | -19.0m/s | -55.6°C | 4.4% | 61.6hPa | 2.7V | 00:00:00 | 02:06:59 | 00:00:00 | |
| DF3TZ-5 | 2026-08-30 12:25:18 | 48.96199 | 9.99910 | 59° | 24km/h | 19732m | -20.8m/s | -55.7°C | 1.2% | 61.3hPa | 2.7V | 00:00:00 | 00:00:00 | 00:00:00 | |
| DM0DOS-11 | 2026-08-30 12:25:17 | 48.96191 | 9.99873 | 81° | 26km/h | 19813m | -20.6m/s | -54.3°C | 4.1% | 60.5hPa | 2.7V | 08:23:37 | 02:06:53 | 00:00:00 | |
| DL6DJ-15 | 2026-08-30 12:25:17 | 48.96194 | 9.99893 | 72° | 27km/h | 19773m | -21.0m/s | -55.1°C | 1.2% | 60.9hPa | 2.6V | 00:00:00 | 00:00:00 | 00:00:00 | |
| DL9SK-14 | 2026-08-30 12:25:16 | 48.96194 | 9.99893 | 72° | 27km/h | 19773m | -21.0m/s | -55.1°C | 1.2% | 60.9hPa | 2.6V | 00:00:00 | 00:00:00 | 00:00:00 | |
| DL1NUX | 2026-08-30 12:25:15 | 48.96189 | 9.99863 | 81° | 27km/h | 19833m | -20.2m/s | -54.1°C | 4% | 60.3hPa | 2.6V | 08:23:38 | 02:06:52 | 00:00:00 | |
| DK7TD | 2026-08-30 12:25:11 | 48.96188 | 9.99844 | 88° | 24km/h | 19871m | -20.2m/s | -54.3°C | 0.5% | 59.9hPa | 2.6V | 08:23:51 | 02:06:50 | 00:00:00 | |
| DF1GD-15 | 2026-08-30 12:25:11 | 48.96188 | 9.99844 | 89° | 24km/h | 19872m | -20.2m/s | -54.3°C | 1.2% | 59.9hPa | 2.7V | 08:23:00 | 00:00:00 | 00:00:00 | |
| DO3MHA-12 | 2026-08-30 12:25:10 | 48.96187 | 9.99835 | 83° | 18km/h | 19891m | -19.6m/s | -54.4°C | 4.2% | 59.7hPa | 2.7V | 00:00:00 | 02:06:49 | 00:00:00 | |
| DL1NUX | 2026-08-30 12:25:08 | 48.96189 | 9.99790 | 106° | 15km/h | 20023m | -20.6m/s | -54.2°C | 4.1% | 58.5hPa | 2.6V | 08:23:48 | 02:06:42 | 00:00:00 | |
| DK7TD | 2026-08-30 12:25:00 | 48.96194 | 9.99772 | 120° | 16km/h | 20084m | -21.2m/s | -53.7°C | 0.4% | 58hPa | 2.6V | 08:23:51 | 02:06:39 | 00:00:00 | |
| DO3MHA-12 | 2026-08-30 12:25:00 | 48.96193 | 9.99772 | 120° | 13km/h | 20084m | -21.2m/s | -53.6°C | 3.9% | 57.9hPa | 2.6V | 00:00:00 | 02:06:39 | 00:00:00 | |
| DL1NUX | 2026-08-30 12:24:58 | 48.96207 | 9.99741 | 115° | 9km/h | 20231m | -21.4m/s | -53.6°C | 3.8% | 56.7hPa | 2.6V | 08:23:58 | 02:06:32 | 00:00:00 | |
| DK7TD | 2026-08-30 12:24:49 | 48.96206 | 9.99733 | 23° | 4km/h | 20308m | -18m/s | -53.8°C | 0.3% | 56hPa | 2.6V | 08:24:42 | 02:06:28 | 00:00:00 | |
| DF3TZ-5 | 2026-08-30 12:24:47 | 48.96202 | 9.99732 | 353° | 7km/h | 20343m | -18.2m/s | -54.0°C | 1.0% | 55.6hPa | 2.6V | 00:00:00 | 00:00:00 | 00:00:00 | |
| DL6DJ-15 | 2026-08-30 12:24:46 | 48.96197 | 9.99734 | 341° | 9km/h | 20381m | -19.8m/s | -54.2°C | 1.1% | 55.3hPa | 2.6V | 00:00:00 | 00:00:00 | 00:00:00 | |
| DM0DOS-11 | 2026-08-30 12:24:45 | 48.96194 | 9.99735 | 352° | 15km/h | 20400m | -18m/s | -54.3°C | 4.1% | 55.1hPa | 2.6V | 08:24:07 | 02:06:23 | 00:00:00 | |
| DK7TD | 2026-08-30 12:24:39 | 48.96176 | 9.99744 | 343° | 16km/h | 20490m | -19.4m/s | -54.4°C | 0.5% | 54.4hPa | 2.7V | 08:24:42 | 02:06:18 | 00:00:00 | |
| DM0DOS-11 | 2026-08-30 12:24:39 | 48.96157 | 9.99750 | 351° | 11km/h | 20592m | -20.8m/s | -54.5°C | 4.1% | 53.6hPa | 2.7V | 08:24:17 | 02:06:13 | 00:00:00 | |
| DK7TD | 2026-08-30 12:24:28 | 48.96153 | 9.99753 | 219° | 4km/h | 20706m | -20.3m/s | -54.2°C | 0.5% | 52.6hPa | 2.7V | 08:24:42 | 02:06:07 | 00:00:00 | |
| DL1NUX | 2026-08-30 12:24:28 | 48.96152 | 9.99761 | 292° | 9km/h | 20801m | -18.5m/s | -54.2°C | 4% | 51.8hPa | 2.7V | 08:24:28 | 02:06:02 | 00:00:00 | |
| DJ8HS-15 | 2026-08-30 12:24:28 | 48.96153 | 9.99753 | 220° | 11km/h | 20707m | -20.2m/s | -54.1°C | 4.0% | 52.5hPa | 2.7V | 00:00:00 | 02:06:07 | 00:00:00 | |
| DM0DOS-11 | 2026-08-30 12:24:25 | 48.96152 | 9.99758 | 278° | 9km/h | 20783m | -18.8m/s | -54.2°C | 4% | 52hPa | 2.6V | 08:24:27 | 02:06:03 | 00:00:00 | |
| EDDB2-11 | 2026-08-30 12:24:24 | 48.96153 | 9.99758 | 278° | 9km/h | 20783m | -18.8m/s | -54.3°C | 1.1% | 52.0hPa | 2.6V | 00:00:00 | 00:00:00 | 00:00:00 | |
| DN1GJH-1 | 2026-08-30 12:24:22 | 48.96152 | 9.99761 | 294° | 9km/h | 20801m | -18.5m/s | -54.2°C | 1.1% | 51.8hPa | 2.6V | 08:24:00 | 00:00:00 | 00:00:00 | |
| DM7RM-13 | 2026-08-30 12:24:21 | 48.96151 | 9.99766 | 289° | 15km/h | 20820m | -18.8m/s | -54.2°C | 1.1% | 51.7hPa | 2.6V | 08:24:00 | 00:00:00 | 00:00:00 | |
| DO3MHA-12 | 2026-08-30 12:24:20 | 48.96147 | 9.99775 | 303° | 15km/h | 20857m | -17.6m/s | -54.2°C | 4.1% | 51.3hPa | 2.6V | 00:00:00 | 02:05:59 | 00:00:00 | |
| DM0DOS-11 | 2026-08-30 12:24:19 | 48.96135 | 9.99809 | 310° | 13km/h | 20965m | -20.7m/s | -54.2°C | 4% | 50.5hPa | 2.6V | 08:24:37 | 02:05:53 | 00:00:00 | |
| DL1NUX | 2026-08-30 12:24:18 | 48.96132 | 9.99813 | 304° | 13km/h | 20985m | -20.2m/s | -54.1°C | 4% | 50.3hPa | 2.6V | 08:24:38 | 02:05:52 | 00:00:00 | |
| DK7TD | 2026-08-30 12:24:18 | 48.96143 | 9.99788 | 303° | 20km/h | 20892m | -18.9m/s | -54.2°C | 0.5% | 51.1hPa | 2.7V | 08:24:42 | 02:05:57 | 00:00:00 | |
| OE9MKV-15 | 2026-08-30 12:24:17 | 48.96141 | 9.99794 | 296° | 13km/h | 20911m | -18.2m/s | -54.2°C | 4.0% | 50.9hPa | 2.7V | 08:24:00 | 02:05:56 | 00:00:00 | |
| DF3TZ-5 | 2026-08-30 12:24:16 | 48.96139 | 9.99799 | 304° | 13km/h | 20928m | -17.5m/s | -54.2°C | 1.1% | 50.8hPa | 2.6V | 00:00:00 | 00:00:00 | 00:00:00 | |
| DJ2DS-15 | 2026-08-30 12:24:15 | 48.96137 | 9.99804 | 305° | 13km/h | 20947m | -18.2m/s | -54.2°C | 4.1% | 50.6hPa | 2.6V | 00:00:00 | 02:05:54 | 00:00:00 | |
| DL9SK-14 | 2026-08-30 12:24:14 | 48.96134 | 9.99809 | 310° | 11km/h | 20965m | -20.7m/s | -54.2°C | 1.1% | 50.5hPa | 2.6V | 00:00:00 | 00:00:00 | 00:00:00 | |
| DB0UT-7 | 2026-08-30 12:24:12 | 48.96130 | 9.99817 | 319° | 15km/h | 21006m | -21.0m/s | -54.1°C | 4.0% | 50.1hPa | 2.6V | 00:00:00 | 02:05:51 | 00:00:00 | |
| SO1NDE-10 | 2026-08-30 12:24:11 | 48.96128 | 9.99820 | 313° | 15km/h | 21026m | -20.3m/s | -54.0°C | 3.9% | 50.0hPa | 2.7V | 00:00:00 | 02:05:50 | 00:00:00 | |
| DO3MHA-12 | 2026-08-30 12:24:10 | 48.96126 | 9.99822 | 325° | 5km/h | 21045m | -18.6m/s | -53.9°C | 3.9% | 49.8hPa | 2.7V | 08:24:00 | 02:05:49 | 00:00:00 | |
| SONDE2-11 | 2026-08-30 12:24:09 | 48.96124 | 9.99824 | 328° | 7km/h | 21063m | -16.5m/s | -54.0°C | 1.0% | 49.7hPa | 2.6V | 00:00:00 | 00:00:00 | 00:00:00 | |
| DL1NUX | 2026-08-30 12:24:08 | 48.96122 | 9.99834 | 227° | 5km/h | 21179m | -18.8m/s | -54.1°C | 3.9% | 48.8hPa | 2.6V | 08:24:48 | 02:05:42 | 00:00:00 | |
| DK7TD | 2026-08-30 12:24:07 | 48.96122 | 9.99827 | 306° | 5km/h | 21102m | -21.1m/s | -53.9°C | 0.4% | 49.4hPa | 2.6V | 08:25:33 | 02:05:46 | 00:00:00 | |
| DM0DOS-11 | 2026-08-30 12:24:05 | 48.96121 | 9.99832 | 244° | 5km/h | 21160m | -20.4m/s | -54°C | 3.9% | 49hPa | 2.7V | 08:24:47 | 02:05:43 | 00:00:00 | |
| DJ2DS-15 | 2026-08-30 12:24:04 | 48.96121 | 9.99832 | 244° | 5km/h | 21160m | -20.4m/s | -54.0°C | 1.0% | 49.0hPa | 2.7V | 00:00:00 | 00:00:00 | 00:00:00 | |
| DL8DAS-15 | 2026-08-30 12:24:03 | 48.96122 | 9.99834 | 228° | 5km/h | 21180m | -18.8m/s | -54.1°C | 1.1% | 48.8hPa | 2.7V | 00:00:00 | 00:00:00 | 00:00:00 | |
| DN1GJH-1 | 2026-08-30 12:24:02 | 48.96123 | 9.99835 | 212° | 5km/h | 21199m | -20.1m/s | -54.1°C | 1.1% | 48.7hPa | 2.7V | 08:25:00 | 00:00:00 | 00:00:00 | |
| DM7RM-13 | 2026-08-30 12:24:01 | 48.96123 | 9.99835 | 212° | 5km/h | 21199m | -20.1m/s | -54.1°C | 1.1% | 48.7hPa | 2.7V | 08:25:00 | 00:00:00 | 00:00:00 | |
| DO3MHA-12 | 2026-08-30 12:24:00 | 48.96126 | 9.99839 | 213° | 15km/h | 21239m | -21.0m/s | -54.3°C | 4.0% | 48.4hPa | 2.7V | 00:00:00 | 02:05:39 | 00:00:00 | |
| DM0DOS-11 | 2026-08-30 12:23:59 | 48.96136 | 9.99861 | 250° | 18km/h | 21354m | -19.1m/s | -54.2°C | 3.9% | 47.4hPa | 2.7V | 08:24:57 | 02:05:33 | 00:00:00 | |
| DL1ZP-14 | 2026-08-30 12:23:59 | 48.96130 | 9.99844 | 221° | 9km/h | 21279m | -21.4m/s | -54.4°C | 1.0% | 48.1hPa | 2.7V | 00:00:00 | 00:00:00 | 00:00:00 | |
| DL1NUX | 2026-08-30 12:23:58 | 48.96137 | 9.99868 | 253° | 18km/h | 21373m | -20.7m/s | -54.2°C | 3.9% | 47.4hPa | 2.7V | 08:24:58 | 02:05:32 | 00:00:00 | |
| DK7TD | 2026-08-30 12:23:56 | 48.96133 | 9.99851 | 237° | 15km/h | 21318m | -19m/s | -54.3°C | 0.5% | 47.8hPa | 2.6V | 08:25:33 | 02:05:35 | 00:00:00 | |
| EDDB2-11 | 2026-08-30 12:23:53 | 48.96137 | 9.99868 | 253° | 16km/h | 21374m | -20.7m/s | -54.2°C | 1.0% | 47.4hPa | 2.6V | 00:00:00 | 00:00:00 | 00:00:00 | |
| DF7PN | 2026-08-30 12:23:52 | 48.96138 | 9.99876 | 256° | 20km/h | 21393m | -19.2m/s | -54.2°C | 1.0% | 47.2hPa | 2.6V | 00:00:00 | 00:00:00 | 00:00:00 | |
| OE5DRO-10 | 2026-08-30 12:23:51 | 48.96139 | 9.99884 | 261° | 20km/h | 21412m | -19.1m/s | -54.3°C | 4.0% | 47.0hPa | 2.6V | 00:00:00 | 00:00:00 | 00:00:00 | |
| DO3MHA-12 | 2026-08-30 12:23:50 | 48.96140 | 9.99893 | 269° | 24km/h | 21431m | -19.6m/s | -54.4°C | 4.0% | 46.8hPa | 2.6V | 00:00:00 | 02:05:29 | 00:00:00 | |
| DM0DOS-11 | 2026-08-30 12:23:48 | 48.96134 | 9.99947 | 292° | 26km/h | 21560m | -22.1m/s | -54.7°C | 4.1% | 46hPa | 2.6V | 08:25:07 | 02:05:23 | 00:00:00 | |
| DJ8HS-15 | 2026-08-30 12:23:48 | 48.96139 | 9.99911 | 272° | 20km/h | 21473m | -22.6m/s | -54.5°C | 4.0% | 46.6hPa | 2.7V | 00:00:00 | 02:05:27 | 00:00:00 | |
| DL1NUX | 2026-08-30 12:23:47 | 48.96131 | 9.99955 | 298° | 22km/h | 21581m | -20.4m/s | -54.9°C | 4.2% | 45.8hPa | 2.7V | 08:25:08 | 02:05:22 | 00:00:00 | |
| DK7TD | 2026-08-30 12:23:46 | 48.96138 | 9.99929 | 281° | 26km/h | 21516m | -22.7m/s | -54.6°C | 0.5% | 46.3hPa | 2.6V | 08:25:33 | 02:05:25 | 00:00:00 | |
| DF3TZ-5 | 2026-08-30 12:23:45 | 48.96136 | 9.99939 | 292° | 24km/h | 21538m | -22.2m/s | -54.7°C | 1.1% | 46.1hPa | 2.6V | 00:00:00 | 00:00:00 | 00:00:00 | |
| HSKMA3-T | 2026-08-30 12:23:44 | 48.96134 | 9.99947 | 293° | 26km/h | 21560m | -22.1m/s | -54.7°C | 0.5% | 46hPa | 2.6V | 18:12:15 | 02:05:23 | 00:00:00 | |
| DL9SK-14 | 2026-08-30 12:23:43 | 48.96131 | 9.99955 | 298° | 20km/h | 21581m | -20.4m/s | -54.9°C | 1.1% | 45.8hPa | 2.6V | 00:00:00 | 00:00:00 | 00:00:00 | |
| DB0UT-7 | 2026-08-30 12:23:42 | 48.96129 | 9.99963 | 296° | 16km/h | 21601m | -19.9m/s | -54.9°C | 4.2% | 45.6hPa | 2.6V | 00:00:00 | 00:00:00 | 00:00:00 | |
| SO1NDE-10 | 2026-08-30 12:23:41 | 48.96126 | 9.99969 | 309° | 16km/h | 21621m | -19.4m/s | -55.0°C | 4.3% | 45.5hPa | 2.6V | 00:00:00 | 02:05:20 | 00:00:00 | |
| DO3MHA-12 | 2026-08-30 12:23:40 | 48.96123 | 9.99975 | 308° | 18km/h | 21640m | -18.9m/s | -55.1°C | 4.3% | 45.4hPa | 2.6V | 00:00:00 | 02:05:19 | 00:00:00 | |
| DL8DAS-14 | 2026-08-30 12:23:39 | 48.96121 | 9.99980 | 321° | 15km/h | 21659m | -19.6m/s | -55.2°C | 1.1% | 45.3hPa | 2.7V | 00:00:00 | 00:00:00 | 00:00:00 | |
| DM0DOS-11 | 2026-08-30 12:23:38 | 48.96105 | 9.99998 | 329° | 18km/h | 21755m | -20.7m/s | -55°C | 4.4% | 44.6hPa | 2.7V | 08:25:17 | 02:05:13 | 00:00:00 | |
| NBG1-10 | 2026-08-30 12:23:38 | 48.96118 | 9.99984 | 310° | 15km/h | 21679m | -20.2m/s | -55.0°C | 4.3% | 45.1hPa | 2.7V | 00:00:00 | 02:05:17 | 00:00:00 | |
| DL1NUX | 2026-08-30 12:23:37 | 48.96101 | 10.00002 | 326° | 22km/h | 21776m | -21.6m/s | -55.1°C | 4.4% | 44.5hPa | 2.7V | 08:25:18 | 02:05:12 | 00:00:00 | |
| DK7TD | 2026-08-30 12:23:35 | 48.96109 | 9.99994 | 327° | 18km/h | 21735m | -19.6m/s | -55°C | 0.6% | 44.7hPa | 2.6V | 08:25:33 | 02:05:14 | 00:00:00 | |
| SONCRA | 2026-08-30 12:23:32 | 48.96092 | 10.00012 | 323° | 20km/h | 21816m | -20.8m/s | -55.0°C | 1.2% | 44.1hPa | 2.6V | 00:00:00 | 00:00:00 | 00:00:00 | |
| PG1ADW-2 | 2026-08-30 12:23:31 | 48.96092 | 10.00012 | 324° | 15km/h | 21816m | -20.7m/s | -54.9°C | 4.4% | 44.1hPa | 2.6V | 00:00:00 | 02:05:10 | 00:00:00 | |
| DO3MHA-12 | 2026-08-30 12:23:30 | 48.96088 | 10.00017 | 323° | 20km/h | 21837m | -20.2m/s | -54.7°C | 4.4% | 44.0hPa | 2.6V | 00:00:00 | 02:05:09 | 00:00:00 | |
| DB0ND-19 | 2026-08-30 12:23:28 | 48.96074 | 10.00031 | 330° | 22km/h | 21900m | -20.3m/s | -54.7°C | 1.1% | 43.5hPa | 2.6V | 00:00:00 | 00:00:00 | 00:00:00 | |
| AZAK | 2026-08-30 12:23:26 | 48.96074 | 10.00030 | 331° | 24km/h | 21900m | -20.3m/s | -54.7°C | 1.1% | 43.6hPa | 2.6V | 08:25:00 | 00:00:00 | 00:00:00 | |
| DM0DOS-11 | 2026-08-30 12:23:25 | 48.96061 | 10.00042 | 334° | 18km/h | 21964m | -25.3m/s | -54.6°C | 4.3% | 43.2hPa | 2.6V | 08:25:27 | 02:05:03 | 00:00:00 | |
| DL1NUX | 2026-08-30 12:23:25 | 48.96056 | 10.00045 | 341° | 18km/h | 21989m | -26.6m/s | -54.3°C | 4.2% | 43hPa | 2.6V | 08:25:28 | 02:05:02 | 00:00:00 | |
| DK7TD | 2026-08-30 12:23:24 | 48.96061 | 10.00042 | 335° | 18km/h | 21964m | -25.3m/s | -54.6°C | 0.7% | 43.2hPa | 2.6V | 08:25:33 | 02:05:03 | 00:00:00 | |
| DL1XH1-15 | 2026-08-30 12:23:22 | 48.96037 | 10.00056 | 353° | 13km/h | 22132m | -21.2m/s | -54.3°C | 4.3% | 42.1hPa | 2.7V | 08:25:34 | 02:04:56 | 00:00:00 | |
| DM7RM-13 | 2026-08-30 12:23:21 | 48.96049 | 10.00049 | 343° | 15km/h | 22040m | -23.6m/s | -54.4°C | 1.1% | 42.7hPa | 2.6V | 08:25:00 | 00:00:00 | 00:00:00 | |
| DO3MHA-12 | 2026-08-30 12:23:20 | 48.96046 | 10.00051 | 342° | 9km/h | 22064m | -23.6m/s | -54.3°C | 4.3% | 42.5hPa | 2.6V | 00:00:00 | 02:04:59 | 00:00:00 | |
| DM0DOS-11 | 2026-08-30 12:23:19 | 48.96029 | 10.00058 | 14° | 7km/h | 22196m | -25.5m/s | -53.7°C | 4.1% | 41.7hPa | 2.6V | 08:25:37 | 02:04:53 | 00:00:00 | |
| DL1NUX | 2026-08-30 12:23:18 | 48.96028 | 10.00058 | 350° | 5km/h | 22222m | -23.7m/s | -53.4°C | 3.9% | 41.5hPa | 2.6V | 08:25:38 | 02:04:52 | 00:00:00 | |
| DL1XH-west | 2026-08-30 12:23:17 | 48.96037 | 10.00056 | 353° | 13km/h | 22132m | -21.2m/s | -54.3°C | 0.7% | 42.1hPa | 2.7V | 08:26:24 | 02:04:56 | 00:00:00 | |
| DK7TD | 2026-08-30 12:23:14 | 48.96029 | 10.00058 | 14° | 7km/h | 22196m | -25.5m/s | -53.7°C | 0.6% | 41.7hPa | 2.6V | 08:26:24 | 02:04:53 | 00:00:00 | |
| OE5DRO-10 | 2026-08-30 12:23:13 | 48.96028 | 10.00058 | 351° | 13km/h | 22222m | -23.6m/s | -53.4°C | 3.9% | 41.5hPa | 2.7V | 00:00:00 | 00:00:00 | 00:00:00 | |
| DB0UT-7 | 2026-08-30 12:23:12 | 48.96026 | 10.00058 | 354° | 16km/h | 22245m | -23.4m/s | -53.3°C | 3.9% | 41.3hPa | 2.7V | 00:00:00 | 02:04:51 | 00:00:00 | |
| PG1ADW-2 | 2026-08-30 12:23:11 | 48.96025 | 10.00058 | 357° | 15km/h | 22268m | -22.6m/s | -53.2°C | 3.8% | 41.1hPa | 2.7V | 08:25:00 | 00:00:00 | 00:00:00 | |
| DO3MHA-12 | 2026-08-30 12:23:10 | 48.96023 | 10.00059 | 331° | 13km/h | 22291m | -24.5m/s | -53.1°C | 3.8% | 41.0hPa | 2.7V | 00:00:00 | 02:04:49 | 00:00:00 | |
| DL1NUX | 2026-08-30 12:23:08 | 48.96017 | 10.00089 | 279° | 18km/h | 22451m | -20m/s | -52.8°C | 3.7% | 40hPa | 2.6V | 08:25:48 | 02:04:42 | 00:00:00 | |
| DJ8HS-15 | 2026-08-30 12:23:08 | 48.96021 | 10.00063 | 282° | 18km/h | 22339m | -23.6m/s | -53.1°C | 3.8% | 40.7hPa | 2.6V | 00:00:00 | 02:04:47 | 00:00:00 | |
| AZAK | 2026-08-30 12:23:07 | 48.96020 | 10.00066 | 291° | 11km/h | 22363m | -24.0m/s | -53.0°C | 1.0% | 40.6hPa | 2.6V | 08:26:00 | 00:00:00 | 00:00:00 | |
| DF1GD-15 | 2026-08-30 12:23:06 | 48.96020 | 10.00066 | 291° | 11km/h | 22363m | -24.0m/s | -53.0°C | 1.0% | 40.6hPa | 2.6V | 08:26:00 | 00:00:00 | 00:00:00 | |
| DM0DOS-11 | 2026-08-30 12:23:05 | 48.96018 | 10.00082 | 279° | 15km/h | 22430m | -22.2m/s | -52.8°C | 3.7% | 40.1hPa | 2.6V | 08:25:47 | 02:04:43 | 00:00:00 | |
| DK7TD | 2026-08-30 12:23:03 | 48.96017 | 10.00089 | 280° | 18km/h | 22451m | -20m/s | -52.8°C | 0.3% | 40hPa | 2.6V | 08:26:24 | 02:04:42 | 00:00:00 | |
| DL8DAS-15 | 2026-08-30 12:23:02 | 48.96017 | 10.00089 | 281° | 18km/h | 22452m | -20.0m/s | -52.8°C | 0% | 0hPa | 2.7V | 00:00:00 | 00:00:00 | 00:00:00 | |
| SONCRA | 2026-08-30 12:23:01 | 48.96012 | 10.00107 | 298° | 18km/h | 22517m | -21.9m/s | -53.1°C | 0.9% | 39.6hPa | 2.7V | 00:00:00 | 00:00:00 | 00:00:00 | |
| DM0DOS-11 | 2026-08-30 12:23:00 | 48.95993 | 10.00143 | 317° | 24km/h | 22654m | -21.7m/s | -53.1°C | 3.9% | 38.8hPa | 2.7V | 08:25:57 | 02:04:33 | 00:00:00 | |
| DB0ND-19 | 2026-08-30 12:22:56 | 48.96001 | 10.00131 | 315° | 18km/h | 22610m | -22.7m/s | -53.0°C | 1.0% | 39.1hPa | 2.6V | 00:00:00 | 00:00:00 | 00:00:00 | |
| DL1NUX | 2026-08-30 12:22:55 | 48.95989 | 10.00149 | 317° | 22km/h | 22676m | -21.6m/s | -53.1°C | 3.9% | 38.6hPa | 2.6V | 08:25:58 | 02:04:32 | 00:00:00 | |
| DK7TD | 2026-08-30 12:22:52 | 48.95985 | 10.00155 | 317° | 22km/h | 22698m | -21.9m/s | -53.1°C | 0.4% | 38.5hPa | 2.6V | 08:26:24 | 02:04:31 | 00:00:00 | |
| DF8AY | 2026-08-30 12:22:50 | 48.95955 | 10.00186 | 335° | 20km/h | 22856m | -22.2m/s | -53.5°C | 0.5% | 37.6hPa | 2.6V | 08:28:06 | 02:04:24 | 00:00:00 | |
| DO3MHA-12 | 2026-08-30 12:22:50 | 48.95976 | 10.00166 | 326° | 20km/h | 22742m | -25.7m/s | -53.3°C | 3.9% | 38.2hPa | 2.7V | 00:00:00 | 02:04:29 | 00:00:00 | |
| DL1NUX | 2026-08-30 12:22:48 | 48.95945 | 10.00191 | 341° | 20km/h | 22901m | -23.4m/s | -53.2°C | 3.9% | 37.3hPa | 2.7V | 08:26:08 | 02:04:22 | 00:00:00 | |
| DJ8HS-15 | 2026-08-30 12:22:48 | 48.95968 | 10.00175 | 332° | 13km/h | 22790m | -21.5m/s | 0°C | 0% | 0hPa | 2.7V | 00:00:00 | 02:04:27 | 00:00:00 | |
| DF1GD-15 | 2026-08-30 12:22:46 | 48.95964 | 10.00178 | 330° | 20km/h | 22812m | -22.0m/s | -53.6°C | 1.1% | 37.8hPa | 2.7V | 08:26:00 | 00:00:00 | 00:00:00 | |
| DM0DOS-11 | 2026-08-30 12:22:45 | 48.95950 | 10.00189 | 342° | 20km/h | 22878m | -22.6m/s | -53.3°C | 3.9% | 37.4hPa | 2.7V | 08:26:07 | 02:04:23 | 00:00:00 | |
| DK7TD | 2026-08-30 12:22:41 | 48.95937 | 10.00196 | 342° | 16km/h | 22948m | -23.3m/s | -53.1°C | 0.4% | 37hPa | 2.6V | 08:26:24 | 02:04:20 | 00:00:00 | |
| SO1NDE-10 | 2026-08-30 12:22:41 | 48.95937 | 10.00196 | 342° | 13km/h | 22948m | -23.2m/s | -53.0°C | 3.8% | 37.0hPa | 2.7V | 00:00:00 | 02:04:20 | 00:00:00 | |
| OE5DXL-15 | 2026-08-30 12:22:40 | 48.95933 | 10.00197 | 349° | 13km/h | 22971m | -22.3m/s | -53.0°C | 3.8% | 36.9hPa | 2.7V | 00:00:00 | 00:00:00 | 00:00:00 | |
| DM0DOS-11 | 2026-08-30 12:22:39 | 48.95919 | 10.00201 | 344° | 5km/h | 23111m | -23.2m/s | -52.9°C | 3.8% | 36.1hPa | 2.7V | 08:26:17 | 02:04:13 | 00:00:00 | |
| DM7RM-13 | 2026-08-30 12:22:39 | 48.95930 | 10.00198 | 353° | 13km/h | 22994m | -22.6m/s | -52.9°C | 1.0% | 36.8hPa | 2.7V | 08:26:00 | 00:00:00 | 00:00:00 | |
| DL1NUX | 2026-08-30 12:22:38 | 48.95918 | 10.00202 | 336° | 7km/h | 23135m | -24.7m/s | -53°C | 3.8% | 36hPa | 2.7V | 08:26:18 | 02:04:12 | 00:00:00 | |
| DL1XH-west | 2026-08-30 12:22:37 | 48.95922 | 10.00201 | 356° | 5km/h | 23065m | -24.2m/s | -52.8°C | 0.3% | 36.4hPa | 2.6V | 08:26:24 | 02:04:15 | 00:00:00 | |
| DF8AY | 2026-08-30 12:22:35 | 48.95921 | 10.00201 | 352° | 5km/h | 23088m | -22.1m/s | -52.9°C | 0.3% | 36.2hPa | 2.7V | 08:28:06 | 02:04:14 | 00:00:00 | |
| DK7TD | 2026-08-30 12:22:31 | 48.95914 | 10.00204 | 344° | 9km/h | 23181m | -22.7m/s | -53°C | 0.4% | 35.7hPa | 2.6V | 08:26:24 | 02:04:10 | 00:00:00 | |
| DL1XH-west | 2026-08-30 12:22:26 | 48.95898 | 10.00213 | 340° | 18km/h | 23293m | -21.5m/s | -53.2°C | 0.4% | 35.1hPa | 2.6V | 08:27:15 | 02:04:05 | 00:00:00 | |
| DF8AY | 2026-08-30 12:22:25 | 48.95894 | 10.00215 | 348° | 16km/h | 23315m | -23.4m/s | -53.3°C | 0.5% | 35hPa | 2.7V | 08:28:06 | 02:04:04 | 00:00:00 | |
| DL1NUX | 2026-08-30 12:22:25 | 48.95886 | 10.00218 | 358° | 16km/h | 23363m | -24.6m/s | -53.4°C | 4% | 34.7hPa | 2.6V | 08:26:28 | 02:04:02 | 00:00:00 | |
| DL1XH1-15 | 2026-08-30 12:22:22 | 48.95868 | 10.00217 | 15° | 15km/h | 23485m | -27m/s | -53.2°C | 4% | 34.1hPa | 2.7V | 08:26:33 | 02:03:57 | 00:00:00 | |
| DK7TD | 2026-08-30 12:22:20 | 48.95875 | 10.00219 | 3° | 15km/h | 23436m | -23.6m/s | -53.3°C | 0.5% | 34.3hPa | 2.7V | 08:27:15 | 02:03:59 | 00:00:00 | |
| DO3MHA-12 | 2026-08-30 12:22:20 | 48.95875 | 10.00219 | 3° | 15km/h | 23436m | -23.6m/s | -53.3°C | 4.0% | 34.3hPa | 2.7V | 00:00:00 | 02:03:59 | 00:00:00 | |
| DL1NUX | 2026-08-30 12:22:19 | 48.95853 | 10.00203 | 46° | 13km/h | 23609m | -24.4m/s | -52.6°C | 3.8% | 33.4hPa | 2.7V | 08:26:38 | 02:03:52 | 00:00:00 | |
| DL1XH-west | 2026-08-30 12:22:15 | 48.95859 | 10.00210 | 26° | 16km/h | 23561m | -24.7m/s | -52.8°C | 0.5% | 33.7hPa | 2.6V | 08:27:15 | 02:03:54 | 00:00:00 | |
| DF8AY | 2026-08-30 12:22:14 | 48.95852 | 10.00203 | 47° | 13km/h | 23609m | -24.4m/s | -52.6°C | 0.4% | 33.4hPa | 2.7V | 08:28:06 | 02:03:52 | 00:00:00 | |
| DK7TD | 2026-08-30 12:22:09 | 48.95847 | 10.00189 | 90° | 9km/h | 23713m | -26.2m/s | -52.3°C | 0.3% | 32.9hPa | 2.7V | 08:27:15 | 02:03:48 | 00:00:00 | |
| DL1XH1-15 | 2026-08-30 12:22:09 | 48.95847 | 10.00186 | 93° | 9km/h | 23739m | -25.3m/s | -52.4°C | 3.7% | 32.7hPa | 2.6V | 08:26:43 | 02:03:47 | 00:00:00 | |
| DL1XH-west | 2026-08-30 12:22:04 | 48.95850 | 10.00176 | 144° | 7km/h | 23842m | -27.4m/s | -52.7°C | 0.4% | 32.2hPa | 2.7V | 08:27:15 | 02:03:43 | 00:00:00 | |
| DK7TD | 2026-08-30 12:21:59 | 48.95855 | 10.00185 | 267° | 7km/h | 23958m | -22.7m/s | -52.2°C | 0.4% | 31.6hPa | 2.7V | 08:27:15 | 02:03:38 | 00:00:00 | |
| DL1XH-west | 2026-08-30 12:21:54 | 48.95850 | 10.00200 | 311° | 5km/h | 24079m | -25.8m/s | -52.1°C | 0.3% | 31.1hPa | 2.7V | 08:27:15 | 02:03:33 | 00:00:00 | |
| DL1NUX | 2026-08-30 12:21:53 | 48.95847 | 10.00202 | 11° | 4km/h | 24132m | -26.6m/s | -52.2°C | 3.8% | 30.8hPa | 2.6V | 08:26:59 | 02:03:31 | 00:00:00 | |
| DF8AY | 2026-08-30 12:21:51 | 48.95846 | 10.00201 | 41° | 4km/h | 24158m | -25.7m/s | -52.2°C | 0.3% | 30.7hPa | 2.6V | 08:28:06 | 02:03:30 | 00:00:00 | |
| PG1ADW-2 | 2026-08-30 12:21:51 | 48.95846 | 10.00201 | 42° | 7km/h | 24158m | -25.7m/s | -52.1°C | 3.7% | 30.6hPa | 2.7V | 00:00:00 | 00:00:00 | 00:00:00 | |
| DL1XH1-15 | 2026-08-30 12:21:49 | 48.95845 | 10.00198 | 126° | 4km/h | 24233m | -25.6m/s | -52°C | 3.6% | 30.3hPa | 2.7V | 08:27:03 | 02:03:27 | 00:00:00 | |
| DK7TD | 2026-08-30 12:21:48 | 48.95846 | 10.00198 | 127° | 4km/h | 24233m | -25.6m/s | -52°C | 0.2% | 30.3hPa | 2.7V | 08:27:15 | 02:03:27 | 00:00:00 | |
| DL1XH-west | 2026-08-30 12:21:43 | 48.95853 | 10.00205 | 226° | 9km/h | 24366m | -27m/s | -51.9°C | 0.3% | 29.7hPa | 2.7V | 08:27:15 | 02:03:22 | 00:00:00 | |
| DL1XH1-15 | 2026-08-30 12:21:42 | 48.95861 | 10.00223 | 260° | 9km/h | 24494m | -23.3m/s | -51.7°C | 3.6% | 29hPa | 2.6V | 08:27:13 | 02:03:17 | 00:00:00 | |
| DF8AY | 2026-08-30 12:21:40 | 48.95859 | 10.00216 | 241° | 11km/h | 24447m | -23.2m/s | -51.8°C | 0.3% | 29.3hPa | 2.7V | 08:28:06 | 02:03:19 | 00:00:00 | |
| DK7TD | 2026-08-30 12:21:38 | 48.95861 | 10.00223 | 261° | 9km/h | 24495m | -23.3m/s | -51.7°C | 0.3% | 29hPa | 2.6V | 08:27:15 | 02:03:17 | 00:00:00 | |
| DL1XH-west | 2026-08-30 12:21:32 | 48.95859 | 10.00237 | 313° | 7km/h | 24640m | -26.8m/s | -51.6°C | 0.3% | 28.5hPa | 2.6V | 08:28:06 | 02:03:11 | 00:00:00 | |
| DF8AY | 2026-08-30 12:21:30 | 48.95856 | 10.00240 | 333° | 11km/h | 24693m | -24.4m/s | -51.6°C | 0.2% | 28.2hPa | 2.6V | 08:28:06 | 02:03:09 | 00:00:00 | |
| DL1XH1-15 | 2026-08-30 12:21:29 | 48.95852 | 10.00245 | 322° | 13km/h | 24739m | -23.9m/s | -51.6°C | 3.6% | 28hPa | 2.7V | 08:27:23 | 02:03:07 | 00:00:00 | |
| SONCRA | 2026-08-30 12:21:28 | 48.95850 | 10.00248 | 317° | 11km/h | 24764m | -26.9m/s | -51.6°C | 0.9% | 27.9hPa | 2.6V | 00:00:00 | 00:00:00 | 00:00:00 | |
| DL1NUX | 2026-08-30 12:21:27 | 48.95837 | 10.00259 | 353° | 11km/h | 24892m | -24.9m/s | -51.8°C | 3.7% | 27.3hPa | 2.6V | 08:27:29 | 02:03:01 | 00:00:00 | |
| DK7TD | 2026-08-30 12:21:27 | 48.95850 | 10.00248 | 318° | 11km/h | 24763m | -26.9m/s | -51.6°C | 0.2% | 27.9hPa | 2.6V | 08:28:06 | 02:03:06 | 00:00:00 | |
| DM0DOS-11 | 2026-08-30 12:21:26 | 48.95829 | 10.00259 | 356° | 9km/h | 24966m | -25.9m/s | -51.8°C | 3.7% | 27hPa | 2.7V | 08:27:32 | 02:02:58 | 00:00:00 | |
| DF1GD-15 | 2026-08-30 12:21:24 | 48.95845 | 10.00253 | 330° | 15km/h | 24816m | -25.7m/s | -51.7°C | 0.9% | 27.7hPa | 2.7V | 08:28:00 | 00:00:00 | 00:00:00 | |
| DB0ND-19 | 2026-08-30 12:21:23 | 48.95840 | 10.00258 | 335° | 9km/h | 24867m | -26.4m/s | -51.8°C | 0.9% | 27.5hPa | 2.7V | 00:00:00 | 00:00:00 | 00:00:00 | |
| DL1XH1-15 | 2026-08-30 12:21:22 | 48.95827 | 10.00259 | 23° | 9km/h | 24992m | -26.9m/s | -51.7°C | 3.6% | 26.9hPa | 2.7V | 08:27:33 | 02:02:57 | 00:00:00 | |
| DL1XH-west | 2026-08-30 12:21:22 | 48.95835 | 10.00259 | 2° | 13km/h | 24918m | -24.7m/s | -51.9°C | 0.3% | 27.2hPa | 2.6V | 08:28:06 | 02:03:00 | 00:00:00 | |
| DO3MHA-12 | 2026-08-30 12:21:20 | 48.95832 | 10.00259 | 357° | 5km/h | 24942m | -24.4m/s | -51.9°C | 3.7% | 27.1hPa | 2.6V | 00:00:00 | 02:02:59 | 00:00:00 | |
| DJ2DS-15 | 2026-08-30 12:21:18 | 48.95827 | 10.00258 | 24° | 7km/h | 24992m | -26.8m/s | -51.7°C | 3.6% | 26.8hPa | 2.6V | 00:00:00 | 02:02:57 | 00:00:00 | |
| DL1NUX | 2026-08-30 12:21:17 | 48.95821 | 10.00254 | 89° | 4km/h | 25149m | -23.8m/s | -51.6°C | 3.6% | 26.2hPa | 2.6V | 08:27:39 | 02:02:51 | 00:00:00 | |
| DK7TD | 2026-08-30 12:21:17 | 48.95825 | 10.00258 | 5° | 7km/h | 25019m | -26.9m/s | -51.5°C | 0.2% | 26.8hPa | 2.6V | 08:28:06 | 02:02:56 | 00:00:00 | |
| OE9MKV-15 | 2026-08-30 12:21:17 | 48.95825 | 10.00258 | 5° | 9km/h | 25019m | -26.9m/s | -51.5°C | 3.6% | 26.8hPa | 2.6V | 00:00:00 | 02:02:56 | 00:00:00 | |
| DC4HF-4 | 2026-08-30 12:21:16 | 48.95822 | 10.00256 | 14° | 4km/h | 25074m | -28.3m/s | -51.5°C | 0.9% | 26.6hPa | 2.7V | 00:00:00 | 00:00:00 | 00:00:00 | |
| DM0DOS-11 | 2026-08-30 12:21:14 | 48.95822 | 10.00249 | 136° | 5km/h | 25222m | -25.6m/s | -51.6°C | 3.6% | 25.9hPa | 2.7V | 08:27:42 | 02:02:48 | 00:00:00 | |
| DL1XH-west | 2026-08-30 12:21:11 | 48.95821 | 10.00253 | 87° | 5km/h | 25173m | -24m/s | -51.7°C | 0.3% | 26.1hPa | 2.6V | 08:28:06 | 02:02:50 | 00:00:00 | |
| DF8AY | 2026-08-30 12:21:09 | 48.95822 | 10.00249 | 136° | 7km/h | 25222m | -25.6m/s | -51.6°C | 0.2% | 25.9hPa | 2.7V | 08:28:06 | 02:02:48 | 00:00:00 | |
| DL1XH1-15 | 2026-08-30 12:21:09 | 48.95823 | 10.00247 | 118° | 5km/h | 25247m | -26.2m/s | -51.5°C | 3.5% | 25.8hPa | 2.6V | 08:27:43 | 02:02:47 | 00:00:00 | |
| HSKMA3-T | 2026-08-30 12:21:08 | 48.95823 | 10.00247 | 119° | 5km/h | 25247m | -26.2m/s | -51.5°C | 0.2% | 25.8hPa | 2.6V | 18:12:15 | 02:02:47 | 00:00:00 | |
| DJ8HS-15 | 2026-08-30 12:21:08 | 48.95823 | 10.00247 | 119° | 13km/h | 25247m | -26.2m/s | -51.4°C | 3.5% | 25.8hPa | 2.6V | 00:00:00 | 02:02:47 | 00:00:00 | |
| DL1NUX | 2026-08-30 12:21:07 | 48.95832 | 10.00245 | 211° | 7km/h | 25405m | -28.4m/s | -51.8°C | 3.7% | 25.3hPa | 2.6V | 08:27:49 | 02:02:41 | 00:00:00 | |
| DK7TD | 2026-08-30 12:21:06 | 48.95825 | 10.00243 | 160° | 5km/h | 25298m | -26.2m/s | -51.5°C | 0.3% | 25.7hPa | 2.6V | 08:28:06 | 02:02:45 | 00:00:00 | |
| SONDE2-11 | 2026-08-30 12:21:04 | 48.95830 | 10.00243 | 206° | 9km/h | 25379m | -26.4m/s | -51.8°C | 0.9% | 25.3hPa | 2.7V | 00:00:00 | 00:00:00 | 00:00:00 | |
| DL1XH1-15 | 2026-08-30 12:21:02 | 48.95835 | 10.00260 | 270° | 13km/h | 25519m | -28.1m/s | -51.9°C | 3.8% | 24.8hPa | 2.7V | 08:27:53 | 02:02:37 | 00:00:00 | |
| DL1XH-west | 2026-08-30 12:21:00 | 48.95835 | 10.00251 | 245° | 11km/h | 25461m | -29.7m/s | -51.8°C | 0.3% | 25.1hPa | 2.6V | 08:28:06 | 02:02:39 | 00:00:00 | |
| DF8AY | 2026-08-30 12:20:59 | 48.95835 | 10.00255 | 257° | 13km/h | 25491m | -29.8m/s | -51.9°C | 0.4% | 24.9hPa | 2.7V | 08:28:06 | 02:02:38 | 00:00:00 | |
| DK7TD | 2026-08-30 12:20:55 | 48.95835 | 10.00278 | 280° | 16km/h | 25597m | -26.7m/s | -52.1°C | 0.4% | 24.5hPa | 2.7V | 08:28:06 | 02:02:34 | 00:00:00 | |
| DM0DOS-11 | 2026-08-30 12:20:54 | 48.95828 | 10.00312 | 280° | 13km/h | 25760m | -30.7m/s | -52.1°C | 3.9% | 23.9hPa | 2.7V | 08:28:02 | 02:02:28 | 00:00:00 | |
| DL1XH-west | 2026-08-30 12:20:50 | 48.95829 | 10.00307 | 289° | 15km/h | 25730m | -29m/s | -52.2°C | 0.4% | 24hPa | 2.7V | 08:28:06 | 02:02:29 | 00:00:00 | |
| DF8AY | 2026-08-30 12:20:48 | 48.95827 | 10.00317 | 297° | 13km/h | 25791m | -30.8m/s | -51.9°C | 0.4% | 23.8hPa | 2.7V | 08:28:06 | 02:02:27 | 00:00:00 | |
| EDDB2-11 | 2026-08-30 12:20:47 | 48.95826 | 10.00321 | 306° | 11km/h | 25821m | -30.1m/s | -51.6°C | 0.9% | 23.7hPa | 2.7V | 00:00:00 | 00:00:00 | 00:00:00 | |
| DF7PN | 2026-08-30 12:20:46 | 48.95822 | 10.00329 | 314° | 13km/h | 25879m | -28.1m/s | -51.2°C | 0.9% | 23.4hPa | 2.7V | 00:00:00 | 00:00:00 | 00:00:00 | |
| DK7TD | 2026-08-30 12:20:44 | 48.95819 | 10.00332 | 312° | 15km/h | 25906m | -27.8m/s | -51.2°C | 0.4% | 23.4hPa | 2.7V | 08:28:57 | 02:02:23 | 00:00:00 | |
| DM0DOS-11 | 2026-08-30 12:20:44 | 48.95800 | 10.00349 | 343° | 20km/h | 26045m | -27.4m/s | -50.9°C | 3.6% | 22.8hPa | 2.6V | 08:28:12 | 02:02:18 | 00:00:00 | |
| DL1XH-west | 2026-08-30 12:20:40 | 48.95805 | 10.00346 | 336° | 20km/h | 26017m | -28.2m/s | -51°C | 0.3% | 23hPa | 2.6V | 08:28:57 | 02:02:19 | 00:00:00 | |
| DF8AY | 2026-08-30 12:20:37 | 48.95790 | 10.00354 | 337° | 20km/h | 26102m | -29.8m/s | -50.7°C | 0.3% | 22.7hPa | 2.7V | 08:28:57 | 02:02:16 | 00:00:00 | |
| DN1GJH-1 | 2026-08-30 12:20:36 | 48.95790 | 10.00354 | 338° | 20km/h | 26102m | -29.8m/s | -50.7°C | 0.9% | 22.7hPa | 2.6V | 08:28:00 | 00:00:00 | 00:00:00 | |
| DM0DOS-11 | 2026-08-30 12:20:34 | 48.95760 | 10.00361 | 282° | 2km/h | 26347m | -29.1m/s | -50.1°C | 3.4% | 21.8hPa | 2.6V | 08:28:23 | 02:02:07 | 00:00:00 | |
| DK7TD | 2026-08-30 12:20:33 | 48.95771 | 10.00360 | 353° | 15km/h | 26218m | -26.8m/s | -50.5°C | 0.3% | 22.2hPa | 2.7V | 08:28:57 | 02:02:12 | 00:00:00 | |
| DL1XH-west | 2026-08-30 12:20:30 | 48.95761 | 10.00360 | 329° | 5km/h | 26320m | -24.4m/s | -50.2°C | 0.2% | 21.9hPa | 2.6V | 08:28:57 | 02:02:08 | 00:00:00 | |
| DL1XH1-15 | 2026-08-30 12:20:29 | 48.95760 | 10.00361 | 282° | 2km/h | 26347m | -29.1m/s | -50.1°C | 3.4% | 21.8hPa | 2.6V | 08:28:23 | 02:02:07 | 00:00:00 | |
| HSKMA3-T | 2026-08-30 12:20:28 | 48.95760 | 10.00361 | 282° | 2km/h | 26347m | -29.1m/s | -50.1°C | 0.2% | 21.8hPa | 2.6V | 18:12:15 | 02:02:07 | 00:00:00 | |
| DF8AY | 2026-08-30 12:20:27 | 48.95760 | 10.00361 | 266° | 2km/h | 26375m | -28m/s | -50.1°C | 0.2% | 21.7hPa | 2.7V | 08:28:57 | 02:02:06 | 00:00:00 | |
| DL1NUX | 2026-08-30 12:20:27 | 48.95763 | 10.00375 | 246° | 13km/h | 26497m | -24.6m/s | -49.8°C | 3.4% | 21.3hPa | 2.6V | 08:28:29 | 02:02:01 | 00:00:00 | |
| DK7TD | 2026-08-30 12:20:23 | 48.95762 | 10.00371 | 248° | 11km/h | 26474m | -24.2m/s | -49.8°C | 0.1% | 21.4hPa | 2.6V | 08:28:57 | 02:02:02 | 00:00:00 | |
| DL1XH1-15 | 2026-08-30 12:20:22 | 48.95768 | 10.00404 | 262° | 22km/h | 26586m | -23.4m/s | -49.7°C | 3.4% | 21hPa | 2.6V | 08:28:33 | 02:01:57 | 00:00:00 | |
| DL1XH-west | 2026-08-30 12:20:18 | 48.95768 | 10.00404 | 263° | 22km/h | 26586m | -23.4m/s | -49.7°C | 0.2% | 21hPa | 2.6V | 08:28:57 | 02:01:57 | 00:00:00 | |
| DF8AY | 2026-08-30 12:20:17 | 48.95768 | 10.00413 | 268° | 24km/h | 26609m | -22.9m/s | -49.7°C | 0.1% | 20.9hPa | 2.7V | 08:28:57 | 02:01:56 | 00:00:00 | |
| DN1GJH-1 | 2026-08-30 12:20:16 | 48.95769 | 10.00423 | 270° | 26km/h | 26633m | -24.5m/s | -49.6°C | 0.9% | 20.8hPa | 2.7V | 08:28:00 | 00:00:00 | 00:00:00 | |
| DL1NUX | 2026-08-30 12:20:13 | 48.95766 | 10.00466 | 281° | 27km/h | 26715m | -19.3m/s | -49.6°C | 3.4% | 20.5hPa | 2.7V | 08:28:39 | 02:01:51 | 00:00:00 | |
| DK7TD | 2026-08-30 12:20:12 | 48.95766 | 10.00466 | 282° | 27km/h | 26715m | -19.3m/s | -49.6°C | 0.1% | 20.6hPa | 2.7V | 08:28:57 | 02:01:51 | 00:00:00 | |
| HSKMA3-T | 2026-08-30 12:20:11 | 48.95764 | 10.00476 | 289° | 26km/h | 26736m | -22.7m/s | -49.5°C | 0.1% | 20.5hPa | 2.7V | 18:12:15 | 02:01:50 | 00:00:00 | |
| PG1ADW-2 | 2026-08-30 12:20:11 | 48.95764 | 10.00475 | 289° | 22km/h | 26736m | -22.7m/s | -49.5°C | 3.4% | 20.4hPa | 2.7V | 08:28:00 | 00:00:00 | 00:00:00 | |
| DL1XH1-15 | 2026-08-30 12:20:09 | 48.95754 | 10.00499 | 310° | 24km/h | 26815m | -26.7m/s | -49.2°C | 3.2% | 20.2hPa | 2.6V | 08:28:43 | 02:01:47 | 00:00:00 | |
| DL1XH-west | 2026-08-30 12:20:08 | 48.95754 | 10.00499 | 310° | 24km/h | 26816m | -26.7m/s | -49.2°C | 0% | 20.2hPa | 2.6V | 08:28:57 | 02:01:47 | 00:00:00 | |
| DF8AY | 2026-08-30 12:20:07 | 48.95745 | 10.00510 | 326° | 24km/h | 26869m | -26.1m/s | -49.3°C | 0% | 20.1hPa | 2.7V | 08:28:57 | 02:01:45 | 00:00:00 | |
| DL6DJ-15 | 2026-08-30 12:20:06 | 48.95740 | 10.00515 | 328° | 18km/h | 26896m | -28.4m/s | -49.3°C | 0.7% | 20.0hPa | 2.6V | 00:00:00 | 00:00:00 | 00:00:00 | |
| DG1MJG | 2026-08-30 12:20:03 | 48.95736 | 10.00519 | 320° | 16km/h | 26923m | -27.8m/s | -49.3°C | 0.7% | 19.9hPa | 2.6V | 08:28:00 | 00:00:00 | 00:00:00 | |
| DL1XH1-15 | 2026-08-30 12:20:02 | 48.95720 | 10.00556 | 304° | 22km/h | 27067m | -24.9m/s | -49.1°C | 3.3% | 19.5hPa | 2.6V | 08:28:53 | 02:01:37 | 00:00:00 | |
| DK7TD | 2026-08-30 12:20:01 | 48.95728 | 10.00534 | 298° | 18km/h | 26997m | -23.2m/s | -49.3°C | 0.1% | 19.7hPa | 2.7V | 08:28:57 | 02:01:40 | 00:00:00 | |
| DL1XH-west | 2026-08-30 12:19:58 | 48.95720 | 10.00556 | 305° | 22km/h | 27067m | -24.9m/s | -49.1°C | 0.1% | 19.5hPa | 2.6V | 08:28:57 | 02:01:37 | 00:00:00 | |
| DF8AY | 2026-08-30 12:19:57 | 48.95712 | 10.00570 | 311° | 26km/h | 27114m | -22.5m/s | -49.1°C | 0.1% | 19.3hPa | 2.7V | 08:28:57 | 02:01:35 | 00:00:00 | |
| DK7TD | 2026-08-30 12:19:50 | 48.95679 | 10.00594 | 358° | 20km/h | 27260m | -25.4m/s | -49.2°C | 0.2% | 18.9hPa | 2.7V | 08:29:48 | 02:01:29 | 00:00:00 | |
| DL1XH1-15 | 2026-08-30 12:19:49 | 48.95672 | 10.00593 | 28° | 7km/h | 27315m | -32m/s | -49°C | 3.3% | 18.8hPa | 2.6V | 08:29:03 | 02:01:27 | 00:00:00 | |
| DL1XH-west | 2026-08-30 12:19:47 | 48.95670 | 10.00592 | 27° | 7km/h | 27346m | -29.2m/s | -49.1°C | 0.2% | 18.7hPa | 2.6V | 08:29:48 | 02:01:26 | 00:00:00 | |
| DL1NUX | 2026-08-30 12:19:47 | 48.95666 | 10.00597 | 292° | 13km/h | 27486m | -28.6m/s | -48.4°C | 3.2% | 18.3hPa | 2.6V | 08:29:09 | 02:01:21 | 00:00:00 | |
| DF8AY | 2026-08-30 12:19:45 | 48.95668 | 10.00591 | 92° | 2km/h | 27402m | -27.1m/s | -48.9°C | 0.1% | 18.5hPa | 2.7V | 08:29:48 | 02:01:24 | 00:00:00 | |
| EDDB2-11 | 2026-08-30 12:19:45 | 48.95668 | 10.00591 | 288° | 2km/h | 27429m | -27.2m/s | -48.7°C | 0.8% | 18.4hPa | 2.7V | 00:00:00 | 00:00:00 | 00:00:00 | |
| DF7PN | 2026-08-30 12:19:44 | 48.95667 | 10.00593 | 305° | 7km/h | 27457m | -28.5m/s | -48.5°C | 0.8% | 18.4hPa | 2.7V | 00:00:00 | 00:00:00 | 00:00:00 | |
| DL1XH1-15 | 2026-08-30 12:19:42 | 48.95655 | 10.00622 | 310° | 26km/h | 27599m | -25.3m/s | -48.6°C | 3.3% | 18hPa | 2.7V | 08:29:13 | 02:01:17 | 00:00:00 | |
| DK7TD | 2026-08-30 12:19:39 | 48.95659 | 10.00615 | 310° | 24km/h | 27571m | -29.3m/s | -48.6°C | 0.1% | 18hPa | 2.7V | 08:29:48 | 02:01:18 | 00:00:00 | |
| DL1XH-west | 2026-08-30 12:19:37 | 48.95651 | 10.00630 | 314° | 33km/h | 27625m | -26.1m/s | -48.7°C | 0.1% | 17.9hPa | 2.6V | 08:29:48 | 02:01:16 | 00:00:00 | |
| DL1NUX | 2026-08-30 12:19:37 | 48.95623 | 10.00661 | 337° | 20km/h | 27756m | -29m/s | -47.9°C | 3.1% | 17.5hPa | 2.7V | 08:29:19 | 02:01:11 | 00:00:00 | |
| DF8AY | 2026-08-30 12:19:35 | 48.95639 | 10.00645 | 321° | 31km/h | 27674m | -25.6m/s | -48.6°C | 0.1% | 17.7hPa | 2.6V | 08:29:48 | 02:01:14 | 00:00:00 | |
| DK7TD | 2026-08-30 12:19:28 | 48.95608 | 10.00667 | 346° | 13km/h | 27867m | -29.3m/s | -47.9°C | 0% | 17.2hPa | 2.7V | 08:29:48 | 02:01:07 | 00:00:00 | |
| DL1XH-west | 2026-08-30 12:19:26 | 48.95601 | 10.00669 | 344° | 15km/h | 27925m | -28.1m/s | -48°C | 0% | 17.1hPa | 2.6V | 08:29:48 | 02:01:05 | 00:00:00 | |
| DF8AY | 2026-08-30 12:19:24 | 48.95594 | 10.00672 | 347° | 16km/h | 27985m | -29.1m/s | -48.1°C | 0% | 16.9hPa | 2.7V | 08:29:48 | 02:01:03 | 00:00:00 | |
| DK7TD | 2026-08-30 12:19:18 | 48.95567 | 10.00683 | 343° | 20km/h | 28149m | -23.7m/s | -47.9°C | 0% | 16.5hPa | 2.7V | 08:29:48 | 02:00:57 | 00:00:00 | |
| DL1XH-west | 2026-08-30 12:19:16 | 48.95558 | 10.00686 | 351° | 18km/h | 28198m | -25.7m/s | -47.7°C | 0% | 16.4hPa | 2.6V | 08:29:48 | 02:00:55 | 00:00:00 | |
| DF8AY | 2026-08-30 12:19:13 | 48.95544 | 10.00688 | 351° | 18km/h | 28274m | -27m/s | -47.5°C | 0% | 16.2hPa | 2.7V | 08:29:48 | 02:00:52 | 00:00:00 | |
| DL1NUX | 2026-08-30 12:19:12 | 48.95535 | 10.00691 | 345° | 15km/h | 28322m | -22.8m/s | -47.2°C | 2.9% | 16hPa | 2.6V | 08:29:40 | 02:00:50 | 00:00:00 | |
| DB0UT-7 | 2026-08-30 12:19:12 | 48.95539 | 10.00690 | 352° | 24km/h | 28299m | -24.3m/s | -47.3°C | 3.0% | 16.1hPa | 2.6V | 00:00:00 | 02:00:51 | 00:00:00 | |
| PG1ADW-2 | 2026-08-30 12:19:11 | 48.95534 | 10.00691 | 346° | 24km/h | 28322m | -22.8m/s | -47.1°C | 2.9% | 16.0hPa | 2.6V | 00:00:00 | 00:00:00 | 00:00:00 | |
| DO3MHA-12 | 2026-08-30 12:19:10 | 48.95530 | 10.00693 | 328° | 24km/h | 28348m | -28.6m/s | -47.0°C | 2.9% | 16.0hPa | 2.6V | 00:00:00 | 02:00:49 | 00:00:00 | |
| DL1XH1-15 | 2026-08-30 12:19:09 | 48.95518 | 10.00708 | 311° | 24km/h | 28426m | -24.3m/s | -47°C | 2.9% | 15.8hPa | 2.6V | 08:29:44 | 02:00:46 | 00:00:00 | |
| DK7TD | 2026-08-30 12:19:07 | 48.95518 | 10.00708 | 312° | 24km/h | 28426m | -24.3m/s | -47°C | 0% | 15.8hPa | 2.6V | 08:29:48 | 02:00:46 | 00:00:00 | |
| DL1XH-west | 2026-08-30 12:19:06 | 48.95514 | 10.00715 | 312° | 24km/h | 28449m | -24.3m/s | -47.1°C | 0% | 15.7hPa | 2.6V | 08:29:48 | 02:00:45 | 00:00:00 | |
| DF8AY | 2026-08-30 12:19:03 | 48.95502 | 10.00736 | 309° | 26km/h | 28528m | -27.3m/s | -47.5°C | 0% | 15.6hPa | 2.7V | 08:29:48 | 02:00:42 | 00:00:00 | |
| DM0DOS-11 | 2026-08-30 12:19:02 | 48.95475 | 10.00766 | 339° | 29km/h | 28654m | -24.8m/s | -47.4°C | 3% | 15.2hPa | 2.7V | 08:30:00 | 02:00:37 | 00:00:00 | |
| DK7TD | 2026-08-30 12:18:57 | 48.95468 | 10.00770 | 342° | 29km/h | 28678m | -24.7m/s | -47.4°C | 0% | 15.2hPa | 2.7V | 18:12:15 | 02:00:36 | 00:00:00 | |
| DJ2DS-15 | 2026-08-30 12:18:57 | 48.95468 | 10.00769 | 342° | 20km/h | 28679m | -24.7m/s | -47.3°C | 3.0% | 15.1hPa | 2.7V | 00:00:00 | 02:00:36 | 00:00:00 | |
| DM0DOS-11 | 2026-08-30 12:18:55 | 48.95414 | 10.00761 | 24° | 20km/h | 28911m | -27.1m/s | -47.9°C | 3.3% | 14.7hPa | 2.7V | 08:30:00 | 02:00:27 | 00:00:00 | |
| DF8AY | 2026-08-30 12:18:55 | 48.95439 | 10.00774 | 8° | 24km/h | 28777m | -24.3m/s | -47.6°C | 0% | 15hPa | 2.7V | 18:12:15 | 02:00:32 | 00:00:00 | |
| HSKMA3-T | 2026-08-30 12:18:47 | 48.95410 | 10.00758 | 23° | 22km/h | 28939m | -28.7m/s | -48°C | 0.2% | 14.6hPa | 2.7V | 18:12:15 | 02:00:26 | 00:00:00 | |
| DK7TD | 2026-08-30 12:18:47 | 48.95405 | 10.00755 | 19° | 20km/h | 28967m | -27.5m/s | -47.9°C | 0.1% | 14.5hPa | 2.6V | 18:12:15 | 02:00:25 | 00:00:00 | |
| DL1NUX | 2026-08-30 12:18:45 | 48.95384 | 10.00743 | 30° | 11km/h | 29104m | -23.8m/s | -47.4°C | 3.2% | 14.2hPa | 2.6V | 08:30:00 | 02:00:20 | 00:00:00 | |
| DM0DOS-11 | 2026-08-30 12:18:43 | 48.95378 | 10.00732 | 55° | 15km/h | 29186m | -30.5m/s | -46.8°C | 3% | 14.1hPa | 2.7V | 08:30:00 | 02:00:17 | 00:00:00 | |
| DL1XH-west | 2026-08-30 12:18:42 | 48.95387 | 10.00745 | 19° | 15km/h | 29078m | -27.5m/s | -47.6°C | 0.1% | 14.3hPa | 2.7V | 18:12:15 | 02:00:21 | 00:00:00 | |
| DL1XH1-15 | 2026-08-30 12:18:42 | 48.95376 | 10.00728 | 68° | 15km/h | 29214m | -26.8m/s | -46.7°C | 3% | 14hPa | 2.6V | 08:30:00 | 02:00:16 | 00:00:00 | |
| AA1-15 | 2026-08-30 12:18:37 | 48.95376 | 10.00728 | 68° | 15km/h | 29214m | -26.8m/s | 0°C | 0% | 0hPa | 2.6V | 18:12:15 | 02:00:16 | 00:00:00 | |
| HSKMA3-T | 2026-08-30 12:18:36 | 48.95374 | 10.00722 | 60° | 15km/h | 29242m | -26.2m/s | -46.6°C | 0% | 13.9hPa | 2.6V | 18:12:15 | 02:00:15 | 00:00:00 | |
| DF3TZ-5 | 2026-08-30 12:18:35 | 48.95369 | 10.00714 | 34° | 15km/h | 29292m | -23.2m/s | -46.5°C | 0.7% | 13.8hPa | 2.6V | 00:00:00 | 00:00:00 | 00:00:00 | |
| DL1NUX | 2026-08-30 12:18:33 | 48.95358 | 10.00708 | 3° | 20km/h | 29366m | -28.5m/s | -46.3°C | 2.8% | 13.7hPa | 2.6V | 08:30:00 | 02:00:10 | 00:00:00 | |
| DM0DOS-11 | 2026-08-30 12:18:32 | 48.95345 | 10.00706 | 12° | 15km/h | 29443m | -26.1m/s | -46.1°C | 2.9% | 13.5hPa | 2.7V | 08:30:00 | 02:00:07 | 00:00:00 | |
| DL1XH-west | 2026-08-30 12:18:32 | 48.95362 | 10.00709 | 12° | 16km/h | 29339m | -24.1m/s | -46.3°C | 0% | 13.7hPa | 2.7V | 18:12:15 | 02:00:11 | 00:00:00 | |
| DN1GJH-1 | 2026-08-30 12:18:31 | 48.95362 | 10.00709 | 13° | 16km/h | 29339m | -24.1m/s | -46.3°C | 0.7% | 13.7hPa | 2.7V | 00:00:00 | 00:00:00 | 00:00:00 | |
| DO3MHA-12 | 2026-08-30 12:18:30 | 48.95353 | 10.00708 | 3° | 15km/h | 29393m | -25.3m/s | -46.3°C | 2.8% | 13.6hPa | 2.7V | 00:00:00 | 02:00:09 | 00:00:00 | |
| DL1XH1-15 | 2026-08-30 12:18:29 | 48.95341 | 10.00705 | 22° | 13km/h | 29470m | -27.4m/s | -46°C | 2.8% | 13.4hPa | 2.7V | 08:30:00 | 02:00:06 | 00:00:00 | |
| AA1-15 | 2026-08-30 12:18:27 | 48.95341 | 10.00705 | 23° | 13km/h | 29470m | -27.4m/s | 0°C | 0% | 0hPa | 2.7V | 18:12:15 | 02:00:06 | 00:00:00 | |
| DK7TD | 2026-08-30 12:18:25 | 48.95336 | 10.00698 | 47° | 13km/h | 29523m | -24m/s | -46.1°C | 0% | 13.3hPa | 2.6V | 18:12:15 | 02:00:04 | 00:00:00 | |
| DL1NUX | 2026-08-30 12:18:22 | 48.95331 | 10.00679 | 71° | 15km/h | 29585m | 1.6m/s | -45.8°C | 2.9% | 13.2hPa | 2.6V | 08:30:00 | 02:00:00 | 00:00:00 | |
| DL1XH-west | 2026-08-30 12:18:22 | 48.95331 | 10.00679 | 72° | 15km/h | 29585m | 1.6m/s | -45.8°C | 0% | 13.2hPa | 2.6V | 18:12:15 | 02:00:00 | 00:00:00 | |
| DF8AY | 2026-08-30 12:18:20 | 48.95330 | 10.00674 | 78° | 13km/h | 29579m | 12.3m/s | -45.9°C | 0% | 13.2hPa | 2.6V | 18:12:15 | 01:59:59 | 00:00:00 | |
| HSKMA3-T | 2026-08-30 12:18:18 | 48.95325 | 10.00668 | 12° | 15km/h | 29563m | 6.8m/s | -45.8°C | 0% | 13.2hPa | 2.7V | 18:12:15 | 01:59:57 | 00:00:00 | |
| DM0DOS-11 | 2026-08-30 12:18:18 | 48.95321 | 10.00667 | 357° | 18km/h | 29557m | 5.4m/s | -45.8°C | 2.9% | 13.2hPa | 2.7V | 08:30:00 | 01:59:56 | 00:00:00 | |
| DK7TD | 2026-08-30 12:18:15 | 48.95311 | 10.00668 | 2° | 22km/h | 29545m | 7m/s | -45.9°C | 0% | 13.2hPa | 2.6V | 18:12:15 | 01:59:54 | 00:00:00 | |
| AA1-15 | 2026-08-30 12:18:14 | 48.95306 | 10.00667 | 10° | 22km/h | 29538m | 6m/s | 0°C | 0% | 0hPa | 2.6V | 18:12:15 | 01:59:53 | 00:00:00 | |
| DL1NUX | 2026-08-30 12:18:12 | 48.95292 | 10.00662 | 0° | 5km/h | 29515m | 6.8m/s | -46.1°C | 2.9% | 13.3hPa | 2.6V | 08:30:00 | 01:59:49 | 00:00:00 | |
| DF8AY | 2026-08-30 12:18:10 | 48.95292 | 10.00662 | 0° | 5km/h | 29515m | 6.8m/s | -46.1°C | 0% | 13.3hPa | 2.6V | 18:12:15 | 01:59:49 | 00:00:00 | |
| DO3MHA-12 | 2026-08-30 12:18:10 | 48.95292 | 10.00662 | 1° | 13km/h | 29515m | 6.8m/s | -46.0°C | 2.9% | 13.3hPa | 2.6V | 00:00:00 | 01:59:49 | 08:30:00 | |
| DL1XH1-15 | 2026-08-30 12:18:09 | 48.95292 | 10.00658 | 83° | 9km/h | 29496m | 7.2m/s | -45.9°C | 2.9% | 13.3hPa | 2.6V | 08:30:00 | 01:59:46 | 00:00:00 | |
| DK7TD | 2026-08-30 12:18:04 | 48.95286 | 10.00644 | 42° | 16km/h | 29479m | 6.2m/s | -46.1°C | 0% | 13.4hPa | 2.7V | 18:12:15 | 01:59:43 | 00:00:00 | |
| AA1-15 | 2026-08-30 12:18:03 | 48.95283 | 10.00641 | 21° | 16km/h | 29473m | 6.8m/s | 0°C | 0% | 0hPa | 2.7V | 18:12:15 | 01:59:42 | 00:00:00 | |
| DL1NUX | 2026-08-30 12:18:02 | 48.95269 | 10.00640 | 357° | 20km/h | 29455m | 5.5m/s | -46.2°C | 2.9% | 13.4hPa | 2.6V | 08:30:00 | 01:59:39 | 00:00:00 | |
| DF8AY | 2026-08-30 12:17:59 | 48.95265 | 10.00640 | 7° | 18km/h | 29448m | 7.2m/s | -46.1°C | 0% | 13.4hPa | 2.6V | 18:12:15 | 01:59:38 | 00:00:00 | |
| DM0DOS-11 | 2026-08-30 12:17:58 | 48.95242 | 10.00623 | 30° | 16km/h | 29412m | 5.2m/s | -46.4°C | 3% | 13.5hPa | 2.7V | 08:30:00 | 01:59:32 | 00:00:00 | |
| DL8DAS-14 | 2026-08-30 12:17:58 | 48.95256 | 10.00635 | 31° | 16km/h | 29436m | 5.4m/s | -46.2°C | 0.7% | 13.4hPa | 2.6V | 00:00:00 | 00:00:00 | 00:00:00 | |
| AZAK | 2026-08-30 12:17:57 | 48.95256 | 10.00635 | 32° | 18km/h | 29436m | 5.4m/s | -46.2°C | 0.7% | 13.5hPa | 2.6V | 00:00:00 | 00:00:00 | 00:00:00 | |
| DL1NUX | 2026-08-30 12:17:55 | 48.95232 | 10.00608 | 54° | 22km/h | 29392m | 6.1m/s | -46.1°C | 2.9% | 13.6hPa | 2.6V | 08:30:00 | 01:59:29 | 00:00:00 | |
| DK7TD | 2026-08-30 12:17:53 | 48.95242 | 10.00623 | 31° | 16km/h | 29412m | 5.3m/s | -46.4°C | 0% | 13.5hPa | 2.7V | 18:12:15 | 01:59:32 | 00:00:00 | |
| DL1XH-west | 2026-08-30 12:17:48 | 48.95225 | 10.00596 | 44° | 18km/h | 29382m | 5.3m/s | -46.1°C | 0% | 13.6hPa | 2.7V | 18:12:15 | 01:59:27 | 00:00:00 | |
| DL1ZP-14 | 2026-08-30 12:17:46 | 48.95218 | 10.00591 | 0° | 15km/h | 29370m | 6.3m/s | -46.3°C | 0.6% | 13.6hPa | 2.6V | 00:00:00 | 00:00:00 | 00:00:00 | |
| DM0DOS-11 | 2026-08-30 12:17:45 | 48.95206 | 10.00592 | 13° | 15km/h | 29353m | 6.8m/s | -46.1°C | 2.9% | 13.6hPa | 2.7V | 08:30:00 | 01:59:22 | 00:00:00 | |
| DK7TD | 2026-08-30 12:17:43 | 48.95206 | 10.00592 | 14° | 15km/h | 29353m | 6.8m/s | -46.1°C | 0% | 13.6hPa | 2.7V | 18:12:15 | 01:59:22 | 00:00:00 | |
| DL1NUX | 2026-08-30 12:17:43 | 48.95198 | 10.00576 | 69° | 22km/h | 29335m | 6m/s | -46.4°C | 2.9% | 13.7hPa | 2.6V | 08:30:00 | 01:59:19 | 00:00:00 | |
| DL1XH1-15 | 2026-08-30 12:17:42 | 48.95193 | 10.00554 | 70° | 18km/h | 29316m | 5.5m/s | -46.6°C | 3% | 13.7hPa | 2.6V | 08:30:00 | 01:59:16 | 00:00:00 | |
| HSKMA3-T | 2026-08-30 12:17:42 | 48.95203 | 10.00589 | 44° | 16km/h | 29346m | 6.5m/s | -46.1°C | 0% | 13.7hPa | 2.7V | 18:12:15 | 01:59:21 | 00:00:00 | |
| DB0UT-7 | 2026-08-30 12:17:42 | 48.95203 | 10.00589 | 44° | 16km/h | 29346m | 6.4m/s | -46.1°C | 2.8% | 13.6hPa | 2.7V | 00:00:00 | 00:00:00 | 00:00:00 | |
| EDDB2-11 | 2026-08-30 12:17:41 | 48.95198 | 10.00576 | 69° | 20km/h | 29335m | 6.0m/s | -46.4°C | 0.6% | 13.7hPa | 2.7V | 00:00:00 | 00:00:00 | 00:00:00 | |
| DF7PN | 2026-08-30 12:17:40 | 48.95196 | 10.00568 | 71° | 20km/h | 29328m | 6.6m/s | -46.5°C | 0.6% | 13.7hPa | 2.7V | 00:00:00 | 00:00:00 | 00:00:00 | |
| DC4HF-4 | 2026-08-30 12:17:39 | 48.95196 | 10.00568 | 71° | 20km/h | 29328m | 6.6m/s | -46.5°C | -1.0% | 13.7hPa | 2.7V | 00:00:00 | 00:00:00 | 00:00:00 | |
| DM0DOS-11 | 2026-08-30 12:17:38 | 48.95186 | 10.00533 | 29° | 11km/h | 29293m | 6.2m/s | -46.4°C | 2.9% | 13.8hPa | 2.7V | 08:30:00 | 01:59:12 | 00:00:00 | |
| AA1-15 | 2026-08-30 12:17:37 | 48.95193 | 10.00554 | 71° | 18km/h | 29316m | 5.5m/s | 0°C | 0% | 0hPa | 2.6V | 18:12:15 | 01:59:16 | 00:00:00 | |
| DJ2DS-15 | 2026-08-30 12:17:37 | 48.95193 | 10.00554 | 71° | 16km/h | 29317m | 5.4m/s | -46.5°C | 3.0% | 13.7hPa | 2.6V | 00:00:00 | 01:59:16 | 00:00:00 | |
| SO1NDE-10 | 2026-08-30 12:17:36 | 48.95191 | 10.00547 | 73° | 18km/h | 29310m | 6.8m/s | -46.4°C | 3.0% | 13.7hPa | 2.6V | 00:00:00 | 01:59:15 | 08:30:00 | |
| NBG1-10 | 2026-08-30 12:17:35 | 48.95190 | 10.00541 | 70° | 18km/h | 29304m | 5.8m/s | -46.3°C | 2.9% | 13.7hPa | 2.6V | 00:00:00 | 01:59:14 | 00:00:00 | |
| DL1NUX | 2026-08-30 12:17:32 | 48.95177 | 10.00535 | 344° | 13km/h | 29273m | 5.5m/s | -46.5°C | 2.9% | 13.8hPa | 2.6V | 08:30:00 | 01:59:09 | 00:00:00 | |
| DK7TD | 2026-08-30 12:17:32 | 48.95184 | 10.00532 | 358° | 11km/h | 29286m | 7.5m/s | -46.5°C | 0% | 13.8hPa | 2.7V | 18:12:15 | 01:59:11 | 00:00:00 | |
| HSKMA3-T | 2026-08-30 12:17:31 | 48.95181 | 10.00533 | 342° | 13km/h | 29279m | 6m/s | -46.6°C | 0% | 13.8hPa | 2.6V | 18:12:15 | 01:59:10 | 00:00:00 | |
| DO3MHA-12 | 2026-08-30 12:17:30 | 48.95177 | 10.00534 | 345° | 15km/h | 29274m | 5.5m/s | -46.4°C | 2.9% | 13.8hPa | 2.7V | 00:00:00 | 01:59:09 | 00:00:00 | |
| DL1XH1-15 | 2026-08-30 12:17:29 | 48.95173 | 10.00529 | 84° | 15km/h | 29254m | 5.6m/s | -46.4°C | 2.9% | 13.9hPa | 2.7V | 08:30:00 | 01:59:06 | 00:00:00 | |
| DF8AY | 2026-08-30 12:17:27 | 48.95173 | 10.00529 | 84° | 15km/h | 29254m | 5.6m/s | -46.4°C | 0% | 13.9hPa | 2.7V | 18:12:15 | 01:59:06 | 00:00:00 | |
| DL1XH-west | 2026-08-30 12:17:26 | 48.95172 | 10.00523 | 88° | 16km/h | 29249m | 6m/s | -46.5°C | 0% | 13.9hPa | 2.6V | 18:12:15 | 01:59:05 | 00:00:00 | |
| SONDE2-11 | 2026-08-30 12:17:26 | 48.95172 | 10.00517 | 85° | 16km/h | 29243m | 7.0m/s | -46.5°C | 0.6% | 13.9hPa | 2.7V | 00:00:00 | 00:00:00 | 00:00:00 | |
| DL1XH1-15 | 2026-08-30 12:17:22 | 48.95150 | 10.00484 | 336° | 26km/h | 29193m | 6.3m/s | -47°C | 2.9% | 14hPa | 2.7V | 08:30:00 | 01:58:56 | 00:00:00 | |
| HSKMA3-T | 2026-08-30 12:17:21 | 48.95167 | 10.00490 | 63° | 18km/h | 29218m | 5.5m/s | -46.8°C | 0% | 13.9hPa | 2.6V | 18:12:15 | 01:59:00 | 00:00:00 | |
| DF8AY | 2026-08-30 12:17:16 | 48.95144 | 10.00488 | 331° | 27km/h | 29188m | 4.8m/s | -47.1°C | 0% | 14hPa | 2.6V | 18:12:15 | 01:58:55 | 00:00:00 | |
| DL1ZP-14 | 2026-08-30 12:17:15 | 48.95134 | 10.00495 | 344° | 15km/h | 29177m | 6.3m/s | -47.0°C | 0.7% | 14.0hPa | 2.6V | 00:00:00 | 00:00:00 | 00:00:00 | |
| DL1NUX | 2026-08-30 12:17:12 | 48.95124 | 10.00481 | 60° | 22km/h | 29152m | 6.5m/s | -47.3°C | 3% | 14.1hPa | 2.6V | 08:30:00 | 01:58:49 | 00:00:00 | |
| HSKMA3-T | 2026-08-30 12:17:11 | 48.95126 | 10.00488 | 65° | 16km/h | 29158m | 6.5m/s | -47.3°C | 0% | 14hPa | 2.6V | 18:12:15 | 01:58:50 | 00:00:00 | |
| DO3MHA-12 | 2026-08-30 12:17:10 | 48.95124 | 10.00481 | 61° | 24km/h | 29152m | 6.5m/s | -47.2°C | 3.0% | 14.0hPa | 2.6V | 00:00:00 | 01:58:49 | 00:00:00 | |
| DL1XH1-15 | 2026-08-30 12:17:09 | 48.95113 | 10.00457 | 50° | 29km/h | 29135m | 6.1m/s | -47.6°C | 3% | 14.1hPa | 2.6V | 08:30:00 | 01:58:46 | 00:00:00 | |
| AA1-15 | 2026-08-30 12:17:08 | 48.95117 | 10.00466 | 51° | 27km/h | 29140m | 5.2m/s | 0°C | 0% | 0hPa | 2.7V | 18:12:15 | 01:58:47 | 00:00:00 | |
| DF8AY | 2026-08-30 12:17:05 | 48.95104 | 10.00442 | 42° | 24km/h | 29123m | 4.7m/s | -47.7°C | 0% | 14.1hPa | 2.6V | 18:12:15 | 01:58:44 | 00:00:00 | |
| DM0DOS-11 | 2026-08-30 12:17:05 | 48.95094 | 10.00434 | 7° | 20km/h | 29113m | 6.1m/s | -47.7°C | 3.1% | 14.2hPa | 2.7V | 08:30:00 | 01:58:42 | 00:00:00 | |
| DL1NUX | 2026-08-30 12:17:05 | 48.95074 | 10.00447 | 328° | 18km/h | 29090m | 4.6m/s | -47.5°C | 3.1% | 14.2hPa | 2.6V | 08:30:00 | 01:58:38 | 00:00:00 | |
| DC4HF-4 | 2026-08-30 12:17:03 | 48.95094 | 10.00434 | 7° | 20km/h | 29113m | 6.1m/s | -47.7°C | -1.0% | -1.0hPa | 2.6V | 00:00:00 | 00:00:00 | 00:00:00 | |
| DL1XH1-15 | 2026-08-30 12:17:02 | 48.95066 | 10.00444 | 68° | 16km/h | 29072m | 5.6m/s | -47.7°C | 3.2% | 14.2hPa | 2.6V | 08:30:00 | 01:58:35 | 00:00:00 | |
| DK7TD | 2026-08-30 12:17:00 | 48.95078 | 10.00442 | 328° | 24km/h | 29094m | 4.2m/s | -47.5°C | 0% | 14.2hPa | 2.6V | 18:12:15 | 01:58:39 | 00:00:00 | |
| DL6DJ-15 | 2026-08-30 12:17:00 | 48.95074 | 10.00447 | 328° | 16km/h | 29090m | 4.6m/s | -47.5°C | 0.7% | 14.2hPa | 2.7V | 00:00:00 | 00:00:00 | 00:00:00 | |
| DM0DOS-11 | 2026-08-30 12:16:58 | 48.95058 | 10.00420 | 50° | 27km/h | 29053m | 5.1m/s | -47.7°C | 3.2% | 14.3hPa | 2.7V | 08:30:00 | 01:58:32 | 00:00:00 | |
| HSKMA3-T | 2026-08-30 12:16:58 | 48.95070 | 10.00449 | 343° | 11km/h | 29084m | 6.7m/s | -47.6°C | 0% | 14.2hPa | 2.7V | 18:12:15 | 01:58:37 | 00:00:00 | |
| AA1-15 | 2026-08-30 12:16:57 | 48.95068 | 10.00448 | 47° | 9km/h | 29077m | 6.1m/s | 0°C | 0% | 0hPa | 2.7V | 18:12:15 | 01:58:36 | 00:00:00 | |
| DF8AY | 2026-08-30 12:16:54 | 48.95062 | 10.00429 | 59° | 26km/h | 29059m | 6.4m/s | -47.7°C | 0% | 14.3hPa | 2.7V | 18:12:15 | 01:58:33 | 00:00:00 | |
| DK7TD | 2026-08-30 12:16:50 | 48.95044 | 10.00400 | 36° | 24km/h | 29037m | 6.3m/s | -47.9°C | 0.1% | 14.3hPa | 2.6V | 18:12:15 | 01:58:29 | 00:00:00 | |
| HSKMA3-T | 2026-08-30 12:16:46 | 48.95025 | 10.00393 | 353° | 20km/h | 29012m | 6.4m/s | -47.7°C | 0.1% | 14.4hPa | 2.6V | 18:12:15 | 01:58:25 | 00:00:00 | |
| DL8DAS-15 | 2026-08-30 12:16:46 | 48.95025 | 10.00393 | 354° | 20km/h | 29013m | 6.4m/s | -47.7°C | 0% | 0hPa | 2.7V | 00:00:00 | 00:00:00 | 00:00:00 | |
| DM0DOS-11 | 2026-08-30 12:16:45 | 48.95014 | 10.00392 | 42° | 9km/h | 28997m | 7.2m/s | -47.8°C | 3.2% | 14.4hPa | 2.7V | 08:30:00 | 01:58:22 | 00:00:00 | |
| DL1XH-west | 2026-08-30 12:16:44 | 48.95016 | 10.00394 | 11° | 13km/h | 29002m | 4.5m/s | -47.7°C | 0.1% | 14.4hPa | 2.6V | 18:12:15 | 01:58:23 | 00:00:00 | |
| DF8AY | 2026-08-30 12:16:43 | 48.95014 | 10.00392 | 43° | 11km/h | 28997m | 7.2m/s | -47.8°C | 0% | 14.4hPa | 2.7V | 18:12:15 | 01:58:22 | 00:00:00 | |
| DK7TD | 2026-08-30 12:16:40 | 48.95011 | 10.00373 | 71° | 24km/h | 28980m | 4.7m/s | -48°C | 0.1% | 14.4hPa | 2.6V | 18:12:15 | 01:58:19 | 00:00:00 | |
| DO3MHA-12 | 2026-08-30 12:16:40 | 48.95010 | 10.00373 | 71° | 29km/h | 28980m | 4.7m/s | -47.9°C | 3.2% | 14.4hPa | 2.6V | 00:00:00 | 01:58:19 | 08:30:00 | |
| DM0DOS-11 | 2026-08-30 12:16:38 | 48.94963 | 10.00347 | 0° | 29km/h | 28938m | 5.5m/s | -47.9°C | 3.2% | 14.5hPa | 2.7V | 08:30:00 | 01:58:12 | 00:00:00 | |
| DL1XH-15 | 2026-08-30 12:16:37 | 48.94957 | 10.00347 | 359° | 26km/h | 28932m | 5.4m/s | 0°C | 0% | 0hPa | 2.7V | 00:00:00 | 01:58:11 | 00:00:00 | |
| HSKMA3-T | 2026-08-30 12:16:36 | 48.94988 | 10.00350 | 9° | 35km/h | 28956m | 5.6m/s | -47.8°C | 0% | 14.5hPa | 2.6V | 18:12:15 | 01:58:15 | 00:00:00 | |
| AA1-15 | 2026-08-30 12:16:35 | 48.94979 | 10.00348 | 4° | 35km/h | 28950m | 6.7m/s | 0°C | 0% | 0hPa | 2.6V | 18:12:15 | 01:58:14 | 00:00:00 | |
| DL1XH-west | 2026-08-30 12:16:34 | 48.94971 | 10.00348 | 2° | 31km/h | 28944m | 6.2m/s | -47.9°C | 0% | 14.5hPa | 2.7V | 18:12:15 | 01:58:13 | 00:00:00 | |
| DF8AY | 2026-08-30 12:16:32 | 48.94956 | 10.00347 | 360° | 26km/h | 28932m | 5.4m/s | -47.9°C | 0.1% | 14.6hPa | 2.7V | 18:12:15 | 01:58:11 | 00:00:00 | |
| DK7TD | 2026-08-30 12:16:29 | 48.94937 | 10.00344 | 19° | 26km/h | 28915m | 4.8m/s | -47.7°C | 0% | 14.6hPa | 2.6V | 18:12:15 | 01:58:08 | 00:00:00 | |
| DL1XH1-15 | 2026-08-30 12:16:29 | 48.94927 | 10.00335 | 45° | 22km/h | 28904m | 6.3m/s | -47.7°C | 3.1% | 14.6hPa | 2.7V | 08:30:00 | 01:58:06 | 00:00:00 | |
| HSKMA3-T | 2026-08-30 12:16:25 | 48.94920 | 10.00324 | 35° | 20km/h | 28894m | 4.3m/s | -47.8°C | 0% | 14.7hPa | 2.6V | 18:12:15 | 01:58:04 | 00:00:00 | |
| DL1XH-west | 2026-08-30 12:16:24 | 48.94908 | 10.00319 | 1° | 31km/h | 28883m | 6.2m/s | -47.9°C | 0% | 14.7hPa | 2.7V | 18:12:15 | 01:58:02 | 00:00:00 | |
| DL1XH1-15 | 2026-08-30 12:16:22 | 48.94842 | 10.00323 | 357° | 35km/h | 28849m | 5.8m/s | -47.6°C | 3.2% | 14.8hPa | 2.7V | 08:30:00 | 01:57:56 | 00:00:00 | |
| DF8AY | 2026-08-30 12:16:22 | 48.94899 | 10.00320 | 357° | 40km/h | 28877m | 6.4m/s | -47.8°C | 0% | 14.7hPa | 2.6V | 18:12:15 | 01:58:01 | 00:00:00 | |
| DK7TD | 2026-08-30 12:16:19 | 48.94863 | 10.00322 | 359° | 49km/h | 28860m | 5.1m/s | -47.8°C | 0.1% | 14.7hPa | 2.7V | 18:12:15 | 01:57:58 | 00:00:00 | |
| DM0DOS-11 | 2026-08-30 12:16:18 | 48.94819 | 10.00321 | 24° | 18km/h | 28826m | 6.5m/s | -47.6°C | 3.3% | 14.8hPa | 2.7V | 08:30:00 | 01:57:52 | 00:00:00 | |
| HSKMA3-T | 2026-08-30 12:16:15 | 48.94828 | 10.00324 | 359° | 20km/h | 28837m | 5.7m/s | -47.5°C | 0% | 14.8hPa | 2.6V | 18:12:15 | 01:57:54 | 00:00:00 | |
| DL1XH-west | 2026-08-30 12:16:13 | 48.94819 | 10.00321 | 25° | 18km/h | 28826m | 6.5m/s | -47.6°C | 0.1% | 14.8hPa | 2.7V | 18:12:15 | 01:57:52 | 00:00:00 | |
| OE5DRO-10 | 2026-08-30 12:16:13 | 48.94819 | 10.00321 | 25° | 27km/h | 28826m | 6.4m/s | -47.6°C | 3.3% | 14.8hPa | 2.6V | 00:00:00 | 00:00:00 | 00:00:00 | |
| DL1NUX | 2026-08-30 12:16:12 | 48.94802 | 10.00310 | 16° | 29km/h | 28809m | 4.9m/s | -47.3°C | 3.2% | 14.8hPa | 2.6V | 08:30:00 | 01:57:49 | 00:00:00 | |
| DF8AY | 2026-08-30 12:16:10 | 48.94802 | 10.00310 | 17° | 29km/h | 28809m | 4.9m/s | -47.3°C | 0.1% | 14.8hPa | 2.6V | 18:12:15 | 01:57:49 | 00:00:00 | |
| DK7TD | 2026-08-30 12:16:08 | 48.94787 | 10.00306 | 360° | 31km/h | 28797m | 6.3m/s | -47.1°C | 0% | 14.9hPa | 2.7V | 18:12:15 | 01:57:47 | 00:00:00 | |
| DN1GJH-1 | 2026-08-30 12:16:07 | 48.94787 | 10.00306 | 360° | 31km/h | 28798m | 6.3m/s | -47.1°C | 0.7% | 14.9hPa | 2.6V | 00:00:00 | 00:00:00 | 00:00:00 | |
| DL1NUX | 2026-08-30 12:16:06 | 48.94725 | 10.00320 | 337° | 22km/h | 28748m | 5.8m/s | -47.3°C | 3.1% | 15hPa | 2.6V | 08:30:00 | 01:57:39 | 00:00:00 | |
| DM0DOS-11 | 2026-08-30 12:16:05 | 48.94746 | 10.00314 | 355° | 33km/h | 28766m | 5.5m/s | -47.2°C | 3% | 14.9hPa | 2.6V | 08:30:00 | 01:57:42 | 00:00:00 | |
| HSKMA3-T | 2026-08-30 12:16:05 | 48.94763 | 10.00312 | 352° | 35km/h | 28779m | 6.6m/s | -47.2°C | 0% | 14.9hPa | 2.6V | 18:12:15 | 01:57:44 | 00:00:00 | |
| AA1-15 | 2026-08-30 12:16:04 | 48.94754 | 10.00313 | 355° | 35km/h | 28773m | 6.4m/s | 0°C | 0% | 0hPa | 2.6V | 18:12:15 | 01:57:43 | 00:00:00 | |
| DL1XH-west | 2026-08-30 12:16:03 | 48.94745 | 10.00314 | 356° | 33km/h | 28767m | 5.5m/s | -47.2°C | 0% | 14.9hPa | 2.6V | 18:12:15 | 01:57:42 | 00:00:00 | |
| DF8AY | 2026-08-30 12:16:00 | 48.94725 | 10.00320 | 337° | 22km/h | 28748m | 5.8m/s | -47.3°C | 0% | 15hPa | 2.6V | 18:12:15 | 01:57:39 | 00:00:00 | |
| DK7TD | 2026-08-30 12:15:57 | 48.94711 | 10.00328 | 350° | 22km/h | 28730m | 6.2m/s | -47.1°C | 0% | 15hPa | 2.7V | 18:12:15 | 01:57:36 | 00:00:00 | |
| AA1-15 | 2026-08-30 12:15:54 | 48.94686 | 10.00339 | 330° | 29km/h | 28707m | 6.2m/s | 0°C | 0% | 0hPa | 2.7V | 18:12:15 | 01:57:32 | 00:00:00 | |
| HSKMA3-T | 2026-08-30 12:15:54 | 48.94693 | 10.00334 | 339° | 27km/h | 28713m | 6.8m/s | -47.2°C | 0% | 15.1hPa | 2.6V | 18:12:15 | 01:57:33 | 00:00:00 | |
| DL1XH-west | 2026-08-30 12:15:53 | 48.94680 | 10.00345 | 325° | 29km/h | 28701m | 5.3m/s | -47.3°C | 0% | 15.1hPa | 2.7V | 18:12:15 | 01:57:31 | 00:00:00 | |
| DL1NUX | 2026-08-30 12:15:53 | 48.94667 | 10.00357 | 333° | 31km/h | 28690m | 6m/s | -47.2°C | 3.1% | 15.1hPa | 2.6V | 08:30:00 | 01:57:29 | 00:00:00 | |
| DF8AY | 2026-08-30 12:15:49 | 48.94660 | 10.00362 | 340° | 35km/h | 28684m | 6.2m/s | -47.3°C | 0% | 15.1hPa | 2.6V | 18:12:15 | 01:57:28 | 00:00:00 | |
| DL1XH1-15 | 2026-08-30 12:15:49 | 48.94643 | 10.00371 | 338° | 35km/h | 28673m | 5.9m/s | -47.3°C | 3.2% | 15.2hPa | 2.7V | 08:30:00 | 01:57:26 | 00:00:00 | |
| DK7TD | 2026-08-30 12:15:47 | 48.94643 | 10.00371 | 339° | 35km/h | 28673m | 5.9m/s | -47.3°C | 0% | 15.2hPa | 2.7V | 18:12:15 | 01:57:26 | 00:00:00 | |
| DL1NUX | 2026-08-30 12:15:46 | 48.94601 | 10.00407 | 329° | 22km/h | 28633m | 4.9m/s | -47.5°C | 3.1% | 15.2hPa | 2.7V | 08:30:00 | 01:57:19 | 00:00:00 | |
| DM0DOS-11 | 2026-08-30 12:15:45 | 48.94617 | 10.00394 | 326° | 26km/h | 28650m | 6.3m/s | -47.2°C | 3.1% | 15.2hPa | 2.6V | 08:30:00 | 01:57:22 | 00:00:00 | |
| HSKMA3-T | 2026-08-30 12:15:44 | 48.94622 | 10.00389 | 325° | 27km/h | 28656m | 4.5m/s | -47.1°C | 0% | 15.2hPa | 2.6V | 18:12:15 | 01:57:23 | 00:00:00 | |
| DL1XH-west | 2026-08-30 12:15:42 | 48.94612 | 10.00399 | 331° | 24km/h | 28644m | 6.3m/s | -47.3°C | 0% | 15.2hPa | 2.7V | 18:12:15 | 01:57:21 | 00:00:00 | |
| DL1XH1-15 | 2026-08-30 12:15:42 | 48.94586 | 10.00438 | 299° | 31km/h | 28610m | 4.6m/s | -47.2°C | 3.1% | 15.3hPa | 2.7V | 08:30:00 | 01:57:15 | 00:00:00 | |
| DF8AY | 2026-08-30 12:15:38 | 48.94593 | 10.00419 | 306° | 24km/h | 28621m | 7.2m/s | -47.4°C | 0.1% | 15.3hPa | 2.6V | 18:12:15 | 01:57:17 | 00:00:00 | |
| DM0DOS-11 | 2026-08-30 12:15:38 | 48.94565 | 10.00470 | 333° | 29km/h | 28587m | 5.2m/s | -47.4°C | 3.2% | 15.3hPa | 2.7V | 08:30:00 | 01:57:11 | 00:00:00 | |
| DK7TD | 2026-08-30 12:15:37 | 48.94590 | 10.00427 | 299° | 29km/h | 28615m | 5.8m/s | -47.3°C | 0.1% | 15.3hPa | 2.6V | 18:12:15 | 01:57:16 | 00:00:00 | |
| HSKMA3-T | 2026-08-30 12:15:33 | 48.94571 | 10.00464 | 326° | 29km/h | 28592m | 6m/s | -47.4°C | 0.1% | 15.3hPa | 2.6V | 18:12:15 | 01:57:12 | 00:00:00 | |
| AZAK | 2026-08-30 12:15:33 | 48.94571 | 10.00464 | 327° | 29km/h | 28592m | 6.0m/s | -47.4°C | 0.7% | 15.3hPa | 2.6V | 00:00:00 | 00:00:00 | 00:00:00 | |
| DL1NUX | 2026-08-30 12:15:32 | 48.94553 | 10.00480 | 326° | 26km/h | 28575m | 6.7m/s | -47.2°C | 3.1% | 15.4hPa | 2.6V | 08:30:00 | 01:57:09 | 00:00:00 | |
| AA1-15 | 2026-08-30 12:15:31 | 48.94559 | 10.00475 | 333° | 27km/h | 28581m | 5.9m/s | 0°C | 0% | 0hPa | 2.7V | 18:12:15 | 01:57:10 | 00:00:00 | |
| DO3MHA-12 | 2026-08-30 12:15:30 | 48.94553 | 10.00480 | 327° | 27km/h | 28575m | 6.7m/s | -47.1°C | 3.1% | 15.3hPa | 2.7V | 00:00:00 | 01:57:09 | 00:00:00 | |
| DL1XH1-15 | 2026-08-30 12:15:29 | 48.94538 | 10.00499 | 317° | 26km/h | 28556m | 6.6m/s | -47.2°C | 3.1% | 15.4hPa | 2.7V | 08:30:00 | 01:57:06 | 00:00:00 | |
| DK7TD | 2026-08-30 12:15:27 | 48.94539 | 10.00499 | 318° | 26km/h | 28556m | 6.6m/s | -47.2°C | 0% | 15.4hPa | 2.7V | 18:12:15 | 01:57:06 | 00:00:00 | |
| DL9SK-14 | 2026-08-30 12:15:26 | 48.94534 | 10.00505 | 320° | 26km/h | 28550m | 6.3m/s | -47.3°C | 0.7% | 15.5hPa | 2.7V | 00:00:00 | 00:00:00 | 00:00:00 | |
| DL1NUX | 2026-08-30 12:15:25 | 48.94507 | 10.00556 | 305° | 24km/h | 28514m | 6.6m/s | -47.1°C | 3.2% | 15.5hPa | 2.7V | 08:30:00 | 01:56:59 | 00:00:00 | |
| DM0DOS-11 | 2026-08-30 12:15:25 | 48.94518 | 10.00529 | 305° | 31km/h | 28532m | 7.3m/s | -47.3°C | 3.2% | 15.5hPa | 2.6V | 08:30:00 | 01:57:02 | 00:00:00 | |
| NBG1-10 | 2026-08-30 12:15:23 | 48.94518 | 10.00529 | 306° | 20km/h | 28533m | 7.3m/s | -47.2°C | 3.2% | 15.5hPa | 2.6V | 00:00:00 | 01:57:02 | 00:00:00 | |
| DL1XH1-15 | 2026-08-30 12:15:22 | 48.94497 | 10.00569 | 333° | 15km/h | 28495m | 6.7m/s | -46.9°C | 3.1% | 15.6hPa | 2.6V | 08:30:00 | 01:56:56 | 00:00:00 | |
| DL1XH-west | 2026-08-30 12:15:22 | 48.94511 | 10.00548 | 300° | 27km/h | 28520m | 5.1m/s | -47.1°C | 0% | 15.5hPa | 2.7V | 18:12:15 | 01:57:00 | 00:00:00 | |
| HSKMA3-T | 2026-08-30 12:15:20 | 48.94507 | 10.00556 | 306° | 24km/h | 28514m | 6.6m/s | -47.2°C | 0.1% | 15.5hPa | 2.7V | 18:12:15 | 01:56:59 | 00:00:00 | |
| DF8AY | 2026-08-30 12:15:17 | 48.94497 | 10.00569 | 334° | 15km/h | 28495m | 6.7m/s | -46.9°C | 0% | 15.6hPa | 2.6V | 18:12:15 | 01:56:56 | 00:00:00 | |
| DJ2DS-15 | 2026-08-30 12:15:17 | 48.94497 | 10.00569 | 334° | 20km/h | 28495m | 6.7m/s | -46.9°C | 3.1% | 15.5hPa | 2.6V | 00:00:00 | 01:56:56 | 00:00:00 | |
| DK7TD | 2026-08-30 12:15:17 | 48.94494 | 10.00571 | 330° | 15km/h | 28488m | 6.2m/s | -46.9°C | 0% | 15.6hPa | 2.7V | 18:12:15 | 01:56:55 | 00:00:00 | |
| DF1GD-15 | 2026-08-30 12:15:15 | 48.94490 | 10.00574 | 332° | 16km/h | 28483m | 4.9m/s | -47.0°C | 0.7% | 15.6hPa | 2.6V | 00:00:00 | 00:00:00 | 00:00:00 | |
| OE5DRO-10 | 2026-08-30 12:15:14 | 48.94486 | 10.00577 | 336° | 20km/h | 28478m | 5.7m/s | -46.9°C | 3.1% | 15.6hPa | 2.6V | 00:00:00 | 00:00:00 | 00:00:00 | |
| DB0UT-7 | 2026-08-30 12:15:12 | 48.94475 | 10.00585 | 335° | 20km/h | 28465m | 5.9m/s | -46.7°C | 3.0% | 15.6hPa | 2.6V | 00:00:00 | 01:56:51 | 00:00:00 | |
| DB0ND-19 | 2026-08-30 12:15:11 | 48.94462 | 10.00597 | 318° | 29km/h | 28453m | 6.8m/s | -46.8°C | 0.7% | 15.7hPa | 2.7V | 00:00:00 | 00:00:00 | 00:00:00 | |
| DO3MHA-12 | 2026-08-30 12:15:10 | 48.94462 | 10.00597 | 319° | 20km/h | 28453m | 6.7m/s | -46.8°C | 3.1% | 15.6hPa | 2.7V | 00:00:00 | 01:56:49 | 08:30:00 | |
| DL1XH1-15 | 2026-08-30 12:15:09 | 48.94448 | 10.00622 | 313° | 26km/h | 28437m | 6.2m/s | -46.7°C | 3.1% | 15.7hPa | 2.6V | 08:30:00 | 01:56:46 | 00:00:00 | |
| HSKMA3-T | 2026-08-30 12:15:09 | 48.94457 | 10.00606 | 311° | 29km/h | 28447m | 4.7m/s | -46.9°C | 0% | 15.7hPa | 2.7V | 18:12:15 | 01:56:48 | 00:00:00 | |
| DK7TD | 2026-08-30 12:15:06 | 48.94443 | 10.00628 | 324° | 22km/h | 28431m | 6.5m/s | -46.6°C | 0% | 15.7hPa | 2.7V | 18:12:15 | 01:56:45 | 00:00:00 | |
| DM0DOS-11 | 2026-08-30 12:15:06 | 48.94432 | 10.00633 | 356° | 11km/h | 28413m | 6.3m/s | -46.6°C | 3.1% | 15.8hPa | 2.6V | 08:30:00 | 01:56:42 | 00:00:00 | |
| AA1-15 | 2026-08-30 12:15:05 | 48.94435 | 10.00632 | 354° | 13km/h | 28419m | 5.5m/s | 0°C | 0% | 0hPa | 2.6V | 18:12:15 | 01:56:43 | 00:00:00 | |
| DF7PN | 2026-08-30 12:15:04 | 48.94435 | 10.00632 | 353° | 13km/h | 28419m | 5.5m/s | -46.6°C | 0.7% | 15.8hPa | 2.6V | 00:00:00 | 00:00:00 | 00:00:00 | |
| DL1XH1-15 | 2026-08-30 12:15:02 | 48.94412 | 10.00645 | 347° | 24km/h | 28377m | 5.8m/s | -46.6°C | 3% | 15.8hPa | 2.6V | 08:30:00 | 01:56:36 | 00:00:00 | |
| DL1XH-west | 2026-08-30 12:14:58 | 48.94417 | 10.00643 | 342° | 20km/h | 28384m | 7.1m/s | -46.6°C | 0% | 15.8hPa | 2.6V | 18:12:15 | 01:56:37 | 00:00:00 | |
| DM0DOS-11 | 2026-08-30 12:14:58 | 48.94390 | 10.00657 | 326° | 18km/h | 28355m | 5.5m/s | -46.7°C | 3% | 15.9hPa | 2.6V | 08:30:00 | 01:56:32 | 00:00:00 | |
| DF8AY | 2026-08-30 12:14:56 | 48.94406 | 10.00647 | 347° | 26km/h | 28372m | 4.4m/s | -46.7°C | 0% | 15.9hPa | 2.6V | 18:12:15 | 01:56:35 | 00:00:00 | |
| DK7TD | 2026-08-30 12:14:55 | 48.94400 | 10.00650 | 342° | 24km/h | 28367m | 6m/s | -46.7°C | 0% | 15.9hPa | 2.7V | 18:12:15 | 01:56:34 | 00:00:00 | |
| OE5DRO-10 | 2026-08-30 12:14:55 | 48.94400 | 10.00649 | 343° | 24km/h | 28367m | 5.9m/s | -46.6°C | 3.0% | 15.8hPa | 2.7V | 00:00:00 | 00:00:00 | 00:00:00 | |
| DF1GD-15 | 2026-08-30 12:14:54 | 48.94400 | 10.00649 | 343° | 24km/h | 28367m | 6.0m/s | -46.7°C | 0.7% | 15.9hPa | 2.7V | 00:00:00 | 00:00:00 | 00:00:00 | |
| DL1NUX | 2026-08-30 12:14:52 | 48.94378 | 10.00665 | 351° | 18km/h | 28337m | 6.7m/s | -46.7°C | 3.1% | 16hPa | 2.7V | 08:30:00 | 01:56:29 | 00:00:00 | |
| SONDE2-11 | 2026-08-30 12:14:51 | 48.94378 | 10.00665 | 351° | 16km/h | 28337m | 6.7m/s | -46.7°C | 0.7% | 16.0hPa | 2.6V | 00:00:00 | 00:00:00 | 00:00:00 | |
| DO3MHA-12 | 2026-08-30 12:14:50 | 48.94378 | 10.00665 | 352° | 24km/h | 28337m | 6.6m/s | -46.7°C | 3.1% | 15.9hPa | 2.6V | 00:00:00 | 01:56:29 | 00:00:00 | |
| DL1XH1-15 | 2026-08-30 12:14:49 | 48.94365 | 10.00666 | 352° | 16km/h | 28318m | 5.9m/s | -46.8°C | 3% | 16hPa | 2.6V | 08:30:00 | 01:56:26 | 00:00:00 | |
| DL1XH-west | 2026-08-30 12:14:47 | 48.94365 | 10.00666 | 353° | 16km/h | 28318m | 5.9m/s | -46.8°C | 0% | 16hPa | 2.6V | 18:12:15 | 01:56:26 | 00:00:00 | |
| DL1NUX | 2026-08-30 12:14:45 | 48.94320 | 10.00687 | 327° | 26km/h | 28276m | 4.8m/s | -47.1°C | 3% | 16.1hPa | 2.6V | 08:30:00 | 01:56:19 | 00:00:00 | |
| HSKMA3-T | 2026-08-30 12:14:45 | 48.94355 | 10.00669 | 350° | 24km/h | 28307m | 6.3m/s | -46.9°C | 0% | 16hPa | 2.6V | 18:12:15 | 01:56:24 | 00:00:00 | |
| SONCRA | 2026-08-30 12:14:45 | 48.94348 | 10.00671 | 349° | 27km/h | 28301m | 6.7m/s | -46.9°C | 0.7% | 16.1hPa | 2.7V | 00:00:00 | 00:00:00 | 00:00:00 | |
| DL1XH1-15 | 2026-08-30 12:14:42 | 48.94305 | 10.00699 | 341° | 18km/h | 28258m | 5.2m/s | -47.2°C | 3% | 16.2hPa | 2.7V | 08:30:00 | 01:56:16 | 00:00:00 | |
| DF8AY | 2026-08-30 12:14:39 | 48.94262 | 10.00704 | 342° | 26km/h | 28205m | 6.1m/s | -47.7°C | 0% | 16.3hPa | 2.7V | 18:12:15 | 01:56:07 | 00:00:00 | |
| DL1XH-west | 2026-08-30 12:14:36 | 48.94301 | 10.00701 | 343° | 15km/h | 28253m | 6.1m/s | -47.3°C | 0% | 16.2hPa | 2.6V | 18:12:15 | 01:56:15 | 00:00:00 | |
| DK7TD | 2026-08-30 12:14:34 | 48.94295 | 10.00704 | 352° | 11km/h | 28241m | 5.2m/s | -47.3°C | 0% | 16.2hPa | 2.6V | 18:12:15 | 01:56:13 | 00:00:00 | |
| HSKMA3-T | 2026-08-30 12:14:32 | 48.94282 | 10.00702 | 7° | 26km/h | 28223m | 5.5m/s | -47.4°C | 0% | 16.2hPa | 2.6V | 18:12:15 | 01:56:10 | 00:00:00 | |
| AZAK | 2026-08-30 12:14:31 | 48.94282 | 10.00702 | 8° | 26km/h | 28223m | 5.5m/s | -47.4°C | 0.7% | 16.2hPa | 2.6V | 00:00:00 | 00:00:00 | 00:00:00 | |
| DO3MHA-12 | 2026-08-30 12:14:30 | 48.94276 | 10.00701 | 1° | 24km/h | 28217m | 5.3m/s | -47.5°C | 3.0% | 16.2hPa | 2.6V | 00:00:00 | 01:56:09 | 00:00:00 | |
| DL1XH1-15 | 2026-08-30 12:14:29 | 48.94257 | 10.00708 | 335° | 24km/h | 28199m | 4.8m/s | -47.7°C | 3.1% | 16.3hPa | 2.6V | 08:30:00 | 01:56:06 | 00:00:00 | |
| DL1XH-west | 2026-08-30 12:14:26 | 48.94251 | 10.00711 | 335° | 22km/h | 28194m | 5m/s | -47.6°C | 0% | 16.3hPa | 2.6V | 18:12:15 | 01:56:05 | 00:00:00 | |
| DK7TD | 2026-08-30 12:14:24 | 48.94241 | 10.00717 | 349° | 22km/h | 28183m | 5.9m/s | -47.7°C | 0% | 16.3hPa | 2.7V | 18:12:15 | 01:56:03 | 00:00:00 | |
| DN1GJH-1 | 2026-08-30 12:14:23 | 48.94240 | 10.00717 | 350° | 22km/h | 28183m | 5.9m/s | -47.7°C | 0.7% | 16.3hPa | 2.7V | 00:00:00 | 00:00:00 | 00:00:00 | |
| DL1NUX | 2026-08-30 12:14:22 | 48.94215 | 10.00726 | 340° | 15km/h | 28149m | 4.9m/s | -47.9°C | 3% | 16.4hPa | 2.7V | 08:30:00 | 01:55:57 | 00:00:00 | |
| HSKMA3-T | 2026-08-30 12:14:18 | 48.94215 | 10.00726 | 340° | 15km/h | 28149m | 4.9m/s | -47.9°C | 0% | 16.4hPa | 2.7V | 18:12:15 | 01:55:57 | 00:00:00 | |
| DM0DOS-11 | 2026-08-30 12:14:17 | 48.94191 | 10.00728 | 345° | 22km/h | 28119m | 6.3m/s | -48.2°C | 3.2% | 16.5hPa | 2.7V | 08:30:00 | 01:55:52 | 00:00:00 | |
| DL1XH-west | 2026-08-30 12:14:16 | 48.94202 | 10.00727 | 3° | 20km/h | 28131m | 5.1m/s | -48.1°C | 0% | 16.5hPa | 2.6V | 18:12:15 | 01:55:54 | 00:00:00 | |
| DK7TD | 2026-08-30 12:14:14 | 48.94196 | 10.00727 | 357° | 22km/h | 28125m | 6.1m/s | -48.2°C | 0% | 16.5hPa | 2.6V | 18:12:15 | 01:55:53 | 00:00:00 | |
| SONCRA | 2026-08-30 12:14:13 | 48.94191 | 10.00728 | 345° | 20km/h | 28119m | 6.3m/s | -48.2°C | 0.8% | 16.5hPa | 2.7V | 00:00:00 | 00:00:00 | 00:00:00 | |
| DB0UT-7 | 2026-08-30 12:14:12 | 48.94186 | 10.00731 | 338° | 18km/h | 28113m | 5.3m/s | -48.2°C | 3.2% | 16.5hPa | 2.7V | 00:00:00 | 01:55:51 | 00:00:00 | |
| DL1NUX | 2026-08-30 12:14:11 | 48.94156 | 10.00751 | 315° | 15km/h | 28077m | 5.9m/s | -48.1°C | 3.2% | 16.6hPa | 2.7V | 08:30:00 | 01:55:45 | 00:00:00 | |
| DJTTGO | 2026-08-30 12:14:11 | 48.94180 | 10.00734 | 339° | 26km/h | 28108m | 5.8m/s | -48.3°C | 0.8% | 16.5hPa | 2.7V | 00:00:00 | 00:00:00 | 00:00:00 | |
| DL1XH1-15 | 2026-08-30 12:14:09 | 48.94159 | 10.00748 | 327° | 18km/h | 28083m | 7m/s | -48.2°C | 3.2% | 16.6hPa | 2.7V | 08:30:00 | 01:55:46 | 00:00:00 | |
| DF8AY | 2026-08-30 12:14:08 | 48.94163 | 10.00744 | 337° | 22km/h | 28090m | 5.6m/s | -48.2°C | 0.1% | 16.6hPa | 2.6V | 18:12:15 | 01:55:47 | 00:00:00 | |
| DJ8HS-15 | 2026-08-30 12:14:08 | 48.94163 | 10.00744 | 337° | 18km/h | 28090m | 5.5m/s | -48.1°C | 3.2% | 16.5hPa | 2.6V | 00:00:00 | 01:55:47 | 00:00:00 | |
| DM0DOS-11 | 2026-08-30 12:14:07 | 48.94149 | 10.00758 | 2° | 11km/h | 28060m | 6.8m/s | -48.1°C | 3.2% | 16.6hPa | 2.6V | 08:30:00 | 01:55:42 | 00:00:00 | |
| DK7TD | 2026-08-30 12:14:04 | 48.94152 | 10.00757 | 333° | 9km/h | 28066m | 5.7m/s | -48.1°C | 0% | 16.6hPa | 2.6V | 18:12:15 | 01:55:43 | 00:00:00 | |
| HSKMA3-T | 2026-08-30 12:14:02 | 48.94146 | 10.00757 | 13° | 15km/h | 28054m | 5.8m/s | -48.2°C | 0.1% | 16.7hPa | 2.7V | 18:12:15 | 01:55:41 | 00:00:00 | |
| DL1NUX | 2026-08-30 12:14:01 | 48.94115 | 10.00765 | 347° | 27km/h | 28018m | 6.8m/s | -48.1°C | 3.3% | 16.8hPa | 2.7V | 08:30:00 | 01:55:35 | 00:00:00 | |
| DF8AY | 2026-08-30 12:13:57 | 48.94122 | 10.00762 | 344° | 26km/h | 28025m | 6.1m/s | -48°C | 0% | 16.8hPa | 2.6V | 18:12:15 | 01:55:36 | 00:00:00 | |
| DF3TZ-5 | 2026-08-30 12:13:56 | 48.94109 | 10.00767 | 347° | 27km/h | 28013m | 5.4m/s | -48.0°C | 0.7% | 16.8hPa | 2.6V | 00:00:00 | 00:00:00 | 00:00:00 | |
| DM0DOS-11 | 2026-08-30 12:13:55 | 48.94096 | 10.00773 | 335° | 24km/h | 28002m | 6.2m/s | -48°C | 3.2% | 16.8hPa | 2.6V | 08:30:00 | 01:55:32 | 00:00:00 | |
| DL1XH-west | 2026-08-30 12:13:53 | 48.94096 | 10.00773 | 335° | 24km/h | 28002m | 6.3m/s | -48°C | 0% | 16.8hPa | 2.6V | 18:12:15 | 01:55:32 | 00:00:00 | |
| DL6DJ-15 | 2026-08-30 12:13:53 | 48.94091 | 10.00777 | 321° | 18km/h | 27996m | 6.3m/s | -48.0°C | 0.7% | 16.8hPa | 2.7V | 00:00:00 | 00:00:00 | 00:00:00 | |
| DF1GD-15 | 2026-08-30 12:13:52 | 48.94096 | 10.00773 | 336° | 24km/h | 28002m | 6.3m/s | -48.0°C | 0.8% | 16.8hPa | 2.7V | 00:00:00 | 00:00:00 | 00:00:00 | |
| DL1NUX | 2026-08-30 12:13:51 | 48.94075 | 10.00786 | 16° | 13km/h | 27961m | 6.5m/s | -48°C | 3.2% | 16.9hPa | 2.7V | 08:30:00 | 01:55:25 | 00:00:00 | |
| DJ2DS-15 | 2026-08-30 12:13:51 | 48.94085 | 10.00786 | 314° | 11km/h | 27985m | 5.3m/s | -48.0°C | 0.7% | 16.9hPa | 2.7V | 00:00:00 | 00:00:00 | 00:00:00 | |
| DO3MHA-12 | 2026-08-30 12:13:50 | 48.94085 | 10.00786 | 315° | 16km/h | 27985m | 5.3m/s | -47.9°C | 3.2% | 16.8hPa | 2.7V | 00:00:00 | 01:55:29 | 00:00:00 | |
| DL1XH1-15 | 2026-08-30 12:13:49 | 48.94078 | 10.00788 | 21° | 13km/h | 27966m | 5.1m/s | -47.9°C | 3.2% | 16.9hPa | 2.7V | 08:30:00 | 01:55:26 | 00:00:00 | |
| AZAK | 2026-08-30 12:13:49 | 48.94083 | 10.00788 | 335° | 9km/h | 27979m | 7.0m/s | -47.9°C | 0.7% | 16.9hPa | 2.6V | 00:00:00 | 00:00:00 | 00:00:00 | |
| DM0DOS-11 | 2026-08-30 12:13:48 | 48.94062 | 10.00788 | 349° | 24km/h | 27943m | 5.7m/s | -47.8°C | 3.2% | 16.9hPa | 2.6V | 08:30:00 | 01:55:22 | 00:00:00 | |
| HSKMA3-T | 2026-08-30 12:13:46 | 48.94075 | 10.00786 | 16° | 13km/h | 27961m | 6.6m/s | -48°C | 0.1% | 16.9hPa | 2.7V | 18:12:15 | 01:55:25 | 00:00:00 | |
| DK7TD | 2026-08-30 12:13:43 | 48.94062 | 10.00788 | 350° | 24km/h | 27943m | 5.7m/s | -47.8°C | 0% | 16.9hPa | 2.6V | 18:12:15 | 01:55:22 | 00:00:00 | |
| DB0UT-7 | 2026-08-30 12:13:42 | 48.94056 | 10.00789 | 350° | 24km/h | 27937m | 7.0m/s | -47.8°C | 3.2% | 16.9hPa | 2.6V | 00:00:00 | 00:00:00 | 08:30:00 | |
| DL1XH-west | 2026-08-30 12:13:42 | 48.94056 | 10.00789 | 350° | 27km/h | 27937m | 7.1m/s | -47.9°C | 0% | 17hPa | 2.6V | 18:12:15 | 01:55:21 | 00:00:00 | |
| PG1ADW-2 | 2026-08-30 12:13:41 | 48.94049 | 10.00792 | 348° | 26km/h | 27931m | 5.3m/s | -47.9°C | 3.2% | 16.9hPa | 2.7V | 00:00:00 | 00:00:00 | 00:00:00 | |
| DO3MHA-12 | 2026-08-30 12:13:40 | 48.94042 | 10.00795 | 341° | 22km/h | 27926m | 5.1m/s | -47.8°C | 3.2% | 17.0hPa | 2.7V | 00:00:00 | 01:55:19 | 08:30:00 | |
| DM7RM-13 | 2026-08-30 12:13:39 | 48.94042 | 10.00795 | 341° | 29km/h | 27926m | 5.1m/s | -47.9°C | 0.8% | 17.0hPa | 2.6V | 00:00:00 | 00:00:00 | 00:00:00 | |
| DB0ND-19 | 2026-08-30 12:13:38 | 48.94026 | 10.00812 | 305° | 22km/h | 27908m | 4.3m/s | -47.8°C | 0.7% | 17.1hPa | 2.6V | 00:00:00 | 00:00:00 | 00:00:00 | |
| DM0DOS-11 | 2026-08-30 12:13:37 | 48.94014 | 10.00830 | 345° | 15km/h | 27886m | 5.1m/s | -47.8°C | 3.1% | 17.1hPa | 2.6V | 08:30:00 | 01:55:12 | 00:00:00 | |
| HSKMA3-T | 2026-08-30 12:13:35 | 48.94020 | 10.00824 | 312° | 16km/h | 27898m | 6.5m/s | -47.9°C | 0% | 17.1hPa | 2.7V | 18:12:15 | 01:55:14 | 00:00:00 | |
| DK7TD | 2026-08-30 12:13:33 | 48.94013 | 10.00830 | 346° | 16km/h | 27886m | 5.1m/s | -47.8°C | 0% | 17.1hPa | 2.6V | 18:12:15 | 01:55:12 | 00:00:00 | |
| DL1XH-west | 2026-08-30 12:13:31 | 48.93999 | 10.00837 | 335° | 24km/h | 27869m | 6m/s | -47.6°C | 0% | 17.1hPa | 2.7V | 18:12:15 | 01:55:09 | 00:00:00 | |
| DO3MHA-12 | 2026-08-30 12:13:31 | 48.93999 | 10.00836 | 336° | 26km/h | 27869m | 6.0m/s | -47.6°C | 3.0% | 17.1hPa | 2.7V | 00:00:00 | 01:55:09 | 00:00:00 | |
| DL1NUX | 2026-08-30 12:13:30 | 48.93960 | 10.00864 | 324° | 26km/h | 27833m | 6.9m/s | -47.9°C | 3% | 17.3hPa | 2.7V | 08:30:00 | 01:55:03 | 00:00:00 | |
| OE5DRO-10 | 2026-08-30 12:13:30 | 48.93993 | 10.00841 | 333° | 20km/h | 27863m | 5.3m/s | -47.6°C | 3.0% | 17.1hPa | 2.7V | 00:00:00 | 00:00:00 | 08:30:00 | |
| DJ8HS-15 | 2026-08-30 12:13:28 | 48.93986 | 10.00846 | 335° | 27km/h | 27858m | 5.5m/s | -47.6°C | 3.1% | 17.1hPa | 2.6V | 00:00:00 | 01:55:07 | 00:00:00 | |
| S52SK | 2026-08-30 12:13:27 | 48.93986 | 10.00846 | 336° | 31km/h | 27858m | 5.5m/s | -47.7°C | 0% | 0hPa | 2.7V | 00:00:00 | 00:00:00 | 00:00:00 | |
| DM0DOS-11 | 2026-08-30 12:13:25 | 48.93955 | 10.00870 | 309° | 22km/h | 27827m | 5.7m/s | -47.9°C | 3.1% | 17.3hPa | 2.7V | 08:30:00 | 01:55:02 | 00:00:00 | |
| DF8AY | 2026-08-30 12:13:25 | 48.93966 | 10.00859 | 335° | 27km/h | 27840m | 5.3m/s | -47.8°C | 0% | 17.2hPa | 2.7V | 18:12:15 | 01:55:04 | 00:00:00 | |
| DK7TD | 2026-08-30 12:13:23 | 48.93952 | 10.00877 | 298° | 20km/h | 27822m | 4.8m/s | -47.9°C | 0% | 17.3hPa | 2.6V | 18:12:15 | 01:55:01 | 00:00:00 | |
| DL1XH-west | 2026-08-30 12:13:21 | 48.93950 | 10.00884 | 296° | 18km/h | 27816m | 6.1m/s | -48°C | 0% | 17.3hPa | 2.6V | 18:12:15 | 01:55:00 | 00:00:00 | |
| DO3MHA-12 | 2026-08-30 12:13:20 | 48.93948 | 10.00889 | 306° | 27km/h | 27811m | 6.3m/s | -47.8°C | 3.1% | 17.3hPa | 2.7V | 00:00:00 | 01:54:59 | 00:00:00 | |
| DM7RM-13 | 2026-08-30 12:13:19 | 48.93948 | 10.00889 | 307° | 15km/h | 27811m | 6.3m/s | -47.9°C | 0.8% | 17.3hPa | 2.7V | 00:00:00 | 00:00:00 | 00:00:00 | |
| DM0DOS-11 | 2026-08-30 12:13:18 | 48.93905 | 10.00934 | 324° | 35km/h | 27763m | 5.3m/s | -47.6°C | 3% | 17.5hPa | 2.7V | 08:30:00 | 01:54:51 | 00:00:00 | |
| DJ2DS-15 | 2026-08-30 12:13:17 | 48.93938 | 10.00899 | 332° | 27km/h | 27794m | 5.7m/s | -47.7°C | 3.0% | 17.3hPa | 2.7V | 00:00:00 | 01:54:56 | 00:00:00 | |
| DL1NUX | 2026-08-30 12:13:15 | 48.93919 | 10.00919 | 323° | 35km/h | 27775m | 5.5m/s | -47.9°C | 3% | 17.4hPa | 2.7V | 08:30:00 | 01:54:53 | 00:00:00 | |
| DF8AY | 2026-08-30 12:13:14 | 48.93919 | 10.00919 | 324° | 35km/h | 27775m | 5.5m/s | -47.9°C | 0% | 17.4hPa | 2.7V | 18:12:15 | 01:54:53 | 00:00:00 | |
| DK7TD | 2026-08-30 12:13:12 | 48.93905 | 10.00934 | 325° | 35km/h | 27763m | 5.3m/s | -47.6°C | 0% | 17.5hPa | 2.7V | 18:12:15 | 01:54:51 | 00:00:00 | |
| DL1XH-west | 2026-08-30 12:13:11 | 48.93898 | 10.00942 | 320° | 35km/h | 27758m | 5.5m/s | -47.6°C | 0% | 17.5hPa | 2.6V | 18:12:15 | 01:54:50 | 00:00:00 | |
| DL1XH1-15 | 2026-08-30 12:13:10 | 48.93878 | 10.00980 | 302° | 26km/h | 27733m | 7m/s | -48°C | 3.1% | 17.5hPa | 2.7V | 08:30:00 | 01:54:46 | 00:00:00 | |
| S52SK | 2026-08-30 12:13:08 | 48.93882 | 10.00971 | 304° | 29km/h | 27740m | 5.2m/s | 0°C | 0% | 0hPa | 2.7V | 00:00:00 | 00:00:00 | 00:00:00 | |
| DM0DOS-11 | 2026-08-30 12:13:07 | 48.93864 | 10.01015 | 303° | 27km/h | 27705m | 5.5m/s | -48.5°C | 3.2% | 17.6hPa | 2.7V | 08:30:00 | 01:54:41 | 00:00:00 | |
| HSKMA3-T | 2026-08-30 12:13:07 | 48.93878 | 10.00980 | 302° | 26km/h | 27734m | 7m/s | -48.1°C | 0% | 17.5hPa | 2.7V | 18:12:15 | 01:54:46 | 00:00:00 | |
| DF8AY | 2026-08-30 12:13:04 | 48.93870 | 10.01000 | 303° | 20km/h | 27717m | 6.1m/s | -48.3°C | 0% | 17.6hPa | 2.6V | 18:12:15 | 01:54:43 | 00:00:00 | |
| DK7TD | 2026-08-30 12:13:02 | 48.93864 | 10.01015 | 303° | 27km/h | 27705m | 5.5m/s | -48.5°C | 0.1% | 17.6hPa | 2.7V | 18:12:15 | 01:54:41 | 00:00:00 | |
| DL1XH1-15 | 2026-08-30 12:13:01 | 48.93842 | 10.01054 | 306° | 27km/h | 27677m | 5.8m/s | -48.8°C | 3.2% | 17.7hPa | 2.7V | 08:30:00 | 01:54:36 | 00:00:00 | |
| DL1XH-west | 2026-08-30 12:13:00 | 48.93855 | 10.01031 | 312° | 27km/h | 27693m | 6.8m/s | -48.5°C | 0% | 17.6hPa | 2.6V | 18:12:15 | 01:54:39 | 00:00:00 | |
| DO3MHA-12 | 2026-08-30 12:13:00 | 48.93855 | 10.01031 | 313° | 24km/h | 27694m | 6.8m/s | -48.4°C | 3.2% | 17.6hPa | 2.7V | 00:00:00 | 01:54:39 | 00:00:00 | |
| DM7RM-13 | 2026-08-30 12:12:58 | 48.93851 | 10.01039 | 315° | 27km/h | 27687m | 5.4m/s | -48.6°C | 0.8% | 17.7hPa | 2.7V | 00:00:00 | 00:00:00 | 00:00:00 | |
| DM0DOS-11 | 2026-08-30 12:12:57 | 48.93827 | 10.01100 | 295° | 15km/h | 27651m | 6.9m/s | -48.5°C | 3.3% | 17.7hPa | 2.7V | 08:30:00 | 01:54:31 | 00:00:00 | |
| DJ2DS-15 | 2026-08-30 12:12:57 | 48.93842 | 10.01054 | 307° | 16km/h | 27678m | 5.7m/s | -48.7°C | 3.2% | 17.6hPa | 2.6V | 00:00:00 | 01:54:36 | 00:00:00 | |
| DL1NUX | 2026-08-30 12:12:56 | 48.93831 | 10.01085 | 291° | 27km/h | 27662m | 3.6m/s | -48.8°C | 3.3% | 17.7hPa | 2.6V | 08:30:00 | 01:54:33 | 00:00:00 | |
| DF8AY | 2026-08-30 12:12:55 | 48.93831 | 10.01084 | 292° | 27km/h | 27662m | 3.6m/s | -48.8°C | 0.1% | 17.7hPa | 2.6V | 18:12:15 | 01:54:33 | 00:00:00 | |
| DK7TD | 2026-08-30 12:12:52 | 48.93826 | 10.01103 | 312° | 7km/h | 27644m | 6.1m/s | -48.5°C | 0.1% | 17.8hPa | 2.7V | 18:12:15 | 01:54:30 | 00:00:00 | |
| HSKMA3-T | 2026-08-30 12:12:50 | 48.93824 | 10.01104 | 354° | 5km/h | 27639m | 4.9m/s | -48.5°C | 0.1% | 17.8hPa | 2.7V | 18:12:15 | 01:54:29 | 00:00:00 | |
| DL1XH-west | 2026-08-30 12:12:49 | 48.93823 | 10.01104 | 353° | 5km/h | 27634m | 5.1m/s | -48.5°C | 0.1% | 17.8hPa | 2.6V | 18:12:15 | 01:54:28 | 00:00:00 | |
| DL1XH1-15 | 2026-08-30 12:12:49 | 48.93820 | 10.01108 | 306° | 13km/h | 27622m | 6.1m/s | -48.6°C | 3.3% | 17.8hPa | 2.6V | 08:30:00 | 01:54:26 | 00:00:00 | |
| DJ8HS-15 | 2026-08-30 12:12:48 | 48.93822 | 10.01105 | 326° | 11km/h | 27629m | 6.2m/s | -48.5°C | 3.2% | 17.8hPa | 2.6V | 00:00:00 | 01:54:27 | 00:00:00 | |
| DM0DOS-11 | 2026-08-30 12:12:47 | 48.93810 | 10.01140 | 287° | 13km/h | 27593m | 5.7m/s | -48.5°C | 3.2% | 17.9hPa | 2.6V | 08:30:00 | 01:54:21 | 00:00:00 | |
| SONDE2-11 | 2026-08-30 12:12:46 | 48.93818 | 10.01113 | 299° | 18km/h | 27616m | 5.4m/s | -48.7°C | 0.8% | 17.8hPa | 2.6V | 00:00:00 | 00:00:00 | 00:00:00 | |
| DF8AY | 2026-08-30 12:12:44 | 48.93813 | 10.01128 | 293° | 20km/h | 27605m | 6m/s | -48.5°C | 0.1% | 17.9hPa | 2.6V | 18:12:15 | 01:54:23 | 00:00:00 | |
| DB0UT-7 | 2026-08-30 12:12:42 | 48.93810 | 10.01140 | 288° | 9km/h | 27594m | 5.7m/s | -48.4°C | 3.2% | 17.9hPa | 2.6V | 00:00:00 | 00:00:00 | 00:00:00 | |
| DL1XH1-15 | 2026-08-30 12:12:41 | 48.93804 | 10.01159 | 318° | 9km/h | 27565m | 5.3m/s | -48.4°C | 3.2% | 18hPa | 2.6V | 08:30:00 | 01:54:16 | 00:00:00 | |
| DK7TD | 2026-08-30 12:12:40 | 48.93808 | 10.01148 | 290° | 11km/h | 27582m | 5.9m/s | -48.5°C | 0.1% | 18hPa | 2.7V | 18:12:15 | 01:54:19 | 00:00:00 | |
| DO3MHA-12 | 2026-08-30 12:12:40 | 48.93808 | 10.01148 | 290° | 7km/h | 27583m | 5.9m/s | -48.4°C | 3.2% | 17.9hPa | 2.7V | 00:00:00 | 01:54:19 | 00:00:00 | |
| DL1NUX | 2026-08-30 12:12:39 | 48.93800 | 10.01160 | 36° | 5km/h | 27546m | 4.9m/s | -48.4°C | 3.2% | 18hPa | 2.7V | 08:30:00 | 01:54:13 | 00:00:00 | |
| DL1XH-west | 2026-08-30 12:12:38 | 48.93806 | 10.01156 | 305° | 13km/h | 27570m | 5.2m/s | -48.3°C | 0.1% | 18hPa | 2.6V | 18:12:15 | 01:54:17 | 00:00:00 | |
| DF8AY | 2026-08-30 12:12:34 | 48.93793 | 10.01167 | 312° | 9km/h | 27518m | 6.5m/s | -48.3°C | 0% | 18.1hPa | 2.7V | 18:12:15 | 01:54:08 | 00:00:00 | |
| DK7TD | 2026-08-30 12:12:30 | 48.93794 | 10.01164 | 312° | 11km/h | 27524m | 4.8m/s | -48.3°C | 0% | 18.1hPa | 2.7V | 18:12:15 | 01:54:09 | 00:00:00 | |
| DO3MHA-12 | 2026-08-30 12:12:30 | 48.93794 | 10.01164 | 312° | 9km/h | 27524m | 4.8m/s | -48.3°C | 3.2% | 18.1hPa | 2.6V | 00:00:00 | 01:54:09 | 00:00:00 | |
| DL1XH1-15 | 2026-08-30 12:12:29 | 48.93790 | 10.01171 | 318° | 7km/h | 27506m | 5.5m/s | -48.3°C | 3.1% | 18.1hPa | 2.6V | 08:30:00 | 01:54:06 | 00:00:00 | |
| DL1XH-west | 2026-08-30 12:12:27 | 48.93788 | 10.01173 | 319° | 9km/h | 27501m | 5.7m/s | -48.3°C | 0% | 18.2hPa | 2.6V | 18:12:15 | 01:54:05 | 00:00:00 | |
| DM0DOS-11 | 2026-08-30 12:12:27 | 48.93780 | 10.01182 | 353° | 5km/h | 27477m | 6.8m/s | -48.5°C | 3.1% | 18.2hPa | 2.6V | 08:30:00 | 01:54:01 | 00:00:00 | |
| HSKMA3-T | 2026-08-30 12:12:25 | 48.93786 | 10.01176 | 321° | 11km/h | 27494m | 6.9m/s | -48.4°C | 0% | 18.2hPa | 2.6V | 18:12:15 | 01:54:04 | 00:00:00 | |
| S52SK | 2026-08-30 12:12:24 | 48.93786 | 10.01176 | 321° | 11km/h | 27494m | 6.9m/s | -48.4°C | 0% | 0hPa | 2.7V | 00:00:00 | 00:00:00 | 00:00:00 | |
| DF3TZ-5 | 2026-08-30 12:12:22 | 48.93780 | 10.01182 | 353° | 5km/h | 27478m | 6.8m/s | -48.5°C | 0.7% | 18.2hPa | 2.7V | 00:00:00 | 00:00:00 | 00:00:00 | |
| DL1XH1-15 | 2026-08-30 12:12:21 | 48.93772 | 10.01176 | 350° | 13km/h | 27449m | 5.8m/s | -48.8°C | 3.2% | 18.3hPa | 2.7V | 08:30:00 | 01:53:56 | 00:00:00 | |
| DK7TD | 2026-08-30 12:12:20 | 48.93778 | 10.01179 | 53° | 7km/h | 27466m | 4.7m/s | -48.6°C | 0% | 18.3hPa | 2.6V | 18:12:15 | 01:53:59 | 00:00:00 | |
| DL6DJ-15 | 2026-08-30 12:12:20 | 48.93776 | 10.01177 | 38° | 7km/h | 27461m | 5.5m/s | -48.7°C | 0.7% | 18.3hPa | 2.6V | 00:00:00 | 00:00:00 | 00:00:00 | |
| DL1NUX | 2026-08-30 12:12:19 | 48.93763 | 10.01180 | 341° | 9km/h | 27431m | 6.5m/s | -48.8°C | 3.2% | 18.4hPa | 2.6V | 08:30:00 | 01:53:53 | 00:00:00 | |
| DF8AY | 2026-08-30 12:12:18 | 48.93774 | 10.01176 | 12° | 9km/h | 27455m | 6.4m/s | -48.8°C | 0% | 18.3hPa | 2.7V | 18:12:15 | 01:53:57 | 00:00:00 | |
| DL1XH-west | 2026-08-30 12:12:17 | 48.93772 | 10.01176 | 351° | 13km/h | 27449m | 5.8m/s | -48.8°C | 0.1% | 18.3hPa | 2.7V | 18:12:15 | 01:53:56 | 00:00:00 | |
| HSKMA3-T | 2026-08-30 12:12:10 | 48.93754 | 10.01186 | 336° | 11km/h | 27408m | 5.4m/s | -49°C | 0.1% | 18.4hPa | 2.6V | 18:12:15 | 01:53:49 | 00:00:00 | |
| DK7TD | 2026-08-30 12:12:10 | 48.93752 | 10.01187 | 348° | 11km/h | 27402m | 5.2m/s | -49°C | 0.2% | 18.4hPa | 2.6V | 18:12:15 | 01:53:48 | 00:00:00 | |
| DL1XH1-15 | 2026-08-30 12:12:09 | 48.93747 | 10.01186 | 20° | 11km/h | 27390m | 5.4m/s | -48.9°C | 3.3% | 18.5hPa | 2.7V | 08:30:00 | 01:53:46 | 00:00:00 | |
| DF8AY | 2026-08-30 12:12:08 | 48.93749 | 10.01187 | 6° | 11km/h | 27396m | 6.8m/s | -49°C | 0.1% | 18.5hPa | 2.7V | 18:12:15 | 01:53:47 | 00:00:00 | |
| DL1XH-west | 2026-08-30 12:12:06 | 48.93740 | 10.01184 | 4° | 16km/h | 27379m | 6.6m/s | -49°C | 0.1% | 18.5hPa | 2.6V | 18:12:15 | 01:53:44 | 00:00:00 | |
| DL1NUX | 2026-08-30 12:12:05 | 48.93736 | 10.01184 | 351° | 22km/h | 27373m | 6.3m/s | -49°C | 3.3% | 18.5hPa | 2.6V | 08:30:00 | 01:53:43 | 00:00:00 | |
| NBG1-10 | 2026-08-30 12:12:05 | 48.93740 | 10.01184 | 4° | 22km/h | 27379m | 6.6m/s | -48.9°C | 3.3% | 18.5hPa | 2.7V | 00:00:00 | 01:53:44 | 00:00:00 | |
| SO1NDE-10 | 2026-08-30 12:12:04 | 48.93736 | 10.01184 | 352° | 24km/h | 27373m | 6.3m/s | -49.0°C | 3.3% | 18.5hPa | 2.7V | 00:00:00 | 01:53:43 | 00:00:00 | |
| DL1XH1-15 | 2026-08-30 12:12:01 | 48.93691 | 10.01192 | 347° | 26km/h | 27333m | 6.7m/s | -49.1°C | 3.2% | 18.6hPa | 2.7V | 08:30:00 | 01:53:36 | 00:00:00 | |
| DO3MHA-12 | 2026-08-30 12:12:00 | 48.93710 | 10.01190 | 360° | 22km/h | 27350m | 5.5m/s | -48.9°C | 3.2% | 18.6hPa | 2.6V | 00:00:00 | 01:53:39 | 00:00:00 | |
| DL1NUX | 2026-08-30 12:11:59 | 48.93675 | 10.01203 | 327° | 20km/h | 27316m | 6.8m/s | -49°C | 3.3% | 18.7hPa | 2.6V | 08:30:00 | 01:53:33 | 00:00:00 | |
| DK7TD | 2026-08-30 12:11:59 | 48.93697 | 10.01190 | 356° | 26km/h | 27339m | 5.1m/s | -49°C | 0% | 18.6hPa | 2.6V | 18:12:15 | 01:53:37 | 00:00:00 | |
| DF8AY | 2026-08-30 12:11:57 | 48.93691 | 10.01192 | 348° | 26km/h | 27333m | 6.7m/s | -49.1°C | 0.1% | 18.6hPa | 2.7V | 18:12:15 | 01:53:36 | 00:00:00 | |
| DM0DOS-11 | 2026-08-30 12:11:57 | 48.93668 | 10.01210 | 323° | 15km/h | 27304m | 5.1m/s | -49°C | 3.3% | 18.7hPa | 2.6V | 08:30:00 | 01:53:31 | 00:00:00 | |
| DL1XH-west | 2026-08-30 12:11:55 | 48.93679 | 10.01199 | 330° | 24km/h | 27322m | 5.2m/s | -49.1°C | 0.2% | 18.7hPa | 2.7V | 18:12:15 | 01:53:34 | 00:00:00 | |
| DF8AY | 2026-08-30 12:11:52 | 48.93649 | 10.01229 | 343° | 18km/h | 27275m | 6.6m/s | -48.9°C | 0.1% | 18.8hPa | 2.6V | 18:12:15 | 01:53:26 | 00:00:00 | |
| HSKMA3-T | 2026-08-30 12:11:50 | 48.93661 | 10.01218 | 320° | 18km/h | 27291m | 6.2m/s | -49.1°C | 0.2% | 18.8hPa | 2.7V | 18:12:15 | 01:53:29 | 00:00:00 | |
| DO3MHA-12 | 2026-08-30 12:11:50 | 48.93661 | 10.01218 | 321° | 24km/h | 27292m | 6.2m/s | -49.0°C | 3.3% | 18.7hPa | 2.6V | 00:00:00 | 01:53:29 | 00:00:00 | |
| DL1XH1-15 | 2026-08-30 12:11:49 | 48.93649 | 10.01229 | 343° | 18km/h | 27275m | 6.6m/s | -48.9°C | 3.2% | 18.8hPa | 2.6V | 08:30:00 | 01:53:26 | 00:00:00 | |
| DK7TD | 2026-08-30 12:11:48 | 48.93653 | 10.01226 | 332° | 20km/h | 27281m | 5.3m/s | -49°C | 0.1% | 18.8hPa | 2.6V | 18:12:15 | 01:53:27 | 00:00:00 | |
| DJ8HS-15 | 2026-08-30 12:11:48 | 48.93653 | 10.01226 | 333° | 24km/h | 27281m | 5.2m/s | -48.9°C | 3.2% | 18.7hPa | 2.7V | 00:00:00 | 01:53:27 | 00:00:00 | |
| DL1NUX | 2026-08-30 12:11:45 | 48.93633 | 10.01232 | 351° | 26km/h | 27259m | 5.6m/s | -49.2°C | 3.3% | 18.9hPa | 2.7V | 08:30:00 | 01:53:23 | 00:00:00 | |
| DL1XH-west | 2026-08-30 12:11:45 | 48.93638 | 10.01231 | 357° | 24km/h | 27264m | 4.6m/s | -49.2°C | 0.1% | 18.9hPa | 2.7V | 18:12:15 | 01:53:24 | 00:00:00 | |
| SONDE2-11 | 2026-08-30 12:11:44 | 48.93632 | 10.01232 | 351° | 26km/h | 27259m | 5.6m/s | -49.2°C | 0.8% | 18.9hPa | 2.6V | 00:00:00 | 00:00:00 | 00:00:00 | |
| DB0UT-7 | 2026-08-30 12:11:42 | 48.93619 | 10.01239 | 330° | 22km/h | 27247m | 5.7m/s | -48.9°C | 3.2% | 18.9hPa | 2.6V | 00:00:00 | 00:00:00 | 00:00:00 | |
| DL1XH1-15 | 2026-08-30 12:11:41 | 48.93598 | 10.01274 | 288° | 22km/h | 27216m | 6.9m/s | -48.9°C | 3.2% | 19hPa | 2.6V | 08:30:00 | 01:53:16 | 00:00:00 | |
| DO3MHA-12 | 2026-08-30 12:11:40 | 48.93607 | 10.01253 | 318° | 22km/h | 27235m | 6.7m/s | -49.0°C | 3.3% | 18.9hPa | 2.7V | 00:00:00 | 01:53:19 | 00:00:00 | |
| DL1NUX | 2026-08-30 12:11:39 | 48.93593 | 10.01299 | 291° | 20km/h | 27198m | 5.4m/s | -48.9°C | 3.2% | 19hPa | 2.7V | 08:30:00 | 01:53:13 | 00:00:00 | |
| HSKMA3-T | 2026-08-30 12:11:38 | 48.93600 | 10.01266 | 298° | 22km/h | 27223m | 6m/s | -48.9°C | 0.1% | 19hPa | 2.6V | 18:12:15 | 01:53:17 | 00:00:00 | |
| DF8AY | 2026-08-30 12:11:36 | 48.93596 | 10.01282 | 285° | 24km/h | 27209m | 6.4m/s | -48.9°C | 0.1% | 19hPa | 2.6V | 18:12:15 | 01:53:15 | 00:00:00 | |
| DL1XH-west | 2026-08-30 12:11:34 | 48.93591 | 10.01305 | 300° | 18km/h | 27192m | 6.7m/s | -48.8°C | 0% | 19.1hPa | 2.7V | 18:12:15 | 01:53:12 | 00:00:00 | |
| DK7TD | 2026-08-30 12:11:27 | 48.93565 | 10.01338 | 322° | 26km/h | 27157m | 6.8m/s | -48.9°C | 0% | 19.2hPa | 2.6V | 18:12:15 | 01:53:06 | 00:00:00 | |
| DL1NUX | 2026-08-30 12:11:26 | 48.93554 | 10.01359 | 293° | 24km/h | 27139m | 6.9m/s | -48.9°C | 3.2% | 19.2hPa | 2.7V | 08:30:00 | 01:53:03 | 00:00:00 | |
| DF8AY | 2026-08-30 12:11:26 | 48.93560 | 10.01345 | 315° | 24km/h | 27151m | 5.6m/s | -48.9°C | 0.1% | 19.2hPa | 2.6V | 18:12:15 | 01:53:05 | 00:00:00 | |
| HSKMA3-T | 2026-08-30 12:11:23 | 48.93552 | 10.01368 | 283° | 27km/h | 27133m | 5.9m/s | -48.9°C | 0.1% | 19.2hPa | 2.7V | 18:12:15 | 01:53:02 | 00:00:00 | |
| DK7TD | 2026-08-30 12:11:17 | 48.93543 | 10.01406 | 335° | 15km/h | 27099m | 6.5m/s | -48.9°C | 0.1% | 19.4hPa | 2.7V | 18:12:15 | 01:52:56 | 00:00:00 | |
| DF8AY | 2026-08-30 12:11:15 | 48.93534 | 10.01412 | 336° | 24km/h | 27086m | 5.5m/s | -48.9°C | 0% | 19.4hPa | 2.6V | 18:12:15 | 01:52:54 | 00:00:00 | |
| DL1NUX | 2026-08-30 12:11:15 | 48.93528 | 10.01416 | 335° | 26km/h | 27080m | 6.3m/s | -48.9°C | 3.2% | 19.4hPa | 2.6V | 08:30:00 | 01:52:53 | 00:00:00 | |
| DL1XH-west | 2026-08-30 12:11:13 | 48.93522 | 10.01420 | 335° | 26km/h | 27074m | 6.2m/s | -49°C | 0.1% | 19.4hPa | 2.7V | 18:12:15 | 01:52:52 | 00:00:00 | |
| HSKMA3-T | 2026-08-30 12:11:12 | 48.93517 | 10.01425 | 328° | 24km/h | 27069m | 4.6m/s | -49°C | 0% | 19.4hPa | 2.7V | 18:12:15 | 01:52:51 | 00:00:00 | |
| DB0UT-7 | 2026-08-30 12:11:12 | 48.93517 | 10.01425 | 329° | 20km/h | 27069m | 4.6m/s | -49.0°C | 3.2% | 19.3hPa | 2.6V | 00:00:00 | 01:52:51 | 00:00:00 | |
| DO3MHA-12 | 2026-08-30 12:11:10 | 48.93507 | 10.01437 | 312° | 18km/h | 27058m | 7.0m/s | -49.0°C | 3.2% | 19.4hPa | 2.6V | 00:00:00 | 01:52:49 | 00:00:00 | |
| DL1XH1-15 | 2026-08-30 12:11:09 | 48.93497 | 10.01462 | 298° | 20km/h | 27040m | 6.7m/s | -49°C | 3.3% | 19.5hPa | 2.7V | 08:30:00 | 01:52:46 | 00:00:00 | |
| DL1NUX | 2026-08-30 12:11:09 | 48.93491 | 10.01473 | 332° | 9km/h | 27023m | 5.6m/s | -49.1°C | 3.3% | 19.6hPa | 2.6V | 08:30:00 | 01:52:43 | 00:00:00 | |
| DK7TD | 2026-08-30 12:11:07 | 48.93497 | 10.01462 | 299° | 20km/h | 27041m | 6.7m/s | -49.1°C | 0.1% | 19.5hPa | 2.7V | 18:12:15 | 01:52:46 | 00:00:00 | |
| DF8AY | 2026-08-30 12:11:05 | 48.93493 | 10.01471 | 316° | 9km/h | 27028m | 5.2m/s | -49°C | 0.1% | 19.6hPa | 2.6V | 18:12:15 | 01:52:44 | 00:00:00 | |
| DL1XH-west | 2026-08-30 12:11:03 | 48.93485 | 10.01478 | 328° | 16km/h | 27010m | 5.8m/s | -49.1°C | 0% | 19.6hPa | 2.7V | 18:12:15 | 01:52:41 | 00:00:00 | |
| DL1ZP-14 | 2026-08-30 12:11:02 | 48.93481 | 10.01482 | 325° | 20km/h | 27005m | 4.7m/s | -49.1°C | 0.8% | 19.6hPa | 2.7V | 00:00:00 | 00:00:00 | 00:00:00 | |
| DL1XH1-15 | 2026-08-30 12:11:01 | 48.93463 | 10.01500 | 327° | 22km/h | 26983m | 4.8m/s | -49.2°C | 3.3% | 19.7hPa | 2.6V | 08:30:00 | 01:52:36 | 00:00:00 | |
| HSKMA3-T | 2026-08-30 12:11:00 | 48.93476 | 10.01487 | 325° | 22km/h | 27000m | 4.9m/s | -49.2°C | 0.1% | 19.6hPa | 2.7V | 18:12:15 | 01:52:39 | 00:00:00 | |
| DK7TD | 2026-08-30 12:10:57 | 48.93463 | 10.01500 | 328° | 22km/h | 26983m | 4.8m/s | -49.3°C | 0.1% | 19.7hPa | 2.6V | 18:12:15 | 01:52:36 | 00:00:00 | |
| DJ2DS-15 | 2026-08-30 12:10:57 | 48.93463 | 10.01500 | 328° | 24km/h | 26984m | 4.8m/s | -49.2°C | 3.3% | 19.7hPa | 2.6V | 00:00:00 | 01:52:36 | 00:00:00 | |
| DL1NUX | 2026-08-30 12:10:56 | 48.93449 | 10.01518 | 310° | 27km/h | 26966m | 5.8m/s | -49.2°C | 3.3% | 19.7hPa | 2.6V | 08:30:00 | 01:52:33 | 00:00:00 | |
| DF7PN | 2026-08-30 12:10:55 | 48.93454 | 10.01511 | 317° | 24km/h | 26972m | 7.0m/s | -49.2°C | 0.8% | 19.7hPa | 2.6V | 00:00:00 | 00:00:00 | 00:00:00 | |
| DM0DOS-11 | 2026-08-30 12:10:54 | 48.93442 | 10.01534 | 300° | 22km/h | 26955m | 5.9m/s | -49.1°C | 3.3% | 19.8hPa | 2.6V | 08:30:00 | 01:52:31 | 00:00:00 | |
| DF8AY | 2026-08-30 12:10:54 | 48.93449 | 10.01518 | 311° | 27km/h | 26966m | 5.8m/s | -49.2°C | 0.1% | 19.8hPa | 2.6V | 18:12:15 | 01:52:33 | 00:00:00 | |
| DL1XH-west | 2026-08-30 12:10:51 | 48.93439 | 10.01540 | 298° | 16km/h | 26949m | 6.5m/s | -49.2°C | 0.1% | 19.8hPa | 2.7V | 18:12:15 | 01:52:30 | 00:00:00 | |
| DO3MHA-12 | 2026-08-30 12:10:50 | 48.93437 | 10.01545 | 304° | 22km/h | 26943m | 5.2m/s | -49.0°C | 3.2% | 19.7hPa | 2.7V | 00:00:00 | 01:52:29 | 00:00:00 | |
| DL1NUX | 2026-08-30 12:10:49 | 48.93413 | 10.01575 | 321° | 26km/h | 26910m | 6.8m/s | -49.1°C | 3.2% | 19.9hPa | 2.7V | 08:30:00 | 01:52:23 | 00:00:00 | |
| DL1XH1-15 | 2026-08-30 12:10:49 | 48.93429 | 10.01558 | 322° | 22km/h | 26926m | 5.5m/s | -49.1°C | 3.2% | 19.9hPa | 2.6V | 08:30:00 | 01:52:26 | 00:00:00 | |
| DF3TZ-5 | 2026-08-30 12:10:49 | 48.93435 | 10.01549 | 313° | 13km/h | 26938m | 4.8m/s | -49.1°C | 0.8% | 19.8hPa | 2.6V | 00:00:00 | 00:00:00 | 00:00:00 | |
| DJ8HS-15 | 2026-08-30 12:10:48 | 48.93432 | 10.01553 | 320° | 24km/h | 26932m | 6.7m/s | -49.1°C | 3.2% | 19.8hPa | 2.6V | 00:00:00 | 01:52:27 | 00:00:00 | |
| DM0DOS-11 | 2026-08-30 12:10:47 | 48.93405 | 10.01589 | 302° | 24km/h | 26899m | 4.7m/s | -49.2°C | 3.3% | 19.9hPa | 2.6V | 08:30:00 | 01:52:21 | 00:00:00 | |
| DK7TD | 2026-08-30 12:10:47 | 48.93429 | 10.01558 | 323° | 22km/h | 26926m | 5.5m/s | -49.1°C | 0.1% | 19.9hPa | 2.6V | 18:12:15 | 01:52:26 | 00:00:00 | |
| DL9SK-14 | 2026-08-30 12:10:46 | 48.93424 | 10.01563 | 324° | 26km/h | 26921m | 5.0m/s | -49.1°C | 0.7% | 19.9hPa | 2.7V | 00:00:00 | 00:00:00 | 00:00:00 | |
| DF8AY | 2026-08-30 12:10:44 | 48.93413 | 10.01575 | 321° | 26km/h | 26910m | 6.8m/s | -49.1°C | 0% | 19.9hPa | 2.7V | 18:12:15 | 01:52:23 | 00:00:00 | |
| DL1XH-west | 2026-08-30 12:10:41 | 48.93402 | 10.01597 | 297° | 26km/h | 26893m | 6m/s | -49.2°C | 0.1% | 19.9hPa | 2.6V | 18:12:15 | 01:52:20 | 00:00:00 | |
| DK7TD | 2026-08-30 12:10:36 | 48.93389 | 10.01646 | 285° | 22km/h | 26864m | 6.2m/s | -49.2°C | 0.1% | 20.1hPa | 2.6V | 18:12:15 | 01:52:15 | 00:00:00 | |
| DL1NUX | 2026-08-30 12:10:35 | 48.93386 | 10.01661 | 290° | 20km/h | 26853m | 5.5m/s | -49.2°C | 3.2% | 20.1hPa | 2.7V | 08:30:00 | 01:52:13 | 00:00:00 | |
| DM0DOS-11 | 2026-08-30 12:10:34 | 48.93381 | 10.01677 | 300° | 26km/h | 26841m | 5.2m/s | -49.3°C | 3.3% | 20.1hPa | 2.6V | 08:30:00 | 01:52:11 | 00:00:00 | |
| DF8AY | 2026-08-30 12:10:33 | 48.93384 | 10.01669 | 296° | 24km/h | 26847m | 6.5m/s | -49.3°C | 0% | 20.1hPa | 2.7V | 18:12:15 | 01:52:12 | 00:00:00 | |
| DL1XH-west | 2026-08-30 12:10:31 | 48.93374 | 10.01694 | 301° | 24km/h | 26831m | 6.7m/s | -49.5°C | 0.1% | 20.1hPa | 2.6V | 18:12:15 | 01:52:09 | 00:00:00 | |
| DO3MHA-12 | 2026-08-30 12:10:30 | 48.93374 | 10.01694 | 301° | 29km/h | 26831m | 6.6m/s | -49.4°C | 3.3% | 20.1hPa | 2.6V | 00:00:00 | 01:52:09 | 00:00:00 | |
| DL1NUX | 2026-08-30 12:10:29 | 48.93364 | 10.01757 | 277° | 33km/h | 26796m | 5.1m/s | -49.4°C | 3.3% | 20.3hPa | 2.6V | 08:30:00 | 01:52:03 | 00:00:00 | |
| DJ8HS-15 | 2026-08-30 12:10:28 | 48.93369 | 10.01710 | 286° | 27km/h | 26819m | 5.5m/s | -49.4°C | 3.3% | 20.1hPa | 2.7V | 00:00:00 | 01:52:07 | 00:00:00 | |
| DM0DOS-11 | 2026-08-30 12:10:27 | 48.93361 | 10.01790 | 274° | 26km/h | 26779m | 5.5m/s | -49.4°C | 3.3% | 20.3hPa | 2.7V | 08:30:00 | 01:52:00 | 00:00:00 | |
| HSKMA3-T | 2026-08-30 12:10:26 | 48.93366 | 10.01732 | 280° | 33km/h | 26807m | 5.9m/s | -49.6°C | 0.2% | 20.2hPa | 2.6V | 18:12:15 | 01:52:05 | 00:00:00 | |
| DK7TD | 2026-08-30 12:10:25 | 48.93365 | 10.01744 | 279° | 35km/h | 26802m | 4.9m/s | -49.4°C | 0.2% | 20.2hPa | 2.6V | 18:12:15 | 01:52:04 | 00:00:00 | |
| DF8AY | 2026-08-30 12:10:22 | 48.93362 | 10.01780 | 274° | 27km/h | 26784m | 5.7m/s | -49.4°C | 0.1% | 20.3hPa | 2.7V | 18:12:15 | 01:52:01 | 00:00:00 | |
| DL1XH-west | 2026-08-30 12:10:20 | 48.93361 | 10.01800 | 278° | 26km/h | 26772m | 6.7m/s | -49.5°C | 0.1% | 20.3hPa | 2.7V | 18:12:15 | 01:51:59 | 00:00:00 | |
| DO3MHA-12 | 2026-08-30 12:10:20 | 48.93361 | 10.01800 | 278° | 26km/h | 26773m | 6.6m/s | -49.4°C | 3.3% | 20.3hPa | 2.7V | 00:00:00 | 01:51:59 | 00:00:00 | |
| DF3TZ-5 | 2026-08-30 12:10:18 | 48.93358 | 10.01821 | 284° | 29km/h | 26761m | 4.4m/s | -49.4°C | 0.8% | 20.4hPa | 2.7V | 00:00:00 | 00:00:00 | 00:00:00 | |
| DM0DOS-11 | 2026-08-30 12:10:16 | 48.93347 | 10.01884 | 286° | 26km/h | 26722m | 5.5m/s | -49.6°C | 3.3% | 20.5hPa | 2.7V | 08:30:00 | 01:51:50 | 00:00:00 | |
| DK7TD | 2026-08-30 12:10:15 | 48.93353 | 10.01851 | 280° | 22km/h | 26744m | 6.1m/s | -49.6°C | 0.2% | 20.4hPa | 2.7V | 18:12:15 | 01:51:54 | 00:00:00 | |
| DF8AY | 2026-08-30 12:10:12 | 48.93349 | 10.01875 | 288° | 24km/h | 26727m | 6m/s | -49.4°C | 0.1% | 20.5hPa | 2.6V | 18:12:15 | 01:51:51 | 00:00:00 | |
| HSKMA3-T | 2026-08-30 12:10:11 | 48.93347 | 10.01884 | 286° | 26km/h | 26722m | 5.6m/s | -49.6°C | 0.1% | 20.5hPa | 2.7V | 18:12:15 | 01:51:50 | 00:00:00 | |
| DL1XH-west | 2026-08-30 12:10:10 | 48.93346 | 10.01893 | 282° | 26km/h | 26716m | 5.9m/s | -49.6°C | 0.2% | 20.5hPa | 2.7V | 18:12:15 | 01:51:49 | 00:00:00 | |
| DO3MHA-12 | 2026-08-30 12:10:10 | 48.93346 | 10.01893 | 283° | 26km/h | 26716m | 5.9m/s | -49.6°C | 3.4% | 20.5hPa | 2.7V | 00:00:00 | 01:51:49 | 00:00:00 | |
| DL1NUX | 2026-08-30 12:10:09 | 48.93342 | 10.01953 | 273° | 27km/h | 26682m | 4.5m/s | -49.5°C | 3.3% | 20.6hPa | 2.7V | 08:30:00 | 01:51:43 | 00:00:00 | |
| OE5DXL-15 | 2026-08-30 12:10:09 | 48.93345 | 10.01903 | 277° | 20km/h | 26710m | 6.2m/s | -49.4°C | 3.3% | 20.5hPa | 2.6V | 00:00:00 | 00:00:00 | 00:00:00 | |
| DJ8HS-15 | 2026-08-30 12:10:08 | 48.93344 | 10.01912 | 274° | 22km/h | 26704m | 5.0m/s | -49.4°C | 3.3% | 20.5hPa | 2.6V | 00:00:00 | 01:51:47 | 00:00:00 | |
| DM0DOS-11 | 2026-08-30 12:10:06 | 48.93345 | 10.01979 | 241° | 22km/h | 26665m | 4.9m/s | -49.6°C | 3.3% | 20.7hPa | 2.6V | 08:30:00 | 01:51:40 | 00:00:00 | |
| DK7TD | 2026-08-30 12:10:04 | 48.93342 | 10.01953 | 274° | 27km/h | 26682m | 4.5m/s | -49.5°C | 0.1% | 20.6hPa | 2.7V | 18:12:15 | 01:51:43 | 00:00:00 | |
| DF8AY | 2026-08-30 12:10:02 | 48.93343 | 10.01971 | 253° | 22km/h | 26671m | 5.9m/s | -49.5°C | 0.1% | 20.7hPa | 2.6V | 18:12:15 | 01:51:41 | 00:00:00 | |
| DL1XH1-15 | 2026-08-30 12:10:00 | 48.93358 | 10.02013 | 239° | 26km/h | 26643m | 6m/s | -49.5°C | 3.3% | 20.8hPa | 2.6V | 08:30:00 | 01:51:36 | 00:00:00 | |
| DL1XH-west | 2026-08-30 12:09:59 | 48.93351 | 10.01995 | 242° | 27km/h | 26654m | 5.8m/s | -49.6°C | 0.2% | 20.7hPa | 2.7V | 18:12:15 | 01:51:38 | 00:00:00 | |
| HSKMA3-T | 2026-08-30 12:09:57 | 48.93358 | 10.02013 | 240° | 26km/h | 26643m | 6m/s | -49.5°C | 0.2% | 20.8hPa | 2.6V | 18:12:15 | 01:51:36 | 00:00:00 | |
| DM0DOS-11 | 2026-08-30 12:09:56 | 48.93362 | 10.02057 | 285° | 18km/h | 26608m | 5.4m/s | -49.5°C | 3.3% | 20.9hPa | 2.6V | 08:30:00 | 01:51:30 | 00:00:00 | |
| DL1NUX | 2026-08-30 12:09:55 | 48.93364 | 10.02035 | 262° | 18km/h | 26625m | 6.5m/s | -49.6°C | 3.4% | 20.8hPa | 2.7V | 08:30:00 | 01:51:33 | 00:00:00 | |
| DK7TD | 2026-08-30 12:09:54 | 48.93364 | 10.02035 | 262° | 18km/h | 26625m | 6.5m/s | -49.6°C | 0.1% | 20.8hPa | 2.7V | 18:12:15 | 01:51:33 | 00:00:00 | |
| DF8AY | 2026-08-30 12:09:52 | 48.93364 | 10.02050 | 282° | 20km/h | 26613m | 4.7m/s | -49.5°C | 0.2% | 20.9hPa | 2.6V | 18:12:15 | 01:51:31 | 00:00:00 | |
| DM7RM-13 | 2026-08-30 12:09:51 | 48.93364 | 10.02050 | 283° | 20km/h | 26613m | 4.7m/s | -49.5°C | 0.9% | 20.8hPa | 2.6V | 00:00:00 | 00:00:00 | 00:00:00 | |
| DL1NUX | 2026-08-30 12:09:50 | 48.93366 | 10.02094 | 245° | 15km/h | 26568m | 5.9m/s | -50°C | 3.3% | 21hPa | 2.6V | 08:30:00 | 01:51:23 | 00:00:00 | |
| DL1XH1-15 | 2026-08-30 12:09:49 | 48.93362 | 10.02077 | 251° | 15km/h | 26584m | 6.8m/s | -49.7°C | 3.3% | 20.9hPa | 2.7V | 08:30:00 | 01:51:26 | 00:00:00 | |
| DL1XH-west | 2026-08-30 12:09:48 | 48.93361 | 10.02072 | 259° | 11km/h | 26590m | 5.6m/s | -49.6°C | 0.2% | 20.9hPa | 2.7V | 18:12:15 | 01:51:27 | 00:00:00 | |
| HSKMA3-T | 2026-08-30 12:09:45 | 48.93365 | 10.02089 | 250° | 16km/h | 26573m | 4.6m/s | -49.9°C | 0.1% | 21hPa | 2.6V | 18:12:15 | 01:51:24 | 00:00:00 | |
| DM0DOS-11 | 2026-08-30 12:09:44 | 48.93370 | 10.02106 | 255° | 9km/h | 26550m | 5.4m/s | -50°C | 3.4% | 21.1hPa | 2.7V | 08:30:00 | 01:51:20 | 00:00:00 | |
| DK7TD | 2026-08-30 12:09:43 | 48.93368 | 10.02099 | 239° | 13km/h | 26561m | 6.6m/s | -50°C | 0.2% | 21hPa | 2.6V | 18:12:15 | 01:51:22 | 00:00:00 | |
| DF8AY | 2026-08-30 12:09:41 | 48.93370 | 10.02106 | 255° | 9km/h | 26550m | 5.4m/s | -50°C | 0.2% | 21.1hPa | 2.7V | 18:12:15 | 01:51:20 | 00:00:00 | |
| DO3MHA-12 | 2026-08-30 12:09:40 | 48.93370 | 10.02109 | 273° | 11km/h | 26544m | 6.4m/s | -50.0°C | 3.4% | 21.0hPa | 2.7V | 00:00:00 | 01:51:19 | 00:00:00 | |
| DL1NUX | 2026-08-30 12:09:39 | 48.93369 | 10.02134 | 266° | 11km/h | 26510m | 6.3m/s | -49.8°C | 3.3% | 21.2hPa | 2.6V | 08:30:00 | 01:51:13 | 00:00:00 | |
| DL1XH-west | 2026-08-30 12:09:38 | 48.93369 | 10.02119 | 280° | 13km/h | 26533m | 5.7m/s | -49.9°C | 0.1% | 21.1hPa | 2.6V | 18:12:15 | 01:51:17 | 00:00:00 | |
| DK7TD | 2026-08-30 12:09:33 | 48.93369 | 10.02138 | 271° | 13km/h | 26504m | 6m/s | -49.9°C | 0.1% | 21.2hPa | 2.6V | 18:12:15 | 01:51:12 | 00:00:00 | |
| DF8AY | 2026-08-30 12:09:31 | 48.93369 | 10.02147 | 265° | 11km/h | 26494m | 4.2m/s | -49.9°C | 0.1% | 21.2hPa | 2.7V | 18:12:15 | 01:51:10 | 00:00:00 | |
| DL1XH1-15 | 2026-08-30 12:09:30 | 48.93373 | 10.02150 | 138° | 5km/h | 26473m | 5m/s | -49.9°C | 3.4% | 21.3hPa | 2.6V | 08:30:00 | 01:51:06 | 00:00:00 | |
| DB0ND-19 | 2026-08-30 12:09:30 | 48.93371 | 10.02152 | 188° | 4km/h | 26484m | 6.1m/s | -49.8°C | 0.8% | 21.3hPa | 2.7V | 00:00:00 | 00:00:00 | 00:00:00 | |
| DL1NUX | 2026-08-30 12:09:29 | 48.93372 | 10.02150 | 336° | 9km/h | 26456m | 4.7m/s | -50°C | 3.4% | 21.4hPa | 2.7V | 08:30:00 | 01:51:03 | 00:00:00 | |
| DL1XH-west | 2026-08-30 12:09:28 | 48.93373 | 10.02150 | 138° | 5km/h | 26473m | 5m/s | -49.9°C | 0.2% | 21.3hPa | 2.6V | 18:12:15 | 01:51:06 | 00:00:00 | |
| DM0DOS-11 | 2026-08-30 12:09:26 | 48.93362 | 10.02152 | 2° | 16km/h | 26438m | 5.3m/s | -50.1°C | 3.3% | 21.4hPa | 2.6V | 08:30:00 | 01:51:00 | 00:00:00 | |
| HSKMA3-T | 2026-08-30 12:09:22 | 48.93366 | 10.02152 | 354° | 15km/h | 26444m | 7.1m/s | -50.1°C | 0.1% | 21.4hPa | 2.6V | 18:12:15 | 01:51:01 | 00:00:00 | |
| DF8AY | 2026-08-30 12:09:20 | 48.93358 | 10.02152 | 4° | 16km/h | 26433m | 4.8m/s | -50.2°C | 0.1% | 21.4hPa | 2.7V | 18:12:15 | 01:50:59 | 00:00:00 | |
| AZAK | 2026-08-30 12:09:20 | 48.93357 | 10.02152 | 5° | 16km/h | 26433m | 4.8m/s | -50.2°C | 0.8% | 21.4hPa | 2.6V | 00:00:00 | 00:00:00 | 00:00:00 | |
| DL1XH1-15 | 2026-08-30 12:09:19 | 48.93346 | 10.02156 | 323° | 15km/h | 26416m | 5.8m/s | -50.2°C | 3.5% | 21.5hPa | 2.6V | 08:30:00 | 01:50:56 | 00:00:00 | |
| DL1XH-west | 2026-08-30 12:09:16 | 48.93344 | 10.02159 | 313° | 11km/h | 26411m | 4.8m/s | -50.2°C | 0.2% | 21.5hPa | 2.6V | 18:12:15 | 01:50:55 | 00:00:00 | |
| DM0DOS-11 | 2026-08-30 12:09:16 | 48.93340 | 10.02163 | 349° | 5km/h | 26383m | 6.3m/s | -50.2°C | 3.4% | 21.6hPa | 2.7V | 08:30:00 | 01:50:50 | 00:00:00 | |
| DK7TD | 2026-08-30 12:09:11 | 48.93340 | 10.02163 | 350° | 5km/h | 26383m | 6.4m/s | -50.2°C | 0.2% | 21.6hPa | 2.7V | 18:12:15 | 01:50:50 | 00:00:00 | |
| DF8AY | 2026-08-30 12:09:11 | 48.93338 | 10.02164 | 338° | 11km/h | 26376m | 5.4m/s | -50.2°C | 0.1% | 21.7hPa | 2.6V | 18:12:15 | 01:50:49 | 00:00:00 | |
| DL1XH1-15 | 2026-08-30 12:09:11 | 48.93326 | 10.02168 | 359° | 20km/h | 26360m | 6.9m/s | -50.4°C | 3.4% | 21.7hPa | 2.7V | 08:30:00 | 01:50:46 | 00:00:00 | |
| DL1XH-west | 2026-08-30 12:09:05 | 48.93315 | 10.02166 | 6° | 24km/h | 26348m | 5.1m/s | -50.6°C | 0.2% | 21.7hPa | 2.6V | 18:12:15 | 01:50:44 | 00:00:00 | |
| DM0DOS-11 | 2026-08-30 12:09:05 | 48.93293 | 10.02172 | 337° | 20km/h | 26325m | 5.4m/s | -50.2°C | 3.4% | 21.8hPa | 2.7V | 08:30:00 | 01:50:40 | 00:00:00 | |
| DK7TD | 2026-08-30 12:09:01 | 48.93292 | 10.02172 | 338° | 20km/h | 26325m | 5.4m/s | -50.2°C | 0.2% | 21.8hPa | 2.7V | 18:12:15 | 01:50:40 | 00:00:00 | |
| HSKMA3-T | 2026-08-30 12:09:00 | 48.93288 | 10.02175 | 341° | 16km/h | 26319m | 6.6m/s | -50.2°C | 0.3% | 21.8hPa | 2.7V | 18:12:15 | 01:50:39 | 00:00:00 | |
| DO3MHA-12 | 2026-08-30 12:09:00 | 48.93288 | 10.02175 | 342° | 20km/h | 26319m | 6.5m/s | -50.1°C | 3.5% | 21.8hPa | 2.6V | 00:00:00 | 01:50:39 | 00:00:00 | |
| DL1XH1-15 | 2026-08-30 12:08:59 | 48.93277 | 10.02178 | 346° | 15km/h | 26301m | 6.5m/s | -50.2°C | 3.5% | 21.9hPa | 2.6V | 08:30:00 | 01:50:36 | 00:00:00 | |
| DF8AY | 2026-08-30 12:08:59 | 48.93284 | 10.02176 | 348° | 15km/h | 26313m | 5.7m/s | -50.2°C | 0.2% | 21.8hPa | 2.6V | 18:12:15 | 01:50:38 | 00:00:00 | |
| DL1NUX | 2026-08-30 12:08:59 | 48.93263 | 10.02179 | 11° | 22km/h | 26284m | 7m/s | -50.5°C | 3.4% | 21.9hPa | 2.6V | 08:30:00 | 01:50:33 | 00:00:00 | |
| DB0ND-19 | 2026-08-30 12:08:58 | 48.93281 | 10.02177 | 349° | 13km/h | 26307m | 5.7m/s | -50.2°C | 0.8% | 21.9hPa | 2.6V | 00:00:00 | 00:00:00 | 00:00:00 | |
| DL1ZP-14 | 2026-08-30 12:08:57 | 48.93277 | 10.02179 | 346° | 15km/h | 26301m | 6.5m/s | -50.3°C | 0.8% | 21.9hPa | 2.6V | 00:00:00 | 00:00:00 | 00:00:00 | |
| DJ2DS-15 | 2026-08-30 12:08:56 | 48.93273 | 10.02180 | 351° | 22km/h | 26295m | 5.4m/s | -50.2°C | 3.4% | 21.9hPa | 2.7V | 00:00:00 | 01:50:35 | 00:00:00 | |
| DM0DOS-11 | 2026-08-30 12:08:55 | 48.93244 | 10.02172 | 8° | 27km/h | 26267m | 6.6m/s | -50.7°C | 3.4% | 22hPa | 2.7V | 08:30:00 | 01:50:30 | 00:00:00 | |
| DL1XH-west | 2026-08-30 12:08:55 | 48.93268 | 10.02180 | 1° | 20km/h | 26290m | 5m/s | -50.4°C | 0.2% | 21.9hPa | 2.7V | 18:12:15 | 01:50:34 | 00:00:00 | |
| DK7TD | 2026-08-30 12:08:50 | 48.93237 | 10.02171 | 0° | 29km/h | 26261m | 5.5m/s | -50.7°C | 0.1% | 22hPa | 2.7V | 18:12:15 | 01:50:29 | 00:00:00 | |
| HSKMA3-T | 2026-08-30 12:08:49 | 48.93230 | 10.02172 | 355° | 27km/h | 26256m | 5.2m/s | -50.8°C | 0.2% | 22hPa | 2.7V | 18:12:15 | 01:50:28 | 00:00:00 | |
| DF8AY | 2026-08-30 12:08:48 | 48.93223 | 10.02173 | 354° | 26km/h | 26251m | 5.6m/s | -50.8°C | 0.2% | 22.1hPa | 2.6V | 18:12:15 | 01:50:27 | 00:00:00 | |
| DJ8HS-15 | 2026-08-30 12:08:48 | 48.93223 | 10.02173 | 355° | 24km/h | 26251m | 5.6m/s | -50.7°C | 3.4% | 22.0hPa | 2.6V | 00:00:00 | 01:50:27 | 00:00:00 | |
| NBG1-10 | 2026-08-30 12:08:47 | 48.93217 | 10.02173 | 359° | 22km/h | 26245m | 6.3m/s | -50.8°C | 3.5% | 22.0hPa | 2.6V | 00:00:00 | 01:50:26 | 00:00:00 | |
| DM0DOS-11 | 2026-08-30 12:08:45 | 48.93191 | 10.02179 | 334° | 18km/h | 26211m | 5.3m/s | -50.6°C | 3.5% | 22.2hPa | 2.6V | 08:30:00 | 01:50:20 | 00:00:00 | |
| DL1XH-west | 2026-08-30 12:08:44 | 48.93203 | 10.02173 | 354° | 15km/h | 26228m | 5.1m/s | -50.8°C | 0.3% | 22.1hPa | 2.7V | 18:12:15 | 01:50:23 | 00:00:00 | |
| DB0UT-7 | 2026-08-30 12:08:42 | 48.93195 | 10.02176 | 333° | 24km/h | 26217m | 5.1m/s | -50.5°C | 3.5% | 22.1hPa | 2.7V | 00:00:00 | 00:00:00 | 00:00:00 | |
| DL1XH1-15 | 2026-08-30 12:08:40 | 48.93172 | 10.02189 | 338° | 24km/h | 26188m | 7m/s | -50.7°C | 3.6% | 22.3hPa | 2.7V | 08:30:00 | 01:50:16 | 00:00:00 | |
| DK7TD | 2026-08-30 12:08:40 | 48.93187 | 10.02182 | 340° | 18km/h | 26205m | 6.4m/s | -50.6°C | 0.3% | 22.2hPa | 2.6V | 18:12:15 | 01:50:19 | 00:00:00 | |
| DO3MHA-12 | 2026-08-30 12:08:40 | 48.93187 | 10.02182 | 341° | 26km/h | 26206m | 6.3m/s | -50.6°C | 3.5% | 22.2hPa | 2.6V | 00:00:00 | 01:50:19 | 00:00:00 | |
| DL1NUX | 2026-08-30 12:08:39 | 48.93153 | 10.02199 | 348° | 27km/h | 26170m | 6.4m/s | -50.4°C | 3.5% | 22.3hPa | 2.6V | 08:30:00 | 01:50:13 | 00:00:00 | |
| DF8AY | 2026-08-30 12:08:38 | 48.93177 | 10.02186 | 344° | 22km/h | 26194m | 5m/s | -50.8°C | 0.3% | 22.2hPa | 2.7V | 18:12:15 | 01:50:17 | 00:00:00 | |
| DL1XH-west | 2026-08-30 12:08:33 | 48.93139 | 10.02202 | 351° | 27km/h | 26160m | 5m/s | -50.5°C | 0.2% | 22.4hPa | 2.7V | 18:12:15 | 01:50:11 | 00:00:00 | |
| SONCRA | 2026-08-30 12:08:32 | 48.93132 | 10.02204 | 346° | 27km/h | 26154m | 6.8m/s | -50.5°C | 0.8% | 22.4hPa | 2.7V | 00:00:00 | 00:00:00 | 00:00:00 | |
| DL1XH1-15 | 2026-08-30 12:08:30 | 48.93106 | 10.02221 | 338° | 24km/h | 26132m | 6.3m/s | -50.7°C | 3.4% | 22.5hPa | 2.7V | 08:30:00 | 01:50:06 | 00:00:00 | |
| DK7TD | 2026-08-30 12:08:29 | 48.93118 | 10.02212 | 333° | 29km/h | 26142m | 5m/s | -50.6°C | 0.2% | 22.4hPa | 2.6V | 18:12:15 | 01:50:08 | 00:00:00 | |
| HSKMA3-T | 2026-08-30 12:08:28 | 48.93112 | 10.02217 | 333° | 27km/h | 26138m | 5m/s | -50.6°C | 0.2% | 22.4hPa | 2.6V | 18:12:15 | 01:50:07 | 00:00:00 | |
| DF8AY | 2026-08-30 12:08:27 | 48.93106 | 10.02221 | 338° | 24km/h | 26132m | 6.3m/s | -50.7°C | 0.1% | 22.5hPa | 2.7V | 18:12:15 | 01:50:06 | 00:00:00 | |
| DL1NUX | 2026-08-30 12:08:24 | 48.93091 | 10.02228 | 340° | 20km/h | 26116m | 6.3m/s | -50.7°C | 3.4% | 22.5hPa | 2.6V | 08:30:00 | 01:50:03 | 00:00:00 | |
| DL1XH-west | 2026-08-30 12:08:21 | 48.93079 | 10.02239 | 322° | 18km/h | 26097m | 6.6m/s | -50.8°C | 0.2% | 22.6hPa | 2.7V | 18:12:15 | 01:50:00 | 00:00:00 | |
| DO3MHA-12 | 2026-08-30 12:08:20 | 48.93075 | 10.02244 | 321° | 27km/h | 26091m | 5.6m/s | -50.8°C | 3.5% | 22.6hPa | 2.7V | 00:00:00 | 01:49:59 | 00:00:00 | |
| DL1NUX | 2026-08-30 12:08:19 | 48.93048 | 10.02282 | 332° | 31km/h | 26056m | 6.3m/s | -50.8°C | 3.5% | 22.8hPa | 2.7V | 08:30:00 | 01:49:53 | 00:00:00 | |
| DL1XH1-15 | 2026-08-30 12:08:19 | 48.93065 | 10.02261 | 309° | 26km/h | 26074m | 6m/s | -50.9°C | 3.6% | 22.6hPa | 2.6V | 08:30:00 | 01:49:56 | 00:00:00 | |
| DK7TD | 2026-08-30 12:08:18 | 48.93069 | 10.02254 | 310° | 22km/h | 26080m | 6.5m/s | -50.8°C | 0.3% | 22.6hPa | 2.6V | 18:12:15 | 01:49:57 | 00:00:00 | |
| DF8AY | 2026-08-30 12:08:16 | 48.93060 | 10.02269 | 315° | 29km/h | 26068m | 5.1m/s | -50.9°C | 0.3% | 22.7hPa | 2.6V | 18:12:15 | 01:49:55 | 00:00:00 | |
| DJ2DS-15 | 2026-08-30 12:08:16 | 48.93060 | 10.02269 | 315° | 24km/h | 26069m | 5.0m/s | -50.8°C | 3.6% | 22.6hPa | 2.7V | 00:00:00 | 01:49:55 | 00:00:00 | |
| NBG1-10 | 2026-08-30 12:08:14 | 48.93048 | 10.02282 | 333° | 20km/h | 26057m | 6.2m/s | -50.7°C | 3.5% | 22.7hPa | 2.7V | 00:00:00 | 01:49:53 | 08:30:00 | |
| DM0DOS-11 | 2026-08-30 12:08:13 | 48.93009 | 10.02306 | 331° | 29km/h | 26030m | 4.7m/s | -50.9°C | 3.4% | 22.8hPa | 2.7V | 08:30:00 | 01:49:48 | 00:00:00 | |
| DL1XH-west | 2026-08-30 12:08:11 | 48.93024 | 10.02296 | 340° | 37km/h | 26041m | 6.2m/s | -50.8°C | 0.2% | 22.8hPa | 2.6V | 18:12:15 | 01:49:50 | 00:00:00 | |
| DO3MHA-12 | 2026-08-30 12:08:10 | 48.93016 | 10.02301 | 336° | 18km/h | 26035m | 5.1m/s | -50.7°C | 3.4% | 22.7hPa | 2.6V | 00:00:00 | 01:49:49 | 00:00:00 | |
| DL1XH1-15 | 2026-08-30 12:08:09 | 48.92999 | 10.02315 | 324° | 16km/h | 26018m | 5.9m/s | -51°C | 3.5% | 22.9hPa | 2.6V | 08:30:00 | 01:49:46 | 00:00:00 | |
| DK7TD | 2026-08-30 12:08:08 | 48.93003 | 10.02311 | 331° | 24km/h | 26024m | 6.6m/s | -50.9°C | 0.2% | 22.8hPa | 2.7V | 18:12:15 | 01:49:47 | 00:00:00 | |
| DF8AY | 2026-08-30 12:08:06 | 48.92997 | 10.02319 | 302° | 11km/h | 26013m | 5.1m/s | -51.1°C | 0.3% | 22.9hPa | 2.6V | 18:12:15 | 01:49:45 | 00:00:00 | |
| SO1NDE-10 | 2026-08-30 12:08:04 | 48.92995 | 10.02328 | 269° | 16km/h | 26000m | 5.9m/s | -50.9°C | 3.6% | 22.9hPa | 2.7V | 00:00:00 | 01:49:43 | 00:00:00 | |
| DF1GD-15 | 2026-08-30 12:08:03 | 48.92995 | 10.02328 | 270° | 16km/h | 26000m | 5.9m/s | -50.9°C | 0.9% | 22.9hPa | 2.7V | 00:00:00 | 00:00:00 | 00:00:00 | |
| DM0DOS-11 | 2026-08-30 12:08:01 | 48.92982 | 10.02356 | 330° | 22km/h | 25967m | 6.7m/s | -51°C | 3.5% | 23.1hPa | 2.7V | 08:30:00 | 01:49:37 | 00:00:00 | |
| DL1XH-west | 2026-08-30 12:08:00 | 48.92990 | 10.02349 | 330° | 16km/h | 25978m | 5.2m/s | -50.9°C | 0.3% | 23hPa | 2.6V | 18:12:15 | 01:49:39 | 00:00:00 | |
| DO3MHA-12 | 2026-08-30 12:08:00 | 48.92990 | 10.02349 | 330° | 20km/h | 25978m | 5.1m/s | -50.8°C | 3.5% | 23.0hPa | 2.7V | 00:00:00 | 01:49:39 | 00:00:00 | |
| DL1XH1-15 | 2026-08-30 12:07:59 | 48.92977 | 10.02360 | 325° | 24km/h | 25960m | 5.7m/s | -51.1°C | 3.6% | 23.1hPa | 2.7V | 08:30:00 | 01:49:36 | 00:00:00 | |
| DL1NUX | 2026-08-30 12:07:58 | 48.92963 | 10.02375 | 325° | 20km/h | 25943m | 5.6m/s | -50.9°C | 3.4% | 23.1hPa | 2.6V | 08:30:00 | 01:49:33 | 00:00:00 | |
| DK7TD | 2026-08-30 12:07:57 | 48.92977 | 10.02360 | 326° | 24km/h | 25960m | 5.7m/s | -51.1°C | 0.3% | 23.1hPa | 2.7V | 18:12:15 | 01:49:36 | 00:00:00 | |
| HSKMA3-T | 2026-08-30 12:07:56 | 48.92972 | 10.02365 | 324° | 24km/h | 25955m | 4.7m/s | -50.9°C | 0.2% | 23.1hPa | 2.6V | 18:12:15 | 01:49:35 | 00:00:00 | |
| DF8AY | 2026-08-30 12:07:55 | 48.92967 | 10.02371 | 326° | 22km/h | 25949m | 6.3m/s | -50.9°C | 0.2% | 23.1hPa | 2.6V | 18:12:15 | 01:49:34 | 00:00:00 | |
| BIOWL1-15 | 2026-08-30 12:07:53 | 48.92959 | 10.02380 | 314° | 18km/h | 25938m | 4.7m/s | 0°C | 0% | 0hPa | 2.7V | 18:12:15 | 01:49:32 | 00:00:00 | |
| DN1GJH-1 | 2026-08-30 12:07:51 | 48.92956 | 10.02385 | 299° | 16km/h | 25933m | 6.7m/s | -51.1°C | 0.9% | 23.2hPa | 2.6V | 00:00:00 | 00:00:00 | 00:00:00 | |
| DL1XH1-15 | 2026-08-30 12:07:50 | 48.92955 | 10.02417 | 277° | 13km/h | 25903m | 5.1m/s | -51°C | 3.5% | 23.3hPa | 2.6V | 08:30:00 | 01:49:26 | 00:00:00 | |
| DL1XH-west | 2026-08-30 12:07:50 | 48.92955 | 10.02406 | 266° | 16km/h | 25915m | 6.5m/s | -50.9°C | 0.2% | 23.3hPa | 2.6V | 18:12:15 | 01:49:28 | 00:00:00 | |
| DK7TD | 2026-08-30 12:07:47 | 48.92955 | 10.02416 | 278° | 13km/h | 25903m | 5.1m/s | -51°C | 0.3% | 23.3hPa | 2.6V | 18:12:15 | 01:49:26 | 00:00:00 | |
| DL1NUX | 2026-08-30 12:07:46 | 48.92952 | 10.02432 | 298° | 15km/h | 25885m | 5.7m/s | -51°C | 3.5% | 23.4hPa | 2.7V | 08:30:00 | 01:49:23 | 00:00:00 | |
| DF8AY | 2026-08-30 12:07:45 | 48.92953 | 10.02427 | 289° | 15km/h | 25891m | 5.9m/s | -50.9°C | 0.2% | 23.3hPa | 2.7V | 18:12:15 | 01:49:24 | 00:00:00 | |
| DF3TZ-5 | 2026-08-30 12:07:43 | 48.92950 | 10.02436 | 312° | 15km/h | 25879m | 6.8m/s | -51.1°C | 0.9% | 23.4hPa | 2.6V | 00:00:00 | 00:00:00 | 00:00:00 | |
| DB0UT-7 | 2026-08-30 12:07:42 | 48.92947 | 10.02440 | 327° | 18km/h | 25874m | 5.6m/s | -51.0°C | 3.5% | 23.4hPa | 2.6V | 00:00:00 | 00:00:00 | 00:00:00 | |
| NBG1-10 | 2026-08-30 12:07:41 | 48.92943 | 10.02443 | 328° | 18km/h | 25869m | 3.7m/s | -50.9°C | 3.4% | 23.4hPa | 2.6V | 00:00:00 | 01:49:20 | 00:00:00 | |
| DM0DOS-11 | 2026-08-30 12:07:40 | 48.92937 | 10.02458 | 272° | 16km/h | 25853m | 5.8m/s | -51°C | 3.4% | 23.5hPa | 2.6V | 08:30:00 | 01:49:17 | 00:00:00 | |
| DL1XH1-15 | 2026-08-30 12:07:39 | 48.92937 | 10.02464 | 254° | 16km/h | 25847m | 5.9m/s | -51.1°C | 3.4% | 23.5hPa | 2.6V | 08:30:00 | 01:49:16 | 00:00:00 | |
| DL1XH-west | 2026-08-30 12:07:39 | 48.92937 | 10.02458 | 272° | 16km/h | 25853m | 5.9m/s | -51°C | 0.2% | 23.5hPa | 2.6V | 18:12:15 | 01:49:17 | 00:00:00 | |
| DF8AY | 2026-08-30 12:07:36 | 48.92941 | 10.02475 | 230° | 15km/h | 25835m | 5.7m/s | -51.2°C | 0.3% | 23.5hPa | 2.7V | 18:12:15 | 01:49:14 | 00:00:00 | |
| DK7TD | 2026-08-30 12:07:36 | 48.92939 | 10.02470 | 240° | 16km/h | 25841m | 6.6m/s | -51.2°C | 0.2% | 23.5hPa | 2.6V | 18:12:15 | 01:49:15 | 00:00:00 | |
| HSKMA3-T | 2026-08-30 12:07:33 | 48.92945 | 10.02482 | 246° | 11km/h | 25825m | 4.9m/s | -51.3°C | 0.3% | 23.6hPa | 2.7V | 18:12:15 | 01:49:12 | 00:00:00 | |
| SO1NDE-10 | 2026-08-30 12:07:33 | 48.92945 | 10.02482 | 247° | 18km/h | 25825m | 4.8m/s | -51.3°C | 3.6% | 23.5hPa | 2.7V | 00:00:00 | 01:49:12 | 00:00:00 | |
| DN1GJH-1 | 2026-08-30 12:07:31 | 48.92945 | 10.02487 | 266° | 13km/h | 25820m | 6.4m/s | -51.4°C | 0.9% | 23.6hPa | 2.7V | 00:00:00 | 00:00:00 | 00:00:00 | |
| DO3MHA-12 | 2026-08-30 12:07:30 | 48.92943 | 10.02498 | 311° | 22km/h | 25808m | 5.4m/s | -51.7°C | 3.7% | 23.6hPa | 2.7V | 00:00:00 | 01:49:09 | 00:00:00 | |
| DL1XH1-15 | 2026-08-30 12:07:29 | 48.92928 | 10.02513 | 333° | 27km/h | 25790m | 4.2m/s | -52°C | 3.7% | 23.7hPa | 2.7V | 08:30:00 | 01:49:06 | 00:00:00 | |
| DL1XH-west | 2026-08-30 12:07:28 | 48.92934 | 10.02508 | 334° | 26km/h | 25795m | 5.3m/s | -52°C | 0.4% | 23.7hPa | 2.7V | 18:12:15 | 01:49:07 | 00:00:00 | |
| DK7TD | 2026-08-30 12:07:26 | 48.92922 | 10.02518 | 327° | 27km/h | 25785m | 6.2m/s | -52°C | 0.4% | 23.7hPa | 2.7V | 18:12:15 | 01:49:05 | 00:00:00 | |
| DF8AY | 2026-08-30 12:07:25 | 48.92917 | 10.02524 | 312° | 24km/h | 25779m | 5.3m/s | -51.8°C | 0.4% | 23.7hPa | 2.6V | 18:12:15 | 01:49:04 | 00:00:00 | |
| DL1XH-west | 2026-08-30 12:07:18 | 48.92923 | 10.02571 | 247° | 24km/h | 25739m | 5.9m/s | -51.8°C | 0.3% | 23.9hPa | 2.6V | 18:12:15 | 01:48:57 | 00:00:00 | |
| HSKMA3-T | 2026-08-30 12:07:17 | 48.92925 | 10.02580 | 260° | 24km/h | 25734m | 4.9m/s | -51.8°C | 0.3% | 23.9hPa | 2.7V | 18:12:15 | 01:48:56 | 00:00:00 | |
| DK7TD | 2026-08-30 12:07:16 | 48.92925 | 10.02589 | 270° | 22km/h | 25729m | 5.9m/s | -51.9°C | 0.4% | 23.9hPa | 2.7V | 18:12:15 | 01:48:55 | 00:00:00 | |
| DF8AY | 2026-08-30 12:07:14 | 48.92921 | 10.02611 | 297° | 18km/h | 25710m | 5.6m/s | -51.7°C | 0.3% | 24hPa | 2.6V | 18:12:15 | 01:48:52 | 00:00:00 | |
| DL1NUX | 2026-08-30 12:07:13 | 48.92920 | 10.02643 | 247° | 13km/h | 25678m | 4.5m/s | -51.9°C | 3.8% | 24.1hPa | 2.6V | 08:30:00 | 01:48:46 | 00:00:00 | |
| DL1XH-west | 2026-08-30 12:07:07 | 48.92919 | 10.02643 | 247° | 13km/h | 25678m | 4.5m/s | -51.9°C | 0.4% | 24.1hPa | 2.6V | 18:12:15 | 01:48:46 | 00:00:00 | |
| DM0DOS-11 | 2026-08-30 12:07:07 | 48.92922 | 10.02675 | 272° | 15km/h | 25650m | 6.2m/s | -51.7°C | 3.8% | 24.2hPa | 2.6V | 08:30:00 | 01:48:41 | 00:00:00 | |
| DK7TD | 2026-08-30 12:07:05 | 48.92922 | 10.02654 | 260° | 18km/h | 25666m | 5.5m/s | -51.8°C | 0.4% | 24.2hPa | 2.7V | 18:12:15 | 01:48:44 | 00:00:00 | |
| BIOWL1-15 | 2026-08-30 12:07:02 | 48.92922 | 10.02675 | 273° | 15km/h | 25650m | 6.2m/s | 0°C | 0% | 0hPa | 2.6V | 18:12:15 | 01:48:41 | 00:00:00 | |
| HSKMA3-T | 2026-08-30 12:07:00 | 48.92922 | 10.02685 | 271° | 11km/h | 25639m | 4.5m/s | -51.6°C | 0.4% | 24.3hPa | 2.6V | 18:12:15 | 01:48:39 | 00:00:00 | |
| DO3MHA-12 | 2026-08-30 12:07:00 | 48.92922 | 10.02684 | 272° | 15km/h | 25639m | 4.5m/s | -51.6°C | 3.7% | 24.2hPa | 2.7V | 00:00:00 | 01:48:39 | 00:00:00 | |
| DL1XH1-15 | 2026-08-30 12:06:58 | 48.92921 | 10.02701 | 284° | 18km/h | 25623m | 5.5m/s | -51.7°C | 3.7% | 24.3hPa | 2.7V | 08:30:00 | 01:48:36 | 00:00:00 | |
| DL1XH-west | 2026-08-30 12:06:57 | 48.92919 | 10.02708 | 289° | 18km/h | 25618m | 5.2m/s | -51.8°C | 0.4% | 24.3hPa | 2.6V | 18:12:15 | 01:48:35 | 00:00:00 | |
| DK7TD | 2026-08-30 12:06:55 | 48.92918 | 10.02715 | 293° | 16km/h | 25611m | 6.5m/s | -51.8°C | 0.4% | 24.4hPa | 2.6V | 18:12:15 | 01:48:34 | 00:00:00 | |
| DB0ND-19 | 2026-08-30 12:06:54 | 48.92916 | 10.02720 | 295° | 13km/h | 25606m | 5.7m/s | -51.8°C | 0.9% | 24.4hPa | 2.7V | 00:00:00 | 00:00:00 | 00:00:00 | |
| DL1ZP-14 | 2026-08-30 12:06:53 | 48.92915 | 10.02724 | 289° | 11km/h | 25600m | 4.8m/s | -51.6°C | 0.9% | 24.4hPa | 2.7V | 00:00:00 | 00:00:00 | 00:00:00 | |
| DM0DOS-11 | 2026-08-30 12:06:53 | 48.92915 | 10.02728 | 278° | 13km/h | 25595m | 5.9m/s | -51.5°C | 3.7% | 24.4hPa | 2.7V | 08:30:00 | 01:48:31 | 00:00:00 | |
| DF8AY | 2026-08-30 12:06:51 | 48.92926 | 10.02781 | 263° | 11km/h | 25531m | 5.5m/s | -51.6°C | 0.4% | 24.7hPa | 2.7V | 18:12:15 | 01:48:20 | 00:00:00 | |
| HSKMA3-T | 2026-08-30 12:06:49 | 48.92916 | 10.02744 | 250° | 13km/h | 25577m | 6.7m/s | -51.6°C | 0.3% | 24.5hPa | 2.6V | 18:12:15 | 01:48:28 | 00:00:00 | |
| DL1XH1-15 | 2026-08-30 12:06:48 | 48.92919 | 10.02751 | 231° | 11km/h | 25565m | 4.9m/s | -51.7°C | 3.6% | 24.5hPa | 2.7V | 08:30:00 | 01:48:26 | 00:00:00 | |
| DJTTGO | 2026-08-30 12:06:48 | 48.92917 | 10.02748 | 237° | 11km/h | 25571m | 6.2m/s | -51.6°C | 0.9% | 24.5hPa | 2.6V | 00:00:00 | 00:00:00 | 00:00:00 | |
| DM0DOS-11 | 2026-08-30 12:06:47 | 48.92925 | 10.02777 | 259° | 13km/h | 25537m | 6.4m/s | -51.7°C | 3.7% | 24.7hPa | 2.6V | 08:30:00 | 01:48:21 | 00:00:00 | |
| DF7PN | 2026-08-30 12:06:47 | 48.92919 | 10.02751 | 231° | 11km/h | 25565m | 4.9m/s | -51.7°C | 0.9% | 24.5hPa | 2.7V | 00:00:00 | 00:00:00 | 00:00:00 | |
| DF8AY | 2026-08-30 12:06:45 | 48.92926 | 10.02786 | 267° | 11km/h | 25525m | 5.8m/s | -51.5°C | 0.4% | 24.7hPa | 2.7V | 18:12:15 | 01:48:19 | 00:00:00 | |
| DL1XH-west | 2026-08-30 12:06:45 | 48.92922 | 10.02760 | 249° | 16km/h | 25554m | 6.1m/s | -51.8°C | 0.4% | 24.6hPa | 2.6V | 18:12:15 | 01:48:24 | 00:00:00 | |
| DK7TD | 2026-08-30 12:06:44 | 48.92923 | 10.02766 | 254° | 16km/h | 25548m | 4.9m/s | -51.7°C | 0.4% | 24.6hPa | 2.6V | 18:12:15 | 01:48:23 | 00:00:00 | |
| DB0UT-7 | 2026-08-30 12:06:42 | 48.92925 | 10.02777 | 260° | 11km/h | 25537m | 6.4m/s | -51.6°C | 3.7% | 24.6hPa | 2.6V | 00:00:00 | 00:00:00 | 00:00:00 | |
| DL1NUX | 2026-08-30 12:06:41 | 48.92928 | 10.02806 | 237° | 13km/h | 25503m | 7m/s | -51.3°C | 3.6% | 24.8hPa | 2.6V | 08:30:00 | 01:48:15 | 00:00:00 | |
| DF3TZ-5 | 2026-08-30 12:06:41 | 48.92926 | 10.02786 | 267° | 11km/h | 25525m | 5.8m/s | -51.5°C | 0.9% | 24.7hPa | 2.7V | 00:00:00 | 00:00:00 | 00:00:00 | |
| DO3MHA-12 | 2026-08-30 12:06:40 | 48.92926 | 10.02786 | 268° | 13km/h | 25525m | 5.8m/s | -51.5°C | 3.7% | 24.6hPa | 2.7V | 00:00:00 | 01:48:19 | 00:00:00 | |
| DL1XH1-15 | 2026-08-30 12:06:38 | 48.92927 | 10.02801 | 252° | 15km/h | 25509m | 4.5m/s | -51.3°C | 3.7% | 24.8hPa | 2.6V | 08:30:00 | 01:48:16 | 00:00:00 | |
| PG1ADW-2 | 2026-08-30 12:06:38 | 48.92926 | 10.02796 | 264° | 11km/h | 25514m | 4.8m/s | -51.3°C | 3.7% | 24.7hPa | 2.6V | 00:00:00 | 00:00:00 | 00:00:00 | |
| DM0DOS-11 | 2026-08-30 12:06:37 | 48.92937 | 10.02816 | 218° | 11km/h | 25479m | 5.2m/s | -51.4°C | 3.6% | 24.9hPa | 2.6V | 08:30:00 | 01:48:11 | 00:00:00 | |
| DL1XH-west | 2026-08-30 12:06:34 | 48.92932 | 10.02811 | 212° | 11km/h | 25491m | 5.7m/s | -51.3°C | 0.2% | 24.8hPa | 2.7V | 18:12:15 | 01:48:13 | 00:00:00 | |
| AZAK | 2026-08-30 12:06:33 | 48.92932 | 10.02811 | 213° | 11km/h | 25491m | 5.7m/s | -51.3°C | 0.9% | 24.8hPa | 2.6V | 00:00:00 | 00:00:00 | 00:00:00 | |
| SO1NDE-10 | 2026-08-30 12:06:32 | 48.92937 | 10.02816 | 219° | 7km/h | 25479m | 5.1m/s | -51.4°C | 3.6% | 24.8hPa | 2.6V | 00:00:00 | 01:48:11 | 00:00:00 | |
| DL1NUX | 2026-08-30 12:06:31 | 48.92950 | 10.02839 | 254° | 16km/h | 25444m | 4.4m/s | -51°C | 3.6% | 25hPa | 2.6V | 08:30:00 | 01:48:05 | 00:00:00 | |
| DF8AY | 2026-08-30 12:06:30 | 48.92942 | 10.02821 | 208° | 13km/h | 25467m | 6.2m/s | -51.4°C | 0.3% | 24.9hPa | 2.7V | 18:12:15 | 01:48:09 | 00:00:00 | |
| DL1XH1-15 | 2026-08-30 12:06:30 | 48.92949 | 10.02833 | 247° | 16km/h | 25450m | 5.7m/s | -51°C | 3.6% | 25hPa | 2.6V | 08:30:00 | 01:48:06 | 00:00:00 | |
| DJ8HS-15 | 2026-08-30 12:06:28 | 48.92947 | 10.02828 | 233° | 11km/h | 25456m | 6.6m/s | -51.1°C | 3.6% | 24.9hPa | 2.7V | 00:00:00 | 01:48:07 | 00:00:00 | |
| DM0DOS-11 | 2026-08-30 12:06:27 | 48.92958 | 10.02852 | 177° | 7km/h | 25418m | 5.4m/s | -51.3°C | 3.6% | 25.1hPa | 2.7V | 08:30:00 | 01:48:00 | 00:00:00 | |
| DL1XH-west | 2026-08-30 12:06:24 | 48.92953 | 10.02849 | 241° | 11km/h | 25434m | 6.5m/s | -51.2°C | 0.3% | 25.1hPa | 2.6V | 18:12:15 | 01:48:03 | 00:00:00 | |
| HSKMA3-T | 2026-08-30 12:06:23 | 48.92954 | 10.02851 | 209° | 7km/h | 25428m | 5.6m/s | -51.2°C | 0.3% | 25.1hPa | 2.7V | 18:12:15 | 01:48:02 | 00:00:00 | |
| DF8AY | 2026-08-30 12:06:19 | 48.92961 | 10.02853 | 216° | 7km/h | 25406m | 5.5m/s | -51.1°C | 0.3% | 25.2hPa | 2.6V | 18:12:15 | 01:47:58 | 00:00:00 | |
| DL1XH-west | 2026-08-30 12:06:14 | 48.92972 | 10.02861 | 214° | 11km/h | 25377m | 6.5m/s | -51.3°C | 0.3% | 25.3hPa | 2.6V | 18:12:15 | 01:47:53 | 00:00:00 | |
| HSKMA3-T | 2026-08-30 12:06:13 | 48.92974 | 10.02864 | 228° | 11km/h | 25371m | 5.9m/s | -51.3°C | 0.2% | 25.3hPa | 2.6V | 18:12:15 | 01:47:52 | 00:00:00 | |
| DF8AY | 2026-08-30 12:06:08 | 48.92984 | 10.02867 | 160° | 7km/h | 25344m | 6.7m/s | -51.3°C | 0.3% | 25.4hPa | 2.6V | 18:12:15 | 01:47:47 | 00:00:00 | |
| DJ8HS-15 | 2026-08-30 12:06:08 | 48.92984 | 10.02867 | 160° | 7km/h | 25344m | 6.7m/s | -51.3°C | 3.6% | 25.4hPa | 2.6V | 00:00:00 | 01:47:47 | 00:00:00 | |
| DL6DJ-15 | 2026-08-30 12:06:07 | 48.92987 | 10.02865 | 151° | 7km/h | 25332m | 5.6m/s | -51.1°C | 0.9% | 25.5hPa | 2.6V | 00:00:00 | 00:00:00 | 00:00:00 | |
| DM0DOS-11 | 2026-08-30 12:06:06 | 48.92999 | 10.02857 | 190° | 9km/h | 25304m | 5m/s | -51.1°C | 3.6% | 25.6hPa | 2.6V | 08:30:00 | 01:47:40 | 00:00:00 | |
| DL1XH-west | 2026-08-30 12:06:04 | 48.92992 | 10.02860 | 144° | 13km/h | 25320m | 4.8m/s | -51.1°C | 0.2% | 25.5hPa | 2.7V | 18:12:15 | 01:47:43 | 00:00:00 | |
| DK7TD | 2026-08-30 12:06:03 | 48.92994 | 10.02858 | 153° | 11km/h | 25315m | 4.9m/s | -51.1°C | 0.3% | 25.5hPa | 2.7V | 18:12:15 | 01:47:42 | 00:00:00 | |
| HSKMA3-T | 2026-08-30 12:06:02 | 48.92997 | 10.02857 | 171° | 9km/h | 25309m | 6.7m/s | -51.1°C | 0.3% | 25.6hPa | 2.6V | 18:12:15 | 01:47:41 | 00:00:00 | |
| DF8AY | 2026-08-30 12:05:57 | 48.93008 | 10.02855 | 140° | 9km/h | 25282m | 4.3m/s | -51.1°C | 0.3% | 25.7hPa | 2.6V | 18:12:15 | 01:47:36 | 00:00:00 | |
| DM0DOS-11 | 2026-08-30 12:05:56 | 48.93007 | 10.02853 | 58° | 2km/h | 25249m | 5.7m/s | -51°C | 3.5% | 25.8hPa | 2.6V | 08:30:00 | 01:47:30 | 00:00:00 | |
| DK7TD | 2026-08-30 12:05:53 | 48.93008 | 10.02852 | 329° | 5km/h | 25261m | 5m/s | -51.1°C | 0.3% | 25.7hPa | 2.7V | 18:12:15 | 01:47:32 | 00:00:00 | |
| DB0ND-19 | 2026-08-30 12:05:53 | 48.93007 | 10.02853 | 333° | 2km/h | 25255m | 5.7m/s | -51.1°C | 0.9% | 25.8hPa | 2.7V | 00:00:00 | 00:00:00 | 00:00:00 | |
| DL1NUX | 2026-08-30 12:05:52 | 48.93008 | 10.02853 | 269° | 2km/h | 25228m | 5m/s | -51.1°C | 3.6% | 25.9hPa | 2.7V | 08:30:00 | 01:47:26 | 00:00:00 | |
| HSKMA3-T | 2026-08-30 12:05:52 | 48.93007 | 10.02853 | 334° | 4km/h | 25255m | 5.7m/s | -51.1°C | 0.3% | 25.8hPa | 2.7V | 18:12:15 | 01:47:31 | 00:00:00 | |
| DF8AY | 2026-08-30 12:05:47 | 48.93008 | 10.02853 | 269° | 2km/h | 25228m | 5m/s | -51.1°C | 0.3% | 25.9hPa | 2.7V | 18:12:15 | 01:47:26 | 00:00:00 | |
| DF7PN | 2026-08-30 12:05:45 | 48.93008 | 10.02853 | 90° | 0km/h | 25217m | 6.2m/s | -51.3°C | 0.9% | 25.9hPa | 2.6V | 00:00:00 | 00:00:00 | 00:00:00 | |
| DK7TD | 2026-08-30 12:05:43 | 48.93007 | 10.02852 | 24° | 4km/h | 25207m | 4.6m/s | -51.2°C | 0.3% | 26hPa | 2.6V | 18:12:15 | 01:47:22 | 00:00:00 | |
| DL1XH-west | 2026-08-30 12:05:42 | 48.93006 | 10.02852 | 350° | 5km/h | 25201m | 6.2m/s | -51.3°C | 0.3% | 26hPa | 2.6V | 18:12:15 | 01:47:21 | 00:00:00 | |
| HSKMA3-T | 2026-08-30 12:05:41 | 48.93005 | 10.02853 | 327° | 7km/h | 25195m | 5.4m/s | -51.4°C | 0.3% | 26hPa | 2.7V | 18:12:15 | 01:47:20 | 00:00:00 | |
| DF8AY | 2026-08-30 12:05:37 | 48.93002 | 10.02855 | 136° | 2km/h | 25174m | 4.4m/s | -51.4°C | 0.4% | 26.1hPa | 2.6V | 18:12:15 | 01:47:16 | 00:00:00 | |
| DM0DOS-11 | 2026-08-30 12:05:36 | 48.93005 | 10.02846 | 97° | 7km/h | 25142m | 4.2m/s | -51.2°C | 3.5% | 26.2hPa | 2.6V | 08:30:00 | 01:47:10 | 00:00:00 | |
| DK7TD | 2026-08-30 12:05:33 | 48.93004 | 10.02851 | 117° | 7km/h | 25152m | 6.5m/s | -51.3°C | 0.3% | 26.2hPa | 2.6V | 18:12:15 | 01:47:12 | 00:00:00 | |
| DL8DAS-14 | 2026-08-30 12:05:33 | 48.93005 | 10.02849 | 109° | 7km/h | 25147m | 4.8m/s | -51.3°C | 0.9% | 26.2hPa | 2.7V | 00:00:00 | 00:00:00 | 00:00:00 | |
| DL1XH1-15 | 2026-08-30 12:05:32 | 48.93002 | 10.02847 | 302° | 7km/h | 25121m | 5.2m/s | -51.2°C | 3.6% | 26.3hPa | 2.7V | 08:30:00 | 01:47:06 | 00:00:00 | |
| HSKMA3-T | 2026-08-30 12:05:31 | 48.93005 | 10.02846 | 98° | 7km/h | 25142m | 4.2m/s | -51.2°C | 0.3% | 26.2hPa | 2.6V | 18:12:15 | 01:47:10 | 00:00:00 | |
| DF8AY | 2026-08-30 12:05:26 | 48.93002 | 10.02849 | 285° | 5km/h | 25116m | 5.7m/s | -51.2°C | 0.3% | 26.4hPa | 2.6V | 18:12:15 | 01:47:05 | 00:00:00 | |
| DM0DOS-11 | 2026-08-30 12:05:26 | 48.92996 | 10.02851 | 13° | 13km/h | 25088m | 5.3m/s | -51.4°C | 3.6% | 26.4hPa | 2.6V | 08:30:00 | 01:47:00 | 00:00:00 | |
| DK7TD | 2026-08-30 12:05:22 | 48.92999 | 10.02852 | 5° | 9km/h | 25094m | 5.5m/s | -51.3°C | 0.3% | 26.4hPa | 2.7V | 18:12:15 | 01:47:01 | 00:00:00 | |
| HSKMA3-T | 2026-08-30 12:05:21 | 48.92996 | 10.02851 | 14° | 13km/h | 25088m | 5.3m/s | -51.4°C | 0.3% | 26.4hPa | 2.6V | 18:12:15 | 01:47:00 | 00:00:00 | |
| DO3MHA-12 | 2026-08-30 12:05:20 | 48.92993 | 10.02849 | 26° | 11km/h | 25083m | 6.2m/s | -51.2°C | 3.6% | 26.4hPa | 2.7V | 00:00:00 | 01:46:59 | 00:00:00 | |
| DM7RM-13 | 2026-08-30 12:05:19 | 48.92993 | 10.02849 | 26° | 13km/h | 25083m | 6.3m/s | -51.2°C | 0.9% | 26.5hPa | 2.7V | 00:00:00 | 00:00:00 | 00:00:00 | |
| DL1XH1-15 | 2026-08-30 12:05:18 | 48.92986 | 10.02842 | 23° | 13km/h | 25066m | 5.9m/s | -51.3°C | 3.6% | 26.5hPa | 2.7V | 08:30:00 | 01:46:56 | 00:00:00 | |
| PG1ADW-2 | 2026-08-30 12:05:18 | 48.92988 | 10.02844 | 37° | 13km/h | 25071m | 4.7m/s | -51.3°C | 3.6% | 26.5hPa | 2.6V | 00:00:00 | 00:00:00 | 00:00:00 | |
| DL1NUX | 2026-08-30 12:05:16 | 48.92976 | 10.02840 | 5° | 9km/h | 25050m | 5.7m/s | -51.4°C | 3.6% | 26.6hPa | 2.6V | 08:30:00 | 01:46:53 | 00:00:00 | |
| DF8AY | 2026-08-30 12:05:15 | 48.92979 | 10.02840 | 4° | 13km/h | 25055m | 4.2m/s | -51.3°C | 0.3% | 26.6hPa | 2.6V | 18:12:15 | 01:46:54 | 00:00:00 | |
| DF7PN | 2026-08-30 12:05:14 | 48.92974 | 10.02839 | 16° | 7km/h | 25045m | 5.9m/s | -51.2°C | 0.9% | 26.6hPa | 2.6V | 00:00:00 | 00:00:00 | 00:00:00 | |
| DJ2DS-15 | 2026-08-30 12:05:13 | 48.92974 | 10.02839 | 17° | 13km/h | 25045m | 5.9m/s | -51.2°C | 3.6% | 26.6hPa | 2.6V | 00:00:00 | 01:46:52 | 00:00:00 | |
| DL1XH1-15 | 2026-08-30 12:05:12 | 48.92958 | 10.02835 | 17° | 13km/h | 25012m | 5.7m/s | -51.6°C | 3.6% | 26.8hPa | 2.6V | 08:30:00 | 01:46:46 | 00:00:00 | |
| DK7TD | 2026-08-30 12:05:11 | 48.92971 | 10.02837 | 12° | 9km/h | 25034m | 6m/s | -51.4°C | 0.3% | 26.7hPa | 2.7V | 18:12:15 | 01:46:50 | 00:00:00 | |
| HSKMA3-T | 2026-08-30 12:05:10 | 48.92968 | 10.02837 | 2° | 11km/h | 25028m | 5.9m/s | -51.3°C | 0.3% | 26.7hPa | 2.7V | 18:12:15 | 01:46:49 | 00:00:00 | |
| DF8AY | 2026-08-30 12:05:04 | 48.92947 | 10.02832 | 1° | 18km/h | 24996m | 6.3m/s | -51.7°C | 0.3% | 26.8hPa | 2.7V | 18:12:15 | 01:46:43 | 00:00:00 | |
| SO1NDE-10 | 2026-08-30 12:05:04 | 48.92947 | 10.02832 | 2° | 13km/h | 24997m | 6.2m/s | -51.7°C | 3.6% | 26.8hPa | 2.7V | 00:00:00 | 01:46:43 | 00:00:00 | |
| DL8DAS-14 | 2026-08-30 12:05:02 | 48.92934 | 10.02833 | 352° | 13km/h | 24979m | 6.1m/s | -51.8°C | 0.9% | 26.9hPa | 2.7V | 00:00:00 | 00:00:00 | 00:00:00 | |
| DM0DOS-11 | 2026-08-30 12:05:01 | 48.92929 | 10.02836 | 323° | 9km/h | 24969m | 5.1m/s | -51.7°C | 3.7% | 26.9hPa | 2.7V | 08:30:00 | 01:46:38 | 00:00:00 | |
| DL1XH-west | 2026-08-30 12:05:00 | 48.92931 | 10.02834 | 344° | 11km/h | 24974m | 4.8m/s | -51.8°C | 0.4% | 26.9hPa | 2.7V | 18:12:15 | 01:46:39 | 00:00:00 | |
| HSKMA3-T | 2026-08-30 12:04:58 | 48.92927 | 10.02839 | 306° | 11km/h | 24963m | 6.7m/s | -51.8°C | 0.4% | 27hPa | 2.7V | 18:12:15 | 01:46:37 | 00:00:00 | |
| DL1XH1-15 | 2026-08-30 12:04:58 | 48.92926 | 10.02843 | 296° | 13km/h | 24957m | 5.6m/s | -51.8°C | 3.7% | 27hPa | 2.6V | 08:30:00 | 01:46:36 | 00:00:00 | |
| SONCRA | 2026-08-30 12:04:54 | 48.92922 | 10.02855 | 297° | 7km/h | 24940m | 4.5m/s | -51.7°C | 0.9% | 27.1hPa | 2.6V | 00:00:00 | 00:00:00 | 00:00:00 | |
| DF8AY | 2026-08-30 12:04:54 | 48.92922 | 10.02855 | 298° | 9km/h | 24940m | 4.5m/s | -51.7°C | 0.4% | 27.1hPa | 2.6V | 18:12:15 | 01:46:33 | 00:00:00 | |
| DJ2DS-15 | 2026-08-30 12:04:53 | 48.92921 | 10.02858 | 305° | 11km/h | 24936m | 4.5m/s | -51.6°C | 3.7% | 27.0hPa | 2.6V | 00:00:00 | 01:46:32 | 00:00:00 | |
| DM0DOS-11 | 2026-08-30 12:04:52 | 48.92910 | 10.02875 | 319° | 16km/h | 24913m | 6.5m/s | -51.7°C | 3.7% | 27.2hPa | 2.6V | 08:30:00 | 01:46:28 | 00:00:00 | |
| DL1XH1-15 | 2026-08-30 12:04:52 | 48.92904 | 10.02882 | 321° | 15km/h | 24902m | 4.8m/s | -51.6°C | 3.6% | 27.2hPa | 2.7V | 08:30:00 | 01:46:26 | 00:00:00 | |
| DK7TD | 2026-08-30 12:04:50 | 48.92914 | 10.02870 | 316° | 18km/h | 24919m | 4.8m/s | -51.7°C | 0.3% | 27.1hPa | 2.6V | 18:12:15 | 01:46:29 | 00:00:00 | |
| DL1XH-west | 2026-08-30 12:04:50 | 48.92910 | 10.02875 | 320° | 16km/h | 24913m | 6.5m/s | -51.7°C | 0.3% | 27.2hPa | 2.6V | 18:12:15 | 01:46:28 | 00:00:00 | |
| HSKMA3-T | 2026-08-30 12:04:48 | 48.92907 | 10.02879 | 324° | 15km/h | 24907m | 5.8m/s | -51.7°C | 0.3% | 27.2hPa | 2.6V | 18:12:15 | 01:46:27 | 00:00:00 | |
| DL1NUX | 2026-08-30 12:04:48 | 48.92894 | 10.02899 | 313° | 11km/h | 24880m | 6.8m/s | -51.7°C | 3.7% | 27.3hPa | 2.6V | 08:30:00 | 01:46:22 | 00:00:00 | |
| DF8AY | 2026-08-30 12:04:44 | 48.92889 | 10.02907 | 300° | 7km/h | 24857m | 4.7m/s | -51.6°C | 0.4% | 27.4hPa | 2.6V | 18:12:15 | 01:46:18 | 00:00:00 | |
| DF7PN | 2026-08-30 12:04:43 | 48.92892 | 10.02901 | 316° | 5km/h | 24874m | 5.6m/s | -51.7°C | 0.9% | 27.4hPa | 2.7V | 00:00:00 | 00:00:00 | 00:00:00 | |
| DB0UT-7 | 2026-08-30 12:04:42 | 48.92892 | 10.02901 | 317° | 7km/h | 24874m | 5.5m/s | -51.6°C | 3.7% | 27.3hPa | 2.7V | 00:00:00 | 00:00:00 | 08:30:00 | |
| DM0DOS-11 | 2026-08-30 12:04:41 | 48.92889 | 10.02907 | 300° | 7km/h | 24857m | 4.7m/s | -51.6°C | 3.7% | 27.4hPa | 2.6V | 08:30:00 | 01:46:18 | 00:00:00 | |
| DK7TD | 2026-08-30 12:04:40 | 48.92890 | 10.02905 | 298° | 7km/h | 24862m | 6.1m/s | -51.7°C | 0.4% | 27.4hPa | 2.7V | 18:12:15 | 01:46:19 | 00:00:00 | |
| DL1XH-west | 2026-08-30 12:04:39 | 48.92888 | 10.02909 | 315° | 5km/h | 24851m | 6m/s | -51.6°C | 0.4% | 27.4hPa | 2.6V | 18:12:15 | 01:46:17 | 00:00:00 | |
| DL1XH1-15 | 2026-08-30 12:04:38 | 48.92887 | 10.02910 | 351° | 5km/h | 24845m | 6.3m/s | -51.6°C | 3.8% | 27.4hPa | 2.6V | 08:30:00 | 01:46:16 | 00:00:00 | |
| HSKMA3-T | 2026-08-30 12:04:38 | 48.92887 | 10.02910 | 352° | 5km/h | 24845m | 6.3m/s | -51.7°C | 0.4% | 27.4hPa | 2.6V | 18:12:15 | 01:46:16 | 00:00:00 | |
| DL1NUX | 2026-08-30 12:04:37 | 48.92879 | 10.02915 | 328° | 13km/h | 24822m | 4.8m/s | -51.5°C | 3.6% | 27.6hPa | 2.7V | 08:30:00 | 01:46:12 | 00:00:00 | |
| DL6DJ-15 | 2026-08-30 12:04:34 | 48.92879 | 10.02915 | 328° | 11km/h | 24823m | 4.8m/s | -51.5°C | 0.9% | 27.6hPa | 2.7V | 00:00:00 | 00:00:00 | 00:00:00 | |
| DJ2DS-15 | 2026-08-30 12:04:33 | 48.92879 | 10.02915 | 329° | 7km/h | 24823m | 4.7m/s | -51.5°C | 3.6% | 27.5hPa | 2.7V | 00:00:00 | 01:46:12 | 00:00:00 | |
| DL1XH1-15 | 2026-08-30 12:04:32 | 48.92870 | 10.02930 | 286° | 7km/h | 24788m | 5.7m/s | -51.5°C | 3.6% | 27.7hPa | 2.6V | 08:30:00 | 01:46:06 | 00:00:00 | |
| DK7TD | 2026-08-30 12:04:29 | 48.92872 | 10.02924 | 295° | 9km/h | 24799m | 6.5m/s | -51.5°C | 0.3% | 27.7hPa | 2.7V | 18:12:15 | 01:46:08 | 00:00:00 | |
| DM0DOS-11 | 2026-08-30 12:04:29 | 48.92870 | 10.02932 | 303° | 2km/h | 24782m | 6.2m/s | -51.4°C | 3.6% | 27.7hPa | 2.6V | 08:30:00 | 01:46:05 | 00:00:00 | |
| DJ8HS-15 | 2026-08-30 12:04:28 | 48.92871 | 10.02927 | 288° | 7km/h | 24794m | 4.9m/s | -51.4°C | 3.6% | 27.6hPa | 2.7V | 00:00:00 | 01:46:07 | 00:00:00 | |
| DL1NUX | 2026-08-30 12:04:27 | 48.92865 | 10.02935 | 323° | 9km/h | 24760m | 4.8m/s | -51.3°C | 3.6% | 27.8hPa | 2.7V | 08:30:00 | 01:46:01 | 00:00:00 | |
| DL1XH-west | 2026-08-30 12:04:27 | 48.92870 | 10.02930 | 287° | 7km/h | 24788m | 5.7m/s | -51.5°C | 0.3% | 27.7hPa | 2.6V | 18:12:15 | 01:46:06 | 00:00:00 | |
| DN1GJH-1 | 2026-08-30 12:04:26 | 48.92870 | 10.02930 | 288° | 7km/h | 24789m | 5.7m/s | -51.5°C | 0.9% | 27.7hPa | 2.7V | 00:00:00 | 00:00:00 | 00:00:00 | |
| NBG1-10 | 2026-08-30 12:04:23 | 48.92867 | 10.02933 | 331° | 9km/h | 24766m | 6.1m/s | -51.3°C | 3.6% | 27.8hPa | 2.7V | 00:00:00 | 01:46:02 | 00:00:00 | |
| DM0DOS-11 | 2026-08-30 12:04:21 | 48.92853 | 10.02941 | 321° | 9km/h | 24728m | 5.8m/s | -51.5°C | 3.6% | 28hPa | 2.7V | 08:30:00 | 01:45:55 | 00:00:00 | |
| DK7TD | 2026-08-30 12:04:19 | 48.92859 | 10.02939 | 355° | 9km/h | 24745m | 5.7m/s | -51.3°C | 0.3% | 27.9hPa | 2.6V | 18:12:15 | 01:45:58 | 00:00:00 | |
| DL1XH1-15 | 2026-08-30 12:04:18 | 48.92854 | 10.02940 | 344° | 7km/h | 24734m | 5.9m/s | -51.5°C | 3.6% | 27.9hPa | 2.7V | 08:30:00 | 01:45:56 | 00:00:00 | |
| HSKMA3-T | 2026-08-30 12:04:16 | 48.92853 | 10.02941 | 322° | 9km/h | 24728m | 5.8m/s | -51.5°C | 0.3% | 28hPa | 2.7V | 18:12:15 | 01:45:55 | 00:00:00 | |
| DJ2DS-15 | 2026-08-30 12:04:13 | 48.92847 | 10.02948 | 336° | 9km/h | 24712m | 6.5m/s | -51.5°C | 3.6% | 28.0hPa | 2.6V | 00:00:00 | 01:45:52 | 00:00:00 | |
| DL1XH1-15 | 2026-08-30 12:04:12 | 48.92838 | 10.02956 | 338° | 5km/h | 24678m | 6.3m/s | -51.4°C | 3.6% | 28.2hPa | 2.6V | 08:30:00 | 01:45:46 | 00:00:00 | |
| DF7PN | 2026-08-30 12:04:12 | 48.92844 | 10.02950 | 341° | 7km/h | 24700m | 5.6m/s | -51.4°C | 0.9% | 28.1hPa | 2.7V | 00:00:00 | 00:00:00 | 00:00:00 | |
| DO3MHA-12 | 2026-08-30 12:04:10 | 48.92842 | 10.02951 | 321° | 7km/h | 24695m | 5.9m/s | -51.3°C | 3.5% | 28.1hPa | 2.7V | 00:00:00 | 01:45:49 | 00:00:00 | |
| DM0DOS-11 | 2026-08-30 12:04:09 | 48.92837 | 10.02956 | 339° | 5km/h | 24672m | 4.8m/s | -51.3°C | 3.6% | 28.2hPa | 2.7V | 08:30:00 | 01:45:45 | 00:00:00 | |
| DK7TD | 2026-08-30 12:04:08 | 48.92839 | 10.02955 | 319° | 5km/h | 24684m | 5.4m/s | -51.5°C | 0.3% | 28.2hPa | 2.6V | 18:12:15 | 01:45:47 | 00:00:00 | |
| DL1XH-west | 2026-08-30 12:04:06 | 48.92837 | 10.02957 | 340° | 5km/h | 24672m | 4.8m/s | -51.3°C | 0.2% | 28.2hPa | 2.7V | 18:12:15 | 01:45:45 | 00:00:00 | |
| HSKMA3-T | 2026-08-30 12:04:03 | 48.92836 | 10.02964 | 269° | 11km/h | 24656m | 5m/s | -51.5°C | 0.3% | 28.3hPa | 2.6V | 18:12:15 | 01:45:42 | 00:00:00 | |
| DL9SK-14 | 2026-08-30 12:04:03 | 48.92836 | 10.02968 | 269° | 11km/h | 24651m | 4.6m/s | -51.6°C | 0.9% | 28.3hPa | 2.6V | 00:00:00 | 00:00:00 | 00:00:00 | |
| SO1NDE-10 | 2026-08-30 12:04:02 | 48.92836 | 10.02968 | 270° | 15km/h | 24651m | 4.5m/s | -51.5°C | 3.7% | 28.3hPa | 2.6V | 00:00:00 | 01:45:41 | 00:00:00 | |
| DM0DOS-11 | 2026-08-30 12:04:01 | 48.92825 | 10.02996 | 306° | 15km/h | 24613m | 5.1m/s | -51.7°C | 3.7% | 28.5hPa | 2.6V | 08:30:00 | 01:45:34 | 00:00:00 | |
| DK7TD | 2026-08-30 12:03:58 | 48.92832 | 10.02982 | 313° | 11km/h | 24629m | 5.5m/s | -51.8°C | 0.4% | 28.4hPa | 2.7V | 18:12:15 | 01:45:37 | 00:00:00 | |
| DL1XH1-15 | 2026-08-30 12:03:58 | 48.92830 | 10.02986 | 308° | 15km/h | 24624m | 6.2m/s | -51.8°C | 3.7% | 28.4hPa | 2.7V | 08:30:00 | 01:45:36 | 00:00:00 | |
| DF8AY | 2026-08-30 12:03:57 | 48.92830 | 10.02986 | 309° | 15km/h | 24624m | 6.2m/s | -51.8°C | 0.3% | 28.4hPa | 2.7V | 18:12:15 | 01:45:36 | 00:00:00 | |
| DL1XH-west | 2026-08-30 12:03:56 | 48.92825 | 10.02996 | 306° | 15km/h | 24613m | 5.1m/s | -51.7°C | 0.4% | 28.5hPa | 2.6V | 18:12:15 | 01:45:34 | 00:00:00 | |
| DL1NUX | 2026-08-30 12:03:52 | 48.92823 | 10.03029 | 246° | 15km/h | 24575m | 5.6m/s | -51.5°C | 3.6% | 28.6hPa | 2.7V | 08:30:00 | 01:45:27 | 00:00:00 | |
| SONCRA | 2026-08-30 12:03:52 | 48.92820 | 10.03012 | 262° | 13km/h | 24591m | 6.3m/s | -51.7°C | 0.9% | 28.6hPa | 2.6V | 00:00:00 | 00:00:00 | 00:00:00 | |
| DM0DOS-11 | 2026-08-30 12:03:50 | 48.92829 | 10.03041 | 231° | 13km/h | 24559m | 4.5m/s | -51.7°C | 3.6% | 28.7hPa | 2.6V | 08:30:00 | 01:45:24 | 00:00:00 | |
| BIOWL1-15 | 2026-08-30 12:03:48 | 48.92824 | 10.03029 | 246° | 15km/h | 24575m | 5.6m/s | 0°C | 0% | 0hPa | 2.7V | 18:12:15 | 01:45:27 | 00:00:00 | |
| DK7TD | 2026-08-30 12:03:47 | 48.92825 | 10.03034 | 237° | 13km/h | 24569m | 6.2m/s | -51.6°C | 0.3% | 28.7hPa | 2.7V | 18:12:15 | 01:45:26 | 00:00:00 | |
| DL1ZP-14 | 2026-08-30 12:03:47 | 48.92825 | 10.03034 | 237° | 11km/h | 24569m | 6.2m/s | -51.6°C | 0.9% | 28.7hPa | 2.7V | 00:00:00 | 00:00:00 | 00:00:00 | |
| DL1XH-west | 2026-08-30 12:03:44 | 48.92831 | 10.03045 | 242° | 15km/h | 24553m | 6.6m/s | -51.8°C | 0.3% | 28.7hPa | 2.6V | 18:12:15 | 01:45:23 | 00:00:00 | |
| DB0UT-7 | 2026-08-30 12:03:42 | 48.92834 | 10.03058 | 251° | 13km/h | 24543m | 4.5m/s | -51.5°C | 3.6% | 28.8hPa | 2.7V | 00:00:00 | 00:00:00 | 00:00:00 | |
| DF7PN | 2026-08-30 12:03:41 | 48.92838 | 10.03071 | 248° | 15km/h | 24532m | 5.7m/s | -51.6°C | 0.9% | 28.9hPa | 2.7V | 00:00:00 | 00:00:00 | 00:00:00 | |
| DM0DOS-11 | 2026-08-30 12:03:40 | 48.92842 | 10.03097 | 254° | 13km/h | 24504m | 5m/s | -51.7°C | 3.7% | 28.9hPa | 2.7V | 08:30:00 | 01:45:14 | 00:00:00 | |
| DL1XH1-15 | 2026-08-30 12:03:38 | 48.92841 | 10.03086 | 260° | 15km/h | 24515m | 6.6m/s | -51.8°C | 3.7% | 28.9hPa | 2.6V | 08:30:00 | 01:45:16 | 00:00:00 | |
| DK7TD | 2026-08-30 12:03:37 | 48.92841 | 10.03086 | 260° | 15km/h | 24515m | 6.6m/s | -51.8°C | 0.4% | 28.9hPa | 2.6V | 18:12:15 | 01:45:16 | 00:00:00 | |
| DF8AY | 2026-08-30 12:03:36 | 48.92850 | 10.03108 | 215° | 15km/h | 24482m | 6.7m/s | -51.7°C | 0.3% | 29.1hPa | 2.6V | 18:12:15 | 01:45:10 | 00:00:00 | |
| DL1XH-west | 2026-08-30 12:03:33 | 48.92847 | 10.03106 | 207° | 13km/h | 24488m | 5m/s | -51.8°C | 0.4% | 29.1hPa | 2.6V | 18:12:15 | 01:45:11 | 00:00:00 | |
| DK7TD | 2026-08-30 12:03:26 | 48.92866 | 10.03128 | 201° | 11km/h | 24455m | 5.5m/s | -51.7°C | 0.3% | 29.2hPa | 2.6V | 18:12:15 | 01:45:05 | 00:00:00 | |
| HSKMA3-T | 2026-08-30 12:03:23 | 48.92870 | 10.03132 | 261° | 5km/h | 24438m | 6m/s | -51.6°C | 0.3% | 29.3hPa | 2.7V | 18:12:15 | 01:45:02 | 00:00:00 | |
| DL1XH-west | 2026-08-30 12:03:21 | 48.92870 | 10.03137 | 265° | 5km/h | 24427m | 6.3m/s | -51.8°C | 0.3% | 29.3hPa | 2.6V | 18:12:15 | 01:45:00 | 00:00:00 | |
| SONCRA | 2026-08-30 12:03:21 | 48.92871 | 10.03139 | 238° | 5km/h | 24421m | 5.8m/s | -51.8°C | 0.9% | 29.3hPa | 2.7V | 00:00:00 | 00:00:00 | 00:00:00 | |
| DM0DOS-11 | 2026-08-30 12:03:20 | 48.92881 | 10.03153 | 195° | 13km/h | 24394m | 6.2m/s | -52°C | 3.8% | 29.5hPa | 2.7V | 08:30:00 | 01:44:54 | 00:00:00 | |
| DO3MHA-12 | 2026-08-30 12:03:20 | 48.92871 | 10.03139 | 239° | 11km/h | 24421m | 5.7m/s | -51.8°C | 3.6% | 29.3hPa | 2.6V | 00:00:00 | 01:44:59 | 00:00:00 | |
| DL1XH1-15 | 2026-08-30 12:03:18 | 48.92875 | 10.03148 | 228° | 13km/h | 24404m | 5.3m/s | -51.9°C | 3.8% | 29.4hPa | 2.6V | 08:30:00 | 01:44:56 | 00:00:00 | |
| DK7TD | 2026-08-30 12:03:15 | 48.92881 | 10.03153 | 196° | 13km/h | 24394m | 6.3m/s | -52°C | 0.4% | 29.5hPa | 2.7V | 18:12:15 | 01:44:54 | 00:00:00 | |
| BIOWL1-15 | 2026-08-30 12:03:14 | 48.92884 | 10.03154 | 172° | 13km/h | 24388m | 6.2m/s | 0°C | 0% | 0hPa | 2.7V | 18:12:15 | 01:44:53 | 00:00:00 | |
| DF8AY | 2026-08-30 12:03:13 | 48.92890 | 10.03150 | 145° | 9km/h | 24377m | 6.2m/s | -52.2°C | 0.4% | 0hPa | 2.6V | 18:12:15 | 01:44:51 | 00:00:00 | |
| HSKMA3-T | 2026-08-30 12:03:13 | 48.92887 | 10.03152 | 154° | 13km/h | 24382m | 4.5m/s | -52.1°C | 0.4% | 29.5hPa | 2.6V | 18:12:15 | 01:44:52 | 00:00:00 | |
| DL1XH-west | 2026-08-30 12:03:10 | 48.92891 | 10.03146 | 62° | 5km/h | 24365m | 5.4m/s | -52.1°C | 0.4% | 29.6hPa | 2.7V | 18:12:15 | 01:44:49 | 00:00:00 | |
| DM0DOS-11 | 2026-08-30 12:03:10 | 48.92880 | 10.03142 | 321° | 9km/h | 24336m | 4.8m/s | -52°C | 3.8% | 29.7hPa | 2.7V | 08:30:00 | 01:44:44 | 00:00:00 | |
| DK7TD | 2026-08-30 12:03:05 | 48.92880 | 10.03142 | 322° | 9km/h | 24336m | 4.8m/s | -52°C | 0.4% | 29.7hPa | 2.7V | 18:12:15 | 01:44:44 | 00:00:00 | |
| DF8AY | 2026-08-30 12:03:03 | 48.92879 | 10.03150 | 5° | 7km/h | 24287m | 6.8m/s | 0°C | 0% | 0hPa | 2.7V | 18:12:15 | 01:44:35 | 00:00:00 | |
| HSKMA3-T | 2026-08-30 12:03:02 | 48.92880 | 10.03148 | 178° | 5km/h | 24315m | 4.3m/s | -52°C | 0.4% | 29.9hPa | 2.7V | 18:12:15 | 01:44:40 | 00:00:00 | |
| DM0DOS-11 | 2026-08-30 12:03:01 | 48.92877 | 10.03149 | 7° | 11km/h | 24281m | 5.4m/s | -52.2°C | 3.7% | 30hPa | 2.7V | 08:30:00 | 01:44:34 | 00:00:00 | |
| DL1XH-west | 2026-08-30 12:02:59 | 48.92882 | 10.03148 | 228° | 2km/h | 24304m | 5.9m/s | -52°C | 0.4% | 29.9hPa | 2.6V | 18:12:15 | 01:44:38 | 00:00:00 | |
| DK7TD | 2026-08-30 12:02:55 | 48.92877 | 10.03149 | 8° | 11km/h | 24281m | 5.4m/s | -52.2°C | 0.4% | 30hPa | 2.7V | 18:12:15 | 01:44:34 | 00:00:00 | |
| DF8AY | 2026-08-30 12:02:52 | 48.92866 | 10.03151 | 339° | 15km/h | 24264m | 4.7m/s | 0°C | 0% | 0hPa | 2.6V | 18:12:15 | 01:44:31 | 00:00:00 | |
| OE5WHR-10 | 2026-08-30 12:02:51 | 48.92863 | 10.03153 | 335° | 13km/h | 24259m | 5.3m/s | -51.9°C | 3.7% | 30.0hPa | 2.7V | 00:00:00 | 00:00:00 | 00:00:00 | |
| DM0DOS-11 | 2026-08-30 12:02:50 | 48.92864 | 10.03164 | 293° | 7km/h | 24225m | 5m/s | -52°C | 3.7% | 30.2hPa | 2.7V | 08:30:00 | 01:44:24 | 00:00:00 | |
| SONCRA | 2026-08-30 12:02:50 | 48.92861 | 10.03155 | 234° | 2km/h | 24247m | 5.4m/s | -51.9°C | 0.9% | 30.1hPa | 2.6V | 00:00:00 | 00:00:00 | 00:00:00 | |
| OE9MKV-15 | 2026-08-30 12:02:49 | 48.92861 | 10.03155 | 235° | 11km/h | 24247m | 5.4m/s | -51.9°C | 3.7% | 30.1hPa | 2.6V | 00:00:00 | 01:44:28 | 00:00:00 | |
| DL1XH1-15 | 2026-08-30 12:02:48 | 48.92864 | 10.03161 | 261° | 7km/h | 24230m | 5.1m/s | -51.9°C | 3.7% | 30.2hPa | 2.6V | 08:30:00 | 01:44:25 | 00:00:00 | |
| DL1XH-west | 2026-08-30 12:02:48 | 48.92862 | 10.03157 | 218° | 5km/h | 24242m | 5.5m/s | -51.9°C | 0.4% | 30.2hPa | 2.6V | 18:12:15 | 01:44:27 | 00:00:00 | |
| HSKMA3-T | 2026-08-30 12:02:47 | 48.92863 | 10.03159 | 236° | 7km/h | 24236m | 6m/s | -52°C | 0.4% | 30.2hPa | 2.6V | 18:12:15 | 01:44:26 | 00:00:00 | |
| DB0ND-19 | 2026-08-30 12:02:46 | 48.92864 | 10.03161 | 261° | 5km/h | 24230m | 5.1m/s | -51.9°C | 0.9% | 30.2hPa | 2.7V | 00:00:00 | 00:00:00 | 00:00:00 | |
| DL1NUX | 2026-08-30 12:02:45 | 48.92851 | 10.03171 | 329° | 15km/h | 24197m | 4.5m/s | -52.2°C | 3.8% | 30.4hPa | 2.7V | 08:30:00 | 01:44:19 | 00:00:00 | |
| DK7TD | 2026-08-30 12:02:44 | 48.92863 | 10.03166 | 330° | 7km/h | 24219m | 6.6m/s | -52.1°C | 0.3% | 30.3hPa | 2.7V | 18:12:15 | 01:44:23 | 00:00:00 | |
| NBG1-10 | 2026-08-30 12:02:44 | 48.92863 | 10.03166 | 330° | 11km/h | 24220m | 6.6m/s | -52.1°C | 3.7% | 30.2hPa | 2.7V | 00:00:00 | 01:44:23 | 00:00:00 | |
| DN1GJH-1 | 2026-08-30 12:02:43 | 48.92863 | 10.03166 | 331° | 7km/h | 24220m | 6.6m/s | -52.1°C | 1.0% | 30.3hPa | 2.7V | 00:00:00 | 00:00:00 | 00:00:00 | |
| DB0UT-7 | 2026-08-30 12:02:42 | 48.92858 | 10.03167 | 348° | 13km/h | 24209m | 5.1m/s | -52.2°C | 3.8% | 30.3hPa | 2.7V | 00:00:00 | 00:00:00 | 00:00:00 | |
| DL1XH1-15 | 2026-08-30 12:02:41 | 48.92844 | 10.03180 | 288° | 7km/h | 24176m | 5.7m/s | -52.1°C | 3.8% | 30.5hPa | 2.7V | 08:30:00 | 01:44:15 | 00:00:00 | |
| DF8AY | 2026-08-30 12:02:41 | 48.92854 | 10.03169 | 338° | 15km/h | 24203m | 6.2m/s | 0°C | 0% | 0hPa | 2.7V | 18:12:15 | 01:44:20 | 00:00:00 | |
| DM0DOS-11 | 2026-08-30 12:02:40 | 48.92844 | 10.03183 | 280° | 9km/h | 24170m | 6.5m/s | -52.1°C | 3.8% | 30.5hPa | 2.7V | 08:30:00 | 01:44:14 | 00:00:00 | |
| DL1XH-west | 2026-08-30 12:02:37 | 48.92845 | 10.03178 | 307° | 5km/h | 24181m | 4.8m/s | -52°C | 0.5% | 30.4hPa | 2.6V | 18:12:15 | 01:44:16 | 00:00:00 | |
| DK7TD | 2026-08-30 12:02:34 | 48.92843 | 10.03187 | 278° | 9km/h | 24164m | 5.7m/s | -52.1°C | 0.4% | 30.6hPa | 2.6V | 18:12:15 | 01:44:13 | 00:00:00 | |
| BIOWL1-15 | 2026-08-30 12:02:33 | 48.92843 | 10.03190 | 276° | 9km/h | 24158m | 6.4m/s | 0°C | 0% | 0hPa | 2.6V | 18:12:15 | 01:44:12 | 00:00:00 | |
| DF3TZ-5 | 2026-08-30 12:02:32 | 48.92843 | 10.03194 | 282° | 7km/h | 24152m | 4.7m/s | -52.1°C | 0.9% | 30.6hPa | 2.6V | 00:00:00 | 00:00:00 | 00:00:00 | |
| DM0DOS-11 | 2026-08-30 12:02:30 | 48.92825 | 10.03227 | 313° | 11km/h | 24115m | 5.7m/s | -52°C | 3.7% | 30.8hPa | 2.6V | 08:30:00 | 01:44:04 | 00:00:00 | |
| DL6DJ-15 | 2026-08-30 12:02:30 | 48.92838 | 10.03207 | 307° | 18km/h | 24137m | 5.9m/s | -52.1°C | 0.9% | 30.7hPa | 2.7V | 00:00:00 | 00:00:00 | 00:00:00 | |
| DL1XH1-15 | 2026-08-30 12:02:29 | 48.92828 | 10.03224 | 315° | 16km/h | 24121m | 6m/s | -52°C | 3.7% | 30.8hPa | 2.7V | 08:30:00 | 01:44:05 | 00:00:00 | |
| DL1XH-west | 2026-08-30 12:02:26 | 48.92828 | 10.03224 | 315° | 16km/h | 24121m | 6m/s | -52°C | 0.3% | 30.8hPa | 2.7V | 18:12:15 | 01:44:05 | 00:00:00 | |
| DK7TD | 2026-08-30 12:02:23 | 48.92823 | 10.03233 | 286° | 7km/h | 24104m | 6.3m/s | -52.2°C | 0.4% | 30.8hPa | 2.6V | 18:12:15 | 01:44:02 | 00:00:00 | |
| OE5DRO-10 | 2026-08-30 12:02:23 | 48.92823 | 10.03232 | 286° | 11km/h | 24104m | 6.3m/s | -52.1°C | 3.8% | 30.8hPa | 2.7V | 00:00:00 | 00:00:00 | 00:00:00 | |
| DN1GJH-1 | 2026-08-30 12:02:22 | 48.92823 | 10.03233 | 287° | 7km/h | 24104m | 6.3m/s | -52.2°C | 1.0% | 30.8hPa | 2.7V | 00:00:00 | 00:00:00 | 00:00:00 | |
| DO3MHA-12 | 2026-08-30 12:02:20 | 48.92823 | 10.03243 | 258° | 13km/h | 24086m | 6.6m/s | -51.9°C | 3.8% | 30.9hPa | 2.7V | 00:00:00 | 01:43:59 | 00:00:00 | |
| DM0DOS-11 | 2026-08-30 12:02:19 | 48.92819 | 10.03266 | 303° | 16km/h | 24058m | 5.2m/s | -52.2°C | 3.7% | 31.1hPa | 2.7V | 08:30:00 | 01:43:54 | 00:00:00 | |
| DL1NUX | 2026-08-30 12:02:16 | 48.92821 | 10.03261 | 294° | 16km/h | 24063m | 5m/s | -52.2°C | 3.7% | 31hPa | 2.6V | 08:30:00 | 01:43:55 | 00:00:00 | |
| DL1XH-west | 2026-08-30 12:02:15 | 48.92819 | 10.03266 | 303° | 16km/h | 24058m | 5.2m/s | -52.2°C | 0.3% | 31.1hPa | 2.7V | 18:12:15 | 01:43:54 | 00:00:00 | |
| DK7TD | 2026-08-30 12:02:13 | 48.92814 | 10.03274 | 320° | 11km/h | 24047m | 4.6m/s | -52.1°C | 0.3% | 31.1hPa | 2.7V | 18:12:15 | 01:43:52 | 00:00:00 | |
| DB0UT-7 | 2026-08-30 12:02:12 | 48.92812 | 10.03277 | 316° | 7km/h | 24043m | 5.1m/s | -52.1°C | 3.6% | 31.1hPa | 2.6V | 00:00:00 | 01:43:51 | 00:00:00 | |
| NBG1-10 | 2026-08-30 12:02:11 | 48.92811 | 10.03280 | 302° | 7km/h | 24037m | 6.0m/s | -52.1°C | 3.7% | 31.1hPa | 2.6V | 00:00:00 | 01:43:50 | 00:00:00 | |
| DM0DOS-11 | 2026-08-30 12:02:10 | 48.92809 | 10.03299 | 258° | 7km/h | 24003m | 6.7m/s | -52.1°C | 3.7% | 31.3hPa | 2.6V | 08:30:00 | 01:43:44 | 00:00:00 | |
| DO3MHA-12 | 2026-08-30 12:02:10 | 48.92810 | 10.03283 | 288° | 7km/h | 24031m | 5.2m/s | -52.1°C | 3.7% | 31.1hPa | 2.6V | 00:00:00 | 01:43:49 | 00:00:00 | |
| OE5DXL-15 | 2026-08-30 12:02:09 | 48.92809 | 10.03287 | 280° | 7km/h | 24026m | 5.0m/s | -52.0°C | 3.7% | 31.2hPa | 2.7V | 00:00:00 | 00:00:00 | 00:00:00 | |
| DJ8HS-15 | 2026-08-30 12:02:08 | 48.92809 | 10.03291 | 277° | 5km/h | 24021m | 6.4m/s | -52.0°C | 3.7% | 31.2hPa | 2.6V | 00:00:00 | 01:43:47 | 00:00:00 | |
| DF7PN | 2026-08-30 12:02:07 | 48.92809 | 10.03293 | 274° | 5km/h | 24014m | 5.8m/s | -52.0°C | 1.0% | 31.3hPa | 2.6V | 00:00:00 | 00:00:00 | 00:00:00 | |
| DL1NUX | 2026-08-30 12:02:05 | 48.92812 | 10.03308 | 87° | 4km/h | 23975m | 4.6m/s | -52.3°C | 3.7% | 31.4hPa | 2.6V | 08:30:00 | 01:43:39 | 00:00:00 | |
| DL1XH-west | 2026-08-30 12:02:04 | 48.92810 | 10.03302 | 253° | 9km/h | 23997m | 5m/s | -52°C | 0.4% | 31.4hPa | 2.7V | 18:12:15 | 01:43:43 | 00:00:00 | |
| DK7TD | 2026-08-30 12:02:03 | 48.92811 | 10.03305 | 249° | 9km/h | 23992m | 4.7m/s | -52.1°C | 0.4% | 31.4hPa | 2.7V | 18:12:15 | 01:43:42 | 00:00:00 | |
| HSKMA3-T | 2026-08-30 12:02:02 | 48.92811 | 10.03308 | 240° | 5km/h | 23987m | 6m/s | -52.1°C | 0.3% | 31.4hPa | 2.7V | 18:12:15 | 01:43:41 | 00:00:00 | |
| DL1XH-west | 2026-08-30 12:01:53 | 48.92810 | 10.03302 | 158° | 0km/h | 23937m | 5.1m/s | -52.4°C | 0.4% | 31.6hPa | 2.6V | 18:12:15 | 01:43:32 | 00:00:00 | |
| DK7TD | 2026-08-30 12:01:52 | 48.92811 | 10.03302 | 215° | 4km/h | 23931m | 6.5m/s | -52.5°C | 0.4% | 31.7hPa | 2.6V | 18:12:15 | 01:43:31 | 00:00:00 | |
| HSKMA3-T | 2026-08-30 12:01:51 | 48.92812 | 10.03303 | 214° | 7km/h | 23926m | 4.8m/s | -52.5°C | 0.4% | 31.7hPa | 2.7V | 18:12:15 | 01:43:30 | 00:00:00 | |
| SO1NDE-10 | 2026-08-30 12:01:51 | 48.92812 | 10.03303 | 214° | 13km/h | 23926m | 4.7m/s | -52.4°C | 3.8% | 31.6hPa | 2.7V | 00:00:00 | 01:43:30 | 00:00:00 | |
| DL1NUX | 2026-08-30 12:01:50 | 48.92823 | 10.03298 | 121° | 11km/h | 23898m | 6.1m/s | -52.5°C | 3.8% | 31.8hPa | 2.7V | 08:30:00 | 01:43:25 | 00:00:00 | |
| SONCRA | 2026-08-30 12:01:47 | 48.92821 | 10.03301 | 130° | 11km/h | 23905m | 5.6m/s | -52.5°C | 1.0% | 31.8hPa | 2.6V | 00:00:00 | 00:00:00 | 00:00:00 | |
| DL1XH-west | 2026-08-30 12:01:42 | 48.92823 | 10.03282 | 66° | 13km/h | 23876m | 5.8m/s | -52.4°C | 0.4% | 31.9hPa | 2.6V | 18:12:15 | 01:43:21 | 00:00:00 | |
| DK7TD | 2026-08-30 12:01:41 | 48.92821 | 10.03278 | 52° | 13km/h | 23871m | 4.5m/s | -52.4°C | 0.4% | 32hPa | 2.6V | 18:12:15 | 01:43:20 | 00:00:00 | |
| HSKMA3-T | 2026-08-30 12:01:41 | 48.92819 | 10.03275 | 37° | 11km/h | 23866m | 6.6m/s | -52.4°C | 0.4% | 32hPa | 2.6V | 18:12:15 | 01:43:19 | 00:00:00 | |
| DL1XH-west | 2026-08-30 12:01:32 | 48.92805 | 10.03259 | 79° | 13km/h | 23821m | 6.5m/s | -52.5°C | 0.4% | 32.2hPa | 2.7V | 18:12:15 | 01:43:11 | 00:00:00 | |
| DL1NUX | 2026-08-30 12:01:30 | 48.92792 | 10.03229 | 7° | 16km/h | 23783m | 5.9m/s | -52.4°C | 3.8% | 32.4hPa | 2.6V | 08:30:00 | 01:43:04 | 00:00:00 | |
| DK7TD | 2026-08-30 12:01:30 | 48.92804 | 10.03246 | 79° | 18km/h | 23810m | 4.2m/s | -52.7°C | 0.4% | 32.3hPa | 2.6V | 18:12:15 | 01:43:09 | 00:00:00 | |
| HSKMA3-T | 2026-08-30 12:01:29 | 48.92803 | 10.03240 | 73° | 16km/h | 23805m | 5.4m/s | -52.5°C | 0.4% | 32.3hPa | 2.6V | 18:12:15 | 01:43:08 | 00:00:00 | |
| DL1XH-west | 2026-08-30 12:01:21 | 48.92778 | 10.03231 | 329° | 9km/h | 23762m | 5.2m/s | -52.4°C | 0.5% | 32.5hPa | 2.6V | 18:12:15 | 01:43:00 | 00:00:00 | |
| DL1NUX | 2026-08-30 12:01:20 | 48.92772 | 10.03219 | 53° | 11km/h | 23729m | 5.7m/s | -52.4°C | 3.7% | 32.7hPa | 2.7V | 08:30:00 | 01:42:54 | 00:00:00 | |
| DK7TD | 2026-08-30 12:01:20 | 48.92777 | 10.03232 | 331° | 5km/h | 23757m | 4.7m/s | -52.3°C | 0.4% | 32.6hPa | 2.6V | 18:12:15 | 01:42:59 | 00:00:00 | |
| HSKMA3-T | 2026-08-30 12:01:19 | 48.92776 | 10.03232 | 36° | 4km/h | 23751m | 6.1m/s | -52.3°C | 0.4% | 32.6hPa | 2.7V | 18:12:15 | 01:42:58 | 00:00:00 | |
| DL1XH1-15 | 2026-08-30 12:01:17 | 48.92774 | 10.03223 | 67° | 11km/h | 23735m | 5.8m/s | -52.4°C | 3.6% | 32.6hPa | 2.6V | 08:30:00 | 01:42:55 | 00:00:00 | |
| SONCRA | 2026-08-30 12:01:16 | 48.92774 | 10.03223 | 67° | 11km/h | 23735m | 5.8m/s | -52.4°C | 0.9% | 32.7hPa | 2.6V | 00:00:00 | 00:00:00 | 00:00:00 | |
| OE9MKV-15 | 2026-08-30 12:01:15 | 48.92772 | 10.03219 | 54° | 11km/h | 23729m | 5.6m/s | -52.4°C | 3.7% | 32.7hPa | 2.6V | 00:00:00 | 01:42:54 | 00:00:00 | |
| DB0ND-19 | 2026-08-30 12:01:13 | 48.92768 | 10.03213 | 35° | 13km/h | 23718m | 6.0m/s | -52.2°C | 0.9% | 32.8hPa | 2.6V | 00:00:00 | 00:00:00 | 00:00:00 | |
| DB0UT-7 | 2026-08-30 12:01:12 | 48.92765 | 10.03210 | 34° | 11km/h | 23712m | 5.6m/s | -52.2°C | 3.6% | 32.7hPa | 2.6V | 00:00:00 | 01:42:51 | 00:00:00 | |
| DL1XH1-15 | 2026-08-30 12:01:11 | 48.92748 | 10.03204 | 29° | 9km/h | 23681m | 6.2m/s | -52.5°C | 3.8% | 32.9hPa | 2.6V | 08:30:00 | 01:42:45 | 00:00:00 | |
| DL1XH-west | 2026-08-30 12:01:11 | 48.92762 | 10.03207 | 27° | 16km/h | 23707m | 4.5m/s | -52.2°C | 0.4% | 32.8hPa | 2.6V | 18:12:15 | 01:42:50 | 00:00:00 | |
| DK7TD | 2026-08-30 12:01:09 | 48.92755 | 10.03204 | 1° | 11km/h | 23696m | 5.9m/s | -52.3°C | 0.4% | 32.9hPa | 2.7V | 18:12:15 | 01:42:48 | 00:00:00 | |
| HSKMA3-T | 2026-08-30 12:01:08 | 48.92752 | 10.03205 | 352° | 9km/h | 23691m | 4.1m/s | -52.4°C | 0.4% | 32.9hPa | 2.6V | 18:12:15 | 01:42:47 | 00:00:00 | |
| DL1NUX | 2026-08-30 12:01:07 | 48.92743 | 10.03190 | 71° | 9km/h | 23658m | 4.6m/s | -52.7°C | 3.9% | 33hPa | 2.6V | 08:30:00 | 01:42:41 | 00:00:00 | |
| DK7TD | 2026-08-30 12:00:59 | 48.92738 | 10.03179 | 43° | 15km/h | 23643m | 5.4m/s | -52.8°C | 0.4% | 33.1hPa | 2.6V | 18:12:15 | 01:42:38 | 00:00:00 | |
| DL1XH1-15 | 2026-08-30 12:00:59 | 48.92730 | 10.03173 | 2° | 11km/h | 23627m | 5.3m/s | -52.9°C | 3.8% | 33.2hPa | 2.7V | 08:30:00 | 01:42:35 | 00:00:00 | |
| HSKMA3-T | 2026-08-30 12:00:58 | 48.92735 | 10.03176 | 33° | 15km/h | 23638m | 4.6m/s | -52.9°C | 0.4% | 33.1hPa | 2.7V | 18:12:15 | 01:42:37 | 00:00:00 | |
| DL6DJ-15 | 2026-08-30 12:00:56 | 48.92730 | 10.03173 | 2° | 9km/h | 23627m | 5.3m/s | -52.9°C | 1.0% | 33.2hPa | 2.6V | 00:00:00 | 00:00:00 | 00:00:00 | |
| DM0DOS-11 | 2026-08-30 12:00:54 | 48.92723 | 10.03172 | 14° | 9km/h | 23611m | 5.2m/s | -52.8°C | 3.7% | 33.3hPa | 2.6V | 08:30:00 | 01:42:32 | 00:00:00 | |
| DL8DAS-14 | 2026-08-30 12:00:54 | 48.92723 | 10.03172 | 14° | 9km/h | 23611m | 5.2m/s | -52.8°C | 1.0% | 33.3hPa | 2.7V | 00:00:00 | 00:00:00 | 00:00:00 | |
| DF1GD-15 | 2026-08-30 12:00:52 | 48.92723 | 10.03172 | 15° | 9km/h | 23611m | 5.2m/s | -52.8°C | 1.0% | 33.3hPa | 2.7V | 00:00:00 | 00:00:00 | 00:00:00 | |
| DL1XH1-15 | 2026-08-30 12:00:51 | 48.92705 | 10.03170 | 4° | 13km/h | 23574m | 4.1m/s | -53°C | 3.9% | 33.5hPa | 2.7V | 08:30:00 | 01:42:25 | 00:00:00 | |
| DL1XH-west | 2026-08-30 12:00:49 | 48.92714 | 10.03171 | 353° | 9km/h | 23590m | 4.6m/s | -53°C | 0.4% | 33.4hPa | 2.6V | 18:12:15 | 01:42:28 | 00:00:00 | |
| DM0DOS-11 | 2026-08-30 12:00:48 | 48.92694 | 10.03174 | 336° | 16km/h | 23558m | 4.2m/s | -53°C | 3.9% | 33.6hPa | 2.6V | 08:30:00 | 01:42:22 | 00:00:00 | |
| DK7TD | 2026-08-30 12:00:48 | 48.92711 | 10.03171 | 3° | 11km/h | 23584m | 6.3m/s | -53°C | 0.4% | 33.4hPa | 2.6V | 18:12:15 | 01:42:27 | 00:00:00 | |
| SONCRA | 2026-08-30 12:00:45 | 48.92702 | 10.03170 | 353° | 13km/h | 23569m | 6.2m/s | -53.1°C | 1.0% | 33.5hPa | 2.7V | 00:00:00 | 00:00:00 | 00:00:00 | |
| DL1XH-west | 2026-08-30 12:00:39 | 48.92677 | 10.03178 | 357° | 20km/h | 23538m | 3.8m/s | -53.4°C | 0.6% | 33.7hPa | 2.7V | 18:12:15 | 01:42:18 | 00:00:00 | |
| OE5DXL-15 | 2026-08-30 12:00:39 | 48.92677 | 10.03178 | 358° | 20km/h | 23539m | 3.8m/s | -53.4°C | 4.0% | 33.6hPa | 2.7V | 00:00:00 | 00:00:00 | 08:30:00 | |
| DL1XH1-15 | 2026-08-30 12:00:38 | 48.92662 | 10.03185 | 330° | 24km/h | 23523m | 4.8m/s | -53.5°C | 4% | 33.8hPa | 2.6V | 08:30:00 | 01:42:15 | 00:00:00 | |
| DK7TD | 2026-08-30 12:00:37 | 48.92667 | 10.03181 | 338° | 22km/h | 23528m | 5.9m/s | -53.5°C | 0.6% | 33.8hPa | 2.6V | 18:12:15 | 01:42:16 | 00:00:00 | |
| HSKMA3-T | 2026-08-30 12:00:36 | 48.92662 | 10.03185 | 331° | 24km/h | 23523m | 4.8m/s | -53.5°C | 0.5% | 33.8hPa | 2.6V | 18:12:15 | 01:42:15 | 00:00:00 | |
| DF7PN | 2026-08-30 12:00:34 | 48.92652 | 10.03194 | 333° | 20km/h | 23513m | 5.9m/s | -53.5°C | 1.0% | 33.8hPa | 2.7V | 00:00:00 | 00:00:00 | 00:00:00 | |
| NBG1-10 | 2026-08-30 12:00:32 | 48.92642 | 10.03200 | 337° | 20km/h | 23503m | 4.7m/s | -53.5°C | 3.9% | 33.8hPa | 2.7V | 00:00:00 | 01:42:11 | 00:00:00 | |
| DL1XH1-15 | 2026-08-30 12:00:31 | 48.92607 | 10.03219 | 347° | 22km/h | 23464m | 6.1m/s | -53.3°C | 4% | 34.1hPa | 2.7V | 08:30:00 | 01:42:04 | 00:00:00 | |
| DL1NUX | 2026-08-30 12:00:30 | 48.92628 | 10.03211 | 335° | 22km/h | 23486m | 4.8m/s | -53.4°C | 4% | 34hPa | 2.7V | 08:30:00 | 01:42:08 | 00:00:00 | |
| DL1XH-west | 2026-08-30 12:00:29 | 48.92628 | 10.03211 | 336° | 22km/h | 23486m | 4.8m/s | -53.4°C | 0.5% | 34hPa | 2.7V | 18:12:15 | 01:42:08 | 00:00:00 | |
| DK7TD | 2026-08-30 12:00:27 | 48.92617 | 10.03216 | 352° | 20km/h | 23474m | 5.4m/s | -53.3°C | 0.5% | 34hPa | 2.6V | 18:12:15 | 01:42:06 | 00:00:00 | |
| HSKMA3-T | 2026-08-30 12:00:26 | 48.92612 | 10.03217 | 352° | 20km/h | 23470m | 4.6m/s | -53.3°C | 0.5% | 34.1hPa | 2.6V | 18:12:15 | 01:42:05 | 00:00:00 | |
| DL9SK-14 | 2026-08-30 12:00:26 | 48.92607 | 10.03219 | 347° | 20km/h | 23464m | 6.1m/s | -53.3°C | 1.1% | 34.1hPa | 2.7V | 00:00:00 | 00:00:00 | 00:00:00 | |
| DL6DJ-15 | 2026-08-30 12:00:25 | 48.92601 | 10.03221 | 343° | 20km/h | 23459m | 4.9m/s | -53.3°C | 1.0% | 34.1hPa | 2.7V | 00:00:00 | 00:00:00 | 00:00:00 | |
| OE5WHR-10 | 2026-08-30 12:00:24 | 48.92601 | 10.03221 | 344° | 15km/h | 23459m | 4.9m/s | -53.2°C | 4.0% | 34.1hPa | 2.7V | 00:00:00 | 00:00:00 | 00:00:00 | |
| DL8DAS-14 | 2026-08-30 12:00:23 | 48.92591 | 10.03225 | 347° | 18km/h | 23448m | 5.8m/s | -53.3°C | 1.0% | 34.2hPa | 2.7V | 00:00:00 | 00:00:00 | 00:00:00 | |
| AZAK | 2026-08-30 12:00:22 | 48.92591 | 10.03225 | 349° | 20km/h | 23448m | 5.8m/s | -53.3°C | 1.0% | 34.2hPa | 2.7V | 00:00:00 | 00:00:00 | 00:00:00 | |
| DJ2DS-15 | 2026-08-30 12:00:21 | 48.92586 | 10.03226 | 345° | 18km/h | 23443m | 4.7m/s | 0°C | 0% | 0hPa | 2.7V | 00:00:00 | 01:42:00 | 00:00:00 | |
| DL1XH1-15 | 2026-08-30 12:00:20 | 48.92556 | 10.03250 | 335° | 18km/h | 23404m | 6.3m/s | -53.3°C | 4% | 34.4hPa | 2.7V | 08:30:00 | 01:41:53 | 00:00:00 | |
| DL1XH-west | 2026-08-30 12:00:18 | 48.92573 | 10.03237 | 325° | 20km/h | 23426m | 4.7m/s | -53.5°C | 0.6% | 34.3hPa | 2.6V | 18:12:15 | 01:41:57 | 00:00:00 | |
| DK7TD | 2026-08-30 12:00:17 | 48.92565 | 10.03245 | 338° | 18km/h | 23415m | 5.1m/s | -53.3°C | 0.5% | 34.3hPa | 2.6V | 18:12:15 | 01:41:55 | 00:00:00 | |
| HSKMA3-T | 2026-08-30 12:00:17 | 48.92561 | 10.03247 | 340° | 16km/h | 23410m | 5.1m/s | -53.3°C | 0.5% | 34.4hPa | 2.7V | 18:12:15 | 01:41:54 | 00:00:00 | |
| DM0DOS-11 | 2026-08-30 12:00:16 | 48.92552 | 10.03253 | 329° | 18km/h | 23398m | 5.4m/s | -53.3°C | 4% | 34.4hPa | 2.7V | 08:30:00 | 01:41:52 | 00:00:00 | |
| SONCRA | 2026-08-30 12:00:16 | 48.92556 | 10.03250 | 335° | 16km/h | 23404m | 6.4m/s | -53.3°C | 1.0% | 34.4hPa | 2.6V | 00:00:00 | 00:00:00 | 00:00:00 | |
| DB0UT-7 | 2026-08-30 12:00:12 | 48.92548 | 10.03256 | 330° | 16km/h | 23394m | 4.4m/s | -53.4°C | 4.0% | 34.4hPa | 2.6V | 00:00:00 | 01:41:51 | 08:30:00 | |
| DB0ND-19 | 2026-08-30 12:00:11 | 48.92544 | 10.03260 | 335° | 16km/h | 23389m | 5.6m/s | -53.5°C | 1.0% | 34.5hPa | 2.6V | 00:00:00 | 00:00:00 | 00:00:00 | |
| DO3MHA-12 | 2026-08-30 12:00:10 | 48.92540 | 10.03262 | 344° | 20km/h | 23383m | 5.5m/s | -53.4°C | 4.1% | 34.5hPa | 2.6V | 00:00:00 | 01:41:49 | 08:30:00 | |
| OE5DXL-15 | 2026-08-30 12:00:09 | 48.92536 | 10.03264 | 343° | 15km/h | 23378m | 4.1m/s | -53.3°C | 4.0% | 34.5hPa | 2.6V | 00:00:00 | 00:00:00 | 00:00:00 | |
| DM0DOS-11 | 2026-08-30 12:00:08 | 48.92510 | 10.03293 | 317° | 18km/h | 23346m | 5m/s | -53.1°C | 3.9% | 34.7hPa | 2.6V | 08:30:00 | 01:41:42 | 00:00:00 | |
| DL1XH1-15 | 2026-08-30 12:00:08 | 48.92514 | 10.03288 | 318° | 20km/h | 23352m | 5.9m/s | -53.1°C | 3.9% | 0hPa | 2.6V | 08:30:00 | 01:41:43 | 00:00:00 | |
| DL1XH-west | 2026-08-30 12:00:08 | 48.92531 | 10.03267 | 335° | 20km/h | 23373m | 5.2m/s | -53.4°C | 0.6% | 34.6hPa | 2.7V | 18:12:15 | 01:41:47 | 00:00:00 | |
| DK7TD | 2026-08-30 12:00:06 | 48.92522 | 10.03276 | 317° | 24km/h | 23362m | 4.9m/s | -53.4°C | 0.6% | 34.6hPa | 2.7V | 18:12:15 | 01:41:45 | 00:00:00 | |
| HSKMA3-T | 2026-08-30 12:00:04 | 48.92514 | 10.03288 | 318° | 20km/h | 23352m | 5.9m/s | -53.2°C | 0.5% | 34.7hPa | 2.6V | 18:12:15 | 01:41:43 | 00:00:00 | |
| DL1XH-west | 2026-08-30 11:59:57 | 48.92498 | 10.03318 | 325° | 11km/h | 23314m | 4.3m/s | -53°C | 0.5% | 34.9hPa | 2.7V | 18:12:15 | 01:41:36 | 00:00:00 | |
| DK7TD | 2026-08-30 11:59:55 | 48.92492 | 10.03325 | 320° | 16km/h | 23304m | 5.6m/s | -53.1°C | 0.5% | 35hPa | 2.7V | 18:12:15 | 01:41:34 | 00:00:00 | |
| DL1XH1-15 | 2026-08-30 11:59:55 | 48.92489 | 10.03329 | 321° | 18km/h | 23299m | 4.9m/s | -53.2°C | 4% | 0hPa | 2.6V | 08:30:00 | 01:41:33 | 00:00:00 | |
| DM0DOS-11 | 2026-08-30 11:59:54 | 48.92485 | 10.03333 | 327° | 20km/h | 23293m | 6m/s | -53.1°C | 4% | 35hPa | 2.6V | 08:30:00 | 01:41:32 | 00:00:00 | |
| HSKMA3-T | 2026-08-30 11:59:54 | 48.92489 | 10.03329 | 321° | 18km/h | 23299m | 4.9m/s | -53.2°C | 0.6% | 35hPa | 2.6V | 18:12:15 | 01:41:33 | 00:00:00 | |
| DL6DJ-15 | 2026-08-30 11:59:54 | 48.92485 | 10.03333 | 327° | 18km/h | 23293m | 6.0m/s | -53.1°C | 1.1% | 35.0hPa | 2.6V | 00:00:00 | 00:00:00 | 00:00:00 | |
| SO1NDE-10 | 2026-08-30 11:59:51 | 48.92472 | 10.03346 | 319° | 9km/h | 23279m | 5.6m/s | -52.9°C | 3.8% | 35.0hPa | 2.6V | 00:00:00 | 01:41:29 | 00:00:00 | |
| DO3MHA-12 | 2026-08-30 11:59:50 | 48.92472 | 10.03346 | 319° | 11km/h | 23279m | 5.6m/s | -52.9°C | 3.8% | 35.0hPa | 2.6V | 00:00:00 | 01:41:29 | 00:00:00 | |
| DL1XH1-15 | 2026-08-30 11:59:49 | 48.92459 | 10.03370 | 337° | 4km/h | 23248m | 5.9m/s | -53.2°C | 0% | 0hPa | 2.6V | 08:30:00 | 01:41:23 | 00:00:00 | |
| DF1GD-15 | 2026-08-30 11:59:49 | 48.92472 | 10.03346 | 319° | 20km/h | 23279m | 5.7m/s | -53.0°C | 1.0% | 35.1hPa | 2.7V | 00:00:00 | 00:00:00 | 00:00:00 | |
| DM0DOS-11 | 2026-08-30 11:59:48 | 48.92458 | 10.03370 | 338° | 4km/h | 23242m | 5.9m/s | -53.1°C | 3.9% | 35.3hPa | 2.7V | 08:30:00 | 01:41:22 | 00:00:00 | |
| DL1XH-west | 2026-08-30 11:59:47 | 48.92464 | 10.03363 | 303° | 15km/h | 23264m | 5.4m/s | -53.2°C | 0.5% | 35.2hPa | 2.6V | 18:12:15 | 01:41:26 | 00:00:00 | |
| DK7TD | 2026-08-30 11:59:45 | 48.92460 | 10.03369 | 333° | 7km/h | 23253m | 4.8m/s | -53.1°C | 0.5% | 35.2hPa | 2.6V | 18:12:15 | 01:41:24 | 00:00:00 | |
| HSKMA3-T | 2026-08-30 11:59:43 | 48.92458 | 10.03370 | 338° | 4km/h | 23242m | 5.9m/s | -53.1°C | 0.5% | 35.3hPa | 2.7V | 18:12:15 | 01:41:22 | 00:00:00 | |
| DB0UT-7 | 2026-08-30 11:59:42 | 48.92457 | 10.03370 | 5° | 9km/h | 23237m | 4.6m/s | -53.0°C | 3.9% | 35.3hPa | 2.6V | 00:00:00 | 00:00:00 | 00:00:00 | |
| DO3MHA-12 | 2026-08-30 11:59:40 | 48.92456 | 10.03369 | 18° | 7km/h | 23226m | 4.3m/s | -53.1°C | 4.0% | 35.3hPa | 2.6V | 00:00:00 | 01:41:19 | 00:00:00 | |
| DL1NUX | 2026-08-30 11:59:39 | 48.92447 | 10.03381 | 324° | 9km/h | 23195m | 3.9m/s | -53.1°C | 3.9% | 35.5hPa | 2.6V | 08:30:00 | 01:41:13 | 00:00:00 | |
| DL1XH-west | 2026-08-30 11:59:36 | 48.92450 | 10.03376 | 309° | 11km/h | 23205m | 5.5m/s | 0°C | 0% | 35.5hPa | 2.7V | 18:12:15 | 01:41:15 | 00:00:00 | |
| DM0DOS-11 | 2026-08-30 11:59:34 | 48.92445 | 10.03383 | 318° | 9km/h | 23190m | 5.4m/s | -53.2°C | 4% | 35.5hPa | 2.6V | 08:30:00 | 01:41:12 | 00:00:00 | |
| DK7TD | 2026-08-30 11:59:34 | 48.92446 | 10.03381 | 325° | 9km/h | 23195m | 3.9m/s | -53.1°C | 0.5% | 35.5hPa | 2.6V | 18:12:15 | 01:41:13 | 00:00:00 | |
| HSKMA3-T | 2026-08-30 11:59:32 | 48.92443 | 10.03385 | 309° | 7km/h | 23185m | 5.4m/s | -53°C | 0.5% | 35.6hPa | 2.7V | 18:12:15 | 01:41:11 | 00:00:00 | |
| OE5DRO-10 | 2026-08-30 11:59:32 | 48.92443 | 10.03385 | 309° | 9km/h | 23185m | 5.4m/s | -53.0°C | 3.9% | 35.5hPa | 2.7V | 00:00:00 | 00:00:00 | 00:00:00 | |
| DO3MHA-12 | 2026-08-30 11:59:30 | 48.92440 | 10.03388 | 337° | 9km/h | 23175m | 5.8m/s | -53.1°C | 4.0% | 35.6hPa | 2.7V | 00:00:00 | 01:41:09 | 00:00:00 | |
| DM7RM-13 | 2026-08-30 11:59:29 | 48.92440 | 10.03388 | 337° | 7km/h | 23175m | 5.8m/s | -53.1°C | 1.1% | 35.7hPa | 2.7V | 00:00:00 | 00:00:00 | 00:00:00 | |
| DL1XH1-15 | 2026-08-30 11:59:29 | 48.92430 | 10.03400 | 308° | 13km/h | 23144m | 6.3m/s | 0°C | 0% | 0hPa | 2.7V | 00:00:00 | 01:41:03 | 00:00:00 | |
| DM0DOS-11 | 2026-08-30 11:59:28 | 48.92428 | 10.03404 | 310° | 13km/h | 23139m | 4.6m/s | -52.9°C | 3.9% | 35.9hPa | 2.7V | 08:30:00 | 01:41:02 | 00:00:00 | |
| DL1XH-west | 2026-08-30 11:59:25 | 48.92432 | 10.03396 | 302° | 11km/h | 23150m | 4.8m/s | 0°C | 0% | 35.8hPa | 2.7V | 18:12:15 | 01:41:04 | 00:00:00 | |
| DK7TD | 2026-08-30 11:59:23 | 48.92428 | 10.03404 | 311° | 13km/h | 23139m | 4.6m/s | -52.9°C | 0.5% | 35.9hPa | 2.7V | 18:12:15 | 01:41:02 | 00:00:00 | |
| HSKMA3-T | 2026-08-30 11:59:21 | 48.92425 | 10.03412 | 294° | 11km/h | 23129m | 6.2m/s | -53°C | 0.5% | 35.9hPa | 2.6V | 18:12:15 | 01:41:00 | 00:00:00 | |
| DJTTGO | 2026-08-30 11:59:20 | 48.92423 | 10.03416 | 286° | 11km/h | 23123m | 4.7m/s | -52.9°C | 1.0% | 35.9hPa | 2.6V | 00:00:00 | 00:00:00 | 00:00:00 | |
| SO1NDE-10 | 2026-08-30 11:59:19 | 48.92423 | 10.03419 | 290° | 13km/h | 23119m | 4.1m/s | -52.8°C | 3.8% | 35.9hPa | 2.6V | 00:00:00 | 01:40:58 | 00:00:00 | |
| PG1ADW-2 | 2026-08-30 11:59:18 | 48.92422 | 10.03422 | 311° | 13km/h | 23114m | 5.9m/s | -52.9°C | 3.9% | 35.9hPa | 2.6V | 00:00:00 | 01:40:57 | 00:00:00 | |
| DM0DOS-11 | 2026-08-30 11:59:17 | 48.92411 | 10.03430 | 352° | 9km/h | 23087m | 5.5m/s | -52.8°C | 3.8% | 36.1hPa | 2.6V | 08:30:00 | 01:40:52 | 00:00:00 | |
| DL1NUX | 2026-08-30 11:59:17 | 48.92406 | 10.03430 | 354° | 11km/h | 23077m | 4m/s | -52.9°C | 3.9% | 36.2hPa | 2.7V | 08:30:00 | 01:40:50 | 00:00:00 | |
| DL1XH-west | 2026-08-30 11:59:15 | 48.92415 | 10.03428 | 340° | 9km/h | 23098m | 6.3m/s | 0°C | 0% | 0hPa | 2.6V | 18:12:15 | 01:40:54 | 00:00:00 | |
| DK7TD | 2026-08-30 11:59:12 | 48.92408 | 10.03430 | 358° | 11km/h | 23082m | 5.5m/s | -52.8°C | 0.5% | 36.2hPa | 2.7V | 18:12:15 | 01:40:51 | 00:00:00 | |
| HSKMA3-T | 2026-08-30 11:59:10 | 48.92403 | 10.03431 | 340° | 9km/h | 23072m | 5.8m/s | -52.8°C | 0.5% | 36.3hPa | 2.6V | 18:12:15 | 01:40:49 | 00:00:00 | |
| DO3MHA-12 | 2026-08-30 11:59:10 | 48.92403 | 10.03431 | 341° | 13km/h | 23072m | 5.7m/s | -52.8°C | 3.9% | 36.2hPa | 2.6V | 00:00:00 | 01:40:49 | 00:00:00 | |
| DL1XH1-15 | 2026-08-30 11:59:09 | 48.92387 | 10.03444 | 342° | 16km/h | 23043m | 4m/s | 0°C | 0% | 0hPa | 2.6V | 00:00:00 | 01:40:43 | 00:00:00 | |
| DL1XH-west | 2026-08-30 11:59:04 | 48.92387 | 10.03444 | 342° | 16km/h | 23043m | 4m/s | 0°C | 0% | 0hPa | 2.6V | 18:12:15 | 01:40:43 | 00:00:00 | |
| DK7TD | 2026-08-30 11:59:01 | 48.92376 | 10.03451 | 333° | 13km/h | 23028m | 4.8m/s | -52.9°C | 0.5% | 36.5hPa | 2.6V | 18:12:15 | 01:40:40 | 00:00:00 | |
| HSKMA3-T | 2026-08-30 11:58:59 | 48.92369 | 10.03454 | 347° | 15km/h | 23017m | 4.9m/s | -52.9°C | 0.5% | 36.6hPa | 2.7V | 18:12:15 | 01:40:38 | 00:00:00 | |
| DJ2DS-15 | 2026-08-30 11:58:57 | 48.92363 | 10.03457 | 342° | 16km/h | 23008m | 6.2m/s | 0°C | 0% | 0hPa | 2.7V | 00:00:00 | 01:40:36 | 00:00:00 | |
| DM0DOS-11 | 2026-08-30 11:58:55 | 48.92352 | 10.03467 | 330° | 20km/h | 22986m | 5.3m/s | -53°C | 3.8% | 36.7hPa | 2.7V | 08:30:00 | 01:40:32 | 00:00:00 | |
| DL1XH-west | 2026-08-30 11:58:52 | 48.92346 | 10.03472 | 329° | 26km/h | 22982m | 3.9m/s | 0°C | 0% | 0hPa | 2.7V | 18:12:15 | 01:40:31 | 00:00:00 | |
| DK7TD | 2026-08-30 11:58:50 | 48.92336 | 10.03483 | 321° | 24km/h | 22973m | 5.3m/s | -53.2°C | 0.4% | 36.8hPa | 2.6V | 18:12:15 | 01:40:29 | 00:00:00 | |
| HSKMA3-T | 2026-08-30 11:58:48 | 48.92328 | 10.03494 | 311° | 18km/h | 22963m | 5m/s | -53.3°C | 0.5% | 36.9hPa | 2.6V | 18:12:15 | 01:40:27 | 00:00:00 | |
| DJ8HS-15 | 2026-08-30 11:58:48 | 48.92328 | 10.03494 | 312° | 16km/h | 22963m | 5.0m/s | -53.2°C | 3.9% | 36.8hPa | 2.7V | 00:00:00 | 01:40:27 | 00:00:00 | |
| DL1NUX | 2026-08-30 11:58:47 | 48.92311 | 10.03508 | 337° | 11km/h | 22931m | 4.7m/s | -53.4°C | 3.9% | 37hPa | 2.7V | 08:30:00 | 01:40:21 | 00:00:00 | |
| DM0DOS-11 | 2026-08-30 11:58:44 | 48.92313 | 10.03506 | 337° | 11km/h | 22936m | 5.6m/s | -53.3°C | 3.9% | 37hPa | 2.6V | 08:30:00 | 01:40:22 | 00:00:00 | |
| DL1XH-west | 2026-08-30 11:58:41 | 48.92308 | 10.03510 | 341° | 15km/h | 22926m | 6.1m/s | 0°C | 0% | 0hPa | 2.7V | 18:12:15 | 01:40:20 | 00:00:00 | |
| DK7TD | 2026-08-30 11:58:40 | 48.92304 | 10.03512 | 342° | 16km/h | 22920m | 5.2m/s | -53.5°C | 0.5% | 37.1hPa | 2.7V | 18:12:15 | 01:40:19 | 00:00:00 | |
| HSKMA3-T | 2026-08-30 11:58:35 | 48.92283 | 10.03527 | 335° | 20km/h | 22893m | 4.9m/s | -53.6°C | 0.5% | 37.3hPa | 2.7V | 18:12:15 | 01:40:14 | 00:00:00 | |
| DL1XH-west | 2026-08-30 11:58:30 | 48.92268 | 10.03549 | 301° | 16km/h | 22867m | 5.7m/s | 0°C | 0% | 0hPa | 2.6V | 18:12:15 | 01:40:09 | 00:00:00 | |
| DK7TD | 2026-08-30 11:58:29 | 48.92266 | 10.03554 | 308° | 18km/h | 22861m | 5.4m/s | -53.7°C | 0.6% | 37.4hPa | 2.7V | 18:12:15 | 01:40:08 | 00:00:00 | |
| HSKMA3-T | 2026-08-30 11:58:24 | 48.92249 | 10.03584 | 313° | 24km/h | 22835m | 6.5m/s | -53.7°C | 0.5% | 37.6hPa | 2.7V | 18:12:15 | 01:40:03 | 00:00:00 | |
| DK7TD | 2026-08-30 11:58:19 | 48.92232 | 10.03616 | 298° | 16km/h | 22809m | 4.4m/s | -53.5°C | 0.6% | 37.8hPa | 2.7V | 18:12:15 | 01:39:58 | 00:00:00 | |
| DL1XH-west | 2026-08-30 11:58:18 | 48.92230 | 10.03622 | 305° | 16km/h | 22804m | 5.8m/s | 0°C | 0% | 0hPa | 2.6V | 18:12:15 | 01:39:57 | 00:00:00 | |
| HSKMA3-T | 2026-08-30 11:58:14 | 48.92218 | 10.03643 | 303° | 18km/h | 22784m | 5.4m/s | -53.4°C | 0.5% | 37.9hPa | 2.7V | 18:12:15 | 01:39:53 | 00:00:00 | |
| DK7TD | 2026-08-30 11:58:08 | 48.92198 | 10.03673 | 312° | 20km/h | 22751m | 5.5m/s | -53.3°C | 0.5% | 38.1hPa | 2.7V | 18:12:15 | 01:39:47 | 00:00:00 | |
| DL1XH-west | 2026-08-30 11:58:07 | 48.92191 | 10.03684 | 319° | 20km/h | 22741m | 6m/s | 0°C | 0% | 0hPa | 2.6V | 18:12:15 | 01:39:45 | 00:00:00 | |
| HSKMA3-T | 2026-08-30 11:58:03 | 48.92180 | 10.03697 | 317° | 16km/h | 22726m | 5.9m/s | -53.4°C | 0.4% | 38.3hPa | 2.7V | 18:12:15 | 01:39:42 | 00:00:00 | |
| DK7TD | 2026-08-30 11:57:58 | 48.92166 | 10.03717 | 311° | 15km/h | 22699m | 5.8m/s | -53.4°C | 0.5% | 38.4hPa | 2.6V | 18:12:15 | 01:39:37 | 00:00:00 | |
| DL1XH-west | 2026-08-30 11:57:53 | 48.92156 | 10.03742 | 309° | 18km/h | 22674m | 4.9m/s | 0°C | 0% | 0hPa | 2.6V | 18:12:15 | 01:39:32 | 00:00:00 | |
| HSKMA3-T | 2026-08-30 11:57:52 | 48.92153 | 10.03748 | 303° | 20km/h | 22668m | 5.4m/s | -53.3°C | 0.5% | 38.6hPa | 2.7V | 18:12:15 | 01:39:31 | 00:00:00 | |
| DK7TD | 2026-08-30 11:57:48 | 48.92144 | 10.03777 | 298° | 20km/h | 22647m | 5.8m/s | -53.4°C | 0.5% | 38.7hPa | 2.7V | 18:12:15 | 01:39:27 | 00:00:00 | |
| OE5WHR-10 | 2026-08-30 11:57:48 | 48.92144 | 10.03777 | 299° | 18km/h | 22647m | 5.8m/s | -53.4°C | 3.9% | 38.7hPa | 2.7V | 00:00:00 | 00:00:00 | 00:00:00 | |
| NBG1-10 | 2026-08-30 11:57:47 | 48.92142 | 10.03784 | 301° | 15km/h | 22642m | 4.7m/s | -53.5°C | 3.9% | 38.7hPa | 2.7V | 00:00:00 | 01:39:26 | 00:00:00 | |
| DM0DOS-11 | 2026-08-30 11:57:45 | 48.92135 | 10.03813 | 281° | 18km/h | 22621m | 4.5m/s | -53.6°C | 4% | 38.9hPa | 2.7V | 08:30:00 | 01:39:22 | 00:00:00 | |
| HSKMA3-T | 2026-08-30 11:57:41 | 48.92133 | 10.03826 | 291° | 16km/h | 22610m | 4.8m/s | -53.5°C | 0.6% | 38.9hPa | 2.6V | 18:12:15 | 01:39:20 | 00:00:00 | |
| DK7TD | 2026-08-30 11:57:38 | 48.92130 | 10.03845 | 279° | 18km/h | 22595m | 4.7m/s | -53.6°C | 0.6% | 39.1hPa | 2.7V | 18:12:15 | 01:39:17 | 00:00:00 | |
| HSKMA3-T | 2026-08-30 11:57:31 | 48.92126 | 10.03885 | 247° | 16km/h | 22559m | 5.1m/s | -53.3°C | 0.5% | 39.3hPa | 2.7V | 18:12:15 | 01:39:10 | 00:00:00 | |
| DO3MHA-12 | 2026-08-30 11:57:30 | 48.92128 | 10.03890 | 244° | 11km/h | 22554m | 4.9m/s | -53.3°C | 4.0% | 39.3hPa | 2.7V | 00:00:00 | 01:39:09 | 00:00:00 | |
| DM0DOS-11 | 2026-08-30 11:57:28 | 48.92131 | 10.03925 | 296° | 9km/h | 22516m | 6.4m/s | -53°C | 3.9% | 39.5hPa | 2.7V | 08:30:00 | 01:39:02 | 00:00:00 | |
| DK7TD | 2026-08-30 11:57:27 | 48.92132 | 10.03905 | 259° | 13km/h | 22538m | 5m/s | -53.1°C | 0.4% | 39.4hPa | 2.6V | 18:12:15 | 01:39:06 | 00:00:00 | |
| HSKMA3-T | 2026-08-30 11:57:18 | 48.92131 | 10.03937 | 242° | 13km/h | 22489m | 5m/s | -53°C | 0.5% | 39.7hPa | 2.7V | 18:12:15 | 01:38:57 | 00:00:00 | |
| DK7TD | 2026-08-30 11:57:17 | 48.92132 | 10.03941 | 242° | 13km/h | 22484m | 5.4m/s | -53.1°C | 0.4% | 39.7hPa | 2.7V | 18:12:15 | 01:38:56 | 00:00:00 | |
| SO1NDE-10 | 2026-08-30 11:57:17 | 48.92132 | 10.03940 | 242° | 13km/h | 22484m | 5.3m/s | -53.0°C | 3.8% | 39.7hPa | 2.7V | 00:00:00 | 01:38:56 | 08:30:00 | |
| PG1ADW-2 | 2026-08-30 11:57:16 | 48.92133 | 10.03944 | 248° | 7km/h | 22479m | 5.8m/s | 0°C | 0% | 0hPa | 2.7V | 00:00:00 | 00:00:00 | 00:00:00 | |
| DM0DOS-11 | 2026-08-30 11:57:14 | 48.92135 | 10.03954 | 260° | 9km/h | 22463m | 5.8m/s | -53.1°C | 3.9% | 39.9hPa | 2.7V | 08:30:00 | 01:38:52 | 00:00:00 | |
| NBG1-10 | 2026-08-30 11:57:14 | 48.92134 | 10.03951 | 259° | 5km/h | 22469m | 4.6m/s | -53.0°C | 3.9% | 39.8hPa | 2.7V | 00:00:00 | 01:38:53 | 00:00:00 | |
| DB0UT-7 | 2026-08-30 11:57:12 | 48.92135 | 10.03958 | 267° | 5km/h | 22458m | 5.5m/s | -53.1°C | 3.9% | 39.8hPa | 2.7V | 00:00:00 | 01:38:51 | 00:00:00 | |
| DO3MHA-12 | 2026-08-30 11:57:10 | 48.92134 | 10.03966 | 304° | 5km/h | 22447m | 6.4m/s | -53.3°C | 3.9% | 39.9hPa | 2.6V | 00:00:00 | 01:38:49 | 08:30:00 | |
| OE5DXL-15 | 2026-08-30 11:57:09 | 48.92133 | 10.03968 | 334° | 5km/h | 22441m | 5.6m/s | -53.3°C | 4.0% | 39.9hPa | 2.6V | 00:00:00 | 00:00:00 | 00:00:00 | |
| DM0DOS-11 | 2026-08-30 11:57:08 | 48.92125 | 10.03965 | 81° | 4km/h | 22408m | 4.8m/s | -53.3°C | 3.8% | 40.2hPa | 2.6V | 08:30:00 | 01:38:42 | 00:00:00 | |
| DK7TD | 2026-08-30 11:57:06 | 48.92127 | 10.03969 | 16° | 4km/h | 22425m | 5.1m/s | -53.2°C | 0.4% | 40.1hPa | 2.7V | 18:12:15 | 01:38:45 | 00:00:00 | |
| HSKMA3-T | 2026-08-30 11:57:00 | 48.92127 | 10.03966 | 244° | 5km/h | 22392m | 4.3m/s | -53.7°C | 0.5% | 40.3hPa | 2.6V | 18:12:15 | 01:38:39 | 00:00:00 | |
| DK7TD | 2026-08-30 11:56:56 | 48.92123 | 10.03972 | 347° | 7km/h | 22370m | 5.7m/s | -53.5°C | 0.6% | 40.5hPa | 2.6V | 18:12:15 | 01:38:35 | 00:00:00 | |
| PG1ADW-2 | 2026-08-30 11:56:56 | 48.92123 | 10.03972 | 348° | 5km/h | 22371m | 5.6m/s | 0°C | 0% | 0hPa | 2.7V | 00:00:00 | 00:00:00 | 00:00:00 | |
| DM0DOS-11 | 2026-08-30 11:56:53 | 48.92118 | 10.03973 | 10° | 5km/h | 22355m | 4.3m/s | -53.6°C | 3.9% | 40.5hPa | 2.7V | 08:30:00 | 01:38:32 | 00:00:00 | |
| DF3TZ-5 | 2026-08-30 11:56:51 | 48.92112 | 10.03969 | 24° | 7km/h | 22339m | 4.4m/s | -53.5°C | 1.0% | 40.6hPa | 2.6V | 00:00:00 | 00:00:00 | 00:00:00 | |
| DO3MHA-12 | 2026-08-30 11:56:50 | 48.92112 | 10.03969 | 25° | 4km/h | 22340m | 4.4m/s | -53.5°C | 3.9% | 40.6hPa | 2.6V | 00:00:00 | 01:38:29 | 00:00:00 | |
| DM0DOS-11 | 2026-08-30 11:56:48 | 48.92110 | 10.03968 | 318° | 2km/h | 22299m | 5.7m/s | -53.7°C | 4% | 40.9hPa | 2.6V | 08:30:00 | 01:38:22 | 00:00:00 | |
| HSKMA3-T | 2026-08-30 11:56:45 | 48.92110 | 10.03967 | 323° | 2km/h | 22311m | 5.3m/s | -53.7°C | 0.5% | 40.9hPa | 2.6V | 18:12:15 | 01:38:24 | 00:00:00 | |
| DF1GD-15 | 2026-08-30 11:56:44 | 48.92110 | 10.03967 | 0° | 0km/h | 22311m | 5.3m/s | -53.7°C | 1.1% | 40.8hPa | 2.7V | 00:00:00 | 00:00:00 | 00:00:00 | |
| DB0UT-7 | 2026-08-30 11:56:42 | 48.92109 | 10.03968 | 341° | 9km/h | 22294m | 4.6m/s | -53.6°C | 3.9% | 40.9hPa | 2.7V | 00:00:00 | 00:00:00 | 00:00:00 | |
| OE5DRO-10 | 2026-08-30 11:56:41 | 48.92107 | 10.03969 | 350° | 9km/h | 22289m | 6.4m/s | -53.6°C | 3.9% | 40.9hPa | 2.7V | 00:00:00 | 00:00:00 | 00:00:00 | |
| DO3MHA-12 | 2026-08-30 11:56:40 | 48.92104 | 10.03970 | 353° | 11km/h | 22283m | 4.8m/s | -53.6°C | 3.9% | 41.0hPa | 2.7V | 00:00:00 | 01:38:19 | 00:00:00 | |
| OE5DXL-15 | 2026-08-30 11:56:39 | 48.92101 | 10.03970 | 352° | 11km/h | 22278m | 5.5m/s | -53.7°C | 3.9% | 41.0hPa | 2.6V | 00:00:00 | 00:00:00 | 00:00:00 | |
| SONCRA | 2026-08-30 11:56:37 | 48.92096 | 10.03973 | 339° | 11km/h | 22267m | 4.9m/s | -53.8°C | 1.0% | 41.1hPa | 2.6V | 00:00:00 | 00:00:00 | 00:00:00 | |
| DL1NUX | 2026-08-30 11:56:36 | 48.92085 | 10.03989 | 278° | 5km/h | 22235m | 4.8m/s | -54.1°C | 4.1% | 41.3hPa | 2.6V | 08:30:00 | 01:38:10 | 00:00:00 | |
| DK7TD | 2026-08-30 11:56:35 | 48.92090 | 10.03977 | 327° | 15km/h | 22255m | 4.7m/s | -53.8°C | 0.4% | 41.1hPa | 2.6V | 18:12:15 | 01:38:14 | 00:00:00 | |
| DM0DOS-11 | 2026-08-30 11:56:34 | 48.92086 | 10.03983 | 301° | 11km/h | 22245m | 6.3m/s | -54.1°C | 4% | 41.2hPa | 2.7V | 08:30:00 | 01:38:12 | 00:00:00 | |
| HSKMA3-T | 2026-08-30 11:56:34 | 48.92087 | 10.03980 | 316° | 13km/h | 22251m | 4.3m/s | -53.9°C | 0.5% | 41.2hPa | 2.7V | 18:12:15 | 01:38:13 | 00:00:00 | |
| DB0ND-19 | 2026-08-30 11:56:34 | 48.92086 | 10.03983 | 301° | 9km/h | 22246m | 6.3m/s | -54.1°C | 1.1% | 41.2hPa | 2.7V | 00:00:00 | 00:00:00 | 00:00:00 | |
| DL1ZP-14 | 2026-08-30 11:56:32 | 48.92085 | 10.03986 | 279° | 5km/h | 22240m | 4.7m/s | -54.1°C | 1.1% | 41.3hPa | 2.7V | 00:00:00 | 00:00:00 | 00:00:00 | |
| DO3MHA-12 | 2026-08-30 11:56:30 | 48.92084 | 10.03990 | 320° | 9km/h | 22230m | 6.0m/s | -54.1°C | 4.1% | 41.3hPa | 2.7V | 00:00:00 | 01:38:09 | 00:00:00 | |
| DM0DOS-11 | 2026-08-30 11:56:29 | 48.92069 | 10.03984 | 30° | 13km/h | 22193m | 5.4m/s | -54.5°C | 4% | 41.6hPa | 2.7V | 08:30:00 | 01:38:02 | 00:00:00 | |
| HSKMA3-T | 2026-08-30 11:56:24 | 48.92072 | 10.03986 | 33° | 11km/h | 22198m | 4.4m/s | -54.4°C | 0.5% | 41.5hPa | 2.6V | 18:12:15 | 01:38:03 | 00:00:00 | |
| DF1GD-15 | 2026-08-30 11:56:23 | 48.92071 | 10.03986 | 34° | 11km/h | 22199m | 4.4m/s | -54.4°C | 1.1% | 41.5hPa | 2.7V | 00:00:00 | 00:00:00 | 00:00:00 | |
| OE5DRO-10 | 2026-08-30 11:56:22 | 48.92066 | 10.03982 | 20° | 13km/h | 22189m | 5.1m/s | -54.4°C | 4.0% | 41.6hPa | 2.7V | 00:00:00 | 00:00:00 | 00:00:00 | |
| DF3TZ-5 | 2026-08-30 11:56:20 | 48.92059 | 10.03982 | 323° | 5km/h | 22173m | 5.3m/s | -54.5°C | 1.1% | 41.7hPa | 2.6V | 00:00:00 | 00:00:00 | 00:00:00 | |
| DM0DOS-11 | 2026-08-30 11:56:18 | 48.92035 | 10.03988 | 2° | 20km/h | 22125m | 4.3m/s | -54.6°C | 4% | 42hPa | 2.6V | 08:30:00 | 01:37:49 | 00:00:00 | |
| HSKMA3-T | 2026-08-30 11:56:13 | 48.92049 | 10.03987 | 347° | 15km/h | 22142m | 4.5m/s | -54.6°C | 0.6% | 41.9hPa | 2.6V | 18:12:15 | 01:37:52 | 00:00:00 | |
| DF8AY | 2026-08-30 11:56:04 | 48.92014 | 10.04002 | 320° | 11km/h | 22093m | 4.9m/s | 0°C | 0% | 0hPa | 2.6V | 18:12:15 | 01:37:43 | 00:00:00 | |
| HSKMA3-T | 2026-08-30 11:56:03 | 48.92011 | 10.04005 | 322° | 13km/h | 22088m | 4.7m/s | -54.7°C | 0.7% | 42.3hPa | 2.7V | 18:12:15 | 01:37:42 | 00:00:00 | |
| DM0DOS-11 | 2026-08-30 11:56:02 | 48.92006 | 10.04011 | 324° | 18km/h | 22077m | 5.1m/s | -54.5°C | 4.2% | 42.3hPa | 2.6V | 08:30:00 | 01:37:40 | 00:00:00 | |
| DK7TD | 2026-08-30 11:56:02 | 48.92009 | 10.04008 | 322° | 15km/h | 22083m | 6.1m/s | -54.6°C | 0.6% | 42.3hPa | 2.7V | 18:12:15 | 01:37:41 | 00:00:00 | |
| DL1ZP-14 | 2026-08-30 11:56:01 | 48.92006 | 10.04011 | 324° | 16km/h | 22077m | 5.1m/s | -54.6°C | 1.1% | 42.3hPa | 2.6V | 00:00:00 | 00:00:00 | 00:00:00 | |
| DF7PN | 2026-08-30 11:55:55 | 48.91972 | 10.04034 | 312° | 18km/h | 22042m | 4.0m/s | -54.9°C | 1.1% | 42.6hPa | 2.7V | 00:00:00 | 00:00:00 | 00:00:00 | |
| AZAK | 2026-08-30 11:55:54 | 48.91975 | 10.04029 | 324° | 20km/h | 22046m | 5.0m/s | -54.8°C | 1.1% | 42.6hPa | 2.7V | 00:00:00 | 00:00:00 | 00:00:00 | |
| DM0DOS-11 | 2026-08-30 11:55:52 | 48.91964 | 10.04047 | 317° | 11km/h | 22026m | 5.2m/s | -55.1°C | 4.3% | 42.7hPa | 2.7V | 08:30:00 | 01:37:30 | 00:00:00 | |
| DF8AY | 2026-08-30 11:55:52 | 48.91966 | 10.04044 | 310° | 13km/h | 22032m | 5.3m/s | 0°C | 0% | 0hPa | 2.6V | 18:12:15 | 01:37:31 | 00:00:00 | |
| DK7TD | 2026-08-30 11:55:51 | 48.91964 | 10.04047 | 318° | 11km/h | 22026m | 5.2m/s | -55.1°C | 0.7% | 42.7hPa | 2.7V | 18:12:15 | 01:37:30 | 00:00:00 | |
| DF3TZ-5 | 2026-08-30 11:55:49 | 48.91957 | 10.04058 | 315° | 18km/h | 22011m | 5.2m/s | -55.1°C | 1.2% | 42.8hPa | 2.6V | 00:00:00 | 00:00:00 | 00:00:00 | |
| DL9SK-14 | 2026-08-30 11:55:46 | 48.91943 | 10.04074 | 330° | 26km/h | 21995m | 5.5m/s | -55.0°C | 1.2% | 42.9hPa | 2.6V | 00:00:00 | 00:00:00 | 00:00:00 | |
| OE9MKV-15 | 2026-08-30 11:55:45 | 48.91942 | 10.04073 | 331° | 18km/h | 21995m | 5.5m/s | -54.9°C | 4.2% | 42.8hPa | 2.6V | 00:00:00 | 01:37:24 | 08:30:00 | |
| OE5DRO-10 | 2026-08-30 11:55:44 | 48.91937 | 10.04079 | 330° | 20km/h | 21989m | 5.9m/s | -55.0°C | 4.3% | 42.9hPa | 2.6V | 00:00:00 | 00:00:00 | 00:00:00 | |
| DM7RM-13 | 2026-08-30 11:55:43 | 48.91937 | 10.04079 | 331° | 27km/h | 21989m | 6.0m/s | -55.1°C | 1.2% | 42.9hPa | 2.6V | 00:00:00 | 00:00:00 | 00:00:00 | |
| DM0DOS-11 | 2026-08-30 11:55:42 | 48.91919 | 10.04096 | 331° | 27km/h | 21974m | 5.8m/s | -55°C | 4.2% | 43hPa | 2.6V | 08:30:00 | 01:37:20 | 00:00:00 | |
| DK7TD | 2026-08-30 11:55:41 | 48.91919 | 10.04096 | 331° | 27km/h | 21974m | 5.8m/s | -55°C | 0.6% | 43hPa | 2.6V | 18:12:15 | 01:37:20 | 00:00:00 | |
| DL1NUX | 2026-08-30 11:55:40 | 48.91899 | 10.04113 | 314° | 18km/h | 21951m | 5.4m/s | -54.9°C | 4.2% | 43.2hPa | 2.7V | 08:30:00 | 01:37:16 | 00:00:00 | |
| HSKMA3-T | 2026-08-30 11:55:39 | 48.91907 | 10.04104 | 334° | 22km/h | 21963m | 5.2m/s | -54.9°C | 0.7% | 43.1hPa | 2.6V | 18:12:15 | 01:37:18 | 00:00:00 | |
| DF8AY | 2026-08-30 11:55:35 | 48.91893 | 10.04123 | 312° | 16km/h | 21942m | 5.2m/s | 0°C | 0% | 0hPa | 2.6V | 18:12:15 | 01:37:14 | 00:00:00 | |
| NBG1-10 | 2026-08-30 11:55:35 | 48.91893 | 10.04123 | 313° | 16km/h | 21942m | 5.2m/s | -54.9°C | 4.2% | 43.2hPa | 2.7V | 00:00:00 | 01:37:14 | 00:00:00 | |
| AZAK | 2026-08-30 11:55:33 | 48.91890 | 10.04126 | 325° | 15km/h | 21937m | 5.8m/s | -54.9°C | 1.1% | 43.3hPa | 2.7V | 00:00:00 | 00:00:00 | 00:00:00 | |
| DM0DOS-11 | 2026-08-30 11:55:32 | 48.91880 | 10.04136 | 326° | 18km/h | 21921m | 5.8m/s | -55.1°C | 4.2% | 43.4hPa | 2.7V | 08:30:00 | 01:37:10 | 00:00:00 | |
| BIOWL1-15 | 2026-08-30 11:55:30 | 48.91876 | 10.04140 | 323° | 18km/h | 21915m | 4.7m/s | 0°C | 0% | 0hPa | 2.6V | 18:12:15 | 01:37:09 | 00:00:00 | |
| HSKMA3-T | 2026-08-30 11:55:28 | 48.91868 | 10.04148 | 333° | 18km/h | 21905m | 6.2m/s | -55.2°C | 0.7% | 43.5hPa | 2.6V | 18:12:15 | 01:37:07 | 00:00:00 | |
| DJ8HS-15 | 2026-08-30 11:55:28 | 48.91868 | 10.04148 | 334° | 16km/h | 21905m | 6.2m/s | -55.1°C | 4.3% | 43.5hPa | 2.6V | 00:00:00 | 01:37:07 | 00:00:00 | |
| DC4HF-4 | 2026-08-30 11:55:25 | 48.91852 | 10.04160 | 322° | 16km/h | 21884m | 4.9m/s | -55.3°C | 1.2% | 43.7hPa | 2.6V | 00:00:00 | 00:00:00 | 00:00:00 | |
| DM0DOS-11 | 2026-08-30 11:55:22 | 48.91843 | 10.04169 | 337° | 11km/h | 21868m | 4.7m/s | -55.3°C | 4.4% | 43.8hPa | 2.6V | 08:30:00 | 01:37:00 | 00:00:00 | |
| DK7TD | 2026-08-30 11:55:20 | 48.91841 | 10.04171 | 335° | 11km/h | 21864m | 3.7m/s | -55.3°C | 0.7% | 43.8hPa | 2.6V | 18:12:15 | 01:36:59 | 00:00:00 | |
| DO3MHA-12 | 2026-08-30 11:55:20 | 48.91840 | 10.04171 | 336° | 15km/h | 21865m | 3.7m/s | -55.2°C | 4.3% | 43.7hPa | 2.7V | 00:00:00 | 01:36:59 | 00:00:00 | |
| DL1NUX | 2026-08-30 11:55:18 | 48.91824 | 10.04194 | 316° | 18km/h | 21829m | 6.2m/s | -55.3°C | 4.3% | 44hPa | 2.7V | 08:30:00 | 01:36:52 | 00:00:00 | |
| HSKMA3-T | 2026-08-30 11:55:18 | 48.91836 | 10.04176 | 310° | 11km/h | 21854m | 5.6m/s | -55.3°C | 0.7% | 43.9hPa | 2.7V | 18:12:15 | 01:36:57 | 00:00:00 | |
| DF3TZ-5 | 2026-08-30 11:55:17 | 48.91835 | 10.04179 | 306° | 11km/h | 21849m | 3.9m/s | -55.3°C | 1.2% | 43.9hPa | 2.6V | 00:00:00 | 00:00:00 | 00:00:00 | |
| DM0DOS-11 | 2026-08-30 11:55:16 | 48.91817 | 10.04205 | 316° | 20km/h | 21818m | 5m/s | -55.2°C | 4.3% | 44.1hPa | 2.6V | 08:30:00 | 01:36:50 | 00:00:00 | |
| DK7TD | 2026-08-30 11:55:09 | 48.91809 | 10.04215 | 324° | 22km/h | 21808m | 4.4m/s | -55.2°C | 0.7% | 44.2hPa | 2.6V | 18:12:15 | 01:36:48 | 00:00:00 | |
| BIOWL1-15 | 2026-08-30 11:55:05 | 48.91795 | 10.04239 | 298° | 20km/h | 21788m | 3.7m/s | 0°C | 0% | 0hPa | 2.6V | 18:12:15 | 01:36:44 | 00:00:00 | |
| HSKMA3-T | 2026-08-30 11:55:04 | 48.91792 | 10.04246 | 302° | 18km/h | 21783m | 5.9m/s | -55.1°C | 0.7% | 44.4hPa | 2.6V | 18:12:15 | 01:36:43 | 00:00:00 | |
| SONCRA | 2026-08-30 11:55:04 | 48.91792 | 10.04246 | 301° | 16km/h | 21783m | 5.9m/s | -55.1°C | 1.2% | 44.4hPa | 2.7V | 00:00:00 | 00:00:00 | 00:00:00 | |
| DM0DOS-11 | 2026-08-30 11:55:02 | 48.91785 | 10.04259 | 311° | 15km/h | 21768m | 5.3m/s | -55.2°C | 4.3% | 44.4hPa | 2.7V | 08:30:00 | 01:36:40 | 00:00:00 | |
| DK7TD | 2026-08-30 11:54:59 | 48.91780 | 10.04269 | 301° | 16km/h | 21758m | 4.5m/s | -55.3°C | 0.7% | 44.5hPa | 2.7V | 18:12:15 | 01:36:38 | 00:00:00 | |
| HSKMA3-T | 2026-08-30 11:54:53 | 48.91763 | 10.04300 | 293° | 22km/h | 21726m | 5m/s | -55.3°C | 0.7% | 44.8hPa | 2.7V | 18:12:15 | 01:36:32 | 00:00:00 | |
| DM0DOS-11 | 2026-08-30 11:54:52 | 48.91759 | 10.04318 | 289° | 24km/h | 21716m | 5.9m/s | -55.2°C | 4.4% | 44.8hPa | 2.6V | 08:30:00 | 01:36:30 | 00:00:00 | |
| DK7TD | 2026-08-30 11:54:48 | 48.91752 | 10.04345 | 292° | 27km/h | 21702m | 5m/s | -55.2°C | 0.8% | 45hPa | 2.7V | 18:12:15 | 01:36:27 | 00:00:00 | |
| DF3TZ-5 | 2026-08-30 11:54:46 | 48.91746 | 10.04366 | 292° | 31km/h | 21692m | 4.1m/s | -55.2°C | 1.2% | 45.0hPa | 2.7V | 00:00:00 | 00:00:00 | 00:00:00 | |
| HSKMA3-T | 2026-08-30 11:54:41 | 48.91732 | 10.04410 | 284° | 18km/h | 21668m | 5.6m/s | -55°C | 0.7% | 45.2hPa | 2.7V | 18:12:15 | 01:36:20 | 00:00:00 | |
| DK7TD | 2026-08-30 11:54:37 | 48.91731 | 10.04441 | 276° | 22km/h | 21648m | 5.8m/s | -54.9°C | 0.7% | 45.3hPa | 2.6V | 18:12:15 | 01:36:16 | 00:00:00 | |
| DK7TD | 2026-08-30 11:54:26 | 48.91720 | 10.04547 | 264° | 24km/h | 21592m | 4.8m/s | -54.6°C | 0.7% | 45.7hPa | 2.6V | 18:12:15 | 01:36:05 | 00:00:00 | |
| SO1NDE-10 | 2026-08-30 11:54:25 | 48.91720 | 10.04556 | 265° | 24km/h | 21587m | 6.1m/s | -54.6°C | 4.3% | 45.7hPa | 2.7V | 00:00:00 | 01:36:04 | 00:00:00 | |
| DL1NUX | 2026-08-30 11:54:20 | 48.91721 | 10.04622 | 271° | 20km/h | 21546m | 4m/s | -54.3°C | 4.2% | 46hPa | 2.7V | 08:30:00 | 01:35:56 | 00:00:00 | |
| HSKMA3-T | 2026-08-30 11:54:20 | 48.91721 | 10.04597 | 270° | 24km/h | 21561m | 4.1m/s | -54.6°C | 0.6% | 46hPa | 2.6V | 18:12:15 | 01:35:59 | 00:00:00 | |
| DK7TD | 2026-08-30 11:54:16 | 48.91721 | 10.04630 | 267° | 22km/h | 21542m | 5.2m/s | -54.3°C | 0.7% | 46.1hPa | 2.7V | 18:12:15 | 01:35:55 | 00:00:00 | |
| OE9MKV-15 | 2026-08-30 11:54:15 | 48.91721 | 10.04639 | 262° | 22km/h | 21537m | 5.3m/s | -54.2°C | 4.2% | 46.1hPa | 2.6V | 00:00:00 | 01:35:54 | 00:00:00 | |
| DB0UT-7 | 2026-08-30 11:54:12 | 48.91725 | 10.04668 | 262° | 20km/h | 21521m | 5.2m/s | -54.1°C | 4.2% | 46.2hPa | 2.6V | 00:00:00 | 01:35:51 | 00:00:00 | |
| AZAK | 2026-08-30 11:54:11 | 48.91725 | 10.04668 | 263° | 26km/h | 21521m | 5.2m/s | -54.1°C | 1.1% | 46.2hPa | 2.6V | 00:00:00 | 00:00:00 | 00:00:00 | |
| DL1NUX | 2026-08-30 11:54:10 | 48.91731 | 10.04717 | 257° | 24km/h | 21495m | 5.9m/s | -54.3°C | 4.2% | 46.4hPa | 2.6V | 08:30:00 | 01:35:46 | 00:00:00 | |
| HSKMA3-T | 2026-08-30 11:54:07 | 48.91731 | 10.04717 | 257° | 24km/h | 21495m | 5.9m/s | -54.3°C | 0.7% | 46.4hPa | 2.6V | 18:12:15 | 01:35:46 | 00:00:00 | |
| DK7TD | 2026-08-30 11:54:06 | 48.91733 | 10.04725 | 260° | 22km/h | 21490m | 4.9m/s | -54.1°C | 0.6% | 46.4hPa | 2.6V | 18:12:15 | 01:35:45 | 00:00:00 | |
| DN1GJH-1 | 2026-08-30 11:54:05 | 48.91732 | 10.04725 | 261° | 22km/h | 21490m | 4.9m/s | -54.1°C | 1.1% | 46.4hPa | 2.6V | 00:00:00 | 00:00:00 | 00:00:00 | |
| DM0DOS-11 | 2026-08-30 11:54:02 | 48.91741 | 10.04768 | 247° | 24km/h | 21464m | 5.6m/s | -54.1°C | 4.1% | 46.6hPa | 2.6V | 08:30:00 | 01:35:40 | 00:00:00 | |
| SONCRA | 2026-08-30 11:54:02 | 48.91741 | 10.04768 | 247° | 22km/h | 21464m | 5.6m/s | -54.1°C | 1.1% | 46.6hPa | 2.7V | 00:00:00 | 00:00:00 | 00:00:00 | |
| DJTTGO | 2026-08-30 11:54:00 | 48.91743 | 10.04775 | 249° | 20km/h | 21459m | 5.4m/s | -54.1°C | 1.1% | 46.7hPa | 2.7V | 00:00:00 | 00:00:00 | 00:00:00 | |
| DL1NUX | 2026-08-30 11:53:59 | 48.91748 | 10.04798 | 251° | 22km/h | 21443m | 5.9m/s | -54°C | 4.1% | 46.8hPa | 2.7V | 08:30:00 | 01:35:36 | 00:00:00 | |
| DB0ND-19 | 2026-08-30 11:53:58 | 48.91747 | 10.04790 | 252° | 20km/h | 21449m | 5.1m/s | -53.9°C | 1.1% | 46.8hPa | 2.7V | 00:00:00 | 00:00:00 | 00:00:00 | |
| DM0DOS-11 | 2026-08-30 11:53:56 | 48.91757 | 10.04838 | 243° | 18km/h | 21411m | 5.6m/s | -53.9°C | 4.1% | 47hPa | 2.7V | 08:30:00 | 01:35:30 | 00:00:00 | |
| DK7TD | 2026-08-30 11:53:56 | 48.91750 | 10.04806 | 252° | 22km/h | 21437m | 4.8m/s | -54°C | 0.6% | 46.8hPa | 2.6V | 18:12:15 | 01:35:35 | 00:00:00 | |
| NBG1-10 | 2026-08-30 11:53:56 | 48.91750 | 10.04806 | 252° | 13km/h | 21438m | 4.8m/s | -54.0°C | 4.1% | 46.8hPa | 2.6V | 00:00:00 | 01:35:35 | 00:00:00 | |
| SO1NDE-10 | 2026-08-30 11:53:55 | 48.91751 | 10.04813 | 254° | 15km/h | 21433m | 5.4m/s | -53.9°C | 4.1% | 46.8hPa | 2.6V | 00:00:00 | 01:35:34 | 00:00:00 | |
| AZAK | 2026-08-30 11:53:51 | 48.91756 | 10.04832 | 250° | 16km/h | 21417m | 5.6m/s | -54.0°C | 1.1% | 47.0hPa | 2.6V | 00:00:00 | 00:00:00 | 00:00:00 | |
| DL1NUX | 2026-08-30 11:53:50 | 48.91768 | 10.04860 | 225° | 16km/h | 21389m | 4.4m/s | -53.9°C | 4% | 47.2hPa | 2.6V | 08:30:00 | 01:35:26 | 00:00:00 | |
| HSKMA3-T | 2026-08-30 11:53:45 | 48.91773 | 10.04869 | 225° | 18km/h | 21379m | 4.4m/s | -54°C | 0.6% | 47.3hPa | 2.7V | 18:12:15 | 01:35:24 | 00:00:00 | |
| OE9MKV-15 | 2026-08-30 11:53:45 | 48.91773 | 10.04869 | 225° | 11km/h | 21379m | 4.3m/s | -54.0°C | 4.1% | 47.2hPa | 2.6V | 00:00:00 | 01:35:24 | 00:00:00 | |
| DM0DOS-11 | 2026-08-30 11:53:44 | 48.91784 | 10.04885 | 225° | 15km/h | 21357m | 5.6m/s | -54°C | 4.1% | 47.4hPa | 2.6V | 08:30:00 | 01:35:20 | 00:00:00 | |
| DB0UT-7 | 2026-08-30 11:53:42 | 48.91782 | 10.04881 | 224° | 9km/h | 21363m | 4.9m/s | -54.0°C | 4.0% | 47.3hPa | 2.7V | 00:00:00 | 00:00:00 | 00:00:00 | |
| DL6DJ-15 | 2026-08-30 11:53:41 | 48.91784 | 10.04885 | 225° | 15km/h | 21358m | 5.6m/s | -54.0°C | 1.1% | 47.4hPa | 2.7V | 00:00:00 | 00:00:00 | 00:00:00 | |
| DL1NUX | 2026-08-30 11:53:40 | 48.91793 | 10.04899 | 226° | 11km/h | 21337m | 4.7m/s | -54.1°C | 4% | 47.6hPa | 2.7V | 08:30:00 | 01:35:16 | 00:00:00 | |
| DK7TD | 2026-08-30 11:53:35 | 48.91797 | 10.04906 | 220° | 16km/h | 21326m | 4.6m/s | 0°C | 0% | 47.7hPa | 2.6V | 18:12:15 | 01:35:14 | 00:00:00 | |
| HSKMA3-T | 2026-08-30 11:53:33 | 48.91804 | 10.04913 | 209° | 15km/h | 21318m | 5.1m/s | -54.2°C | 0.6% | 47.7hPa | 2.7V | 18:12:15 | 01:35:12 | 00:00:00 | |
| SONCRA | 2026-08-30 11:53:31 | 48.91812 | 10.04917 | 191° | 7km/h | 21302m | 6.0m/s | -54.2°C | 1.2% | 47.8hPa | 2.7V | 00:00:00 | 00:00:00 | 00:00:00 | |
| DL1NUX | 2026-08-30 11:53:30 | 48.91816 | 10.04917 | 130° | 4km/h | 21287m | 6.2m/s | -54.2°C | 4.2% | 48hPa | 2.7V | 08:30:00 | 01:35:06 | 00:00:00 | |
| DK7TD | 2026-08-30 11:53:24 | 48.91819 | 10.04913 | 169° | 5km/h | 21271m | 5.8m/s | 0°C | 0% | 0hPa | 2.6V | 18:12:15 | 01:35:03 | 00:00:00 | |
| SO1NDE-10 | 2026-08-30 11:53:24 | 48.91819 | 10.04912 | 170° | 7km/h | 21271m | 5.7m/s | -54.1°C | 4.1% | 48.0hPa | 2.6V | 00:00:00 | 01:35:03 | 00:00:00 | |
| NBG1-10 | 2026-08-30 11:53:23 | 48.91821 | 10.04912 | 190° | 7km/h | 21265m | 5.0m/s | -54.1°C | 4.1% | 48.1hPa | 2.6V | 00:00:00 | 01:35:02 | 08:30:00 | |
| DL1NUX | 2026-08-30 11:53:20 | 48.91832 | 10.04923 | 229° | 11km/h | 21235m | 3.9m/s | -54.1°C | 4.1% | 48.3hPa | 2.6V | 08:30:00 | 01:34:56 | 00:00:00 | |
| HSKMA3-T | 2026-08-30 11:53:16 | 48.91833 | 10.04926 | 228° | 7km/h | 21231m | 5.6m/s | -54.1°C | 0.6% | 48.4hPa | 2.6V | 18:12:15 | 01:34:55 | 00:00:00 | |
| DK7TD | 2026-08-30 11:53:14 | 48.91834 | 10.04928 | 336° | 2km/h | 21221m | 4.5m/s | 0°C | 0% | 0hPa | 2.7V | 18:12:15 | 01:34:53 | 00:00:00 | |
| DM0DOS-11 | 2026-08-30 11:53:12 | 48.91830 | 10.04930 | 341° | 7km/h | 21206m | 4.5m/s | -53.9°C | 4.1% | 48.5hPa | 2.6V | 08:30:00 | 01:34:50 | 00:00:00 | |
| DB0UT-7 | 2026-08-30 11:53:12 | 48.91832 | 10.04929 | 333° | 7km/h | 21211m | 4.6m/s | -53.9°C | 4.1% | 48.5hPa | 2.7V | 00:00:00 | 01:34:51 | 00:00:00 | |
| DL1NUX | 2026-08-30 11:53:10 | 48.91823 | 10.04933 | 308° | 7km/h | 21187m | 6.1m/s | -53.9°C | 4.1% | 48.7hPa | 2.7V | 08:30:00 | 01:34:46 | 00:00:00 | |
| HSKMA3-T | 2026-08-30 11:53:06 | 48.91822 | 10.04936 | 281° | 9km/h | 21181m | 4.8m/s | -53.9°C | 0.7% | 48.8hPa | 2.6V | 18:12:15 | 01:34:45 | 00:00:00 | |
| DM0DOS-11 | 2026-08-30 11:53:04 | 48.91823 | 10.04949 | 293° | 4km/h | 21156m | 5.9m/s | -53.8°C | 4% | 48.9hPa | 2.7V | 08:30:00 | 01:34:40 | 00:00:00 | |
| DL1NUX | 2026-08-30 11:53:00 | 48.91817 | 10.04949 | 24° | 9km/h | 21136m | 4.8m/s | -53.8°C | 4% | 49.1hPa | 2.6V | 08:30:00 | 01:34:36 | 00:00:00 | |
| HSKMA3-T | 2026-08-30 11:52:56 | 48.91813 | 10.04948 | 353° | 7km/h | 21125m | 5m/s | -53.7°C | 0.5% | 49.2hPa | 2.7V | 18:12:15 | 01:34:34 | 00:00:00 | |
| SO1NDE-10 | 2026-08-30 11:52:54 | 48.91812 | 10.04948 | 339° | 11km/h | 21121m | 4.3m/s | -53.7°C | 3.9% | 49.2hPa | 2.6V | 00:00:00 | 01:34:33 | 00:00:00 | |
| DM0DOS-11 | 2026-08-30 11:52:52 | 48.91808 | 10.04952 | 302° | 7km/h | 21105m | 5.8m/s | -53.8°C | 3.9% | 49.3hPa | 2.6V | 08:30:00 | 01:34:30 | 00:00:00 | |
| DL1NUX | 2026-08-30 11:52:50 | 48.91806 | 10.04964 | 254° | 4km/h | 21085m | 5.3m/s | -54°C | 4% | 49.5hPa | 2.7V | 08:30:00 | 01:34:26 | 00:00:00 | |
| DO3MHA-12 | 2026-08-30 11:52:50 | 48.91807 | 10.04955 | 296° | 5km/h | 21099m | 5.2m/s | -53.8°C | 3.9% | 49.3hPa | 2.6V | 00:00:00 | 01:34:29 | 00:00:00 | |
| AZAK | 2026-08-30 11:52:49 | 48.91807 | 10.04955 | 297° | 9km/h | 21099m | 5.2m/s | -53.8°C | 1.0% | 49.4hPa | 2.6V | 00:00:00 | 00:00:00 | 00:00:00 | |
| DJ8HS-15 | 2026-08-30 11:52:48 | 48.91806 | 10.04961 | 280° | 11km/h | 21090m | 5.1m/s | -53.9°C | 3.9% | 49.4hPa | 2.6V | 00:00:00 | 01:34:27 | 00:00:00 | |
| OE9MKV-15 | 2026-08-30 11:52:45 | 48.91807 | 10.04966 | 228° | 15km/h | 21076m | 4.8m/s | -53.9°C | 4.0% | 49.5hPa | 2.6V | 00:00:00 | 01:34:24 | 00:00:00 | |
| DM0DOS-11 | 2026-08-30 11:52:44 | 48.91806 | 10.04973 | 313° | 7km/h | 21054m | 5.1m/s | -54.1°C | 4.1% | 49.7hPa | 2.6V | 08:30:00 | 01:34:20 | 00:00:00 | |
| DN1GJH-1 | 2026-08-30 11:52:43 | 48.91808 | 10.04967 | 257° | 5km/h | 21070m | 6.1m/s | -54.0°C | 1.2% | 49.6hPa | 2.7V | 00:00:00 | 00:00:00 | 00:00:00 | |
| DF3TZ-5 | 2026-08-30 11:52:42 | 48.91807 | 10.04971 | 288° | 4km/h | 21060m | 6.0m/s | -54.1°C | 1.1% | 49.7hPa | 2.7V | 00:00:00 | 00:00:00 | 00:00:00 | |
| DL1NUX | 2026-08-30 11:52:40 | 48.91793 | 10.04985 | 339° | 20km/h | 21033m | 5.7m/s | -54.5°C | 4.2% | 49.9hPa | 2.7V | 08:30:00 | 01:34:16 | 00:00:00 | |
| HSKMA3-T | 2026-08-30 11:52:39 | 48.91801 | 10.04979 | 328° | 18km/h | 21043m | 5.5m/s | -54.3°C | 0.6% | 49.8hPa | 2.6V | 18:12:15 | 01:34:18 | 00:00:00 | |
| OE5DXL-15 | 2026-08-30 11:52:39 | 48.91801 | 10.04979 | 329° | 15km/h | 21043m | 5.5m/s | -54.2°C | 4.1% | 49.8hPa | 2.6V | 00:00:00 | 00:00:00 | 00:00:00 | |
| KANTATE | 2026-08-30 11:52:38 | 48.91801 | 10.04979 | 329° | 18km/h | 21043m | 5.5m/s | -54.3°C | 1.1% | 49.8hPa | 2.6V | 00:00:00 | 00:00:00 | 00:00:00 | |
| DM7RM-13 | 2026-08-30 11:52:37 | 48.91797 | 10.04982 | 334° | 20km/h | 21039m | 3.9m/s | -54.3°C | 1.2% | 49.9hPa | 2.6V | 00:00:00 | 00:00:00 | 00:00:00 | |
| DL8DAS-15 | 2026-08-30 11:52:36 | 48.91793 | 10.04985 | 340° | 20km/h | 21034m | 5.7m/s | 0°C | 0% | 0hPa | 2.6V | 00:00:00 | 00:00:00 | 00:00:00 | |
| OE5DRO-10 | 2026-08-30 11:52:34 | 48.91780 | 10.04991 | 338° | 16km/h | 21017m | 5.7m/s | -54.4°C | 4.2% | 49.9hPa | 2.6V | 00:00:00 | 00:00:00 | 08:30:00 | |
| DL1NUX | 2026-08-30 11:52:30 | 48.91766 | 10.05026 | 295° | 20km/h | 20981m | 4.1m/s | -54.3°C | 4.1% | 50.3hPa | 2.6V | 08:30:00 | 01:34:06 | 00:00:00 | |
| HSKMA3-T | 2026-08-30 11:52:29 | 48.91769 | 10.05013 | 287° | 15km/h | 20992m | 4.7m/s | -54.4°C | 0.6% | 50.2hPa | 2.7V | 18:12:15 | 01:34:08 | 00:00:00 | |
| SONCRA | 2026-08-30 11:52:29 | 48.91768 | 10.05019 | 291° | 16km/h | 20987m | 5.8m/s | -54.4°C | 1.1% | 50.2hPa | 2.6V | 00:00:00 | 00:00:00 | 00:00:00 | |
| DJ8HS-15 | 2026-08-30 11:52:28 | 48.91768 | 10.05019 | 292° | 15km/h | 20987m | 5.7m/s | -54.3°C | 4.1% | 50.2hPa | 2.6V | 00:00:00 | 01:34:07 | 00:00:00 | |
| DB0ND-19 | 2026-08-30 11:52:26 | 48.91761 | 10.05039 | 300° | 16km/h | 20971m | 5.6m/s | -54.3°C | 1.1% | 50.4hPa | 2.6V | 00:00:00 | 00:00:00 | 00:00:00 | |
| SO1NDE-10 | 2026-08-30 11:52:24 | 48.91759 | 10.05045 | 305° | 9km/h | 20966m | 4.9m/s | 0°C | 0% | 0hPa | 2.6V | 00:00:00 | 01:34:03 | 00:00:00 | |
| DN1GJH-1 | 2026-08-30 11:52:23 | 48.91759 | 10.05045 | 305° | 18km/h | 20966m | 5.0m/s | -54.3°C | 1.1% | 50.4hPa | 2.6V | 00:00:00 | 00:00:00 | 00:00:00 | |
| DM0DOS-11 | 2026-08-30 11:52:22 | 48.91750 | 10.05062 | 310° | 18km/h | 20950m | 4.4m/s | -54.3°C | 4.1% | 50.5hPa | 2.6V | 08:30:00 | 01:34:00 | 00:00:00 | |
| DL1NUX | 2026-08-30 11:52:20 | 48.91739 | 10.05086 | 322° | 11km/h | 20921m | 4.3m/s | -54.2°C | 4.1% | 50.8hPa | 2.7V | 08:30:00 | 01:33:54 | 00:00:00 | |
| HSKMA3-T | 2026-08-30 11:52:16 | 48.91741 | 10.05082 | 311° | 13km/h | 20925m | 4.5m/s | -54.3°C | 0.7% | 50.7hPa | 2.7V | 18:12:15 | 01:33:55 | 00:00:00 | |
| OE5DRO-10 | 2026-08-30 11:52:15 | 48.91739 | 10.05086 | 323° | 7km/h | 20921m | 4.2m/s | -54.2°C | 4.1% | 50.7hPa | 2.7V | 00:00:00 | 00:00:00 | 00:00:00 | |
| DM0DOS-11 | 2026-08-30 11:52:12 | 48.91732 | 10.05093 | 306° | 9km/h | 20901m | 5.8m/s | -54.3°C | 4.1% | 50.9hPa | 2.7V | 08:30:00 | 01:33:50 | 00:00:00 | |
| DK7TD | 2026-08-30 11:52:10 | 48.91731 | 10.05096 | 294° | 11km/h | 20896m | 4.8m/s | -54.3°C | 0.6% | 51hPa | 2.7V | 18:12:15 | 01:33:49 | 00:00:00 | |
| DL1NUX | 2026-08-30 11:52:10 | 48.91729 | 10.05116 | 281° | 13km/h | 20869m | 5.1m/s | -54.3°C | 4.1% | 51.2hPa | 2.7V | 08:30:00 | 01:33:44 | 00:00:00 | |
| HSKMA3-T | 2026-08-30 11:52:03 | 48.91728 | 10.05124 | 276° | 7km/h | 20860m | 5.7m/s | -54.3°C | 0.7% | 51.3hPa | 2.6V | 18:12:15 | 01:33:42 | 00:00:00 | |
| DM0DOS-11 | 2026-08-30 11:52:02 | 48.91728 | 10.05127 | 276° | 2km/h | 20849m | 5.2m/s | -54.3°C | 4.1% | 51.3hPa | 2.6V | 08:30:00 | 01:33:40 | 00:00:00 | |
| OE5WHR-10 | 2026-08-30 11:52:01 | 48.91728 | 10.05127 | 277° | 9km/h | 20849m | 5.1m/s | 0°C | 0% | 0hPa | 2.7V | 00:00:00 | 00:00:00 | 00:00:00 | |
| DL1NUX | 2026-08-30 11:52:00 | 48.91729 | 10.05127 | 198° | 4km/h | 20818m | 5.8m/s | -54.5°C | 4.2% | 51.6hPa | 2.7V | 08:30:00 | 01:33:34 | 00:00:00 | |
| DK7TD | 2026-08-30 11:51:59 | 48.91727 | 10.05128 | 343° | 2km/h | 20839m | 3.8m/s | -54.3°C | 0.6% | 51.4hPa | 2.7V | 18:12:15 | 01:33:38 | 00:00:00 | |
| HSKMA3-T | 2026-08-30 11:51:53 | 48.91730 | 10.05129 | 252° | 4km/h | 20808m | 4.4m/s | -54.5°C | 0.6% | 51.7hPa | 2.6V | 18:12:15 | 01:33:32 | 00:00:00 | |
| DM0DOS-11 | 2026-08-30 11:51:52 | 48.91731 | 10.05131 | 217° | 4km/h | 20797m | 4.9m/s | -54.4°C | 4.1% | 51.8hPa | 2.7V | 08:30:00 | 01:33:30 | 00:00:00 | |
| DL1ZP-14 | 2026-08-30 11:51:52 | 48.91730 | 10.05130 | 242° | 4km/h | 20803m | 6.2m/s | -54.5°C | 1.2% | 51.7hPa | 2.6V | 00:00:00 | 00:00:00 | 00:00:00 | |
| DL1NUX | 2026-08-30 11:51:50 | 48.91729 | 10.05136 | 69° | 0km/h | 20768m | 4.9m/s | -54.4°C | 4.1% | 52hPa | 2.7V | 00:00:00 | 01:33:24 | 00:00:00 | |
| DK7TD | 2026-08-30 11:51:49 | 48.91731 | 10.05132 | 318° | 2km/h | 20787m | 5.3m/s | -54.5°C | 0.7% | 51.8hPa | 2.6V | 18:12:15 | 01:33:28 | 00:00:00 | |
| DC4HF-4 | 2026-08-30 11:51:48 | 48.91731 | 10.05133 | 311° | 4km/h | 20782m | 5.0m/s | -54.4°C | 1.1% | 51.9hPa | 2.7V | 00:00:00 | 00:00:00 | 00:00:00 | |
| DF7PN | 2026-08-30 11:51:46 | 48.91729 | 10.05136 | 298° | 2km/h | 20773m | 4.9m/s | -54.4°C | 1.1% | 52.0hPa | 2.7V | 00:00:00 | 00:00:00 | 00:00:00 | |
| DK7TD | 2026-08-30 11:51:39 | 48.91726 | 10.05125 | 81° | 4km/h | 20739m | 4.6m/s | -54.5°C | 0.6% | 52.2hPa | 2.7V | 18:12:15 | 01:33:18 | 00:00:00 | |
| DL1NUX | 2026-08-30 11:51:39 | 48.91720 | 10.05119 | 21° | 7km/h | 20714m | 6.2m/s | -54.6°C | 4.2% | 0hPa | 2.7V | 00:00:00 | 01:33:13 | 00:00:00 | |
| HSKMA3-T | 2026-08-30 11:51:38 | 48.91725 | 10.05124 | 72° | 4km/h | 20734m | 4.4m/s | -54.5°C | 0.6% | 52.3hPa | 2.6V | 18:12:15 | 01:33:17 | 00:00:00 | |
| DL6DJ-15 | 2026-08-30 11:51:37 | 48.91724 | 10.05122 | 28° | 7km/h | 20724m | 4.9m/s | -54.6°C | 1.2% | 52.4hPa | 2.6V | 00:00:00 | 00:00:00 | 00:00:00 | |
| DM7RM-13 | 2026-08-30 11:51:36 | 48.91723 | 10.05122 | 30° | 7km/h | 20724m | 4.9m/s | -54.6°C | 1.2% | 52.4hPa | 2.6V | 00:00:00 | 00:00:00 | 00:00:00 | |
| DL8DAS-14 | 2026-08-30 11:51:35 | 48.91720 | 10.05119 | 21° | 7km/h | 20714m | 6.2m/s | 0°C | -1.0% | -1.0hPa | 2.6V | 00:00:00 | 00:00:00 | 00:00:00 | |
| KANTATE | 2026-08-30 11:51:34 | 48.91720 | 10.05119 | 22° | 7km/h | 20714m | 6.2m/s | -54.6°C | 1.2% | 52.4hPa | 2.6V | 00:00:00 | 00:00:00 | 00:00:00 | |
| DM0DOS-11 | 2026-08-30 11:51:32 | 48.91712 | 10.05118 | 358° | 15km/h | 20699m | 5.8m/s | -54.5°C | 4.2% | 52.6hPa | 2.6V | 08:30:00 | 01:33:10 | 00:00:00 | |
| DK7TD | 2026-08-30 11:51:29 | 48.91703 | 10.05119 | 351° | 16km/h | 20689m | 5.2m/s | -54.6°C | 0.6% | 52.7hPa | 2.6V | 18:12:15 | 01:33:08 | 00:00:00 | |
| HSKMA3-T | 2026-08-30 11:51:26 | 48.91694 | 10.05122 | 351° | 11km/h | 20675m | 4.3m/s | -54.7°C | 0.6% | 52.8hPa | 2.6V | 18:12:15 | 01:33:05 | 00:00:00 | |
| DM0DOS-11 | 2026-08-30 11:51:22 | 48.91679 | 10.05124 | 345° | 9km/h | 20650m | 5m/s | -54.7°C | 4.2% | 53hPa | 2.7V | 08:30:00 | 01:33:00 | 00:00:00 | |
| DK7TD | 2026-08-30 11:51:18 | 48.91671 | 10.05125 | 359° | 13km/h | 20635m | 4.6m/s | -54.7°C | 0.6% | 53.1hPa | 2.6V | 18:12:15 | 01:32:57 | 00:00:00 | |
| OE5DRO-10 | 2026-08-30 11:51:18 | 48.91671 | 10.05125 | 360° | 15km/h | 20635m | 4.5m/s | -54.6°C | 4.2% | 53.1hPa | 2.7V | 00:00:00 | 00:00:00 | 00:00:00 | |
| OE9MKV-15 | 2026-08-30 11:51:15 | 48.91661 | 10.05128 | 347° | 16km/h | 20619m | 4.1m/s | -54.6°C | 4.2% | 53.2hPa | 2.7V | 00:00:00 | 01:32:54 | 08:30:00 | |
| DM7RM-13 | 2026-08-30 11:51:14 | 48.91661 | 10.05128 | 348° | 15km/h | 20619m | 4.2m/s | -54.6°C | 1.2% | 53.2hPa | 2.6V | 00:00:00 | 00:00:00 | 00:00:00 | |
| DM0DOS-11 | 2026-08-30 11:51:12 | 48.91646 | 10.05131 | 343° | 15km/h | 20597m | 5.1m/s | -54.6°C | 4.3% | 53.4hPa | 2.6V | 08:30:00 | 01:32:50 | 00:00:00 | |
| DK7TD | 2026-08-30 11:51:07 | 48.91631 | 10.05138 | 336° | 16km/h | 20577m | 5.5m/s | -54.6°C | 0.6% | 53.6hPa | 2.6V | 18:12:15 | 01:32:46 | 00:00:00 | |
| AZAK | 2026-08-30 11:51:07 | 48.91631 | 10.05138 | 337° | 16km/h | 20578m | 5.5m/s | -54.6°C | 1.2% | 53.6hPa | 2.6V | 00:00:00 | 00:00:00 | 00:00:00 | |
| DL6DJ-15 | 2026-08-30 11:51:06 | 48.91625 | 10.05144 | 317° | 15km/h | 20567m | 4.3m/s | -54.5°C | 1.2% | 53.7hPa | 2.6V | 00:00:00 | 00:00:00 | 00:00:00 | |
| OE5WHR-10 | 2026-08-30 11:51:04 | 48.91622 | 10.05148 | 323° | 16km/h | 20562m | 5.1m/s | 0°C | 0% | 0hPa | 2.6V | 00:00:00 | 01:32:43 | 00:00:00 | |
| DM0DOS-11 | 2026-08-30 11:51:02 | 48.91610 | 10.05157 | 336° | 18km/h | 20547m | 4.7m/s | -54.6°C | 4.2% | 53.8hPa | 2.6V | 08:30:00 | 01:32:40 | 00:00:00 | |
| DK7TD | 2026-08-30 11:50:57 | 48.91593 | 10.05170 | 338° | 20km/h | 20526m | 4.6m/s | -54.3°C | 0.7% | 54hPa | 2.7V | 18:12:15 | 01:32:36 | 00:00:00 | |
| SONCRA | 2026-08-30 11:50:55 | 48.91584 | 10.05176 | 331° | 16km/h | 20516m | 5.7m/s | -54.2°C | 1.2% | 54.1hPa | 2.6V | 00:00:00 | 00:00:00 | 00:00:00 | |
| DB0ND-19 | 2026-08-30 11:50:52 | 48.91574 | 10.05183 | 352° | 15km/h | 20501m | 5.7m/s | -54.3°C | 1.1% | 54.2hPa | 2.6V | 00:00:00 | 00:00:00 | 00:00:00 | |
| DL1NUX | 2026-08-30 11:50:50 | 48.91565 | 10.05184 | 352° | 18km/h | 20491m | 5.6m/s | 0°C | 0% | 0hPa | 2.6V | 00:00:00 | 01:32:29 | 00:00:00 | |
| DK7TD | 2026-08-30 11:50:47 | 48.91552 | 10.05190 | 337° | 16km/h | 20476m | 5.4m/s | -54.4°C | 0.6% | 54.4hPa | 2.7V | 18:12:15 | 01:32:26 | 00:00:00 | |
| OE9MKV-15 | 2026-08-30 11:50:45 | 48.91545 | 10.05195 | 328° | 9km/h | 20466m | 4.0m/s | -54.5°C | 4.3% | 54.5hPa | 2.6V | 00:00:00 | 01:32:24 | 00:00:00 | |
| DF7PN | 2026-08-30 11:50:44 | 48.91542 | 10.05199 | 318° | 16km/h | 20462m | 5.9m/s | -54.4°C | 1.2% | 54.5hPa | 2.6V | 00:00:00 | 00:00:00 | 00:00:00 | |
| DM0DOS-11 | 2026-08-30 11:50:41 | 48.91534 | 10.05213 | 317° | 15km/h | 20446m | 5.7m/s | -54.3°C | 4.2% | 54.7hPa | 2.6V | 08:30:00 | 01:32:20 | 00:00:00 | |
| DL1NUX | 2026-08-30 11:50:40 | 48.91525 | 10.05218 | 351° | 13km/h | 20431m | 5.2m/s | 0°C | 0% | 0hPa | 2.7V | 00:00:00 | 01:32:17 | 00:00:00 | |
| DO3MHA-12 | 2026-08-30 11:50:40 | 48.91531 | 10.05216 | 337° | 11km/h | 20440m | 5.1m/s | -54.3°C | 4.2% | 54.7hPa | 2.6V | 00:00:00 | 01:32:19 | 00:00:00 | |
| OE5DXL-15 | 2026-08-30 11:50:39 | 48.91528 | 10.05217 | 352° | 5km/h | 20436m | 4.3m/s | -54.4°C | 4.2% | 54.7hPa | 2.6V | 00:00:00 | 00:00:00 | 00:00:00 | |
| NBG1-10 | 2026-08-30 11:50:38 | 48.91525 | 10.05218 | 352° | 7km/h | 20431m | 5.2m/s | -54.4°C | 4.2% | 54.7hPa | 2.6V | 00:00:00 | 01:32:17 | 00:00:00 | |
| DC4HF-4 | 2026-08-30 11:50:36 | 48.91519 | 10.05221 | 332° | 13km/h | 20420m | 4.9m/s | -54.5°C | 1.1% | 54.9hPa | 2.6V | 00:00:00 | 00:00:00 | 00:00:00 | |
| DK7TD | 2026-08-30 11:50:36 | 48.91519 | 10.05221 | 333° | 13km/h | 20420m | 4.9m/s | -54.5°C | 0.6% | 54.9hPa | 2.6V | 18:12:15 | 01:32:15 | 00:00:00 | |
| DL6DJ-15 | 2026-08-30 11:50:35 | 48.91514 | 10.05225 | 339° | 9km/h | 20410m | 6.5m/s | -54.4°C | 1.1% | 55.0hPa | 2.6V | 00:00:00 | 00:00:00 | 00:00:00 | |
| DF1GD-15 | 2026-08-30 11:50:33 | 48.91514 | 10.05225 | 340° | 11km/h | 20410m | 6.5m/s | -54.4°C | 1.2% | 55.0hPa | 2.6V | 00:00:00 | 00:00:00 | 00:00:00 | |
| DM0DOS-11 | 2026-08-30 11:50:31 | 48.91509 | 10.05229 | 297° | 7km/h | 20393m | 6m/s | -54.2°C | 4.2% | 55.2hPa | 2.6V | 08:30:00 | 01:32:10 | 00:00:00 | |
| DL1NUX | 2026-08-30 11:50:30 | 48.91508 | 10.05235 | 293° | 0km/h | 20377m | 5.8m/s | 0°C | 0% | 0hPa | 2.7V | 00:00:00 | 01:32:07 | 00:00:00 | |
| DK7TD | 2026-08-30 11:50:25 | 48.91508 | 10.05233 | 72° | 2km/h | 20360m | 5m/s | -53.8°C | 0.5% | 55.5hPa | 2.6V | 18:12:15 | 01:32:04 | 00:00:00 | |
| SONCRA | 2026-08-30 11:50:24 | 48.91508 | 10.05232 | 73° | 2km/h | 20356m | 4.4m/s | -53.8°C | 1.1% | 55.5hPa | 2.6V | 00:00:00 | 00:00:00 | 00:00:00 | |
| DM0DOS-11 | 2026-08-30 11:50:21 | 48.91507 | 10.05224 | 79° | 11km/h | 20339m | 4.8m/s | -53.9°C | 4.1% | 55.6hPa | 2.6V | 08:30:00 | 01:32:00 | 00:00:00 | |
| DK7TD | 2026-08-30 11:50:14 | 48.91507 | 10.05221 | 238° | 2km/h | 20301m | 4.1m/s | -53.5°C | 0.5% | 55.9hPa | 2.6V | 18:12:15 | 01:31:53 | 00:00:00 | |
| DM0DOS-11 | 2026-08-30 11:50:11 | 48.91508 | 10.05223 | 145° | 4km/h | 20284m | 5.3m/s | -53.5°C | 4% | 56.1hPa | 2.6V | 08:30:00 | 01:31:50 | 00:00:00 | |
| DK7TD | 2026-08-30 11:50:03 | 48.91510 | 10.05194 | 74° | 7km/h | 20241m | 5.8m/s | -53.4°C | 0.3% | 56.5hPa | 2.7V | 18:12:15 | 01:31:42 | 00:00:00 | |
| DM0DOS-11 | 2026-08-30 11:50:01 | 48.91510 | 10.05187 | 103° | 13km/h | 20230m | 5.2m/s | -53.5°C | 3.8% | 56.6hPa | 2.6V | 08:30:00 | 01:31:40 | 00:00:00 | |
| DK7TD | 2026-08-30 11:49:53 | 48.91524 | 10.05149 | 104° | 15km/h | 20186m | 6.2m/s | -53.6°C | 0.6% | 57hPa | 2.6V | 18:12:15 | 01:31:32 | 00:00:00 | |
| DM0DOS-11 | 2026-08-30 11:49:51 | 48.91526 | 10.05136 | 98° | 18km/h | 20176m | 5.6m/s | -53.5°C | 3.9% | 57.1hPa | 2.6V | 08:30:00 | 01:31:30 | 00:00:00 | |
| DB0ND-19 | 2026-08-30 11:49:51 | 48.91527 | 10.05129 | 96° | 20km/h | 20170m | 5.8m/s | -53.6°C | 1.1% | 57.1hPa | 2.6V | 00:00:00 | 00:00:00 | 00:00:00 | |
| DO3MHA-12 | 2026-08-30 11:49:50 | 48.91527 | 10.05129 | 97° | 24km/h | 20171m | 5.8m/s | -53.5°C | 3.9% | 57.1hPa | 2.6V | 00:00:00 | 01:31:29 | 00:00:00 | |
| DJ8HS-15 | 2026-08-30 11:49:48 | 48.91529 | 10.05111 | 108° | 20km/h | 20161m | 5.3m/s | -53.4°C | 3.8% | 57.1hPa | 2.6V | 00:00:00 | 01:31:27 | 00:00:00 | |
| OE9MKV-15 | 2026-08-30 11:49:45 | 48.91539 | 10.05087 | 128° | 18km/h | 20147m | 3.8m/s | -53.3°C | 3.8% | 57.2hPa | 2.6V | 00:00:00 | 01:31:24 | 00:00:00 | |
| DM0DOS-11 | 2026-08-30 11:49:43 | 48.91549 | 10.05054 | 102° | 20km/h | 20128m | 5.1m/s | -53.4°C | 3.8% | 57.5hPa | 2.7V | 08:30:00 | 01:31:20 | 00:00:00 | |
| DK7TD | 2026-08-30 11:49:42 | 48.91547 | 10.05062 | 105° | 22km/h | 20132m | 4m/s | -53.3°C | 0.4% | 57.5hPa | 2.7V | 18:12:15 | 01:31:21 | 00:00:00 | |
| DB0UT-7 | 2026-08-30 11:49:42 | 48.91547 | 10.05062 | 105° | 18km/h | 20133m | 4.0m/s | -53.2°C | 3.8% | 57.4hPa | 2.7V | 00:00:00 | 00:00:00 | 00:00:00 | |
| DO3MHA-12 | 2026-08-30 11:49:40 | 48.91549 | 10.05046 | 101° | 18km/h | 20123m | 4.8m/s | -53.3°C | 3.8% | 57.5hPa | 2.6V | 00:00:00 | 01:31:19 | 08:30:00 | |
| OE5WHR-10 | 2026-08-30 11:49:39 | 48.91550 | 10.05039 | 98° | 16km/h | 20119m | 4.2m/s | 0°C | 0% | 0hPa | 2.7V | 00:00:00 | 00:00:00 | 00:00:00 | |
| DN1GJH-1 | 2026-08-30 11:49:37 | 48.91551 | 10.05031 | 94° | 20km/h | 20113m | 5.9m/s | -53.6°C | 1.1% | 57.6hPa | 2.7V | 00:00:00 | 00:00:00 | 00:00:00 | |
| DF3TZ-5 | 2026-08-30 11:49:36 | 48.91552 | 10.05015 | 99° | 18km/h | 20103m | 5.2m/s | -53.7°C | 1.1% | 57.7hPa | 2.7V | 00:00:00 | 00:00:00 | 00:00:00 | |
| DM0DOS-11 | 2026-08-30 11:49:33 | 48.91560 | 10.04987 | 110° | 15km/h | 20078m | 4.1m/s | -54.2°C | 4.1% | 58hPa | 2.7V | 08:30:00 | 01:31:10 | 00:00:00 | |
| DK7TD | 2026-08-30 11:49:32 | 48.91559 | 10.04992 | 115° | 15km/h | 20082m | 5.2m/s | -54.2°C | 0.5% | 57.9hPa | 2.7V | 18:12:15 | 01:31:11 | 00:00:00 | |
| DM7RM-13 | 2026-08-30 11:49:31 | 48.91558 | 10.04992 | 116° | 15km/h | 20083m | 5.2m/s | -54.2°C | 1.2% | 57.9hPa | 2.6V | 00:00:00 | 00:00:00 | 00:00:00 | |
| DO3MHA-12 | 2026-08-30 11:49:30 | 48.91561 | 10.04981 | 112° | 13km/h | 20074m | 4.7m/s | -54.2°C | 4.1% | 57.9hPa | 2.6V | 00:00:00 | 01:31:09 | 00:00:00 | |
| DJ8HS-15 | 2026-08-30 11:49:28 | 48.91564 | 10.04973 | 105° | 20km/h | 20063m | 4.3m/s | -54.4°C | 4.1% | 58.1hPa | 2.6V | 00:00:00 | 01:31:07 | 00:00:00 | |
| OE5DRO-10 | 2026-08-30 11:49:24 | 48.91560 | 10.04955 | 64° | 22km/h | 20043m | 5.7m/s | -54.4°C | 4.0% | 58.2hPa | 2.6V | 00:00:00 | 00:00:00 | 00:00:00 | |
| DM0DOS-11 | 2026-08-30 11:49:23 | 48.91557 | 10.04940 | 79° | 16km/h | 20028m | 6.1m/s | -54.5°C | 4.3% | 58.4hPa | 2.6V | 08:30:00 | 01:31:00 | 00:00:00 | |
| DK7TD | 2026-08-30 11:49:22 | 48.91558 | 10.04946 | 80° | 15km/h | 20033m | 4.4m/s | -54.6°C | 0.6% | 58.4hPa | 2.6V | 18:12:15 | 01:31:01 | 00:00:00 | |
| DO3MHA-12 | 2026-08-30 11:49:20 | 48.91556 | 10.04933 | 82° | 24km/h | 20023m | 5.0m/s | -54.4°C | 4.3% | 58.4hPa | 2.6V | 00:00:00 | 01:30:59 | 00:00:00 | |
| DB0ND-19 | 2026-08-30 11:49:19 | 48.91556 | 10.04925 | 85° | 20km/h | 20018m | 4.5m/s | -54.3°C | 1.2% | 58.5hPa | 2.6V | 00:00:00 | 00:00:00 | 00:00:00 | |
| OE5WHR-10 | 2026-08-30 11:49:18 | 48.91556 | 10.04917 | 91° | 26km/h | 20013m | 5.7m/s | 0°C | 0% | 0hPa | 2.6V | 00:00:00 | 00:00:00 | 00:00:00 | |
| DN1GJH-1 | 2026-08-30 11:49:16 | 48.91556 | 10.04909 | 95° | 20km/h | 20008m | 4.6m/s | -54.2°C | 1.2% | 58.6hPa | 2.6V | 00:00:00 | 00:00:00 | 00:00:00 | |
| OE9MKV-15 | 2026-08-30 11:49:15 | 48.91556 | 10.04893 | 84° | 24km/h | 19998m | 6.0m/s | -54.2°C | 4.1% | 58.6hPa | 2.6V | 00:00:00 | 01:30:54 | 00:00:00 | |
| DM0DOS-11 | 2026-08-30 11:49:11 | 48.91550 | 10.04845 | 81° | 27km/h | 19972m | 5.3m/s | -54.3°C | 4% | 58.9hPa | 2.6V | 08:30:00 | 01:30:49 | 00:00:00 | |
| DK7TD | 2026-08-30 11:49:11 | 48.91551 | 10.04855 | 83° | 26km/h | 19977m | 4.7m/s | -54.4°C | 0.5% | 58.9hPa | 2.6V | 18:12:15 | 01:30:50 | 00:00:00 | |
| DF7PN | 2026-08-30 11:49:11 | 48.91551 | 10.04855 | 82° | 26km/h | 19977m | 4.7m/s | -54.4°C | 1.1% | 58.9hPa | 2.6V | 00:00:00 | 00:00:00 | 00:00:00 | |
| DO3MHA-12 | 2026-08-30 11:49:10 | 48.91550 | 10.04845 | 82° | 22km/h | 19972m | 5.2m/s | -54.3°C | 4.0% | 58.9hPa | 2.6V | 00:00:00 | 01:30:49 | 00:00:00 | |
| OE5DXL-15 | 2026-08-30 11:49:09 | 48.91549 | 10.04834 | 81° | 26km/h | 19967m | 5.0m/s | -54.2°C | 4.0% | 59.0hPa | 2.7V | 00:00:00 | 00:00:00 | 00:00:00 | |
| DJ8HS-15 | 2026-08-30 11:49:08 | 48.91548 | 10.04824 | 83° | 24km/h | 19963m | 4.0m/s | -54.2°C | 4.0% | 59.0hPa | 2.7V | 00:00:00 | 01:30:47 | 00:00:00 | |
| OE5DRO-10 | 2026-08-30 11:49:05 | 48.91547 | 10.04799 | 87° | 24km/h | 19947m | 4.8m/s | -54.3°C | 4.2% | 59.1hPa | 2.7V | 00:00:00 | 00:00:00 | 00:00:00 | |
| AZAK | 2026-08-30 11:49:02 | 48.91546 | 10.04784 | 81° | 20km/h | 19937m | 4.4m/s | -54.3°C | 1.2% | 59.2hPa | 2.7V | 00:00:00 | 00:00:00 | 00:00:00 | |
| DM0DOS-11 | 2026-08-30 11:49:01 | 48.91545 | 10.04759 | 90° | 24km/h | 19921m | 4.2m/s | -54.2°C | 4.2% | 59.4hPa | 2.7V | 08:30:00 | 01:30:39 | 00:00:00 | |
| DK7TD | 2026-08-30 11:49:00 | 48.91545 | 10.04759 | 91° | 24km/h | 19922m | 4.2m/s | -54.2°C | 0.6% | 59.4hPa | 2.7V | 18:12:15 | 01:30:39 | 00:00:00 | |
| DO3MHA-12 | 2026-08-30 11:49:00 | 48.91545 | 10.04759 | 91° | 27km/h | 19922m | 4.1m/s | -54.2°C | 4.2% | 59.3hPa | 2.6V | 00:00:00 | 01:30:39 | 00:00:00 | |
| NBG1-10 | 2026-08-30 11:48:59 | 48.91545 | 10.04750 | 88° | 24km/h | 19917m | 4.4m/s | -54.2°C | 4.1% | 59.4hPa | 2.6V | 00:00:00 | 01:30:38 | 00:00:00 | |
| DN1GJH-1 | 2026-08-30 11:48:55 | 48.91540 | 10.04718 | 74° | 31km/h | 19902m | 4.0m/s | -54.4°C | 1.2% | 59.6hPa | 2.6V | 00:00:00 | 00:00:00 | 00:00:00 | |
| OE5WHR-10 | 2026-08-30 11:48:54 | 48.91536 | 10.04696 | 79° | 26km/h | 19892m | 5.3m/s | 0°C | 0% | 0hPa | 2.6V | 00:00:00 | 01:30:33 | 00:00:00 | |
| DM0DOS-11 | 2026-08-30 11:48:51 | 48.91531 | 10.04657 | 74° | 24km/h | 19871m | 4.6m/s | -54.1°C | 4% | 59.9hPa | 2.6V | 08:30:00 | 01:30:29 | 00:00:00 | |
| DK7TD | 2026-08-30 11:48:50 | 48.91531 | 10.04657 | 74° | 24km/h | 19871m | 4.6m/s | -54.1°C | 0.5% | 59.9hPa | 2.6V | 18:12:15 | 01:30:29 | 00:00:00 | |
| HSKMA3-T | 2026-08-30 11:48:46 | 48.91523 | 10.04627 | 59° | 24km/h | 19851m | 5.6m/s | -54°C | 0.5% | 60.1hPa | 2.6V | 18:12:15 | 01:30:25 | 00:00:00 | |
| OE5DRO-10 | 2026-08-30 11:48:46 | 48.91523 | 10.04627 | 59° | 24km/h | 19851m | 5.6m/s | -54.0°C | 3.9% | 60.0hPa | 2.6V | 00:00:00 | 00:00:00 | 00:00:00 | |
| OE9MKV-15 | 2026-08-30 11:48:45 | 48.91520 | 10.04619 | 59° | 27km/h | 19846m | 4.7m/s | -54.1°C | 3.9% | 60.0hPa | 2.6V | 00:00:00 | 01:30:24 | 00:00:00 | |
| DM0DOS-11 | 2026-08-30 11:48:41 | 48.91506 | 10.04572 | 71° | 29km/h | 19819m | 4.9m/s | -54.5°C | 3.9% | 60.4hPa | 2.6V | 08:30:00 | 01:30:19 | 00:00:00 | |
| DK7TD | 2026-08-30 11:48:39 | 48.91504 | 10.04562 | 73° | 29km/h | 19815m | 4.7m/s | -54.6°C | 0.4% | 60.4hPa | 2.6V | 18:12:15 | 01:30:18 | 00:00:00 | |
| OE5DXL-15 | 2026-08-30 11:48:39 | 48.91504 | 10.04562 | 73° | 27km/h | 19815m | 4.6m/s | -54.5°C | 3.9% | 60.4hPa | 2.6V | 00:00:00 | 00:00:00 | 00:00:00 | |
| DF3TZ-5 | 2026-08-30 11:48:34 | 48.91492 | 10.04518 | 41° | 18km/h | 19784m | 3.9m/s | -55.2°C | 1.2% | 60.7hPa | 2.7V | 00:00:00 | 00:00:00 | 00:00:00 | |
| DM0DOS-11 | 2026-08-30 11:48:31 | 48.91479 | 10.04506 | 27° | 20km/h | 19769m | 3.9m/s | -55.6°C | 4.4% | 60.9hPa | 2.7V | 08:30:00 | 01:30:09 | 00:00:00 | |
| DK7TD | 2026-08-30 11:48:29 | 48.91475 | 10.04502 | 33° | 22km/h | 19764m | 5.8m/s | -55.6°C | 0.8% | 60.9hPa | 2.7V | 18:12:15 | 01:30:08 | 00:00:00 | |
| HSKMA3-T | 2026-08-30 11:48:26 | 48.91462 | 10.04482 | 57° | 26km/h | 19749m | 5.8m/s | -55.7°C | 0.7% | 61hPa | 2.6V | 18:12:15 | 01:30:05 | 00:00:00 | |
| NBG1-10 | 2026-08-30 11:48:26 | 48.91462 | 10.04482 | 57° | 29km/h | 19750m | 5.7m/s | -55.7°C | 4.4% | 61.0hPa | 2.6V | 00:00:00 | 01:30:05 | 08:30:00 | |
| OE5WHR-10 | 2026-08-30 11:48:25 | 48.91458 | 10.04473 | 62° | 29km/h | 19744m | 4.5m/s | 0°C | 0% | 0hPa | 2.7V | 00:00:00 | 00:00:00 | 00:00:00 | |
| DM0DOS-11 | 2026-08-30 11:48:21 | 48.91436 | 10.04425 | 44° | 31km/h | 19718m | 4.9m/s | -55.6°C | 4.4% | 61.3hPa | 2.7V | 08:30:00 | 01:29:59 | 00:00:00 | |
| DK7TD | 2026-08-30 11:48:18 | 48.91424 | 10.04409 | 38° | 35km/h | 19709m | 5.1m/s | -55.5°C | 0.7% | 61.4hPa | 2.7V | 18:12:15 | 01:29:57 | 00:00:00 | |
| HSKMA3-T | 2026-08-30 11:48:14 | 48.91394 | 10.04374 | 37° | 35km/h | 19690m | 5.5m/s | -55.5°C | 0.7% | 61.6hPa | 2.6V | 18:12:15 | 01:29:53 | 00:00:00 | |
| DM0DOS-11 | 2026-08-30 11:48:11 | 48.91369 | 10.04348 | 34° | 27km/h | 19669m | 4.9m/s | -55.7°C | 4.4% | 61.8hPa | 2.6V | 08:30:00 | 01:29:49 | 00:00:00 | |
| DK7TD | 2026-08-30 11:48:08 | 48.91358 | 10.04337 | 27° | 26km/h | 19659m | 5.8m/s | -55.6°C | 0.7% | 61.9hPa | 2.6V | 18:12:15 | 01:29:47 | 00:00:00 | |
| DJ8HS-15 | 2026-08-30 11:48:08 | 48.91358 | 10.04337 | 27° | 26km/h | 19659m | 5.8m/s | -55.6°C | 4.4% | 61.8hPa | 2.7V | 00:00:00 | 01:29:47 | 00:00:00 | |
| DF3TZ-5 | 2026-08-30 11:48:03 | 48.91327 | 10.04310 | 30° | 31km/h | 19634m | 6.2m/s | -55.3°C | 1.2% | 62.1hPa | 2.7V | 00:00:00 | 00:00:00 | 00:00:00 | |
| DM0DOS-11 | 2026-08-30 11:48:01 | 48.91306 | 10.04294 | 28° | 31km/h | 19617m | 5.8m/s | -55.5°C | 4.4% | 62.3hPa | 2.7V | 08:30:00 | 01:29:39 | 00:00:00 | |
| HSKMA3-T | 2026-08-30 11:48:01 | 48.91313 | 10.04299 | 27° | 31km/h | 19623m | 4.9m/s | -55.4°C | 0.7% | 62.3hPa | 2.7V | 18:12:15 | 01:29:40 | 00:00:00 | |
| DK7TD | 2026-08-30 11:47:57 | 48.91287 | 10.04281 | 14° | 26km/h | 19603m | 5.7m/s | -55.3°C | 0.7% | 62.4hPa | 2.6V | 18:12:15 | 01:29:36 | 00:00:00 | |
| NBG1-10 | 2026-08-30 11:47:53 | 48.91266 | 10.04272 | 25° | 18km/h | 19583m | 4.3m/s | -55.2°C | 4.2% | 62.6hPa | 2.6V | 00:00:00 | 01:29:32 | 00:00:00 | |
| DM0DOS-11 | 2026-08-30 11:47:51 | 48.91250 | 10.04262 | 18° | 24km/h | 19568m | 4.9m/s | -55.4°C | 4.3% | 62.8hPa | 2.6V | 08:30:00 | 01:29:29 | 00:00:00 | |
| HSKMA3-T | 2026-08-30 11:47:51 | 48.91255 | 10.04265 | 21° | 22km/h | 19573m | 5.5m/s | -55.3°C | 0.6% | 62.8hPa | 2.6V | 18:12:15 | 01:29:30 | 00:00:00 | |
| DK7TD | 2026-08-30 11:47:47 | 48.91232 | 10.04252 | 21° | 27km/h | 19553m | 4.1m/s | -55.4°C | 0.6% | 62.9hPa | 2.6V | 18:12:15 | 01:29:26 | 00:00:00 | |
| DB0ND-19 | 2026-08-30 11:47:46 | 48.91225 | 10.04248 | 16° | 27km/h | 19548m | 5.2m/s | -55.6°C | 1.2% | 63.0hPa | 2.6V | 00:00:00 | 00:00:00 | 00:00:00 | |
| HSKMA3-T | 2026-08-30 11:47:40 | 48.91194 | 10.04248 | 347° | 16km/h | 19518m | 5.9m/s | 0°C | 0% | 63.3hPa | 2.6V | 18:12:15 | 01:29:19 | 00:00:00 | |
| DK7TD | 2026-08-30 11:47:36 | 48.91176 | 10.04249 | 10° | 20km/h | 19499m | 4.1m/s | -55.6°C | 0.6% | 63.5hPa | 2.6V | 18:12:15 | 01:29:15 | 00:00:00 | |
| DC4HF-4 | 2026-08-30 11:47:35 | 48.91171 | 10.04248 | 8° | 22km/h | 19494m | 5.6m/s | 0°C | -1.0% | 63.5hPa | 2.6V | 00:00:00 | 00:00:00 | 00:00:00 | |
| DN1GJH-1 | 2026-08-30 11:47:33 | 48.91165 | 10.04247 | 6° | 24km/h | 19489m | 4.6m/s | -55.7°C | 1.2% | 63.6hPa | 2.6V | 00:00:00 | 00:00:00 | 00:00:00 | |
| DM0DOS-11 | 2026-08-30 11:47:31 | 48.91146 | 10.04247 | 346° | 13km/h | 19469m | 5.9m/s | -55.8°C | 4.4% | 63.8hPa | 2.6V | 08:30:00 | 01:29:09 | 00:00:00 | |
| HSKMA3-T | 2026-08-30 11:47:29 | 48.91143 | 10.04248 | 334° | 11km/h | 19464m | 5.6m/s | 0°C | 0% | 63.8hPa | 2.6V | 18:12:15 | 01:29:08 | 00:00:00 | |
| DK7TD | 2026-08-30 11:47:25 | 48.91138 | 10.04253 | 350° | 7km/h | 19443m | 5.4m/s | -56°C | 0.8% | 64.1hPa | 2.7V | 18:12:15 | 01:29:04 | 00:00:00 | |
| OE5DRO-10 | 2026-08-30 11:47:24 | 48.91136 | 10.04253 | 1° | 16km/h | 19439m | 4.9m/s | -56.0°C | 4.5% | 64.0hPa | 2.7V | 00:00:00 | 00:00:00 | 00:00:00 | |
| DM0DOS-11 | 2026-08-30 11:47:21 | 48.91120 | 10.04244 | 32° | 18km/h | 19418m | 3.8m/s | -55.8°C | 4.4% | 64.3hPa | 2.7V | 08:30:00 | 01:28:59 | 00:00:00 | |
| HSKMA3-T | 2026-08-30 11:47:19 | 48.91116 | 10.04241 | 30° | 18km/h | 19413m | 5.7m/s | 0°C | 0% | 0hPa | 2.7V | 18:12:15 | 01:28:58 | 00:00:00 | |
| DK7TD | 2026-08-30 11:47:14 | 48.91104 | 10.04232 | 9° | 7km/h | 19387m | 5.4m/s | -55.8°C | 0.8% | 64.6hPa | 2.7V | 18:12:15 | 01:28:53 | 00:00:00 | |
| DM0DOS-11 | 2026-08-30 11:47:13 | 48.91099 | 10.04231 | 6° | 7km/h | 19367m | 5.4m/s | -55.8°C | 4.5% | 64.8hPa | 2.6V | 08:30:00 | 01:28:49 | 00:00:00 | |
| HSKMA3-T | 2026-08-30 11:47:09 | 48.91096 | 10.04230 | 8° | 11km/h | 19362m | 5.4m/s | 0°C | 0% | 0hPa | 2.6V | 18:12:15 | 01:28:48 | 00:00:00 | |
| DK7TD | 2026-08-30 11:47:04 | 48.91078 | 10.04223 | 14° | 16km/h | 19336m | 5.5m/s | -55.6°C | 0.7% | 65.1hPa | 2.6V | 18:12:15 | 01:28:43 | 00:00:00 | |
| DM0DOS-11 | 2026-08-30 11:47:03 | 48.91066 | 10.04216 | 36° | 11km/h | 19315m | 5.8m/s | -55.7°C | 4.4% | 65.3hPa | 2.6V | 08:30:00 | 01:28:39 | 00:00:00 | |
| HSKMA3-T | 2026-08-30 11:46:58 | 48.91062 | 10.04211 | 40° | 11km/h | 19305m | 4.9m/s | 0°C | 0% | 0hPa | 2.6V | 18:12:15 | 01:28:37 | 00:00:00 | |
| DK7TD | 2026-08-30 11:46:53 | 48.91044 | 10.04198 | 15° | 26km/h | 19280m | 4.5m/s | -56°C | 0.8% | 65.7hPa | 2.6V | 18:12:15 | 01:28:32 | 00:00:00 | |
| DM0DOS-11 | 2026-08-30 11:46:52 | 48.91026 | 10.04189 | 22° | 22km/h | 19266m | 3.9m/s | -55.8°C | 4.4% | 65.8hPa | 2.7V | 08:30:00 | 01:28:29 | 00:00:00 | |
| HSKMA3-T | 2026-08-30 11:46:47 | 48.91010 | 10.04177 | 31° | 24km/h | 19252m | 5.1m/s | 0°C | 0% | 0hPa | 2.6V | 18:12:15 | 01:28:26 | 00:00:00 | |
| DK7TD | 2026-08-30 11:46:43 | 48.90993 | 10.04162 | 26° | 18km/h | 19232m | 5.3m/s | -55.6°C | 0.7% | 66.2hPa | 2.6V | 18:12:15 | 01:28:22 | 00:00:00 | |
| HSKMA3-T | 2026-08-30 11:46:36 | 48.90961 | 10.04142 | 40° | 18km/h | 19197m | 4.9m/s | 0°C | 0% | 0hPa | 2.6V | 18:12:15 | 01:28:15 | 00:00:00 | |
| DK7TD | 2026-08-30 11:46:33 | 48.90950 | 10.04127 | 36° | 18km/h | 19182m | 5.6m/s | -55.4°C | 0.8% | 66.7hPa | 2.7V | 18:12:15 | 01:28:12 | 00:00:00 | |
| DM0DOS-11 | 2026-08-30 11:46:32 | 48.90936 | 10.04115 | 32° | 15km/h | 19161m | 5.7m/s | -55.4°C | 4.3% | 67hPa | 2.6V | 08:30:00 | 01:28:08 | 00:00:00 | |
| HSKMA3-T | 2026-08-30 11:46:25 | 48.90923 | 10.04110 | 350° | 15km/h | 19140m | 4.5m/s | 0°C | 0% | 0hPa | 2.6V | 18:12:15 | 01:28:04 | 00:00:00 | |
| DM0DOS-11 | 2026-08-30 11:46:24 | 48.90911 | 10.04098 | 86° | 11km/h | 19110m | 4.3m/s | -55.4°C | 4.3% | 67.5hPa | 2.6V | 08:30:00 | 01:27:58 | 00:00:00 | |
| DK7TD | 2026-08-30 11:46:22 | 48.90914 | 10.04108 | 42° | 9km/h | 19126m | 4.9m/s | -55.5°C | 0.8% | 67.3hPa | 2.7V | 18:12:15 | 01:28:01 | 00:00:00 | |
| DO3MHA-12 | 2026-08-30 11:46:20 | 48.90912 | 10.04102 | 86° | 9km/h | 19115m | 4.8m/s | -55.4°C | 4.4% | 67.4hPa | 2.7V | 00:00:00 | 01:27:59 | 00:00:00 | |
| SONCRA | 2026-08-30 11:46:16 | 48.90908 | 10.04082 | 69° | 5km/h | 19091m | 5.5m/s | -55.4°C | 1.2% | 67.7hPa | 2.7V | 00:00:00 | 00:00:00 | 00:00:00 | |
| OE9MKV-15 | 2026-08-30 11:46:15 | 48.90908 | 10.04082 | 70° | 11km/h | 19091m | 5.4m/s | -55.3°C | 4.3% | 67.6hPa | 2.7V | 00:00:00 | 01:27:54 | 00:00:00 | |
| DM0DOS-11 | 2026-08-30 11:46:14 | 48.90903 | 10.04073 | 64° | 7km/h | 19063m | 5.1m/s | -55.4°C | 4.3% | 68hPa | 2.7V | 08:30:00 | 01:27:48 | 00:00:00 | |
| HSKMA3-T | 2026-08-30 11:46:12 | 48.90906 | 10.04078 | 21° | 5km/h | 19077m | 5.2m/s | 0°C | 0% | 0hPa | 2.6V | 18:12:15 | 01:27:51 | 00:00:00 | |
| DB0UT-7 | 2026-08-30 11:46:12 | 48.90906 | 10.04078 | 22° | 13km/h | 19078m | 5.2m/s | -55.3°C | 4.3% | 67.8hPa | 2.7V | 00:00:00 | 01:27:51 | 00:00:00 | |
| DN1GJH-1 | 2026-08-30 11:46:11 | 48.90906 | 10.04078 | 22° | 5km/h | 19078m | 5.2m/s | -55.3°C | 1.3% | 67.8hPa | 2.7V | 00:00:00 | 00:00:00 | 00:00:00 | |
| DO3MHA-12 | 2026-08-30 11:46:10 | 48.90904 | 10.04075 | 52° | 11km/h | 19068m | 5.6m/s | -55.2°C | 4.2% | 67.9hPa | 2.7V | 00:00:00 | 01:27:49 | 00:00:00 | |
| OE5DXL-15 | 2026-08-30 11:46:09 | 48.90903 | 10.04073 | 65° | 15km/h | 19063m | 5.1m/s | -55.3°C | 4.3% | 68.0hPa | 2.6V | 00:00:00 | 00:00:00 | 00:00:00 | |
| DJ8HS-15 | 2026-08-30 11:46:08 | 48.90901 | 10.04070 | 62° | 13km/h | 19058m | 4.8m/s | -55.3°C | 4.3% | 68.0hPa | 2.6V | 00:00:00 | 01:27:47 | 00:00:00 | |
| OE5DRO-10 | 2026-08-30 11:46:05 | 48.90897 | 10.04058 | 59° | 13km/h | 19043m | 5.7m/s | -55.3°C | 4.4% | 68.1hPa | 2.6V | 00:00:00 | 00:00:00 | 08:30:00 | |
| DF7PN | 2026-08-30 11:46:04 | 48.90895 | 10.04055 | 60° | 11km/h | 19037m | 4.9m/s | -55.5°C | 1.3% | 68.3hPa | 2.7V | 00:00:00 | 00:00:00 | 00:00:00 | |
| DM0DOS-11 | 2026-08-30 11:46:03 | 48.90887 | 10.04046 | 358° | 5km/h | 19013m | 5.2m/s | -55.6°C | 4.4% | 68.5hPa | 2.7V | 08:30:00 | 01:27:38 | 00:00:00 | |
| DK7TD | 2026-08-30 11:46:02 | 48.90892 | 10.04048 | 41° | 9km/h | 19028m | 5.6m/s | -55.5°C | 0.8% | 68.4hPa | 2.6V | 18:12:15 | 01:27:41 | 00:00:00 | |
| HSKMA3-T | 2026-08-30 11:46:01 | 48.90890 | 10.04047 | 22° | 9km/h | 19023m | 4.4m/s | 0°C | 0% | 0hPa | 2.6V | 18:12:15 | 01:27:40 | 00:00:00 | |
| DF3TZ-5 | 2026-08-30 11:45:59 | 48.90885 | 10.04046 | 12° | 4km/h | 19008m | 4.4m/s | -55.6°C | 1.2% | 68.6hPa | 2.6V | 00:00:00 | 00:00:00 | 00:00:00 | |
| DL9SK-14 | 2026-08-30 11:45:56 | 48.90878 | 10.04042 | 27° | 15km/h | 18993m | 4.3m/s | -55.6°C | 1.2% | 68.7hPa | 2.6V | 00:00:00 | 00:00:00 | 00:00:00 | |
| DL6DJ-15 | 2026-08-30 11:45:55 | 48.90878 | 10.04042 | 27° | 15km/h | 18993m | 4.3m/s | -55.6°C | 1.2% | 68.7hPa | 2.6V | 00:00:00 | 00:00:00 | 00:00:00 | |
| DM0DOS-11 | 2026-08-30 11:45:53 | 48.90858 | 10.04013 | 43° | 22km/h | 18962m | 4.2m/s | -55.4°C | 4.4% | 69.1hPa | 2.6V | 08:30:00 | 01:27:28 | 00:00:00 | |
| DK7TD | 2026-08-30 11:45:51 | 48.90866 | 10.04025 | 46° | 20km/h | 18971m | 5.9m/s | -55.5°C | 0.7% | 69hPa | 2.6V | 18:12:15 | 01:27:30 | 00:00:00 | |
| HSKMA3-T | 2026-08-30 11:45:49 | 48.90858 | 10.04013 | 44° | 22km/h | 18962m | 4.2m/s | 0°C | 0% | 0hPa | 2.6V | 18:12:15 | 01:27:28 | 00:00:00 | |
| DJ8HS-15 | 2026-08-30 11:45:48 | 48.90854 | 10.04008 | 42° | 20km/h | 18957m | 5.5m/s | -55.4°C | 4.4% | 69.1hPa | 2.7V | 00:00:00 | 01:27:27 | 00:00:00 | |
| OE5DRO-10 | 2026-08-30 11:45:46 | 48.90847 | 10.04000 | 27° | 20km/h | 18948m | 3.5m/s | -55.3°C | 4.4% | 69.2hPa | 2.7V | 00:00:00 | 00:00:00 | 00:00:00 | |
| OE9MKV-15 | 2026-08-30 11:45:45 | 48.90842 | 10.03997 | 18° | 22km/h | 18944m | 5.3m/s | -55.3°C | 4.4% | 69.2hPa | 2.7V | 00:00:00 | 01:27:24 | 00:00:00 | |
| DF1GD-15 | 2026-08-30 11:45:44 | 48.90842 | 10.03997 | 18° | 20km/h | 18944m | 5.3m/s | -55.4°C | 1.3% | 69.3hPa | 2.7V | 00:00:00 | 00:00:00 | 00:00:00 | |
| DM0DOS-11 | 2026-08-30 11:45:43 | 48.90810 | 10.03982 | 34° | 18km/h | 18915m | 4.5m/s | -55.6°C | 4.4% | 69.6hPa | 2.7V | 08:30:00 | 01:27:18 | 00:00:00 | |
| DK7TD | 2026-08-30 11:45:40 | 48.90814 | 10.03986 | 26° | 18km/h | 18920m | 4.5m/s | -55.6°C | 0.7% | 69.5hPa | 2.7V | 18:12:15 | 01:27:19 | 00:00:00 | |
| HSKMA3-T | 2026-08-30 11:45:38 | 48.90806 | 10.03978 | 39° | 18km/h | 18910m | 6m/s | 0°C | 0% | 0hPa | 2.6V | 18:12:15 | 01:27:17 | 00:00:00 | |
| KANTATE | 2026-08-30 11:45:37 | 48.90803 | 10.03973 | 44° | 20km/h | 18905m | 4.6m/s | -55.5°C | 1.3% | 69.7hPa | 2.7V | 00:00:00 | 00:00:00 | 00:00:00 | |
| AZAK | 2026-08-30 11:45:35 | 48.90796 | 10.03963 | 49° | 16km/h | 18895m | 5.0m/s | -55.4°C | 1.3% | 69.8hPa | 2.7V | 00:00:00 | 00:00:00 | 00:00:00 | |
| DF7PN | 2026-08-30 11:45:33 | 48.90790 | 10.03956 | 22° | 16km/h | 18886m | 5.8m/s | -55.3°C | 1.3% | 69.9hPa | 2.7V | 00:00:00 | 00:00:00 | 00:00:00 | |
| DM0DOS-11 | 2026-08-30 11:45:32 | 48.90766 | 10.03952 | 2° | 27km/h | 18866m | 5.2m/s | -55.2°C | 4.5% | 70.1hPa | 2.7V | 08:30:00 | 01:27:08 | 00:00:00 | |
| DK7TD | 2026-08-30 11:45:29 | 48.90766 | 10.03952 | 3° | 27km/h | 18866m | 5.2m/s | -55.2°C | 0.8% | 70.1hPa | 2.7V | 18:12:15 | 01:27:08 | 00:00:00 | |
| DJ8HS-15 | 2026-08-30 11:45:28 | 48.90759 | 10.03951 | 6° | 27km/h | 18861m | 5.0m/s | -55.1°C | 4.4% | 70.2hPa | 2.7V | 00:00:00 | 01:27:07 | 00:00:00 | |
| OE5DRO-10 | 2026-08-30 11:45:27 | 48.90752 | 10.03949 | 10° | 24km/h | 18856m | 4.6m/s | -55.1°C | 4.4% | 70.2hPa | 2.7V | 00:00:00 | 00:00:00 | 00:00:00 | |
| DL9SK-14 | 2026-08-30 11:45:25 | 48.90733 | 10.03939 | 28° | 26km/h | 18840m | 5.9m/s | -55.1°C | 1.3% | 70.4hPa | 2.7V | 00:00:00 | 00:00:00 | 00:00:00 | |
| DL6DJ-15 | 2026-08-30 11:45:24 | 48.90733 | 10.03939 | 28° | 26km/h | 18840m | 5.9m/s | -55.1°C | 1.3% | 70.4hPa | 2.7V | 00:00:00 | 00:00:00 | 00:00:00 | |
| DM0DOS-11 | 2026-08-30 11:45:23 | 48.90708 | 10.03912 | 27° | 20km/h | 18816m | 6m/s | -54.9°C | 4.3% | 70.7hPa | 2.7V | 08:30:00 | 01:26:58 | 00:00:00 | |
| DK7TD | 2026-08-30 11:45:19 | 48.90708 | 10.03912 | 28° | 20km/h | 18816m | 6m/s | -54.9°C | 0.7% | 70.7hPa | 2.7V | 18:12:15 | 01:26:58 | 00:00:00 | |
| HSKMA3-T | 2026-08-30 11:45:17 | 48.90699 | 10.03909 | 0° | 20km/h | 18806m | 4.9m/s | 0°C | 0% | 0hPa | 2.7V | 18:12:15 | 01:26:56 | 00:00:00 | |
| OE9MKV-15 | 2026-08-30 11:45:15 | 48.90686 | 10.03910 | 359° | 27km/h | 18796m | 4.5m/s | -54.7°C | 4.2% | 70.8hPa | 2.6V | 00:00:00 | 01:26:54 | 00:00:00 | |
| SONCRA | 2026-08-30 11:45:14 | 48.90671 | 10.03909 | 8° | 29km/h | 18785m | 5.7m/s | -54.8°C | 1.2% | 71.0hPa | 2.6V | 00:00:00 | 00:00:00 | 00:00:00 | |
| DM0DOS-11 | 2026-08-30 11:45:13 | 48.90641 | 10.03899 | 9° | 31km/h | 18764m | 4.8m/s | -54.6°C | 4.2% | 71.3hPa | 2.6V | 08:30:00 | 01:26:48 | 00:00:00 | |
| DK7TD | 2026-08-30 11:45:09 | 48.90641 | 10.03899 | 10° | 31km/h | 18764m | 4.8m/s | -54.6°C | 0.7% | 71.3hPa | 2.6V | 18:12:15 | 01:26:48 | 00:00:00 | |
| OE5DXL-15 | 2026-08-30 11:45:09 | 48.90641 | 10.03899 | 10° | 26km/h | 18764m | 4.8m/s | -54.6°C | 4.2% | 71.2hPa | 2.7V | 00:00:00 | 00:00:00 | 00:00:00 | |
| DJ8HS-15 | 2026-08-30 11:45:08 | 48.90633 | 10.03897 | 8° | 27km/h | 18759m | 5.3m/s | -54.5°C | 4.2% | 71.3hPa | 2.7V | 00:00:00 | 01:26:47 | 00:00:00 | |
| DM0DOS-11 | 2026-08-30 11:45:03 | 48.90573 | 10.03900 | 354° | 29km/h | 18714m | 5.6m/s | -54.3°C | 4.1% | 71.8hPa | 2.7V | 08:30:00 | 01:26:38 | 00:00:00 | |
| HSKMA3-T | 2026-08-30 11:44:59 | 48.90573 | 10.03900 | 355° | 29km/h | 18714m | 5.6m/s | 0°C | 0% | 0hPa | 2.7V | 18:12:15 | 01:26:38 | 00:00:00 | |
| DF3TZ-5 | 2026-08-30 11:44:56 | 48.90543 | 10.03901 | 4° | 27km/h | 18693m | 4.6m/s | -54.4°C | 1.2% | 72.0hPa | 2.7V | 00:00:00 | 00:00:00 | 00:00:00 | |
| DM0DOS-11 | 2026-08-30 11:44:53 | 48.90499 | 10.03900 | 358° | 26km/h | 18664m | 4.1m/s | -54.5°C | 4.2% | 72.4hPa | 2.7V | 08:30:00 | 01:26:28 | 00:00:00 | |
| DK7TD | 2026-08-30 11:44:49 | 48.90500 | 10.03900 | 358° | 26km/h | 18664m | 4.1m/s | -54.6°C | 0.6% | 72.4hPa | 2.7V | 18:12:15 | 01:26:28 | 00:00:00 | |
| DJ8HS-15 | 2026-08-30 11:44:48 | 48.90493 | 10.03900 | 357° | 20km/h | 18660m | 6.1m/s | -54.6°C | 4.2% | 72.4hPa | 2.7V | 00:00:00 | 01:26:27 | 00:00:00 | |
| OE9MKV-15 | 2026-08-30 11:44:45 | 48.90475 | 10.03903 | 351° | 22km/h | 18644m | 4.7m/s | -54.5°C | 4.2% | 72.5hPa | 2.7V | 00:00:00 | 01:26:24 | 00:00:00 | |
| SONCRA | 2026-08-30 11:44:43 | 48.90460 | 10.03908 | 347° | 20km/h | 18630m | 3.7m/s | -54.6°C | 1.2% | 72.8hPa | 2.7V | 00:00:00 | 00:00:00 | 00:00:00 | |
| DM0DOS-11 | 2026-08-30 11:44:42 | 48.90446 | 10.03912 | 356° | 16km/h | 18614m | 5.1m/s | -54.6°C | 4.2% | 72.9hPa | 2.7V | 08:30:00 | 01:26:18 | 00:00:00 | |
| HSKMA3-T | 2026-08-30 11:44:40 | 48.90451 | 10.03911 | 352° | 16km/h | 18619m | 5.2m/s | 0°C | 0% | 0hPa | 2.6V | 18:12:15 | 01:26:19 | 00:00:00 | |
| DK7TD | 2026-08-30 11:44:38 | 48.90442 | 10.03912 | 358° | 18km/h | 18609m | 5m/s | -54.5°C | 0.6% | 73hPa | 2.7V | 18:12:15 | 01:26:17 | 00:00:00 | |
| DL1ZP-14 | 2026-08-30 11:44:37 | 48.90438 | 10.03912 | 356° | 18km/h | 18605m | 4.4m/s | -54.6°C | 1.2% | 73.1hPa | 2.7V | 00:00:00 | 00:00:00 | 00:00:00 | |
| NBG1-10 | 2026-08-30 11:44:35 | 48.90429 | 10.03914 | 349° | 20km/h | 18595m | 4.3m/s | -54.5°C | 4.2% | 73.1hPa | 2.6V | 00:00:00 | 01:26:14 | 00:00:00 | |
| DM0DOS-11 | 2026-08-30 11:44:33 | 48.90395 | 10.03925 | 349° | 24km/h | 18564m | 5.4m/s | -54.7°C | 4.1% | 73.5hPa | 2.6V | 08:30:00 | 01:26:08 | 00:00:00 | |
| HSKMA3-T | 2026-08-30 11:44:29 | 48.90396 | 10.03925 | 349° | 24km/h | 18564m | 5.4m/s | 0°C | 0% | 0hPa | 2.6V | 18:12:15 | 01:26:08 | 00:00:00 | |
| DK7TD | 2026-08-30 11:44:28 | 48.90390 | 10.03927 | 346° | 24km/h | 18560m | 3.9m/s | -54.6°C | 0.6% | 73.6hPa | 2.7V | 18:12:15 | 01:26:07 | 00:00:00 | |
| DJ8HS-15 | 2026-08-30 11:44:28 | 48.90390 | 10.03927 | 346° | 20km/h | 18560m | 3.9m/s | -54.5°C | 4.1% | 73.6hPa | 2.7V | 00:00:00 | 01:26:07 | 08:30:00 | |
| DN1GJH-1 | 2026-08-30 11:44:27 | 48.90390 | 10.03927 | 347° | 24km/h | 18560m | 3.9m/s | -54.6°C | 1.2% | 73.6hPa | 2.7V | 00:00:00 | 00:00:00 | 00:00:00 | |
| DF3TZ-5 | 2026-08-30 11:44:25 | 48.90366 | 10.03945 | 325° | 20km/h | 18536m | 5.4m/s | -54.8°C | 1.2% | 73.8hPa | 2.7V | 00:00:00 | 00:00:00 | 00:00:00 | |
| DM0DOS-11 | 2026-08-30 11:44:22 | 48.90343 | 10.03959 | 345° | 24km/h | 18518m | 4.8m/s | -54.8°C | 4.3% | 74hPa | 2.7V | 08:30:00 | 01:25:58 | 00:00:00 | |
| DK7TD | 2026-08-30 11:44:17 | 48.90332 | 10.03965 | 336° | 22km/h | 18508m | 4.5m/s | -54.9°C | 0.8% | 74.2hPa | 2.6V | 18:12:15 | 01:25:56 | 00:00:00 | |
| OE5DRO-10 | 2026-08-30 11:44:16 | 48.90327 | 10.03969 | 335° | 16km/h | 18504m | 4.3m/s | -54.8°C | 4.4% | 74.2hPa | 2.6V | 00:00:00 | 00:00:00 | 00:00:00 | |
| OE9MKV-15 | 2026-08-30 11:44:15 | 48.90322 | 10.03972 | 336° | 15km/h | 18500m | 4.5m/s | -54.7°C | 4.4% | 74.2hPa | 2.6V | 00:00:00 | 01:25:54 | 00:00:00 | |
| AZAK | 2026-08-30 11:44:13 | 48.90312 | 10.03980 | 330° | 18km/h | 18490m | 6.0m/s | -54.8°C | 1.3% | 74.4hPa | 2.6V | 00:00:00 | 00:00:00 | 00:00:00 | |
| DM0DOS-11 | 2026-08-30 11:44:12 | 48.90302 | 10.03996 | 310° | 16km/h | 18470m | 5.1m/s | -54.6°C | 4.3% | 74.6hPa | 2.6V | 08:30:00 | 01:25:48 | 00:00:00 | |
| DK7TD | 2026-08-30 11:44:06 | 48.90294 | 10.04013 | 300° | 20km/h | 18455m | 5.4m/s | -54.6°C | 0.7% | 74.8hPa | 2.7V | 18:12:15 | 01:25:45 | 00:00:00 | |
| DM0DOS-11 | 2026-08-30 11:44:04 | 48.90274 | 10.04040 | 325° | 9km/h | 18419m | 5.7m/s | -54.3°C | 4.1% | 75.2hPa | 2.7V | 08:30:00 | 01:25:38 | 00:00:00 | |
| DK7TD | 2026-08-30 11:43:55 | 48.90268 | 10.04050 | 319° | 9km/h | 18399m | 4.5m/s | -54.1°C | 0.6% | 75.5hPa | 2.6V | 18:12:15 | 01:25:34 | 00:00:00 | |
| DF3TZ-5 | 2026-08-30 11:43:54 | 48.90262 | 10.04064 | 307° | 11km/h | 18372m | 5.3m/s | -54.0°C | 1.2% | 75.8hPa | 2.7V | 00:00:00 | 00:00:00 | 00:00:00 | |
| DL6DJ-15 | 2026-08-30 11:43:51 | 48.90262 | 10.04064 | 307° | 11km/h | 18372m | 5.3m/s | -54.0°C | 1.2% | 75.8hPa | 2.7V | 00:00:00 | 00:00:00 | 00:00:00 | |
| DM0DOS-11 | 2026-08-30 11:43:49 | 48.90258 | 10.04072 | 310° | 16km/h | 18364m | 4.3m/s | -54.1°C | 4.1% | 75.9hPa | 2.7V | 08:30:00 | 01:25:27 | 00:00:00 | |
| DK7TD | 2026-08-30 11:43:45 | 48.90251 | 10.04086 | 307° | 15km/h | 18348m | 6.1m/s | -54.2°C | 0.6% | 76.1hPa | 2.6V | 18:12:15 | 01:25:24 | 00:00:00 | |
| DK7TD | 2026-08-30 11:43:34 | 48.90245 | 10.04106 | 92° | 2km/h | 18288m | 5.6m/s | -53.7°C | 0.6% | 76.8hPa | 2.7V | 18:12:15 | 01:25:13 | 00:00:00 | |
| DK7TD | 2026-08-30 11:43:23 | 48.90248 | 10.04093 | 81° | 7km/h | 18233m | 5.1m/s | -53.4°C | 0.6% | 77.5hPa | 2.6V | 18:12:15 | 01:25:02 | 00:00:00 | |
| DM0DOS-11 | 2026-08-30 11:43:22 | 48.90250 | 10.04084 | 136° | 5km/h | 18210m | 5.2m/s | -53.2°C | 4% | 77.7hPa | 2.7V | 08:30:00 | 01:24:57 | 00:00:00 | |
| DK7TD | 2026-08-30 11:43:13 | 48.90253 | 10.04076 | 221° | 2km/h | 18185m | 4.6m/s | -52.9°C | 0.5% | 78hPa | 2.6V | 18:12:15 | 01:24:52 | 00:00:00 | |
| DM0DOS-11 | 2026-08-30 11:43:12 | 48.90252 | 10.04072 | 101° | 7km/h | 18160m | 5.5m/s | -52.8°C | 3.9% | 78.3hPa | 2.6V | 08:30:00 | 01:24:47 | 00:00:00 | |
| DB0UT-7 | 2026-08-30 11:43:12 | 48.90253 | 10.04076 | 293° | 11km/h | 18181m | 4.6m/s | -53.0°C | 3.9% | 78.0hPa | 2.7V | 00:00:00 | 01:24:51 | 00:00:00 | |
| SONCRA | 2026-08-30 11:43:10 | 48.90252 | 10.04074 | 88° | 5km/h | 18165m | 5.4m/s | -52.9°C | 1.2% | 78.3hPa | 2.7V | 00:00:00 | 00:00:00 | 00:00:00 | |
| OE5DXL-15 | 2026-08-30 11:43:09 | 48.90252 | 10.04074 | 89° | 13km/h | 18165m | 5.3m/s | -52.8°C | 3.9% | 78.2hPa | 2.7V | 00:00:00 | 00:00:00 | 00:00:00 | |
| DJ8HS-15 | 2026-08-30 11:43:08 | 48.90252 | 10.04071 | 102° | 13km/h | 18160m | 5.5m/s | -52.7°C | 3.9% | 78.3hPa | 2.7V | 00:00:00 | 01:24:47 | 00:00:00 | |
| DB0ND-19 | 2026-08-30 11:43:07 | 48.90253 | 10.04065 | 89° | 11km/h | 18149m | 5.7m/s | -52.8°C | 1.2% | 78.5hPa | 2.7V | 00:00:00 | 00:00:00 | 00:00:00 | |
| DN1GJH-1 | 2026-08-30 11:43:05 | 48.90253 | 10.04065 | 90° | 11km/h | 18149m | 5.7m/s | -52.8°C | 1.2% | 78.5hPa | 2.7V | 00:00:00 | 00:00:00 | 00:00:00 | |
| DL1ZP-14 | 2026-08-30 11:43:04 | 48.90252 | 10.04054 | 81° | 15km/h | 18138m | 4.0m/s | -52.6°C | 1.1% | 78.6hPa | 2.7V | 00:00:00 | 00:00:00 | 00:00:00 | |
| DG1MJG | 2026-08-30 11:43:03 | 48.90252 | 10.04054 | 83° | 16km/h | 18138m | 4.0m/s | -52.6°C | 1.1% | 78.6hPa | 2.6V | 00:00:00 | 00:00:00 | 00:00:00 | |
| DM0DOS-11 | 2026-08-30 11:43:02 | 48.90253 | 10.04045 | 303° | 2km/h | 18108m | 5m/s | -52.8°C | 4% | 78.9hPa | 2.6V | 08:30:00 | 01:24:37 | 00:00:00 | |
| DK7TD | 2026-08-30 11:43:02 | 48.90252 | 10.04044 | 101° | 9km/h | 18129m | 5.7m/s | -52.8°C | 0.5% | 78.7hPa | 2.6V | 18:12:15 | 01:24:41 | 00:00:00 | |
| DF7PN | 2026-08-30 11:42:58 | 48.90253 | 10.04045 | 303° | 2km/h | 18108m | 5.0m/s | -52.8°C | 1.2% | 79.0hPa | 2.7V | 00:00:00 | 00:00:00 | 00:00:00 | |
| NBG1-10 | 2026-08-30 11:42:56 | 48.90253 | 10.04042 | 117° | 16km/h | 18098m | 6.0m/s | -52.8°C | 4.0% | 79.0hPa | 2.7V | 00:00:00 | 01:24:35 | 00:00:00 | |
| DM0DOS-11 | 2026-08-30 11:42:52 | 48.90273 | 10.03991 | 121° | 18km/h | 18054m | 5.1m/s | -52.6°C | 3.8% | 79.6hPa | 2.7V | 08:30:00 | 01:24:27 | 00:00:00 | |
| DK7TD | 2026-08-30 11:42:52 | 48.90263 | 10.04016 | 117° | 22km/h | 18075m | 6.5m/s | -52.8°C | 0.5% | 79.4hPa | 2.6V | 18:12:15 | 01:24:31 | 00:00:00 | |
| DF3TZ-5 | 2026-08-30 11:42:52 | 48.90263 | 10.04016 | 116° | 20km/h | 18075m | 6.5m/s | -52.8°C | 1.2% | 79.4hPa | 2.7V | 00:00:00 | 00:00:00 | 00:00:00 | |
| DL9SK-14 | 2026-08-30 11:42:49 | 48.90270 | 10.03997 | 121° | 16km/h | 18059m | 6.0m/s | -52.6°C | 1.1% | 79.6hPa | 2.7V | 00:00:00 | 00:00:00 | 00:00:00 | |
| DJ8HS-15 | 2026-08-30 11:42:48 | 48.90273 | 10.03991 | 122° | 16km/h | 18054m | 5.1m/s | -52.6°C | 3.8% | 79.6hPa | 2.7V | 00:00:00 | 01:24:27 | 00:00:00 | |
| KANTATE | 2026-08-30 11:42:47 | 48.90273 | 10.03991 | 123° | 18km/h | 18054m | 5.1m/s | -52.6°C | 1.1% | 79.6hPa | 2.7V | 00:00:00 | 00:00:00 | 00:00:00 | |
| OE9MKV-15 | 2026-08-30 11:42:45 | 48.90278 | 10.03976 | 115° | 18km/h | 18040m | 4.0m/s | -52.3°C | 3.9% | 79.7hPa | 2.7V | 00:00:00 | 01:24:24 | 00:00:00 | |
| DM0DOS-11 | 2026-08-30 11:42:42 | 48.90291 | 10.03936 | 112° | 20km/h | 18005m | 6.2m/s | -52.1°C | 3.9% | 80.2hPa | 2.7V | 08:30:00 | 01:24:17 | 00:00:00 | |
| DK7TD | 2026-08-30 11:42:41 | 48.90284 | 10.03954 | 119° | 18km/h | 18020m | 5.5m/s | -52.2°C | 0.5% | 80.1hPa | 2.6V | 18:12:15 | 01:24:20 | 00:00:00 | |
| OE5DRO-10 | 2026-08-30 11:42:41 | 48.90284 | 10.03954 | 119° | 16km/h | 18020m | 5.5m/s | -52.2°C | 3.8% | 80.0hPa | 2.6V | 00:00:00 | 00:00:00 | 00:00:00 | |
| DO3MHA-12 | 2026-08-30 11:42:40 | 48.90286 | 10.03948 | 121° | 16km/h | 18015m | 4.4m/s | -52.1°C | 3.8% | 80.1hPa | 2.6V | 00:00:00 | 01:24:19 | 00:00:00 | |
| OE5DXL-15 | 2026-08-30 11:42:39 | 48.90289 | 10.03942 | 118° | 20km/h | 18011m | 4.2m/s | -52.1°C | 3.9% | 80.1hPa | 2.6V | 00:00:00 | 01:24:18 | 08:30:00 | |
| SONCRA | 2026-08-30 11:42:38 | 48.90291 | 10.03935 | 112° | 20km/h | 18005m | 6.2m/s | -52.1°C | 1.1% | 80.3hPa | 2.6V | 00:00:00 | 00:00:00 | 00:00:00 | |
| DB0ND-19 | 2026-08-30 11:42:36 | 48.90296 | 10.03915 | 116° | 15km/h | 17991m | 5.3m/s | -51.9°C | 1.1% | 80.4hPa | 2.6V | 00:00:00 | 00:00:00 | 00:00:00 | |
| DL1ZP-14 | 2026-08-30 11:42:33 | 48.90300 | 10.03905 | 120° | 13km/h | 17982m | 3.9m/s | -52.0°C | 1.1% | 80.5hPa | 2.6V | 00:00:00 | 00:00:00 | 00:00:00 | |
| DM0DOS-11 | 2026-08-30 11:42:32 | 48.90308 | 10.03879 | 124° | 16km/h | 17958m | 3.8m/s | -51.8°C | 3.7% | 80.8hPa | 2.6V | 08:30:00 | 01:24:07 | 00:00:00 | |
| DK7TD | 2026-08-30 11:42:31 | 48.90303 | 10.03895 | 109° | 15km/h | 17972m | 4.9m/s | -51.9°C | 0.4% | 80.6hPa | 2.7V | 18:12:15 | 01:24:10 | 00:00:00 | |
| DO3MHA-12 | 2026-08-30 11:42:30 | 48.90304 | 10.03890 | 114° | 16km/h | 17968m | 4.4m/s | -51.7°C | 3.7% | 80.7hPa | 2.6V | 00:00:00 | 01:24:09 | 00:00:00 | |
| DJ8HS-15 | 2026-08-30 11:42:28 | 48.90308 | 10.03879 | 125° | 22km/h | 17959m | 3.7m/s | -51.8°C | 3.7% | 80.8hPa | 2.6V | 00:00:00 | 01:24:07 | 00:00:00 | |
| DF7PN | 2026-08-30 11:42:27 | 48.90310 | 10.03874 | 121° | 15km/h | 17954m | 4.8m/s | -51.7°C | 1.1% | 80.9hPa | 2.6V | 00:00:00 | 00:00:00 | 00:00:00 | |
| DN1GJH-1 | 2026-08-30 11:42:25 | 48.90312 | 10.03869 | 113° | 15km/h | 17949m | 6.0m/s | -51.7°C | 1.1% | 80.9hPa | 2.6V | 00:00:00 | 00:00:00 | 00:00:00 | |
| NBG1-10 | 2026-08-30 11:42:23 | 48.90316 | 10.03851 | 114° | 27km/h | 17935m | 5.3m/s | -51.5°C | 3.7% | 81.1hPa | 2.6V | 00:00:00 | 01:24:02 | 00:00:00 | |
| DM0DOS-11 | 2026-08-30 11:42:22 | 48.90330 | 10.03811 | 115° | 26km/h | 17909m | 4.8m/s | -51.4°C | 3.6% | 81.5hPa | 2.6V | 08:30:00 | 01:23:57 | 00:00:00 | |
| OE5DRO-10 | 2026-08-30 11:42:22 | 48.90318 | 10.03845 | 121° | 24km/h | 17930m | 4.9m/s | -51.5°C | 3.7% | 81.1hPa | 2.6V | 00:00:00 | 00:00:00 | 08:30:00 | |
| DF3TZ-5 | 2026-08-30 11:42:21 | 48.90324 | 10.03830 | 118° | 26km/h | 17919m | 5.9m/s | -51.5°C | 1.1% | 81.3hPa | 2.7V | 00:00:00 | 00:00:00 | 00:00:00 | |
| DK7TD | 2026-08-30 11:42:21 | 48.90321 | 10.03838 | 122° | 24km/h | 17924m | 4.8m/s | -51.5°C | 0.4% | 81.2hPa | 2.7V | 18:12:15 | 01:24:00 | 00:00:00 | |
| DO3MHA-12 | 2026-08-30 11:42:20 | 48.90324 | 10.03830 | 119° | 24km/h | 17919m | 5.9m/s | -51.4°C | 3.6% | 81.3hPa | 2.7V | 00:00:00 | 01:23:59 | 00:00:00 | |
| DF1GD-15 | 2026-08-30 11:42:19 | 48.90323 | 10.03830 | 120° | 27km/h | 17919m | 5.9m/s | -51.5°C | 1.1% | 81.3hPa | 2.7V | 00:00:00 | 00:00:00 | 00:00:00 | |
| DL9SK-14 | 2026-08-30 11:42:18 | 48.90330 | 10.03811 | 115° | 26km/h | 17910m | 4.8m/s | -51.4°C | 1.1% | 81.5hPa | 2.7V | 00:00:00 | 00:00:00 | 00:00:00 | |
| DL6DJ-15 | 2026-08-30 11:42:17 | 48.90333 | 10.03803 | 118° | 22km/h | 17905m | 5.3m/s | -51.4°C | 1.1% | 81.5hPa | 2.7V | 00:00:00 | 00:00:00 | 00:00:00 | |
| OE9MKV-15 | 2026-08-30 11:42:15 | 48.90338 | 10.03790 | 120° | 29km/h | 17895m | 5.5m/s | -51.3°C | 3.6% | 81.6hPa | 2.7V | 00:00:00 | 01:23:54 | 08:30:00 | |
| DM0DOS-11 | 2026-08-30 11:42:12 | 48.90348 | 10.03726 | 102° | 26km/h | 17857m | 4.6m/s | -51.5°C | 3.5% | 82.1hPa | 2.7V | 08:30:00 | 01:23:47 | 00:00:00 | |
| DK7TD | 2026-08-30 11:42:10 | 48.90345 | 10.03747 | 102° | 31km/h | 17868m | 5.2m/s | -51.5°C | 0.3% | 81.9hPa | 2.7V | 18:12:15 | 01:23:49 | 00:00:00 | |
| OE5DXL-15 | 2026-08-30 11:42:09 | 48.90347 | 10.03736 | 105° | 33km/h | 17863m | 6.1m/s | -51.4°C | 3.5% | 81.9hPa | 2.7V | 00:00:00 | 00:00:00 | 00:00:00 | |
| DJ8HS-15 | 2026-08-30 11:42:08 | 48.90348 | 10.03726 | 103° | 29km/h | 17857m | 4.6m/s | -51.5°C | 3.5% | 82.0hPa | 2.7V | 00:00:00 | 01:23:47 | 00:00:00 | |
| SONCRA | 2026-08-30 11:42:07 | 48.90349 | 10.03717 | 97° | 24km/h | 17852m | 5.7m/s | -51.5°C | 1.1% | 82.2hPa | 2.7V | 00:00:00 | 00:00:00 | 00:00:00 | |
| DN1GJH-1 | 2026-08-30 11:42:05 | 48.90350 | 10.03699 | 92° | 24km/h | 17841m | 5.1m/s | -51.7°C | 1.1% | 82.3hPa | 2.7V | 00:00:00 | 00:00:00 | 00:00:00 | |
| DG1MJG | 2026-08-30 11:42:03 | 48.90351 | 10.03680 | 102° | 27km/h | 17830m | 4.8m/s | -51.6°C | 1.0% | 82.4hPa | 2.7V | 00:00:00 | 00:00:00 | 00:00:00 | |
| DM0DOS-11 | 2026-08-30 11:42:02 | 48.90356 | 10.03621 | 91° | 38km/h | 17806m | 5.2m/s | -51.7°C | 3.4% | 82.7hPa | 2.7V | 08:30:00 | 01:23:37 | 00:00:00 | |
| DK7TD | 2026-08-30 11:41:59 | 48.90355 | 10.03635 | 92° | 35km/h | 17811m | 4.7m/s | -51.7°C | 0.2% | 82.6hPa | 2.7V | 18:12:15 | 01:23:38 | 00:00:00 | |
| DF7PN | 2026-08-30 11:41:56 | 48.90357 | 10.03580 | 90° | 31km/h | 17792m | 4.7m/s | -51.8°C | 1.0% | 82.9hPa | 2.7V | 00:00:00 | 00:00:00 | 00:00:00 | |
| DM0DOS-11 | 2026-08-30 11:41:52 | 48.90351 | 10.03496 | 79° | 38km/h | 17757m | 4.6m/s | -54.1°C | 4% | 83.4hPa | 2.7V | 08:30:00 | 01:23:27 | 00:00:00 | |
| DK7TD | 2026-08-30 11:41:48 | 48.90351 | 10.03496 | 79° | 38km/h | 17757m | 4.6m/s | -54.1°C | 0.6% | 83.4hPa | 2.7V | 18:12:15 | 01:23:27 | 00:00:00 | |
| DL9SK-14 | 2026-08-30 11:41:47 | 48.90349 | 10.03481 | 77° | 40km/h | 17753m | 3.6m/s | -54.3°C | 1.3% | 83.4hPa | 2.7V | 00:00:00 | 00:00:00 | 00:00:00 | |
| AZAK | 2026-08-30 11:41:46 | 48.90349 | 10.03481 | 78° | 40km/h | 17754m | 3.6m/s | -54.3°C | 1.3% | 83.4hPa | 2.7V | 00:00:00 | 00:00:00 | 00:00:00 | |
| OE9MKV-15 | 2026-08-30 11:41:45 | 48.90344 | 10.03451 | 74° | 42km/h | 17744m | 4.6m/s | -54.3°C | 4.1% | 83.5hPa | 2.7V | 00:00:00 | 01:23:24 | 00:00:00 | |
| OE5DRO-10 | 2026-08-30 11:41:44 | 48.90340 | 10.03436 | 73° | 44km/h | 17739m | 4.8m/s | -54.2°C | 4.1% | 83.6hPa | 2.7V | 00:00:00 | 00:00:00 | 00:00:00 | |
| DN1GJH-1 | 2026-08-30 11:41:43 | 48.90341 | 10.03436 | 73° | 44km/h | 17739m | 4.8m/s | -54.3°C | 1.3% | 83.6hPa | 2.7V | 00:00:00 | 00:00:00 | 00:00:00 | |
| DM0DOS-11 | 2026-08-30 11:41:42 | 48.90317 | 10.03348 | 61° | 38km/h | 17711m | 5.1m/s | -54.4°C | 4% | 83.9hPa | 2.7V | 08:30:00 | 01:23:17 | 00:00:00 | |
| DK7TD | 2026-08-30 11:41:37 | 48.90312 | 10.03335 | 63° | 40km/h | 17706m | 4.1m/s | -54.6°C | 0.6% | 84hPa | 2.7V | 18:12:15 | 01:23:16 | 00:00:00 | |
| SONCRA | 2026-08-30 11:41:36 | 48.90308 | 10.03321 | 64° | 38km/h | 17702m | 4.4m/s | -54.7°C | 1.3% | 84.1hPa | 2.6V | 00:00:00 | 00:00:00 | 00:00:00 | |
| DB0ND-19 | 2026-08-30 11:41:34 | 48.90295 | 10.03278 | 65° | 44km/h | 17689m | 4.1m/s | -55.0°C | 1.3% | 84.2hPa | 2.6V | 00:00:00 | 00:00:00 | 00:00:00 | |
| DM0DOS-11 | 2026-08-30 11:41:32 | 48.90269 | 10.03191 | 72° | 47km/h | 17666m | 4.3m/s | -54.9°C | 4.3% | 84.5hPa | 2.6V | 08:30:00 | 01:23:07 | 00:00:00 | |
| DK7TD | 2026-08-30 11:41:27 | 48.90266 | 10.03174 | 76° | 46km/h | 17662m | 4.5m/s | -55.1°C | 0.8% | 84.6hPa | 2.7V | 18:12:15 | 01:23:06 | 00:00:00 | |
| AZAK | 2026-08-30 11:41:26 | 48.90266 | 10.03174 | 77° | 46km/h | 17662m | 4.5m/s | -55.1°C | 1.3% | 84.6hPa | 2.7V | 00:00:00 | 00:00:00 | 00:00:00 | |
| DF7PN | 2026-08-30 11:41:25 | 48.90259 | 10.03123 | 77° | 42km/h | 17648m | 4.6m/s | -55.1°C | 1.3% | 84.8hPa | 2.7V | 00:00:00 | 00:00:00 | 00:00:00 | |
| DM0DOS-11 | 2026-08-30 11:41:22 | 48.90239 | 10.03042 | 65° | 38km/h | 17620m | 5.3m/s | -55.2°C | 4.3% | 85.2hPa | 2.7V | 08:30:00 | 01:22:57 | 00:00:00 | |
| DK7TD | 2026-08-30 11:41:17 | 48.90235 | 10.03029 | 66° | 40km/h | 17615m | 4.5m/s | -55.2°C | 0.8% | 85.2hPa | 2.6V | 18:12:15 | 01:22:56 | 00:00:00 | |
| NBG1-10 | 2026-08-30 11:41:17 | 48.90235 | 10.03029 | 67° | 42km/h | 17615m | 4.5m/s | -55.1°C | 4.3% | 85.2hPa | 2.7V | 00:00:00 | 01:22:56 | 00:00:00 | |
| DL9SK-14 | 2026-08-30 11:41:16 | 48.90231 | 10.03014 | 66° | 42km/h | 17610m | 5.2m/s | -55.3°C | 1.4% | 85.3hPa | 2.7V | 00:00:00 | 00:00:00 | 00:00:00 | |
| OE9MKV-15 | 2026-08-30 11:41:15 | 48.90227 | 10.02999 | 68° | 42km/h | 17605m | 5.0m/s | -55.2°C | 4.2% | 85.3hPa | 2.7V | 00:00:00 | 01:22:54 | 00:00:00 | |
| DB0UT-7 | 2026-08-30 11:41:12 | 48.90215 | 10.02949 | 72° | 40km/h | 17592m | 4.3m/s | -55.2°C | 4.2% | 85.5hPa | 2.7V | 00:00:00 | 01:22:51 | 00:00:00 | |
| DM0DOS-11 | 2026-08-30 11:41:08 | 48.90199 | 10.02890 | 64° | 42km/h | 17573m | 4.7m/s | -55.4°C | 4.3% | 85.8hPa | 2.7V | 08:30:00 | 01:22:47 | 00:00:00 | |
| DK7TD | 2026-08-30 11:41:07 | 48.90195 | 10.02876 | 66° | 40km/h | 17567m | 5.7m/s | -55.4°C | 0.8% | 85.8hPa | 2.7V | 18:12:15 | 01:22:46 | 00:00:00 | |
| SONCRA | 2026-08-30 11:41:05 | 48.90187 | 10.02849 | 65° | 37km/h | 17558m | 4.1m/s | -55.5°C | 1.4% | 86.0hPa | 2.8V | 00:00:00 | 00:00:00 | 00:00:00 | |
| DB0ND-19 | 2026-08-30 11:41:03 | 48.90173 | 10.02809 | 59° | 38km/h | 17544m | 5.7m/s | -55.6°C | 1.4% | 86.2hPa | 2.8V | 00:00:00 | 00:00:00 | 00:00:00 | |
| DM0DOS-11 | 2026-08-30 11:41:02 | 48.90147 | 10.02753 | 52° | 49km/h | 17523m | 4.4m/s | -56°C | 4.5% | 86.5hPa | 2.8V | 08:30:00 | 01:22:37 | 00:00:00 | |
| DK7TD | 2026-08-30 11:40:56 | 48.90132 | 10.02724 | 53° | 46km/h | 17513m | 4.6m/s | -56.1°C | 0.9% | 86.6hPa | 2.7V | 18:12:15 | 01:22:35 | 00:00:00 | |
| DF7PN | 2026-08-30 11:40:54 | 48.90112 | 10.02682 | 57° | 46km/h | 17497m | 4.4m/s | -56.0°C | 1.4% | 86.8hPa | 2.7V | 00:00:00 | 00:00:00 | 00:00:00 | |
| DM0DOS-11 | 2026-08-30 11:40:52 | 48.90088 | 10.02616 | 64° | 35km/h | 17472m | 5.5m/s | -56°C | 4.5% | 87.2hPa | 2.7V | 08:30:00 | 01:22:27 | 00:00:00 | |
| DK7TD | 2026-08-30 11:40:45 | 48.90077 | 10.02581 | 60° | 33km/h | 17457m | 4.8m/s | -56.1°C | 1% | 87.3hPa | 2.7V | 18:12:15 | 01:22:24 | 00:00:00 | |
| OE9MKV-15 | 2026-08-30 11:40:45 | 48.90077 | 10.02581 | 61° | 40km/h | 17457m | 4.8m/s | -56.0°C | 4.6% | 87.3hPa | 2.7V | 00:00:00 | 01:22:24 | 00:00:00 | |
| NBG1-10 | 2026-08-30 11:40:44 | 48.90072 | 10.02570 | 58° | 40km/h | 17453m | 3.9m/s | -56.1°C | 4.6% | 87.4hPa | 2.7V | 00:00:00 | 01:22:23 | 00:00:00 | |
| DM0DOS-11 | 2026-08-30 11:40:42 | 48.90034 | 10.02496 | 49° | 44km/h | 17421m | 5.8m/s | -56.2°C | 4.6% | 87.8hPa | 2.7V | 08:30:00 | 01:22:17 | 00:00:00 | |
| DK7TD | 2026-08-30 11:40:34 | 48.90008 | 10.02449 | 52° | 35km/h | 17401m | 4.3m/s | -56.4°C | 1% | 88.1hPa | 2.7V | 18:12:15 | 01:22:13 | 00:00:00 | |
| DK7TD | 2026-08-30 11:40:24 | 48.89951 | 10.02336 | 48° | 42km/h | 17353m | 5.6m/s | -56.2°C | 0.9% | 88.8hPa | 2.7V | 18:12:15 | 01:22:03 | 00:00:00 | |
| DF7PN | 2026-08-30 11:40:23 | 48.89937 | 10.02313 | 48° | 40km/h | 17343m | 5.7m/s | -56.1°C | 1.4% | 89.0hPa | 2.7V | 00:00:00 | 00:00:00 | 00:00:00 | |
| DM0DOS-11 | 2026-08-30 11:40:22 | 48.89911 | 10.02263 | 54° | 42km/h | 17322m | 4.2m/s | -56°C | 4.5% | 89.2hPa | 2.7V | 08:30:00 | 01:21:57 | 00:00:00 | |
| DK7TD | 2026-08-30 11:40:13 | 48.89879 | 10.02194 | 52° | 46km/h | 17297m | 5.7m/s | -56.2°C | 0.9% | 89.6hPa | 2.8V | 18:12:15 | 01:21:52 | 00:00:00 | |
| DM0DOS-11 | 2026-08-30 11:40:12 | 48.89839 | 10.02130 | 46° | 44km/h | 17271m | 5.5m/s | -56.2°C | 4.6% | 89.9hPa | 2.8V | 08:30:00 | 01:21:47 | 00:00:00 | |
| DB0UT-7 | 2026-08-30 11:40:12 | 48.89872 | 10.02180 | 50° | 49km/h | 17292m | 4.6m/s | -56.2°C | 4.6% | 89.6hPa | 2.7V | 00:00:00 | 01:21:51 | 00:00:00 | |
| NBG1-10 | 2026-08-30 11:40:11 | 48.89864 | 10.02167 | 47° | 49km/h | 17287m | 6.0m/s | -56.2°C | 4.5% | 89.7hPa | 2.7V | 00:00:00 | 01:21:50 | 00:00:00 | |
| DO3MHA-12 | 2026-08-30 11:40:10 | 48.89856 | 10.02154 | 44° | 47km/h | 17281m | 4.9m/s | -56.2°C | 4.6% | 89.8hPa | 2.7V | 00:00:00 | 01:21:49 | 00:00:00 | |
| OE5DXL-15 | 2026-08-30 11:40:09 | 48.89847 | 10.02142 | 44° | 49km/h | 17277m | 4.1m/s | -56.2°C | 4.6% | 89.8hPa | 2.7V | 00:00:00 | 00:00:00 | 00:00:00 | |
| DJ8HS-15 | 2026-08-30 11:40:08 | 48.89839 | 10.02130 | 47° | 47km/h | 17272m | 5.5m/s | -56.2°C | 4.6% | 89.9hPa | 2.7V | 00:00:00 | 01:21:47 | 00:00:00 | |
| AZAK | 2026-08-30 11:40:04 | 48.89817 | 10.02093 | 49° | 44km/h | 17257m | 5.9m/s | -56.3°C | 1.5% | 90.2hPa | 2.7V | 00:00:00 | 00:00:00 | 00:00:00 | |
| SONCRA | 2026-08-30 11:40:03 | 48.89801 | 10.02066 | 49° | 49km/h | 17247m | 3.8m/s | -56.3°C | 1.5% | 90.3hPa | 2.7V | 00:00:00 | 00:00:00 | 00:00:00 | |
| DM0DOS-11 | 2026-08-30 11:40:02 | 48.89761 | 10.01989 | 49° | 49km/h | 17223m | 3.8m/s | -56.2°C | 4.6% | 90.6hPa | 2.7V | 08:30:00 | 01:21:37 | 00:00:00 | |
| DK7TD | 2026-08-30 11:40:02 | 48.89793 | 10.02051 | 52° | 51km/h | 17243m | 5.6m/s | -56.3°C | 0.9% | 90.3hPa | 2.8V | 18:12:15 | 01:21:41 | 00:00:00 | |
| DB0ND-19 | 2026-08-30 11:40:00 | 48.89777 | 10.02019 | 51° | 51km/h | 17233m | 4.9m/s | -56.3°C | 1.5% | 90.5hPa | 2.8V | 00:00:00 | 00:00:00 | 00:00:00 | |
| DL1ZP-14 | 2026-08-30 11:39:58 | 48.89753 | 10.01975 | 50° | 46km/h | 17219m | 5.8m/s | -56.2°C | 1.5% | 90.7hPa | 2.8V | 00:00:00 | 00:00:00 | 00:00:00 | |
| DM7RM-13 | 2026-08-30 11:39:56 | 48.89753 | 10.01975 | 51° | 47km/h | 17219m | 5.8m/s | -56.2°C | 1.5% | 90.7hPa | 2.7V | 00:00:00 | 00:00:00 | 00:00:00 | |
| DF1GD-15 | 2026-08-30 11:39:54 | 48.89738 | 10.01948 | 51° | 46km/h | 17210m | 3.9m/s | -56.2°C | 1.5% | 90.8hPa | 2.7V | 00:00:00 | 00:00:00 | 00:00:00 | |
| DM0DOS-11 | 2026-08-30 11:39:52 | 48.89677 | 10.01857 | 42° | 53km/h | 17176m | 4.4m/s | -56.2°C | 4.7% | 91.3hPa | 2.7V | 08:30:00 | 01:21:27 | 00:00:00 | |
| DK7TD | 2026-08-30 11:39:52 | 48.89713 | 10.01910 | 43° | 47km/h | 17195m | 3.7m/s | -56.2°C | 0.9% | 91hPa | 2.8V | 18:12:15 | 01:21:31 | 00:00:00 | |
| DF7PN | 2026-08-30 11:39:52 | 48.89704 | 10.01898 | 44° | 47km/h | 17191m | 5.0m/s | -56.2°C | 1.5% | 91.1hPa | 2.7V | 00:00:00 | 00:00:00 | 00:00:00 | |
| DF3TZ-5 | 2026-08-30 11:39:46 | 48.89648 | 10.01814 | 50° | 51km/h | 17162m | 5.1m/s | -56.2°C | 1.5% | 91.5hPa | 2.7V | 00:00:00 | 00:00:00 | 00:00:00 | |
| OE9MKV-15 | 2026-08-30 11:39:45 | 48.89648 | 10.01814 | 51° | 47km/h | 17163m | 5.0m/s | -56.2°C | 4.6% | 91.5hPa | 2.7V | 00:00:00 | 01:21:24 | 00:00:00 | |
| DJTTGO | 2026-08-30 11:39:44 | 48.89648 | 10.01814 | 51° | 53km/h | 17163m | 5.1m/s | -56.2°C | 1.5% | 91.5hPa | 2.7V | 00:00:00 | 00:00:00 | 00:00:00 | |
| DL9SK-14 | 2026-08-30 11:39:43 | 48.89632 | 10.01783 | 51° | 49km/h | 17153m | 5.6m/s | -56.2°C | 1.5% | 91.6hPa | 2.7V | 00:00:00 | 00:00:00 | 00:00:00 | |
| DB0UT-7 | 2026-08-30 11:39:42 | 48.89624 | 10.01768 | 50° | 47km/h | 17148m | 4.2m/s | -56.1°C | 4.6% | 91.6hPa | 2.7V | 00:00:00 | 00:00:00 | 00:00:00 | |
| DM0DOS-11 | 2026-08-30 11:39:41 | 48.89589 | 10.01713 | 39° | 49km/h | 17129m | 6.2m/s | -56.1°C | 4.7% | 92hPa | 2.7V | 08:30:00 | 01:21:17 | 00:00:00 | |
| DK7TD | 2026-08-30 11:39:41 | 48.89616 | 10.01754 | 49° | 51km/h | 17143m | 5m/s | -56.2°C | 0.9% | 91.8hPa | 2.8V | 18:12:15 | 01:21:20 | 00:00:00 | |
| DO3MHA-12 | 2026-08-30 11:39:40 | 48.89608 | 10.01739 | 48° | 47km/h | 17139m | 4.3m/s | -56.0°C | 4.6% | 91.8hPa | 2.7V | 00:00:00 | 01:21:19 | 00:00:00 | |
| OE5DXL-15 | 2026-08-30 11:39:39 | 48.89599 | 10.01725 | 45° | 47km/h | 17135m | 4.6m/s | -56.1°C | 4.7% | 91.8hPa | 2.7V | 00:00:00 | 00:00:00 | 00:00:00 | |
| NBG1-10 | 2026-08-30 11:39:38 | 48.89589 | 10.01712 | 40° | 47km/h | 17129m | 6.2m/s | -56.0°C | 4.7% | 91.9hPa | 2.7V | 00:00:00 | 01:21:17 | 00:00:00 | |
| DN1GJH-1 | 2026-08-30 11:39:37 | 48.89589 | 10.01712 | 41° | 49km/h | 17129m | 6.2m/s | -56.1°C | 1.5% | 92.0hPa | 2.7V | 00:00:00 | 00:00:00 | 00:00:00 | |
| DM7RM-13 | 2026-08-30 11:39:35 | 48.89569 | 10.01690 | 36° | 49km/h | 17120m | 3.2m/s | -56.0°C | 1.5% | 92.1hPa | 2.7V | 00:00:00 | 00:00:00 | 00:00:00 | |
| DF1GD-15 | 2026-08-30 11:39:34 | 48.89559 | 10.01679 | 37° | 47km/h | 17116m | 5.4m/s | -56.1°C | 1.5% | 92.2hPa | 2.7V | 00:00:00 | 00:00:00 | 00:00:00 | |
| SONCRA | 2026-08-30 11:39:32 | 48.89534 | 10.01645 | 45° | 44km/h | 17102m | 4.7m/s | -56.0°C | 1.5% | 92.4hPa | 2.7V | 00:00:00 | 00:00:00 | 00:00:00 | |
| DM0DOS-11 | 2026-08-30 11:39:31 | 48.89498 | 10.01592 | 45° | 53km/h | 17083m | 5.2m/s | -55.9°C | 4.6% | 92.6hPa | 2.7V | 08:30:00 | 01:21:07 | 00:00:00 | |
| DK7TD | 2026-08-30 11:39:30 | 48.89517 | 10.01620 | 43° | 49km/h | 17092m | 4.1m/s | -55.9°C | 0.9% | 92.5hPa | 2.7V | 18:12:15 | 01:21:09 | 00:00:00 | |
| OE5DRO-10 | 2026-08-30 11:39:30 | 48.89517 | 10.01620 | 44° | 47km/h | 17093m | 4.0m/s | -55.9°C | 4.6% | 92.5hPa | 2.7V | 00:00:00 | 00:00:00 | 00:00:00 | |
| DB0ND-19 | 2026-08-30 11:39:29 | 48.89508 | 10.01607 | 44° | 49km/h | 17088m | 5.0m/s | -55.8°C | 1.5% | 92.5hPa | 2.7V | 00:00:00 | 00:00:00 | 00:00:00 | |
| DJ8HS-15 | 2026-08-30 11:39:28 | 48.89498 | 10.01592 | 46° | 47km/h | 17083m | 5.1m/s | -55.8°C | 4.6% | 92.6hPa | 2.7V | 00:00:00 | 01:21:07 | 00:00:00 | |
| DL1ZP-14 | 2026-08-30 11:39:26 | 48.89478 | 10.01564 | 40° | 55km/h | 17073m | 4.9m/s | -55.7°C | 1.5% | 92.8hPa | 2.8V | 00:00:00 | 00:00:00 | 00:00:00 | |
| AZAK | 2026-08-30 11:39:23 | 48.89457 | 10.01538 | 39° | 51km/h | 17065m | 4.8m/s | -55.6°C | 1.4% | 92.9hPa | 2.7V | 00:00:00 | 00:00:00 | 00:00:00 | |
| DM0DOS-11 | 2026-08-30 11:39:21 | 48.89406 | 10.01477 | 38° | 44km/h | 17038m | 3.8m/s | -55.5°C | 4.5% | 93.3hPa | 2.7V | 08:30:00 | 01:20:57 | 00:00:00 | |
| DK7TD | 2026-08-30 11:39:20 | 48.89423 | 10.01497 | 38° | 40km/h | 17046m | 5.4m/s | -55.5°C | 0.9% | 93.2hPa | 2.8V | 18:12:15 | 01:20:59 | 00:00:00 | |
| DO3MHA-12 | 2026-08-30 11:39:20 | 48.89423 | 10.01497 | 38° | 44km/h | 17047m | 5.4m/s | -55.5°C | 4.6% | 93.2hPa | 2.7V | 00:00:00 | 01:20:59 | 00:00:00 | |
| DN1GJH-1 | 2026-08-30 11:39:16 | 48.89397 | 10.01466 | 42° | 44km/h | 17033m | 5.0m/s | -55.4°C | 1.5% | 93.4hPa | 2.7V | 00:00:00 | 00:00:00 | 00:00:00 | |
| OE9MKV-15 | 2026-08-30 11:39:15 | 48.89380 | 10.01444 | 41° | 42km/h | 17024m | 4.6m/s | -55.4°C | 4.5% | 93.5hPa | 2.7V | 00:00:00 | 01:20:54 | 00:00:00 | |
| DM7RM-13 | 2026-08-30 11:39:14 | 48.89380 | 10.01444 | 41° | 46km/h | 17024m | 4.6m/s | -55.4°C | 1.5% | 93.5hPa | 2.7V | 00:00:00 | 00:00:00 | 00:00:00 | |
| DF1GD-15 | 2026-08-30 11:39:13 | 48.89371 | 10.01433 | 38° | 46km/h | 17019m | 5.3m/s | -55.5°C | 1.5% | 93.6hPa | 2.7V | 00:00:00 | 00:00:00 | 00:00:00 | |
| DB0UT-7 | 2026-08-30 11:39:12 | 48.89352 | 10.01412 | 36° | 42km/h | 17010m | 4.0m/s | -55.4°C | 4.4% | 93.7hPa | 2.7V | 00:00:00 | 01:20:51 | 00:00:00 | |
| DM0DOS-11 | 2026-08-30 11:39:11 | 48.89316 | 10.01368 | 38° | 46km/h | 16991m | 5.4m/s | -55.3°C | 4.4% | 94hPa | 2.8V | 08:30:00 | 01:20:47 | 00:00:00 | |
| DK7TD | 2026-08-30 11:39:09 | 48.89325 | 10.01379 | 41° | 46km/h | 16996m | 4.2m/s | -55.4°C | 0.8% | 94hPa | 2.8V | 18:12:15 | 01:20:48 | 00:00:00 | |
| OE5DXL-15 | 2026-08-30 11:39:09 | 48.89325 | 10.01379 | 41° | 40km/h | 16996m | 4.1m/s | -55.3°C | 4.4% | 93.9hPa | 2.8V | 00:00:00 | 00:00:00 | 00:00:00 | |
| DJ8HS-15 | 2026-08-30 11:39:08 | 48.89316 | 10.01368 | 39° | 42km/h | 16992m | 5.3m/s | -55.2°C | 4.4% | 94.0hPa | 2.8V | 00:00:00 | 01:20:47 | 00:00:00 | |
| NBG1-10 | 2026-08-30 11:39:05 | 48.89290 | 10.01336 | 42° | 37km/h | 16978m | 3.8m/s | -55.2°C | 4.4% | 94.2hPa | 2.8V | 00:00:00 | 01:20:44 | 00:00:00 | |
| AZAK | 2026-08-30 11:39:02 | 48.89274 | 10.01316 | 39° | 40km/h | 16969m | 5.4m/s | -55.2°C | 1.4% | 94.4hPa | 2.8V | 00:00:00 | 00:00:00 | 00:00:00 | |
| DM0DOS-11 | 2026-08-30 11:39:01 | 48.89236 | 10.01265 | 44° | 40km/h | 16944m | 5.1m/s | -55.1°C | 4.4% | 94.7hPa | 2.8V | 08:30:00 | 01:20:37 | 00:00:00 | |
| DK7TD | 2026-08-30 11:38:58 | 48.89236 | 10.01265 | 45° | 40km/h | 16944m | 5.1m/s | -55.1°C | 0.9% | 94.7hPa | 2.8V | 18:12:15 | 01:20:37 | 00:00:00 | |
| DN1GJH-1 | 2026-08-30 11:38:55 | 48.89221 | 10.01244 | 41° | 40km/h | 16935m | 3.6m/s | -55.2°C | 1.5% | 94.9hPa | 2.8V | 00:00:00 | 00:00:00 | 00:00:00 | |
| DM7RM-13 | 2026-08-30 11:38:53 | 48.89205 | 10.01223 | 41° | 44km/h | 16926m | 5.0m/s | -55.3°C | 1.5% | 95.0hPa | 2.8V | 00:00:00 | 00:00:00 | 00:00:00 | |
| DF1GD-15 | 2026-08-30 11:38:52 | 48.89196 | 10.01213 | 38° | 44km/h | 16921m | 5.0m/s | -55.3°C | 1.5% | 95.1hPa | 2.8V | 00:00:00 | 00:00:00 | 00:00:00 | |
| DM0DOS-11 | 2026-08-30 11:38:51 | 48.89153 | 10.01166 | 39° | 38km/h | 16898m | 4.5m/s | -55.3°C | 4.4% | 95.4hPa | 2.8V | 08:30:00 | 01:20:27 | 00:00:00 | |
| DK7TD | 2026-08-30 11:38:47 | 48.89145 | 10.01157 | 39° | 38km/h | 16893m | 5.8m/s | -55.3°C | 0.9% | 95.5hPa | 2.7V | 18:12:15 | 01:20:26 | 00:00:00 | |
| OE9MKV-15 | 2026-08-30 11:38:44 | 48.89125 | 10.01130 | 47° | 37km/h | 16879m | 4.9m/s | 0°C | 0% | 0hPa | 2.8V | 00:00:00 | 01:20:23 | 00:00:00 | |
| DB0UT-7 | 2026-08-30 11:38:42 | 48.89114 | 10.01112 | 45° | 37km/h | 16870m | 4.7m/s | -55.3°C | 4.4% | 95.8hPa | 2.8V | 00:00:00 | 00:00:00 | 00:00:00 | |
| DM0DOS-11 | 2026-08-30 11:38:41 | 48.89089 | 10.01081 | 41° | 31km/h | 16852m | 4.5m/s | -55.3°C | 4.4% | 96.1hPa | 2.8V | 08:30:00 | 01:20:17 | 00:00:00 | |
| DK7TD | 2026-08-30 11:38:36 | 48.89078 | 10.01065 | 46° | 29km/h | 16844m | 4.3m/s | -55.3°C | 0.9% | 96.2hPa | 2.8V | 18:12:15 | 01:20:15 | 00:00:00 | |
| DN1GJH-1 | 2026-08-30 11:38:34 | 48.89073 | 10.01057 | 47° | 29km/h | 16840m | 4.4m/s | -55.3°C | 1.5% | 96.3hPa | 2.7V | 00:00:00 | 00:00:00 | 00:00:00 | |
| NBG1-10 | 2026-08-30 11:38:32 | 48.89059 | 10.01028 | 61° | 40km/h | 16828m | 4.4m/s | -55.1°C | 4.5% | 96.4hPa | 2.7V | 00:00:00 | 01:20:11 | 08:30:00 | |
| DF1GD-15 | 2026-08-30 11:38:31 | 48.89059 | 10.01028 | 61° | 33km/h | 16828m | 4.4m/s | -55.2°C | 1.5% | 96.5hPa | 2.8V | 00:00:00 | 00:00:00 | 00:00:00 | |
| DM0DOS-11 | 2026-08-30 11:38:29 | 48.89038 | 10.00978 | 52° | 42km/h | 16810m | 4m/s | -55.1°C | 4.4% | 96.8hPa | 2.8V | 08:30:00 | 01:20:07 | 00:00:00 | |
| DK7TD | 2026-08-30 11:38:26 | 48.89025 | 10.00954 | 49° | 38km/h | 16801m | 4.1m/s | -55.1°C | 0.9% | 96.9hPa | 2.7V | 18:12:15 | 01:20:05 | 00:00:00 | |
| DL1ZP-14 | 2026-08-30 11:38:24 | 48.89012 | 10.00931 | 48° | 40km/h | 16792m | 4.5m/s | -55.1°C | 1.4% | 97.0hPa | 2.7V | 00:00:00 | 00:00:00 | 00:00:00 | |
| DO3MHA-12 | 2026-08-30 11:38:20 | 48.88988 | 10.00885 | 56° | 40km/h | 16774m | 4.6m/s | -54.9°C | 4.3% | 97.3hPa | 2.8V | 00:00:00 | 01:19:59 | 00:00:00 | |
| DM0DOS-11 | 2026-08-30 11:38:19 | 48.88972 | 10.00848 | 57° | 40km/h | 16760m | 5.4m/s | -54.9°C | 4.2% | 97.5hPa | 2.8V | 08:30:00 | 01:19:56 | 00:00:00 | |
| DK7TD | 2026-08-30 11:38:15 | 48.88961 | 10.00822 | 57° | 42km/h | 16750m | 5.1m/s | -55°C | 0.9% | 97.7hPa | 2.7V | 18:12:15 | 01:19:54 | 00:00:00 | |
| OE9MKV-15 | 2026-08-30 11:38:14 | 48.88955 | 10.00808 | 55° | 46km/h | 16745m | 5.3m/s | 0°C | 0% | 0hPa | 2.7V | 00:00:00 | 01:19:53 | 00:00:00 | |
| DF3TZ-5 | 2026-08-30 11:38:13 | 48.88943 | 10.00782 | 52° | 40km/h | 16735m | 5.6m/s | -55.4°C | 1.4% | 98.0hPa | 2.7V | 00:00:00 | 00:00:00 | 00:00:00 | |
| DB0UT-7 | 2026-08-30 11:38:12 | 48.88942 | 10.00782 | 53° | 46km/h | 16735m | 5.6m/s | -55.4°C | 4.3% | 97.9hPa | 2.7V | 00:00:00 | 01:19:51 | 00:00:00 | |
| DM7RM-13 | 2026-08-30 11:38:11 | 48.88943 | 10.00782 | 53° | 42km/h | 16735m | 5.6m/s | -55.4°C | 1.5% | 98.0hPa | 2.7V | 00:00:00 | 00:00:00 | 00:00:00 | |
| DO3MHA-12 | 2026-08-30 11:38:10 | 48.88929 | 10.00758 | 50° | 42km/h | 16725m | 5.8m/s | -55.7°C | 4.5% | 98.0hPa | 2.7V | 00:00:00 | 01:19:49 | 00:00:00 | |
| DM0DOS-11 | 2026-08-30 11:38:09 | 48.88908 | 10.00720 | 48° | 42km/h | 16711m | 5.6m/s | -56.1°C | 4.6% | 98.2hPa | 2.7V | 08:30:00 | 01:19:46 | 00:00:00 | |
| DK7TD | 2026-08-30 11:38:05 | 48.88895 | 10.00696 | 56° | 38km/h | 16702m | 4m/s | -56.2°C | 1.1% | 98.4hPa | 2.8V | 18:12:15 | 01:19:44 | 00:00:00 | |
| DO3MHA-12 | 2026-08-30 11:38:00 | 48.88867 | 10.00627 | 57° | 47km/h | 16678m | 4.5m/s | -56.2°C | 4.8% | 98.7hPa | 2.8V | 00:00:00 | 01:19:39 | 00:00:00 | |
| DM0DOS-11 | 2026-08-30 11:37:59 | 48.88848 | 10.00581 | 59° | 49km/h | 16663m | 3.6m/s | -56.1°C | 4.7% | 99hPa | 2.8V | 08:30:00 | 01:19:36 | 00:00:00 | |
| DK7TD | 2026-08-30 11:37:54 | 48.88830 | 10.00532 | 62° | 51km/h | 16649m | 5.8m/s | -56.2°C | 1.1% | 99.2hPa | 2.7V | 18:12:15 | 01:19:33 | 00:00:00 | |
| DL1ZP-14 | 2026-08-30 11:37:53 | 48.88824 | 10.00515 | 65° | 49km/h | 16644m | 4.4m/s | -56.1°C | 1.6% | 99.3hPa | 2.7V | 00:00:00 | 00:00:00 | 00:00:00 | |
| DM7RM-13 | 2026-08-30 11:37:51 | 48.88819 | 10.00497 | 68° | 49km/h | 16640m | 3.7m/s | -56.0°C | 1.6% | 99.4hPa | 2.8V | 00:00:00 | 00:00:00 | 00:00:00 | |
| DO3MHA-12 | 2026-08-30 11:37:50 | 48.88810 | 10.00464 | 67° | 47km/h | 16631m | 4.1m/s | -55.9°C | 4.8% | 99.5hPa | 2.8V | 00:00:00 | 01:19:29 | 00:00:00 | |
| DM0DOS-11 | 2026-08-30 11:37:49 | 48.88795 | 10.00416 | 62° | 49km/h | 16616m | 3.5m/s | -55.9°C | 4.8% | 99.7hPa | 2.8V | 08:30:00 | 01:19:26 | 00:00:00 | |
| DF7PN | 2026-08-30 11:37:47 | 48.88795 | 10.00416 | 62° | 47km/h | 16616m | 3.5m/s | -55.9°C | 1.6% | 99.8hPa | 2.7V | 00:00:00 | 00:00:00 | 00:00:00 | |
| OE9MKV-15 | 2026-08-30 11:37:44 | 48.88776 | 10.00369 | 57° | 47km/h | 16603m | 3.4m/s | 0°C | 0% | 0hPa | 2.7V | 00:00:00 | 01:19:23 | 00:00:00 | |
| DK7TD | 2026-08-30 11:37:44 | 48.88776 | 10.00369 | 57° | 47km/h | 16602m | 3.4m/s | -55.7°C | 1% | 100hPa | 2.7V | 18:12:15 | 01:19:23 | 00:00:00 | |
| DM0DOS-11 | 2026-08-30 11:37:42 | 48.88738 | 10.00259 | 67° | 42km/h | 16567m | 4.8m/s | -55.5°C | 4.7% | 100.5hPa | 2.7V | 08:30:00 | 01:19:16 | 00:00:00 | |
| DK7TD | 2026-08-30 11:37:33 | 48.88720 | 10.00204 | 62° | 40km/h | 16548m | 5.6m/s | -55.3°C | 1% | 100.8hPa | 2.7V | 18:12:15 | 01:19:12 | 00:00:00 | |
| DK7TD | 2026-08-30 11:37:23 | 48.88671 | 10.00068 | 71° | 40km/h | 16498m | 4.1m/s | -54.9°C | 1% | 101.6hPa | 2.7V | 18:12:15 | 01:19:02 | 00:00:00 | |
| DL1ZP-14 | 2026-08-30 11:37:22 | 48.88668 | 10.00053 | 68° | 38km/h | 16493m | 5.6m/s | -54.9°C | 1.5% | 101.7hPa | 2.7V | 00:00:00 | 00:00:00 | 00:00:00 | |
| DO3MHA-12 | 2026-08-30 11:37:20 | 48.88660 | 10.00025 | 65° | 37km/h | 16484m | 4.4m/s | -54.8°C | 4.5% | 101.8hPa | 2.7V | 00:00:00 | 01:18:59 | 00:00:00 | |
| DM0DOS-11 | 2026-08-30 11:37:18 | 48.88647 | 9.99986 | 59° | 37km/h | 16469m | 4.8m/s | -54.8°C | 4.5% | 102.1hPa | 2.7V | 08:30:00 | 01:18:56 | 00:00:00 | |
| OE5DRO-10 | 2026-08-30 11:37:16 | 48.88642 | 9.99974 | 56° | 35km/h | 16464m | 5.0m/s | -54.7°C | 4.4% | 102.1hPa | 2.7V | 00:00:00 | 00:00:00 | 00:00:00 | |
| DM0DOS-11 | 2026-08-30 11:37:13 | 48.88600 | 9.99865 | 60° | 37km/h | 16421m | 5m/s | -54.5°C | 4.4% | 102.9hPa | 2.7V | 08:30:00 | 01:18:46 | 00:00:00 | |
| DK7TD | 2026-08-30 11:37:12 | 48.88622 | 9.99928 | 58° | 37km/h | 16445m | 5.4m/s | -54.8°C | 1% | 102.5hPa | 2.7V | 18:12:15 | 01:18:51 | 00:00:00 | |
| DB0UT-7 | 2026-08-30 11:37:12 | 48.88622 | 9.99928 | 58° | 31km/h | 16445m | 5.4m/s | -54.7°C | 4.5% | 102.4hPa | 2.7V | 00:00:00 | 01:18:51 | 00:00:00 | |
| DF3TZ-5 | 2026-08-30 11:37:11 | 48.88613 | 9.99903 | 62° | 37km/h | 16435m | 5.8m/s | -54.6°C | 1.5% | 102.6hPa | 2.7V | 00:00:00 | 00:00:00 | 00:00:00 | |
| DO3MHA-12 | 2026-08-30 11:37:10 | 48.88613 | 9.99903 | 63° | 35km/h | 16435m | 5.8m/s | -54.6°C | 4.4% | 102.6hPa | 2.7V | 00:00:00 | 01:18:49 | 00:00:00 | |
| OE5DXL-15 | 2026-08-30 11:37:09 | 48.88608 | 9.99890 | 66° | 29km/h | 16430m | 4.1m/s | -54.6°C | 4.5% | 102.7hPa | 2.7V | 00:00:00 | 00:00:00 | 00:00:00 | |
| DJ8HS-15 | 2026-08-30 11:37:08 | 48.88605 | 9.99877 | 65° | 33km/h | 16426m | 3.7m/s | -54.5°C | 4.4% | 102.7hPa | 2.7V | 00:00:00 | 01:18:47 | 00:00:00 | |
| DL6DJ-15 | 2026-08-30 11:37:07 | 48.88600 | 9.99865 | 60° | 37km/h | 16421m | 5.1m/s | -54.5°C | 1.5% | 102.9hPa | 2.7V | 00:00:00 | 00:00:00 | 00:00:00 | |
| DM0DOS-11 | 2026-08-30 11:37:02 | 48.88556 | 9.99759 | 61° | 31km/h | 16372m | 4.8m/s | -54.5°C | 4.6% | 103.7hPa | 2.7V | 08:30:00 | 01:18:36 | 00:00:00 | |
| DK7TD | 2026-08-30 11:37:01 | 48.88572 | 9.99799 | 60° | 31km/h | 16392m | 4.5m/s | -54.4°C | 1% | 103.3hPa | 2.8V | 18:12:15 | 01:18:40 | 00:00:00 | |
| SONCRA | 2026-08-30 11:36:57 | 48.88555 | 9.99759 | 61° | 31km/h | 16372m | 4.8m/s | -54.5°C | 1.6% | 103.7hPa | 2.7V | 00:00:00 | 00:00:00 | 00:00:00 | |
| DB0ND-19 | 2026-08-30 11:36:54 | 48.88543 | 9.99726 | 54° | 35km/h | 16359m | 5.4m/s | -54.3°C | 1.5% | 103.9hPa | 2.7V | 00:00:00 | 00:00:00 | 00:00:00 | |
| NBG1-10 | 2026-08-30 11:36:53 | 48.88538 | 9.99715 | 55° | 26km/h | 16354m | 4.5m/s | -54.3°C | 4.4% | 103.9hPa | 2.7V | 00:00:00 | 01:18:32 | 00:00:00 | |
| DM0DOS-11 | 2026-08-30 11:36:52 | 48.88516 | 9.99650 | 71° | 26km/h | 16325m | 4.6m/s | -54.1°C | 4.4% | 104.4hPa | 2.7V | 08:30:00 | 01:18:26 | 00:00:00 | |
| DK7TD | 2026-08-30 11:36:51 | 48.88528 | 9.99691 | 63° | 35km/h | 16344m | 4.6m/s | -54.3°C | 1% | 104.1hPa | 2.8V | 18:12:15 | 01:18:30 | 00:00:00 | |
| DF7PN | 2026-08-30 11:36:45 | 48.88514 | 9.99633 | 82° | 20km/h | 16316m | 3.7m/s | -54.1°C | 1.5% | 104.6hPa | 2.7V | 00:00:00 | 00:00:00 | 00:00:00 | |
| DM0DOS-11 | 2026-08-30 11:36:42 | 48.88490 | 9.99575 | 52° | 31km/h | 16280m | 5.2m/s | -54.3°C | 4.4% | 105.2hPa | 2.7V | 08:30:00 | 01:18:16 | 00:00:00 | |
| DK7TD | 2026-08-30 11:36:41 | 48.88502 | 9.99601 | 51° | 24km/h | 16294m | 5.3m/s | -54.2°C | 1% | 105hPa | 2.8V | 18:12:15 | 01:18:19 | 00:00:00 | |
| DO3MHA-12 | 2026-08-30 11:36:40 | 48.88502 | 9.99601 | 51° | 27km/h | 16295m | 5.3m/s | -54.1°C | 4.3% | 104.9hPa | 2.7V | 00:00:00 | 01:18:19 | 00:00:00 | |
| OE5DXL-15 | 2026-08-30 11:36:39 | 48.88498 | 9.99593 | 54° | 26km/h | 16289m | 4.8m/s | -54.2°C | 4.3% | 105.0hPa | 2.7V | 00:00:00 | 00:00:00 | 00:00:00 | |
| OE5DRO-10 | 2026-08-30 11:36:38 | 48.88494 | 9.99584 | 55° | 26km/h | 16285m | 3.8m/s | -54.3°C | 4.4% | 105.0hPa | 2.7V | 00:00:00 | 00:00:00 | 00:00:00 | |
| DL9SK-14 | 2026-08-30 11:36:37 | 48.88485 | 9.99566 | 50° | 29km/h | 16275m | 4.5m/s | -54.3°C | 1.6% | 105.3hPa | 2.7V | 00:00:00 | 00:00:00 | 00:00:00 | |
| DL6DJ-15 | 2026-08-30 11:36:36 | 48.88480 | 9.99558 | 54° | 27km/h | 16271m | 4.0m/s | -54.1°C | 1.6% | 105.3hPa | 2.7V | 00:00:00 | 00:00:00 | 00:00:00 | |
| DM0DOS-11 | 2026-08-30 11:36:32 | 48.88457 | 9.99492 | 50° | 24km/h | 16237m | 4.4m/s | -54.3°C | 4.5% | 105.9hPa | 2.7V | 08:30:00 | 01:18:06 | 00:00:00 | |
| DK7TD | 2026-08-30 11:36:30 | 48.88467 | 9.99514 | 62° | 22km/h | 16249m | 4.5m/s | -54.3°C | 1.1% | 105.7hPa | 2.8V | 18:12:15 | 01:18:09 | 00:00:00 | |
| DO3MHA-12 | 2026-08-30 11:36:30 | 48.88467 | 9.99514 | 62° | 26km/h | 16250m | 4.5m/s | -54.2°C | 4.5% | 105.6hPa | 2.7V | 00:00:00 | 01:18:09 | 00:00:00 | |
| DM7RM-13 | 2026-08-30 11:36:29 | 48.88467 | 9.99514 | 63° | 22km/h | 16250m | 4.5m/s | -54.3°C | 1.6% | 105.6hPa | 2.7V | 00:00:00 | 00:00:00 | 00:00:00 | |
| DJ8HS-15 | 2026-08-30 11:36:28 | 48.88461 | 9.99499 | 53° | 26km/h | 16242m | 4.8m/s | -54.3°C | 4.5% | 105.8hPa | 2.7V | 00:00:00 | 01:18:07 | 00:00:00 | |
| SONCRA | 2026-08-30 11:36:26 | 48.88453 | 9.99485 | 47° | 24km/h | 16232m | 5.3m/s | -54.2°C | 1.6% | 106.0hPa | 2.7V | 00:00:00 | 00:00:00 | 00:00:00 | |
| DM0DOS-11 | 2026-08-30 11:36:23 | 48.88416 | 9.99414 | 66° | 27km/h | 16189m | 3.9m/s | -54.5°C | 4.5% | 106.7hPa | 2.7V | 08:30:00 | 01:17:56 | 00:00:00 | |
| DK7TD | 2026-08-30 11:36:19 | 48.88422 | 9.99432 | 57° | 26km/h | 16199m | 3.8m/s | -54.4°C | 1.1% | 106.6hPa | 2.7V | 18:12:15 | 01:17:58 | 00:00:00 | |
| OE5DRO-10 | 2026-08-30 11:36:19 | 48.88422 | 9.99432 | 57° | 29km/h | 16199m | 3.7m/s | -54.3°C | 4.4% | 106.5hPa | 2.7V | 00:00:00 | 00:00:00 | 08:30:00 | |
| AZAK | 2026-08-30 11:36:16 | 48.88416 | 9.99414 | 67° | 27km/h | 16189m | 3.9m/s | -54.5°C | 1.6% | 106.7hPa | 2.8V | 00:00:00 | 00:00:00 | 00:00:00 | |
| DF7PN | 2026-08-30 11:36:14 | 48.88408 | 9.99389 | 63° | 20km/h | 16175m | 3.6m/s | -54.5°C | 1.6% | 106.9hPa | 2.8V | 00:00:00 | 00:00:00 | 00:00:00 | |
| DM0DOS-11 | 2026-08-30 11:36:12 | 48.88367 | 9.99215 | 73° | 37km/h | 16099m | 6m/s | -54.5°C | 4.4% | 108.2hPa | 2.8V | 08:30:00 | 01:17:38 | 00:00:00 | |
| DK7TD | 2026-08-30 11:36:09 | 48.88399 | 9.99339 | 79° | 31km/h | 16150m | 5.8m/s | -54.4°C | 1.1% | 107.3hPa | 2.8V | 18:12:15 | 01:17:48 | 00:00:00 | |
| OE5DXL-15 | 2026-08-30 11:36:09 | 48.88399 | 9.99339 | 80° | 42km/h | 16150m | 5.8m/s | -54.3°C | 4.4% | 107.2hPa | 2.8V | 00:00:00 | 00:00:00 | 00:00:00 | |
| DF1GD-15 | 2026-08-30 11:36:08 | 48.88397 | 9.99327 | 78° | 29km/h | 16145m | 4.7m/s | -54.4°C | 1.6% | 107.4hPa | 2.8V | 00:00:00 | 00:00:00 | 00:00:00 | |
| DL6DJ-15 | 2026-08-30 11:36:07 | 48.88385 | 9.99279 | 65° | 35km/h | 16125m | 5.7m/s | -54.4°C | 1.6% | 107.8hPa | 2.8V | 00:00:00 | 00:00:00 | 00:00:00 | |
| DM0DOS-11 | 2026-08-30 11:36:06 | 48.88358 | 9.99143 | 76° | 38km/h | 16076m | 4.8m/s | -55.4°C | 4.8% | 108.6hPa | 2.8V | 08:30:00 | 01:17:33 | 00:00:00 | |
| DK7TD | 2026-08-30 11:36:01 | 48.88367 | 9.99215 | 74° | 37km/h | 16099m | 6m/s | -54.5°C | 1.1% | 108.2hPa | 2.8V | 18:12:15 | 01:17:38 | 00:00:00 | |
| SONCRA | 2026-08-30 11:35:55 | 48.88360 | 9.99158 | 79° | 40km/h | 16081m | 3.9m/s | -55.3°C | 1.7% | 108.5hPa | 2.8V | 00:00:00 | 00:00:00 | 00:00:00 | |
| DB0ND-19 | 2026-08-30 11:35:52 | 48.88348 | 9.99099 | 67° | 44km/h | 16062m | 5.6m/s | -55.6°C | 1.8% | 108.8hPa | 2.8V | 00:00:00 | 00:00:00 | 00:00:00 | |
| DO3MHA-12 | 2026-08-30 11:35:50 | 48.88343 | 9.99083 | 67° | 49km/h | 16056m | 6.6m/s | -55.5°C | 4.8% | 108.9hPa | 2.8V | 00:00:00 | 01:17:29 | 00:00:00 | |
| DM0DOS-11 | 2026-08-30 11:35:49 | 48.88312 | 9.98974 | 65° | 49km/h | 16021m | 5.5m/s | -55.4°C | 4.8% | 109.5hPa | 2.8V | 08:30:00 | 01:17:23 | 00:00:00 | |
| DK7TD | 2026-08-30 11:35:48 | 48.88334 | 9.99046 | 68° | 51km/h | 16044m | 6.2m/s | -55.6°C | 1.4% | 109.1hPa | 2.7V | 18:12:15 | 01:17:27 | 00:00:00 | |
| DJ8HS-15 | 2026-08-30 11:35:48 | 48.88334 | 9.99046 | 68° | 47km/h | 16044m | 6.2m/s | -55.5°C | 4.9% | 109.1hPa | 2.7V | 00:00:00 | 01:17:27 | 00:00:00 | |
| DJTTGO | 2026-08-30 11:35:47 | 48.88329 | 9.99028 | 68° | 51km/h | 16038m | 5.7m/s | -55.5°C | 1.7% | 109.3hPa | 2.7V | 00:00:00 | 00:00:00 | 00:00:00 | |
| DF7PN | 2026-08-30 11:35:43 | 48.88307 | 9.98957 | 65° | 46km/h | 16015m | 5.5m/s | -55.4°C | 1.7% | 109.6hPa | 2.7V | 00:00:00 | 00:00:00 | 00:00:00 | |
| DB0UT-7 | 2026-08-30 11:35:42 | 48.88302 | 9.98941 | 65° | 44km/h | 16010m | 5.4m/s | -55.3°C | 4.7% | 109.7hPa | 2.7V | 00:00:00 | 00:00:00 | 00:00:00 | |
| OE5DRO-10 | 2026-08-30 11:35:41 | 48.88297 | 9.98925 | 63° | 44km/h | 16005m | 5.2m/s | -55.3°C | 4.8% | 109.7hPa | 2.7V | 00:00:00 | 00:00:00 | 00:00:00 | |
| DO3MHA-12 | 2026-08-30 11:35:40 | 48.88291 | 9.98908 | 62° | 47km/h | 16000m | 4.8m/s | -55.2°C | 4.7% | 109.9hPa | 2.7V | 00:00:00 | 01:17:19 | 00:00:00 | |
| DM0DOS-11 | 2026-08-30 11:35:39 | 48.88255 | 9.98814 | 59° | 46km/h | 15968m | 4.9m/s | -55.2°C | 4.8% | 110.4hPa | 2.7V | 08:30:00 | 01:17:13 | 00:00:00 | |
| DK7TD | 2026-08-30 11:35:38 | 48.88280 | 9.98877 | 61° | 47km/h | 15989m | 5.1m/s | -55.3°C | 1.3% | 110.1hPa | 2.7V | 18:12:15 | 01:17:17 | 00:00:00 | |
| DF3TZ-5 | 2026-08-30 11:35:37 | 48.88274 | 9.98861 | 59° | 47km/h | 15983m | 5.6m/s | -55.2°C | 1.7% | 110.1hPa | 2.8V | 00:00:00 | 00:00:00 | 00:00:00 | |
| DL9SK-14 | 2026-08-30 11:35:35 | 48.88255 | 9.98814 | 59° | 46km/h | 15968m | 4.9m/s | -55.2°C | 1.7% | 110.4hPa | 2.8V | 00:00:00 | 00:00:00 | 00:00:00 | |
| DL6DJ-15 | 2026-08-30 11:35:34 | 48.88249 | 9.98798 | 60° | 46km/h | 15963m | 4.9m/s | -55.1°C | 1.7% | 110.5hPa | 2.8V | 00:00:00 | 00:00:00 | 00:00:00 | |
| DO3MHA-12 | 2026-08-30 11:35:30 | 48.88233 | 9.98753 | 64° | 42km/h | 15949m | 4.8m/s | -54.9°C | 4.7% | 110.7hPa | 2.8V | 00:00:00 | 01:17:09 | 00:00:00 | |
| DM0DOS-11 | 2026-08-30 11:35:29 | 48.88204 | 9.98671 | 62° | 40km/h | 15919m | 4.7m/s | -54.8°C | 4.7% | 111.3hPa | 2.8V | 08:30:00 | 01:17:03 | 00:00:00 | |
| DK7TD | 2026-08-30 11:35:27 | 48.88219 | 9.98711 | 61° | 40km/h | 15934m | 5.1m/s | -54.8°C | 1.2% | 111hPa | 2.7V | 18:12:15 | 01:17:06 | 00:00:00 | |
| DG1MJG | 2026-08-30 11:35:26 | 48.88214 | 9.98697 | 61° | 40km/h | 15930m | 4.0m/s | -54.9°C | 1.7% | 111.1hPa | 2.7V | 00:00:00 | 00:00:00 | 00:00:00 | |
| SONCRA | 2026-08-30 11:35:24 | 48.88200 | 9.98657 | 63° | 40km/h | 15915m | 5.7m/s | -54.7°C | 1.7% | 111.4hPa | 2.7V | 00:00:00 | 00:00:00 | 00:00:00 | |
| OE5DRO-10 | 2026-08-30 11:35:22 | 48.88195 | 9.98642 | 63° | 40km/h | 15910m | 4.3m/s | -54.6°C | 4.7% | 111.4hPa | 2.7V | 00:00:00 | 00:00:00 | 00:00:00 | |
| DB0ND-19 | 2026-08-30 11:35:21 | 48.88185 | 9.98613 | 63° | 42km/h | 15900m | 5.4m/s | -54.6°C | 1.7% | 111.6hPa | 2.8V | 00:00:00 | 00:00:00 | 00:00:00 | |
| DO3MHA-12 | 2026-08-30 11:35:20 | 48.88185 | 9.98612 | 64° | 40km/h | 15901m | 5.4m/s | -54.5°C | 4.7% | 111.6hPa | 2.8V | 00:00:00 | 01:16:59 | 00:00:00 | |
| DM0DOS-11 | 2026-08-30 11:35:19 | 48.88156 | 9.98531 | 63° | 37km/h | 15871m | 3.5m/s | -54.4°C | 4.6% | 112.1hPa | 2.8V | 08:30:00 | 01:16:53 | 00:00:00 | |
| DK7TD | 2026-08-30 11:35:17 | 48.88170 | 9.98570 | 60° | 42km/h | 15885m | 4.4m/s | -54.5°C | 1.2% | 111.9hPa | 2.7V | 18:12:15 | 01:16:56 | 00:00:00 | |
| DK7TD | 2026-08-30 11:35:07 | 48.88129 | 9.98437 | 68° | 37km/h | 15838m | 4.8m/s | -54.1°C | 1.2% | 112.7hPa | 2.7V | 18:12:15 | 01:16:46 | 00:00:00 | |
| DF3TZ-5 | 2026-08-30 11:35:07 | 48.88125 | 9.98424 | 65° | 38km/h | 15833m | 4.9m/s | -54.2°C | 1.6% | 112.8hPa | 2.8V | 00:00:00 | 00:00:00 | 00:00:00 | |
| DF1GD-15 | 2026-08-30 11:35:05 | 48.88125 | 9.98424 | 66° | 38km/h | 15834m | 4.9m/s | -54.2°C | 1.7% | 112.8hPa | 2.8V | 00:00:00 | 00:00:00 | 00:00:00 | |
| DL9SK-14 | 2026-08-30 11:35:04 | 48.88112 | 9.98383 | 65° | 37km/h | 15820m | 3.6m/s | -53.9°C | 1.6% | 113.0hPa | 2.8V | 00:00:00 | 00:00:00 | 00:00:00 | |
| DO3MHA-12 | 2026-08-30 11:35:00 | 48.88098 | 9.98345 | 57° | 38km/h | 15806m | 4.9m/s | -53.8°C | 4.5% | 113.2hPa | 2.8V | 00:00:00 | 01:16:39 | 00:00:00 | |
| DM0DOS-11 | 2026-08-30 11:34:58 | 48.88071 | 9.98286 | 55° | 40km/h | 15784m | 4.9m/s | -53.6°C | 4.5% | 113.6hPa | 2.8V | 08:30:00 | 01:16:34 | 00:00:00 | |
| DK7TD | 2026-08-30 11:34:56 | 48.88077 | 9.98299 | 53° | 40km/h | 15788m | 4.4m/s | -53.8°C | 1.1% | 113.6hPa | 2.7V | 18:12:15 | 01:16:35 | 00:00:00 | |
| SONCRA | 2026-08-30 11:34:53 | 48.88056 | 9.98246 | 61° | 38km/h | 15771m | 5.2m/s | -53.6°C | 1.7% | 113.9hPa | 2.8V | 00:00:00 | 00:00:00 | 00:00:00 | |
| DB0ND-19 | 2026-08-30 11:34:50 | 48.88047 | 9.98220 | 67° | 35km/h | 15762m | 5.1m/s | -53.5°C | 1.7% | 114.0hPa | 2.8V | 00:00:00 | 00:00:00 | 00:00:00 | |
| DO3MHA-12 | 2026-08-30 11:34:49 | 48.88044 | 9.98208 | 70° | 37km/h | 15758m | 4.2m/s | -53.4°C | 4.5% | 114.1hPa | 2.8V | 00:00:00 | 01:16:28 | 00:00:00 | |
| DM0DOS-11 | 2026-08-30 11:34:48 | 48.88024 | 9.98154 | 54° | 35km/h | 15737m | 4.1m/s | -53.5°C | 4.3% | 114.5hPa | 2.8V | 08:30:00 | 01:16:23 | 00:00:00 | |
| DK7TD | 2026-08-30 11:34:45 | 48.88029 | 9.98164 | 56° | 33km/h | 15741m | 4.6m/s | -53.5°C | 1.1% | 114.4hPa | 2.8V | 18:12:15 | 01:16:24 | 00:00:00 | |
| OE5DRO-10 | 2026-08-30 11:34:44 | 48.88024 | 9.98154 | 55° | 35km/h | 15737m | 4.1m/s | -53.5°C | 4.3% | 114.5hPa | 2.7V | 00:00:00 | 00:00:00 | 00:00:00 | |
| DB0UT-7 | 2026-08-30 11:34:42 | 48.88012 | 9.98131 | 49° | 35km/h | 15728m | 3.9m/s | -53.5°C | 4.3% | 114.6hPa | 2.7V | 00:00:00 | 00:00:00 | 00:00:00 | |
| NBG1-10 | 2026-08-30 11:34:41 | 48.88005 | 9.98119 | 51° | 35km/h | 15724m | 3.2m/s | -53.4°C | 4.2% | 114.7hPa | 2.7V | 00:00:00 | 01:16:20 | 00:00:00 | |
| DO3MHA-12 | 2026-08-30 11:34:39 | 48.87994 | 9.98094 | 62° | 33km/h | 15715m | 4.1m/s | -53.3°C | 4.2% | 114.9hPa | 2.7V | 00:00:00 | 01:16:18 | 08:30:00 | |
| DM0DOS-11 | 2026-08-30 11:34:38 | 48.87975 | 9.98015 | 72° | 29km/h | 15683m | 4.2m/s | -53.8°C | 4.5% | 115.5hPa | 2.7V | 08:30:00 | 01:16:11 | 00:00:00 | |
| DK7TD | 2026-08-30 11:34:34 | 48.87979 | 9.98036 | 74° | 27km/h | 15693m | 5.3m/s | -53.6°C | 1.1% | 115.3hPa | 2.8V | 18:12:15 | 01:16:13 | 00:00:00 | |
| DK7TD | 2026-08-30 11:34:24 | 48.87942 | 9.97915 | 69° | 38km/h | 15649m | 4.8m/s | -54.1°C | 1.3% | 116.1hPa | 2.7V | 18:12:15 | 01:16:03 | 00:00:00 | |
| DM0DOS-11 | 2026-08-30 11:34:23 | 48.87937 | 9.97889 | 78° | 31km/h | 15639m | 5.4m/s | -54.1°C | 4.4% | 116.2hPa | 2.8V | 08:30:00 | 01:16:01 | 00:00:00 | |
| SONCRA | 2026-08-30 11:34:22 | 48.87935 | 9.97878 | 77° | 29km/h | 15633m | 7.3m/s | -54.3°C | 1.7% | 116.4hPa | 2.8V | 00:00:00 | 00:00:00 | 00:00:00 | |
| DO3MHA-12 | 2026-08-30 11:34:19 | 48.87930 | 9.97854 | 71° | 38km/h | 15620m | 5.7m/s | -54.2°C | 4.6% | 116.6hPa | 2.8V | 00:00:00 | 01:15:58 | 00:00:00 | |
| DJTTGO | 2026-08-30 11:34:18 | 48.87931 | 9.97854 | 71° | 35km/h | 15620m | 5.7m/s | -54.3°C | 1.8% | 116.6hPa | 2.8V | 00:00:00 | 00:00:00 | 00:00:00 | |
| DM0DOS-11 | 2026-08-30 11:34:17 | 48.87909 | 9.97760 | 72° | 40km/h | 15587m | 3.5m/s | -54.5°C | 4.7% | 117.2hPa | 2.8V | 08:30:00 | 01:15:51 | 00:00:00 | |
| DK7TD | 2026-08-30 11:34:14 | 48.87915 | 9.97788 | 74° | 37km/h | 15596m | 3.7m/s | -54.4°C | 1.4% | 117.1hPa | 2.7V | 18:12:15 | 01:15:53 | 00:00:00 | |
| DK7TD | 2026-08-30 11:34:03 | 48.87884 | 9.97633 | 74° | 42km/h | 15548m | 4.7m/s | -54.7°C | 1.6% | 117.9hPa | 2.7V | 18:12:15 | 01:15:42 | 00:00:00 | |
| DM0DOS-11 | 2026-08-30 11:34:03 | 48.87881 | 9.97618 | 71° | 44km/h | 15544m | 3.9m/s | -54.7°C | 4.8% | 118hPa | 2.7V | 08:30:00 | 01:15:41 | 00:00:00 | |
| DK7TD | 2026-08-30 11:33:49 | 48.87825 | 9.97405 | 73° | 44km/h | 15485m | 3.7m/s | -54.8°C | 1.8% | 119.1hPa | 2.8V | 18:12:15 | 01:15:28 | 00:00:00 | |
| DO3MHA-12 | 2026-08-30 11:33:49 | 48.87825 | 9.97405 | 74° | 46km/h | 15485m | 3.6m/s | -54.7°C | 5.0% | 119.1hPa | 2.7V | 00:00:00 | 01:15:28 | 00:00:00 | |
| DJ8HS-15 | 2026-08-30 11:33:48 | 48.87821 | 9.97389 | 73° | 47km/h | 15481m | 4.1m/s | -54.8°C | 5.0% | 119.1hPa | 2.7V | 00:00:00 | 01:15:27 | 00:00:00 | |
| OE5DRO-10 | 2026-08-30 11:33:47 | 48.87818 | 9.97373 | 72° | 49km/h | 15477m | 4.7m/s | -54.7°C | 5.0% | 119.2hPa | 2.7V | 00:00:00 | 00:00:00 | 00:00:00 | |
| DM7RM-13 | 2026-08-30 11:33:45 | 48.87814 | 9.97356 | 71° | 46km/h | 15472m | 4.4m/s | -54.8°C | 2.0% | 119.3hPa | 2.7V | 00:00:00 | 00:00:00 | 00:00:00 | |
| DM0DOS-11 | 2026-08-30 11:33:43 | 48.87799 | 9.97289 | 71° | 46km/h | 15453m | 5.9m/s | -54.8°C | 4.9% | 119.6hPa | 2.7V | 08:30:00 | 01:15:21 | 00:00:00 | |
| DB0UT-7 | 2026-08-30 11:33:42 | 48.87799 | 9.97289 | 72° | 53km/h | 15454m | 5.8m/s | -54.8°C | 4.9% | 119.6hPa | 2.8V | 00:00:00 | 00:00:00 | 00:00:00 | |
| DF7PN | 2026-08-30 11:33:39 | 48.87785 | 9.97220 | 78° | 49km/h | 15435m | 4.5m/s | -54.8°C | 2.0% | 120.0hPa | 2.8V | 00:00:00 | 00:00:00 | 00:00:00 | |
| DM0DOS-11 | 2026-08-30 11:33:37 | 48.87767 | 9.97110 | 72° | 49km/h | 15405m | 5.4m/s | -55°C | 5% | 120.6hPa | 2.8V | 08:30:00 | 01:15:11 | 00:00:00 | |
| DK7TD | 2026-08-30 11:33:37 | 48.87783 | 9.97201 | 79° | 49km/h | 15431m | 4.4m/s | -54.9°C | 1.8% | 120.1hPa | 2.8V | 18:12:15 | 01:15:16 | 00:00:00 | |
| DK7TD | 2026-08-30 11:33:26 | 48.87746 | 9.96990 | 77° | 60km/h | 15378m | 5m/s | -55°C | 2% | 121.1hPa | 2.8V | 18:12:15 | 01:15:05 | 00:00:00 | |
| DM7RM-13 | 2026-08-30 11:33:25 | 48.87745 | 9.96990 | 78° | 60km/h | 15378m | 5.0m/s | -55.0°C | 2.2% | 121.1hPa | 2.7V | 00:00:00 | 00:00:00 | 00:00:00 | |
| DG1MJG | 2026-08-30 11:33:24 | 48.87739 | 9.96945 | 79° | 58km/h | 15368m | 5.6m/s | -55.0°C | 2.2% | 121.3hPa | 2.7V | 00:00:00 | 00:00:00 | 00:00:00 | |
| DM0DOS-11 | 2026-08-30 11:33:23 | 48.87725 | 9.96841 | 78° | 55km/h | 15345m | 3.8m/s | -55.1°C | 5.2% | 121.7hPa | 2.7V | 08:30:00 | 01:14:58 | 00:00:00 | |
| DK7TD | 2026-08-30 11:33:15 | 48.87717 | 9.96757 | 81° | 58km/h | 15326m | 5.2m/s | -55.3°C | 2.2% | 122.1hPa | 2.8V | 18:12:15 | 01:14:54 | 00:00:00 | |
| DK7TD | 2026-08-30 11:33:05 | 48.87697 | 9.96514 | 82° | 64km/h | 15277m | 5.4m/s | -55.3°C | 2.3% | 123hPa | 2.8V | 18:12:15 | 01:14:44 | 00:00:00 | |
| DM7RM-13 | 2026-08-30 11:33:04 | 48.87696 | 9.96514 | 83° | 64km/h | 15277m | 5.4m/s | -55.3°C | 2.4% | 123.0hPa | 2.8V | 00:00:00 | 00:00:00 | 00:00:00 | |
| DM0DOS-11 | 2026-08-30 11:33:03 | 48.87689 | 9.96413 | 82° | 69km/h | 15256m | 5.9m/s | -55.2°C | 5.5% | 123.4hPa | 2.8V | 08:30:00 | 01:14:40 | 00:00:00 | |
| DK7TD | 2026-08-30 11:32:54 | 48.87668 | 9.96229 | 80° | 68km/h | 15222m | 5.2m/s | -55.2°C | 2.3% | 124hPa | 2.8V | 18:12:15 | 01:14:33 | 00:00:00 | |
| DM0DOS-11 | 2026-08-30 11:32:52 | 48.87658 | 9.96153 | 77° | 66km/h | 15207m | 4.5m/s | -55.1°C | 5.5% | 124.3hPa | 2.7V | 08:30:00 | 01:14:30 | 00:00:00 | |
| DB0ND-19 | 2026-08-30 11:32:46 | 48.87634 | 9.95998 | 78° | 69km/h | 15179m | 4.0m/s | -54.9°C | 2.4% | 124.9hPa | 2.8V | 00:00:00 | 00:00:00 | 00:00:00 | |
| DK7TD | 2026-08-30 11:32:44 | 48.87630 | 9.95971 | 78° | 71km/h | 15175m | 4.1m/s | -54.9°C | 2.4% | 125hPa | 2.8V | 18:12:15 | 01:14:23 | 00:00:00 | |
| DM0DOS-11 | 2026-08-30 11:32:42 | 48.87619 | 9.95886 | 78° | 78km/h | 15160m | 4.8m/s | -54.9°C | 5.5% | 125.3hPa | 2.7V | 08:30:00 | 01:14:20 | 00:00:00 | |
| DK7TD | 2026-08-30 11:32:33 | 48.87580 | 9.95664 | 71° | 75km/h | 15120m | 4.7m/s | -54.9°C | 2.6% | 126hPa | 2.8V | 18:12:15 | 01:14:12 | 00:00:00 | |
| DM0DOS-11 | 2026-08-30 11:32:32 | 48.87561 | 9.95581 | 72° | 78km/h | 15104m | 4.7m/s | -54.9°C | 5.6% | 126.4hPa | 2.7V | 08:30:00 | 01:14:09 | 00:00:00 | |
| DK7TD | 2026-08-30 11:32:23 | 48.87528 | 9.95383 | 72° | 77km/h | 15070m | 5m/s | -54.7°C | 2.6% | 127.1hPa | 2.8V | 18:12:15 | 01:14:02 | 00:00:00 | |
| DG1MJG | 2026-08-30 11:32:22 | 48.87528 | 9.95383 | 73° | 77km/h | 15070m | 5.0m/s | -54.7°C | 2.5% | 127.1hPa | 2.7V | 00:00:00 | 00:00:00 | 00:00:00 | |
| DM0DOS-11 | 2026-08-30 11:32:21 | 48.87509 | 9.95301 | 68° | 77km/h | 15055m | 5.6m/s | -54.6°C | 5.6% | 127.3hPa | 2.7V | 08:30:00 | 01:13:59 | 00:00:00 | |
| DK7TD | 2026-08-30 11:32:12 | 48.87454 | 9.95089 | 70° | 71km/h | 15015m | 5.4m/s | -54.6°C | 2.8% | 128.1hPa | 2.7V | 18:12:15 | 01:13:51 | 00:00:00 | |
| DM0DOS-11 | 2026-08-30 11:32:11 | 48.87441 | 9.95038 | 68° | 71km/h | 15005m | 5.3m/s | -54.6°C | 5.8% | 128.3hPa | 2.8V | 08:30:00 | 01:13:49 | 00:00:00 | |
| DO3MHA-12 | 2026-08-30 11:32:09 | 48.87434 | 9.95013 | 68° | 71km/h | 15000m | 5.0m/s | -54.6°C | 5.9% | 128.4hPa | 2.7V | 00:00:00 | 01:13:48 | 00:00:00 | |
| DJ8HS-15 | 2026-08-30 11:32:08 | 48.87427 | 9.94987 | 66° | 73km/h | 14996m | 3.6m/s | -54.5°C | 5.8% | 128.5hPa | 2.7V | 00:00:00 | 01:13:47 | 00:00:00 | |
| DM0DOS-11 | 2026-08-30 11:32:06 | 48.87364 | 9.94792 | 67° | 73km/h | 14955m | 5.6m/s | -54.4°C | 5.7% | 129.3hPa | 2.7V | 08:30:00 | 01:13:39 | 00:00:00 | |
| DK7TD | 2026-08-30 11:32:02 | 48.87379 | 9.94842 | 65° | 69km/h | 14965m | 5.5m/s | -54.5°C | 2.9% | 129.2hPa | 2.8V | 18:12:15 | 01:13:41 | 00:00:00 | |
| DF3TZ-5 | 2026-08-30 11:32:00 | 48.87364 | 9.94792 | 67° | 73km/h | 14955m | 5.6m/s | -54.4°C | 2.7% | 129.3hPa | 2.7V | 00:00:00 | 00:00:00 | 00:00:00 | |
| DL9SK-14 | 2026-08-30 11:31:57 | 48.87341 | 9.94711 | 64° | 78km/h | 14940m | 5.5m/s | -54.3°C | 2.7% | 129.7hPa | 2.7V | 00:00:00 | 00:00:00 | 00:00:00 | |
| NBG1-10 | 2026-08-30 11:31:56 | 48.87332 | 9.94684 | 61° | 71km/h | 14936m | 4.1m/s | -54.1°C | 5.7% | 129.7hPa | 2.7V | 00:00:00 | 01:13:35 | 00:00:00 | |
| OE5DRO-10 | 2026-08-30 11:31:53 | 48.87301 | 9.94611 | 55° | 69km/h | 14922m | 4.8m/s | -54.2°C | 5.8% | 130.0hPa | 2.7V | 00:00:00 | 00:00:00 | 00:00:00 | |
| DG1MJG | 2026-08-30 11:31:51 | 48.87290 | 9.94590 | 54° | 68km/h | 14917m | 4.9m/s | -54.4°C | 2.8% | 130.1hPa | 2.7V | 00:00:00 | 00:00:00 | 00:00:00 | |
| DK7TD | 2026-08-30 11:31:51 | 48.87280 | 9.94570 | 51° | 68km/h | 14911m | 5.6m/s | -54.5°C | 3.2% | 130.3hPa | 2.7V | 18:12:15 | 01:13:30 | 00:00:00 | |
| DM0DOS-11 | 2026-08-30 11:31:51 | 48.87269 | 9.94550 | 51° | 68km/h | 14906m | 4.4m/s | -54.4°C | 5.9% | 130.4hPa | 2.8V | 08:30:00 | 01:13:29 | 00:00:00 | |
| DO3MHA-12 | 2026-08-30 11:31:49 | 48.87259 | 9.94529 | 54° | 73km/h | 14902m | 3.6m/s | -54.3°C | 5.9% | 130.4hPa | 2.7V | 00:00:00 | 01:13:28 | 00:00:00 | |
| DJ8HS-15 | 2026-08-30 11:31:48 | 48.87249 | 9.94508 | 58° | 71km/h | 14898m | 5.3m/s | -54.4°C | 6.1% | 130.5hPa | 2.7V | 00:00:00 | 01:13:27 | 00:00:00 | |
| DM0DOS-11 | 2026-08-30 11:31:44 | 48.87177 | 9.94307 | 57° | 71km/h | 14861m | 4.5m/s | -54.5°C | 5.9% | 131.3hPa | 2.7V | 08:30:00 | 01:13:19 | 00:00:00 | |
| DK7TD | 2026-08-30 11:31:41 | 48.87186 | 9.94330 | 60° | 75km/h | 14866m | 4.4m/s | -54.5°C | 3.3% | 131.2hPa | 2.7V | 18:12:15 | 01:13:20 | 00:00:00 | |
| DL1ZP-14 | 2026-08-30 11:31:40 | 48.87177 | 9.94307 | 57° | 69km/h | 14861m | 4.5m/s | -54.5°C | 2.9% | 131.3hPa | 2.7V | 00:00:00 | 00:00:00 | 00:00:00 | |
| DO3MHA-12 | 2026-08-30 11:31:39 | 48.87167 | 9.94284 | 55° | 68km/h | 14857m | 5.0m/s | -54.4°C | 5.8% | 131.3hPa | 2.7V | 00:00:00 | 01:13:18 | 08:30:00 | |
| DF7PN | 2026-08-30 11:31:34 | 48.87124 | 9.94176 | 66° | 68km/h | 14832m | 4.7m/s | -54.6°C | 2.9% | 131.9hPa | 2.7V | 00:00:00 | 00:00:00 | 00:00:00 | |
| DJTTGO | 2026-08-30 11:31:33 | 48.87124 | 9.94176 | 67° | 69km/h | 14832m | 4.7m/s | -54.6°C | 2.9% | 131.9hPa | 2.7V | 00:00:00 | 00:00:00 | 00:00:00 | |
| DM0DOS-11 | 2026-08-30 11:31:31 | 48.87097 | 9.94078 | 67° | 73km/h | 14814m | 4.9m/s | -54.8°C | 6.1% | 132.2hPa | 2.7V | 08:30:00 | 01:13:09 | 00:00:00 | |
| DK7TD | 2026-08-30 11:31:30 | 48.87097 | 9.94078 | 68° | 73km/h | 14814m | 4.9m/s | -54.8°C | 3.5% | 132.3hPa | 2.7V | 18:12:15 | 01:13:09 | 00:00:00 | |
| DO3MHA-12 | 2026-08-30 11:31:29 | 48.87089 | 9.94052 | 67° | 68km/h | 14810m | 3.1m/s | -54.8°C | 6.1% | 132.3hPa | 2.7V | 00:00:00 | 01:13:08 | 00:00:00 | |
| DJ8HS-15 | 2026-08-30 11:31:28 | 48.87082 | 9.94027 | 66° | 66km/h | 14806m | 5.1m/s | -54.8°C | 6.1% | 132.4hPa | 2.7V | 00:00:00 | 01:13:07 | 00:00:00 | |
| DL9SK-14 | 2026-08-30 11:31:26 | 48.87067 | 9.93981 | 61° | 64km/h | 14797m | 3.4m/s | -54.8°C | 3.0% | 132.6hPa | 2.7V | 00:00:00 | 00:00:00 | 00:00:00 | |
| DL6DJ-15 | 2026-08-30 11:31:25 | 48.87059 | 9.93959 | 61° | 64km/h | 14793m | 3.8m/s | -54.9°C | 3.0% | 132.7hPa | 2.7V | 00:00:00 | 00:00:00 | 00:00:00 | |
| DM0DOS-11 | 2026-08-30 11:31:24 | 48.87023 | 9.93845 | 63° | 68km/h | 14771m | 4.3m/s | -55°C | 6.1% | 133.1hPa | 2.7V | 08:30:00 | 01:12:59 | 00:00:00 | |
| DK7TD | 2026-08-30 11:31:20 | 48.87023 | 9.93845 | 64° | 68km/h | 14771m | 4.3m/s | -55°C | 3.4% | 133.1hPa | 2.7V | 18:12:15 | 01:12:59 | 00:00:00 | |
| DO3MHA-12 | 2026-08-30 11:31:19 | 48.87015 | 9.93821 | 65° | 64km/h | 14767m | 5.2m/s | -55.1°C | 6.1% | 133.2hPa | 2.8V | 00:00:00 | 01:12:58 | 00:00:00 | |
| DM0DOS-11 | 2026-08-30 11:31:11 | 48.86956 | 9.93621 | 72° | 60km/h | 14728m | 4m/s | -55.5°C | 6.1% | 134hPa | 2.8V | 08:30:00 | 01:12:49 | 00:00:00 | |
| DK7TD | 2026-08-30 11:31:10 | 48.86956 | 9.93621 | 72° | 60km/h | 14728m | 4m/s | -55.5°C | 3.3% | 134hPa | 2.8V | 18:12:15 | 01:12:49 | 00:00:00 | |
| DL1ZP-14 | 2026-08-30 11:31:10 | 48.86952 | 9.93598 | 72° | 62km/h | 14724m | 4.7m/s | -55.4°C | 2.9% | 134.2hPa | 2.7V | 00:00:00 | 00:00:00 | 00:00:00 | |
| OE5DXL-15 | 2026-08-30 11:31:09 | 48.86951 | 9.93598 | 73° | 73km/h | 14724m | 4.7m/s | -55.4°C | 6.1% | 134.1hPa | 2.7V | 00:00:00 | 00:00:00 | 00:00:00 | |
| DJ8HS-15 | 2026-08-30 11:31:08 | 48.86947 | 9.93575 | 73° | 71km/h | 14720m | 3.1m/s | -55.4°C | 6.1% | 134.2hPa | 2.7V | 00:00:00 | 01:12:47 | 00:00:00 | |
| AZAK | 2026-08-30 11:31:07 | 48.86946 | 9.93575 | 73° | 66km/h | 14720m | 3.2m/s | -55.5°C | 2.9% | 134.2hPa | 2.7V | 00:00:00 | 00:00:00 | 00:00:00 | |
| DM0DOS-11 | 2026-08-30 11:31:05 | 48.86902 | 9.93370 | 74° | 71km/h | 14682m | 4.8m/s | -55.4°C | 5.8% | 135hPa | 2.7V | 08:30:00 | 01:12:39 | 00:00:00 | |
| DK7TD | 2026-08-30 11:30:59 | 48.86898 | 9.93343 | 78° | 73km/h | 14677m | 5m/s | -55.4°C | 3% | 135.1hPa | 2.7V | 18:12:15 | 01:12:38 | 00:00:00 | |
| DF3TZ-5 | 2026-08-30 11:30:58 | 48.86894 | 9.93316 | 79° | 71km/h | 14673m | 3.3m/s | -55.4°C | 2.7% | 135.2hPa | 2.7V | 00:00:00 | 00:00:00 | 00:00:00 | |
| DL9SK-14 | 2026-08-30 11:30:55 | 48.86885 | 9.93234 | 80° | 71km/h | 14661m | 4.0m/s | -55.4°C | 2.7% | 135.5hPa | 2.7V | 00:00:00 | 00:00:00 | 00:00:00 | |
| DL6DJ-15 | 2026-08-30 11:30:54 | 48.86882 | 9.93207 | 81° | 71km/h | 14656m | 4.9m/s | -55.4°C | 2.7% | 135.6hPa | 2.7V | 00:00:00 | 00:00:00 | 00:00:00 | |
| DM0DOS-11 | 2026-08-30 11:30:52 | 48.86870 | 9.93098 | 78° | 71km/h | 14640m | 2.9m/s | -55.4°C | 5.7% | 135.9hPa | 2.7V | 08:30:00 | 01:12:29 | 00:00:00 | |
| DK7TD | 2026-08-30 11:30:49 | 48.86866 | 9.93071 | 79° | 75km/h | 14636m | 4.9m/s | -55.5°C | 2.8% | 136.1hPa | 2.7V | 18:12:15 | 01:12:28 | 00:00:00 | |
| DO3MHA-12 | 2026-08-30 11:30:49 | 48.86866 | 9.93071 | 79° | 80km/h | 14636m | 4.9m/s | -55.4°C | 5.7% | 136.0hPa | 2.8V | 00:00:00 | 01:12:28 | 00:00:00 | |
| DJ8HS-15 | 2026-08-30 11:30:48 | 48.86862 | 9.93042 | 79° | 78km/h | 14631m | 4.4m/s | -55.5°C | 5.7% | 136.1hPa | 2.8V | 00:00:00 | 01:12:27 | 00:00:00 | |
| DM0DOS-11 | 2026-08-30 11:30:46 | 48.86835 | 9.92799 | 84° | 78km/h | 14598m | 4.7m/s | -55.6°C | 5.9% | 136.8hPa | 2.8V | 08:30:00 | 01:12:19 | 00:00:00 | |
| DK7TD | 2026-08-30 11:30:38 | 48.86834 | 9.92740 | 91° | 77km/h | 14590m | 3.2m/s | -55.6°C | 3.1% | 137hPa | 2.7V | 18:12:15 | 01:12:17 | 00:00:00 | |
| DM0DOS-11 | 2026-08-30 11:30:31 | 48.86823 | 9.92510 | 82° | 82km/h | 14559m | 3.6m/s | -55.7°C | 6% | 137.7hPa | 2.8V | 08:30:00 | 01:12:09 | 00:00:00 | |
| DK7TD | 2026-08-30 11:30:27 | 48.86816 | 9.92415 | 84° | 84km/h | 14547m | 3.5m/s | -55.8°C | 3.2% | 137.9hPa | 2.8V | 18:12:15 | 01:12:06 | 00:00:00 | |
| DF3TZ-5 | 2026-08-30 11:30:27 | 48.86816 | 9.92415 | 84° | 82km/h | 14547m | 3.5m/s | -55.8°C | 2.9% | 137.9hPa | 2.7V | 00:00:00 | 00:00:00 | 00:00:00 | |
| AZAK | 2026-08-30 11:30:26 | 48.86814 | 9.92383 | 85° | 84km/h | 14543m | 4.0m/s | -55.8°C | 2.9% | 138.1hPa | 2.7V | 00:00:00 | 00:00:00 | 00:00:00 | |
| DM0DOS-11 | 2026-08-30 11:30:25 | 48.86800 | 9.92199 | 79° | 75km/h | 14518m | 3.4m/s | -55.8°C | 6.1% | 138.5hPa | 2.7V | 08:30:00 | 01:11:59 | 00:00:00 | |
| DK7TD | 2026-08-30 11:30:16 | 48.86786 | 9.92083 | 80° | 78km/h | 14502m | 5.3m/s | -55.9°C | 3.2% | 139hPa | 2.8V | 18:12:15 | 01:11:55 | 00:00:00 | |
| DM0DOS-11 | 2026-08-30 11:30:11 | 48.86766 | 9.91900 | 79° | 80km/h | 14478m | 3.8m/s | -55.9°C | 6% | 139.4hPa | 2.8V | 08:30:00 | 01:11:49 | 00:00:00 | |
| DK7TD | 2026-08-30 11:30:06 | 48.86753 | 9.91781 | 79° | 78km/h | 14462m | 4.2m/s | -55.9°C | 3% | 139.8hPa | 2.8V | 18:12:15 | 01:11:45 | 00:00:00 | |
| DM0DOS-11 | 2026-08-30 11:30:05 | 48.86732 | 9.91608 | 81° | 77km/h | 14438m | 2.6m/s | -55.9°C | 5.8% | 140.4hPa | 2.8V | 08:30:00 | 01:11:39 | 00:00:00 | |
| DK7TD | 2026-08-30 11:29:56 | 48.86722 | 9.91495 | 82° | 73km/h | 14420m | 3.9m/s | -55.9°C | 2.7% | 140.8hPa | 2.7V | 18:12:15 | 01:11:35 | 00:00:00 | |
| DK7TD | 2026-08-30 11:29:46 | 48.86696 | 9.91211 | 80° | 82km/h | 14378m | 4.8m/s | -55.7°C | 2.6% | 141.7hPa | 2.8V | 18:12:15 | 01:11:25 | 00:00:00 | |
| DM0DOS-11 | 2026-08-30 11:29:45 | 48.86676 | 9.91031 | 81° | 77km/h | 14353m | 3.9m/s | -56.2°C | 5.8% | 142.2hPa | 2.7V | 08:30:00 | 01:11:19 | 00:00:00 | |
| AZAK | 2026-08-30 11:29:44 | 48.86688 | 9.91149 | 81° | 80km/h | 14369m | 4.9m/s | -55.9°C | 2.6% | 141.8hPa | 2.7V | 00:00:00 | 00:00:00 | 00:00:00 | |
| DB0UT-7 | 2026-08-30 11:29:42 | 48.86682 | 9.91090 | 81° | 80km/h | 14362m | 3.9m/s | -56.1°C | 5.8% | 141.9hPa | 2.7V | 00:00:00 | 00:00:00 | 00:00:00 | |
| DB0ND-19 | 2026-08-30 11:29:40 | 48.86674 | 9.91003 | 83° | 73km/h | 14348m | 5.1m/s | -56.2°C | 2.7% | 142.3hPa | 2.7V | 00:00:00 | 00:00:00 | 00:00:00 | |
| DO3MHA-12 | 2026-08-30 11:29:39 | 48.86673 | 9.91003 | 84° | 78km/h | 14349m | 5.1m/s | -56.2°C | 5.8% | 142.2hPa | 2.7V | 00:00:00 | 01:11:18 | 00:00:00 | |
| DF1GD-15 | 2026-08-30 11:29:37 | 48.86671 | 9.90947 | 88° | 73km/h | 14340m | 4.4m/s | -56.2°C | 2.7% | 142.5hPa | 2.7V | 00:00:00 | 00:00:00 | 00:00:00 | |
| DL1ZP-14 | 2026-08-30 11:29:36 | 48.86670 | 9.90919 | 86° | 73km/h | 14335m | 4.6m/s | -56.2°C | 2.7% | 142.6hPa | 2.7V | 00:00:00 | 00:00:00 | 00:00:00 | |
| DM0DOS-11 | 2026-08-30 11:29:35 | 48.86666 | 9.90734 | 84° | 82km/h | 14309m | 3.6m/s | -56°C | 5.9% | 143.2hPa | 2.7V | 08:30:00 | 01:11:09 | 00:00:00 | |
| DK7TD | 2026-08-30 11:29:35 | 48.86669 | 9.90890 | 87° | 77km/h | 14331m | 3.8m/s | -56.1°C | 2.8% | 142.7hPa | 2.7V | 18:12:15 | 01:11:14 | 00:00:00 | |
| OE5DRO-10 | 2026-08-30 11:29:32 | 48.86668 | 9.90797 | 89° | 82km/h | 14318m | 4.0m/s | 0°C | 0% | 0hPa | 2.7V | 00:00:00 | 00:00:00 | 00:00:00 | |
| DF7PN | 2026-08-30 11:29:30 | 48.86666 | 9.90734 | 84° | 82km/h | 14310m | 3.6m/s | -56.1°C | 2.7% | 143.2hPa | 2.7V | 00:00:00 | 00:00:00 | 00:00:00 | |
| DO3MHA-12 | 2026-08-30 11:29:29 | 48.86664 | 9.90703 | 85° | 80km/h | 14306m | 3.7m/s | -56.0°C | 5.8% | 143.2hPa | 2.7V | 00:00:00 | 01:11:08 | 00:00:00 | |
| DJ8HS-15 | 2026-08-30 11:29:28 | 48.86662 | 9.90672 | 86° | 80km/h | 14302m | 5.0m/s | -56.0°C | 5.8% | 143.4hPa | 2.7V | 00:00:00 | 01:11:07 | 08:30:00 | |
| DM0DOS-11 | 2026-08-30 11:29:25 | 48.86653 | 9.90424 | 88° | 84km/h | 14268m | 4.7m/s | -55.9°C | 5.9% | 144.1hPa | 2.8V | 08:30:00 | 01:10:59 | 00:00:00 | |
| DK7TD | 2026-08-30 11:29:24 | 48.86657 | 9.90552 | 86° | 80km/h | 14285m | 4.1m/s | -56°C | 2.9% | 143.7hPa | 2.7V | 18:12:15 | 01:11:03 | 00:00:00 | |
| AZAK | 2026-08-30 11:29:23 | 48.86655 | 9.90521 | 88° | 80km/h | 14281m | 5.1m/s | -56.0°C | 2.7% | 143.8hPa | 2.8V | 00:00:00 | 00:00:00 | 00:00:00 | |
| DL9SK-14 | 2026-08-30 11:29:22 | 48.86654 | 9.90457 | 88° | 84km/h | 14272m | 4.1m/s | -55.9°C | 2.8% | 144.1hPa | 2.8V | 00:00:00 | 00:00:00 | 00:00:00 | |
| DM7RM-13 | 2026-08-30 11:29:21 | 48.86654 | 9.90457 | 89° | 86km/h | 14273m | 4.1m/s | -55.9°C | 2.8% | 144.1hPa | 2.8V | 00:00:00 | 00:00:00 | 00:00:00 | |
| DO3MHA-12 | 2026-08-30 11:29:19 | 48.86652 | 9.90392 | 88° | 82km/h | 14264m | 4.0m/s | -55.9°C | 5.9% | 144.2hPa | 2.8V | 00:00:00 | 01:10:58 | 00:00:00 | |
| DF1GD-15 | 2026-08-30 11:29:17 | 48.86649 | 9.90327 | 85° | 86km/h | 14255m | 3.8m/s | -55.9°C | 2.9% | 144.5hPa | 2.8V | 00:00:00 | 00:00:00 | 00:00:00 | |
| DM0DOS-11 | 2026-08-30 11:29:14 | 48.86628 | 9.90083 | 83° | 78km/h | 14219m | 4.9m/s | -56.2°C | 6.2% | 145.2hPa | 2.8V | 08:30:00 | 01:10:48 | 00:00:00 | |
| DK7TD | 2026-08-30 11:29:13 | 48.86639 | 9.90201 | 82° | 77km/h | 14237m | 4.1m/s | -56.2°C | 3.2% | 144.8hPa | 2.8V | 18:12:15 | 01:10:52 | 00:00:00 | |
| DK7TD | 2026-08-30 11:29:03 | 48.86612 | 9.89887 | 81° | 91km/h | 14191m | 5.1m/s | -56.6°C | 3.8% | 145.9hPa | 2.8V | 18:12:15 | 01:10:42 | 00:00:00 | |
| AZAK | 2026-08-30 11:29:03 | 48.86608 | 9.89853 | 80° | 89km/h | 14186m | 4.8m/s | -56.6°C | 3.3% | 146.0hPa | 2.8V | 00:00:00 | 00:00:00 | 00:00:00 | |
| DM0DOS-11 | 2026-08-30 11:29:01 | 48.86587 | 9.89666 | 81° | 80km/h | 14160m | 4.8m/s | -56.6°C | 6.8% | 146.6hPa | 2.8V | 08:30:00 | 01:10:35 | 00:00:00 | |
| DK7TD | 2026-08-30 11:28:52 | 48.86577 | 9.89541 | 85° | 84km/h | 14142m | 4.4m/s | -56.9°C | 4.1% | 147hPa | 2.7V | 18:12:15 | 01:10:31 | 00:00:00 | |
| DM0DOS-11 | 2026-08-30 11:28:51 | 48.86560 | 9.89346 | 80° | 91km/h | 14112m | 3.3m/s | -56.9°C | 6.8% | 147.8hPa | 2.7V | 08:30:00 | 01:10:25 | 00:00:00 | |
| DL9SK-14 | 2026-08-30 11:28:51 | 48.86573 | 9.89477 | 84° | 84km/h | 14132m | 4.9m/s | -56.8°C | 3.4% | 147.3hPa | 2.7V | 00:00:00 | 00:00:00 | 00:00:00 | |
| DL6DJ-15 | 2026-08-30 11:28:50 | 48.86570 | 9.89445 | 83° | 82km/h | 14127m | 5.3m/s | -56.9°C | 3.5% | 147.4hPa | 2.7V | 00:00:00 | 00:00:00 | 00:00:00 | |
| DK7TD | 2026-08-30 11:28:42 | 48.86550 | 9.89205 | 86° | 95km/h | 14094m | 5m/s | -57.1°C | 4.2% | 148.1hPa | 2.7V | 18:12:15 | 01:10:21 | 00:00:00 | |
| DK7TD | 2026-08-30 11:28:32 | 48.86520 | 9.88855 | 78° | 88km/h | 14047m | 4.4m/s | -57.2°C | 4.2% | 149.2hPa | 2.8V | 18:12:15 | 01:10:11 | 00:00:00 | |
| DK7TD | 2026-08-30 11:28:21 | 48.86490 | 9.88470 | 82° | 88km/h | 13992m | 5.1m/s | -57.1°C | 4.2% | 150.6hPa | 2.8V | 18:12:15 | 01:10:00 | 00:00:00 | |
| DK7TD | 2026-08-30 11:28:11 | 48.86460 | 9.88123 | 83° | 89km/h | 13946m | 4.2m/s | -56.9°C | 4.2% | 151.7hPa | 2.7V | 18:12:15 | 01:09:50 | 00:00:00 | |
| DO3MHA-12 | 2026-08-30 11:28:09 | 48.86455 | 9.88054 | 85° | 93km/h | 13937m | 4.9m/s | -56.9°C | 7.0% | 151.8hPa | 2.7V | 00:00:00 | 01:09:48 | 00:00:00 | |
| DJ8HS-15 | 2026-08-30 11:28:08 | 48.86453 | 9.88020 | 85° | 91km/h | 13931m | 5.4m/s | -56.9°C | 7.0% | 152.0hPa | 2.8V | 00:00:00 | 01:09:47 | 00:00:00 | |
| DB0ND-19 | 2026-08-30 11:28:07 | 48.86448 | 9.87950 | 83° | 91km/h | 13922m | 3.9m/s | -56.8°C | 3.6% | 152.3hPa | 2.8V | 00:00:00 | 00:00:00 | 00:00:00 | |
| NBG1-10 | 2026-08-30 11:28:05 | 48.86445 | 9.87915 | 85° | 91km/h | 13918m | 4.9m/s | -56.7°C | 6.9% | 152.3hPa | 2.8V | 00:00:00 | 01:09:44 | 00:00:00 | |
| DM0DOS-11 | 2026-08-30 11:28:03 | 48.86440 | 9.87807 | 84° | 97km/h | 13904m | 4.8m/s | -56.7°C | 6.9% | 152.7hPa | 2.8V | 08:30:00 | 01:09:41 | 00:00:00 | |
| DK7TD | 2026-08-30 11:28:00 | 48.86434 | 9.87734 | 83° | 95km/h | 13895m | 4.1m/s | -56.7°C | 4% | 152.9hPa | 2.7V | 18:12:15 | 01:09:39 | 00:00:00 | |
| DF7PN | 2026-08-30 11:27:57 | 48.86426 | 9.87629 | 84° | 89km/h | 13881m | 4.4m/s | -56.7°C | 3.4% | 153.2hPa | 2.8V | 00:00:00 | 00:00:00 | 00:00:00 | |
| DM0DOS-11 | 2026-08-30 11:27:56 | 48.86408 | 9.87425 | 82° | 89km/h | 13852m | 5.8m/s | -57.1°C | 7% | 153.9hPa | 2.8V | 08:30:00 | 01:09:30 | 00:00:00 | |
| DK7TD | 2026-08-30 11:27:50 | 48.86405 | 9.87391 | 82° | 91km/h | 13847m | 5.4m/s | -57°C | 4% | 154.1hPa | 2.8V | 18:12:15 | 01:09:29 | 00:00:00 | |
| DL9SK-14 | 2026-08-30 11:27:49 | 48.86398 | 9.87321 | 81° | 91km/h | 13838m | 4.1m/s | -56.9°C | 3.5% | 154.3hPa | 2.7V | 00:00:00 | 00:00:00 | 00:00:00 | |
| DL6DJ-15 | 2026-08-30 11:27:48 | 48.86395 | 9.87286 | 82° | 91km/h | 13833m | 4.8m/s | -56.9°C | 3.5% | 154.4hPa | 2.7V | 00:00:00 | 00:00:00 | 00:00:00 | |
| DK7TD | 2026-08-30 11:27:40 | 48.86364 | 9.87044 | 77° | 91km/h | 13802m | 5.2m/s | -56.7°C | 3.9% | 155.2hPa | 2.7V | 18:12:15 | 01:09:19 | 00:00:00 | |
| DO3MHA-12 | 2026-08-30 11:27:39 | 48.86358 | 9.87009 | 78° | 91km/h | 13797m | 4.7m/s | -56.5°C | 6.8% | 155.3hPa | 2.7V | 00:00:00 | 01:09:18 | 00:00:00 | |
| DM7RM-13 | 2026-08-30 11:27:37 | 48.86354 | 9.86974 | 80° | 93km/h | 13792m | 4.3m/s | -56.6°C | 3.5% | 155.4hPa | 2.8V | 00:00:00 | 00:00:00 | 00:00:00 | |
| DB0ND-19 | 2026-08-30 11:27:36 | 48.86343 | 9.86871 | 82° | 88km/h | 13778m | 4.0m/s | -56.5°C | 3.4% | 155.8hPa | 2.8V | 00:00:00 | 00:00:00 | 00:00:00 | |
| DM0DOS-11 | 2026-08-30 11:27:33 | 48.86332 | 9.86767 | 80° | 93km/h | 13764m | 4.8m/s | -56.5°C | 6.9% | 156.1hPa | 2.8V | 08:30:00 | 01:09:11 | 00:00:00 | |
| DK7TD | 2026-08-30 11:27:29 | 48.86320 | 9.86664 | 78° | 89km/h | 13749m | 4.8m/s | -56.4°C | 3.8% | 156.5hPa | 2.7V | 18:12:15 | 01:09:08 | 00:00:00 | |
| DK7TD | 2026-08-30 11:27:19 | 48.86281 | 9.86327 | 84° | 86km/h | 13703m | 4.7m/s | -56°C | 3.9% | 157.7hPa | 2.8V | 18:12:15 | 01:08:58 | 00:00:00 | |
| DK7TD | 2026-08-30 11:27:09 | 48.86241 | 9.86013 | 77° | 86km/h | 13657m | 4.2m/s | -56.1°C | 3.9% | 158.8hPa | 2.8V | 18:12:15 | 01:08:48 | 00:00:00 | |
| BIOWL1-15 | 2026-08-30 11:27:02 | 48.86222 | 9.85792 | 84° | 77km/h | 13624m | 4.7m/s | -55.8°C | 4.1% | 159.6hPa | 2.8V | 18:12:15 | 01:08:41 | 00:00:00 | |
| DK7TD | 2026-08-30 11:26:58 | 48.86214 | 9.85675 | 85° | 78km/h | 13605m | 4.1m/s | -55.7°C | 4.1% | 160.1hPa | 2.7V | 18:12:15 | 01:08:37 | 00:00:00 | |
| BIOWL1-15 | 2026-08-30 11:26:51 | 48.86207 | 9.85464 | 88° | 80km/h | 13573m | 4.2m/s | -55.5°C | 4.5% | 160.8hPa | 2.8V | 18:12:15 | 01:08:30 | 00:00:00 | |
| DK7TD | 2026-08-30 11:26:47 | 48.86204 | 9.85338 | 88° | 84km/h | 13555m | 5.4m/s | -55.6°C | 4.6% | 161.3hPa | 2.7V | 18:12:15 | 01:08:26 | 00:00:00 | |
| DL9SK-14 | 2026-08-30 11:26:47 | 48.86203 | 9.85306 | 85° | 84km/h | 13550m | 5.2m/s | -55.7°C | 3.8% | 161.5hPa | 2.8V | 00:00:00 | 00:00:00 | 00:00:00 | |
| DL6DJ-15 | 2026-08-30 11:26:45 | 48.86201 | 9.85273 | 84° | 84km/h | 13546m | 2.8m/s | -55.7°C | 3.8% | 161.5hPa | 2.8V | 00:00:00 | 00:00:00 | 00:00:00 | |
| BIOWL1-15 | 2026-08-30 11:26:44 | 48.86199 | 9.85114 | 93° | 82km/h | 13525m | 4.5m/s | -55.8°C | 4.9% | 162.1hPa | 2.8V | 18:12:15 | 01:08:19 | 00:00:00 | |
| DK7TD | 2026-08-30 11:26:37 | 48.86202 | 9.85018 | 93° | 88km/h | 13511m | 4.8m/s | -55.8°C | 5.1% | 162.4hPa | 2.7V | 18:12:15 | 01:08:16 | 00:00:00 | |
| BIOWL1-15 | 2026-08-30 11:26:29 | 48.86204 | 9.84742 | 89° | 89km/h | 13478m | 5.1m/s | -55.8°C | 5.6% | 163.3hPa | 2.7V | 18:12:15 | 01:08:08 | 00:00:00 | |
| DK7TD | 2026-08-30 11:26:27 | 48.86203 | 9.84674 | 89° | 89km/h | 13470m | 4.1m/s | -55.8°C | 5.6% | 163.5hPa | 2.8V | 18:12:15 | 01:08:06 | 00:00:00 | |
| BIOWL1-15 | 2026-08-30 11:26:17 | 48.86194 | 9.84315 | 88° | 93km/h | 13427m | 3.5m/s | -56.6°C | 6.3% | 164.6hPa | 2.7V | 18:12:15 | 01:07:56 | 00:00:00 | |
| DK7TD | 2026-08-30 11:26:16 | 48.86193 | 9.84279 | 88° | 95km/h | 13423m | 5.2m/s | -56.6°C | 6.4% | 164.7hPa | 2.8V | 18:12:15 | 01:07:55 | 00:00:00 | |
| DK7TD | 2026-08-30 11:26:06 | 48.86177 | 9.83925 | 84° | 93km/h | 13383m | 3.6m/s | -56.7°C | 6.7% | 165.8hPa | 2.7V | 18:12:15 | 01:07:45 | 00:00:00 | |
| BIOWL1-15 | 2026-08-30 11:26:05 | 48.86173 | 9.83854 | 87° | 95km/h | 13376m | 4.1m/s | -56.6°C | 6.8% | 166hPa | 2.8V | 18:12:15 | 01:07:43 | 00:00:00 | |
| DM0DOS-11 | 2026-08-30 11:25:59 | 48.86164 | 9.83633 | 85° | 99km/h | 13351m | 4m/s | -56.5°C | 9% | 166.7hPa | 2.7V | 08:30:00 | 01:07:37 | 00:00:00 | |
| DK7TD | 2026-08-30 11:25:55 | 48.86157 | 9.83521 | 83° | 97km/h | 13339m | 4.9m/s | -56.4°C | 7.1% | 166.9hPa | 2.8V | 18:12:15 | 01:07:34 | 00:00:00 | |
| DM0DOS-11 | 2026-08-30 11:25:53 | 48.86135 | 9.83277 | 84° | 91km/h | 13309m | 5.2m/s | -56.5°C | 9.3% | 167.7hPa | 2.7V | 08:30:00 | 01:07:27 | 00:00:00 | |
| DK7TD | 2026-08-30 11:25:45 | 48.86127 | 9.83169 | 83° | 97km/h | 13297m | 4.6m/s | -56.6°C | 7.5% | 168hPa | 2.8V | 18:12:15 | 01:07:24 | 00:00:00 | |
| DL9SK-14 | 2026-08-30 11:25:45 | 48.86124 | 9.83132 | 83° | 97km/h | 13293m | 3.6m/s | -56.6°C | 5.8% | 168.1hPa | 2.7V | 00:00:00 | 00:00:00 | 00:00:00 | |
| DL6DJ-15 | 2026-08-30 11:25:43 | 48.86121 | 9.83095 | 82° | 95km/h | 13290m | 3.4m/s | -56.6°C | 5.8% | 168.2hPa | 2.7V | 00:00:00 | 00:00:00 | 00:00:00 | |
| DM0DOS-11 | 2026-08-30 11:25:42 | 48.86099 | 9.82879 | 81° | 97km/h | 13265m | 4.7m/s | -56.7°C | 9.6% | 168.8hPa | 2.7V | 08:30:00 | 01:07:16 | 00:00:00 | |
| DK7TD | 2026-08-30 11:25:34 | 48.86087 | 9.82767 | 82° | 99km/h | 13253m | 4.8m/s | -56.9°C | 7.6% | 169.2hPa | 2.8V | 18:12:15 | 01:07:13 | 00:00:00 | |
| DM7RM-13 | 2026-08-30 11:25:32 | 48.86084 | 9.82729 | 84° | 100km/h | 13248m | 4.3m/s | -56.9°C | 5.9% | 169.3hPa | 2.7V | 00:00:00 | 00:00:00 | 00:00:00 | |
| DB0ND-19 | 2026-08-30 11:25:31 | 48.86077 | 9.82652 | 81° | 100km/h | 13239m | 4.4m/s | -56.8°C | 5.9% | 169.5hPa | 2.7V | 00:00:00 | 00:00:00 | 00:00:00 | |
| DM0DOS-11 | 2026-08-30 11:25:30 | 48.86063 | 9.82496 | 80° | 104km/h | 13223m | 4.8m/s | -56.7°C | 9.6% | 169.9hPa | 2.7V | 08:30:00 | 01:07:06 | 00:00:00 | |
| DK7TD | 2026-08-30 11:25:24 | 48.86047 | 9.82379 | 78° | 102km/h | 13209m | 4.6m/s | -56.8°C | 7.7% | 170.3hPa | 2.8V | 18:12:15 | 01:07:03 | 00:00:00 | |
| DF7PN | 2026-08-30 11:25:22 | 48.86031 | 9.82264 | 77° | 102km/h | 13197m | 5.3m/s | -56.8°C | 5.9% | 170.7hPa | 2.7V | 00:00:00 | 00:00:00 | 00:00:00 | |
| NBG1-10 | 2026-08-30 11:25:20 | 48.86025 | 9.82225 | 78° | 100km/h | 13193m | 3.3m/s | -56.7°C | 9.6% | 170.7hPa | 2.7V | 00:00:00 | 01:06:59 | 00:00:00 | |
| DO3MHA-12 | 2026-08-30 11:25:19 | 48.86020 | 9.82186 | 79° | 102km/h | 13189m | 4.2m/s | -56.7°C | 9.6% | 170.8hPa | 2.8V | 00:00:00 | 01:06:58 | 00:00:00 | |
| DM0DOS-11 | 2026-08-30 11:25:16 | 48.86000 | 9.81994 | 79° | 99km/h | 13168m | 3.4m/s | -56.5°C | 9.7% | 171.4hPa | 2.8V | 08:30:00 | 01:06:53 | 00:00:00 | |
| DK7TD | 2026-08-30 11:25:14 | 48.86000 | 9.81994 | 80° | 99km/h | 13168m | 3.4m/s | -56.6°C | 8.1% | 171.4hPa | 2.8V | 18:12:15 | 01:06:53 | 00:00:00 | |
| BIOWL1-15 | 2026-08-30 11:25:10 | 48.85971 | 9.81765 | 78° | 100km/h | 13145m | 2.5m/s | -56.7°C | 8.6% | 172.1hPa | 2.8V | 18:12:15 | 01:06:47 | 00:00:00 | |
| DM0DOS-11 | 2026-08-30 11:25:09 | 48.85955 | 9.81616 | 83° | 97km/h | 13127m | 4.3m/s | -56.8°C | 10.6% | 172.5hPa | 2.7V | 08:30:00 | 01:06:43 | 00:00:00 | |
| DK7TD | 2026-08-30 11:25:03 | 48.85952 | 9.81579 | 83° | 97km/h | 13122m | 5m/s | -56.8°C | 9.3% | 172.6hPa | 2.8V | 18:12:15 | 01:06:42 | 00:00:00 | |
| DB0ND-19 | 2026-08-30 11:25:01 | 48.85942 | 9.81468 | 81° | 97km/h | 13109m | 4.2m/s | -56.9°C | 7.3% | 173.1hPa | 2.8V | 00:00:00 | 00:00:00 | 00:00:00 | |
| DO3MHA-12 | 2026-08-30 11:24:59 | 48.85938 | 9.81430 | 82° | 102km/h | 13106m | 2.5m/s | -56.9°C | 11.4% | 173.1hPa | 2.8V | 00:00:00 | 01:06:38 | 00:00:00 | |
| DM0DOS-11 | 2026-08-30 11:24:57 | 48.85912 | 9.81193 | 81° | 104km/h | 13079m | 3m/s | -57.1°C | 11.8% | 173.8hPa | 2.8V | 08:30:00 | 01:06:32 | 00:00:00 | |
| DK7TD | 2026-08-30 11:24:52 | 48.85908 | 9.81154 | 81° | 102km/h | 13075m | 5m/s | -57.2°C | 10.5% | 173.9hPa | 2.8V | 18:12:15 | 01:06:31 | 00:00:00 | |
| DF7PN | 2026-08-30 11:24:51 | 48.85900 | 9.81078 | 80° | 97km/h | 13066m | 4.7m/s | -57.3°C | 8.0% | 174.2hPa | 2.8V | 00:00:00 | 00:00:00 | 00:00:00 | |
| DO3MHA-12 | 2026-08-30 11:24:49 | 48.85896 | 9.81041 | 82° | 106km/h | 13063m | 2.9m/s | -57.3°C | 12.3% | 174.2hPa | 2.8V | 00:00:00 | 01:06:28 | 00:00:00 | |
| DJ8HS-15 | 2026-08-30 11:24:48 | 48.85892 | 9.81004 | 81° | 106km/h | 13059m | 4.5m/s | -57.4°C | 12.5% | 174.4hPa | 2.8V | 00:00:00 | 01:06:27 | 00:00:00 | |
| DM0DOS-11 | 2026-08-30 11:24:47 | 48.85871 | 9.80807 | 79° | 110km/h | 13038m | 4.6m/s | -57.3°C | 12.5% | 175hPa | 2.8V | 08:30:00 | 01:06:22 | 00:00:00 | |
| DF3TZ-5 | 2026-08-30 11:24:45 | 48.85880 | 9.80889 | 81° | 104km/h | 13046m | 3.4m/s | -57.3°C | 8.4% | 174.8hPa | 2.7V | 00:00:00 | 00:00:00 | 00:00:00 | |
| DK7TD | 2026-08-30 11:24:41 | 48.85860 | 9.80724 | 79° | 110km/h | 13031m | 4m/s | -57.2°C | 10.8% | 175.2hPa | 2.7V | 18:12:15 | 01:06:20 | 00:00:00 | |
| DO3MHA-12 | 2026-08-30 11:24:39 | 48.85851 | 9.80643 | 82° | 108km/h | 13023m | 3.4m/s | -57.1°C | 12.2% | 175.4hPa | 2.7V | 00:00:00 | 01:06:18 | 00:00:00 | |
| DM0DOS-11 | 2026-08-30 11:24:36 | 48.85826 | 9.80402 | 79° | 108km/h | 12998m | 4.9m/s | -57°C | 11.9% | 176.1hPa | 2.8V | 08:30:00 | 01:06:12 | 00:00:00 | |
| DK7TD | 2026-08-30 11:24:31 | 48.85815 | 9.80320 | 78° | 110km/h | 12989m | 4.7m/s | -57°C | 10.5% | 176.4hPa | 2.8V | 18:12:15 | 01:06:10 | 00:00:00 | |
| DO3MHA-12 | 2026-08-30 11:24:29 | 48.85804 | 9.80238 | 79° | 106km/h | 12982m | 4.2m/s | -57.0°C | 12.0% | 176.5hPa | 2.7V | 00:00:00 | 01:06:08 | 00:00:00 | |
| DM0DOS-11 | 2026-08-30 11:24:28 | 48.85774 | 9.79999 | 78° | 104km/h | 12956m | 4.9m/s | -57.1°C | 11.9% | 177.3hPa | 2.7V | 08:30:00 | 01:06:02 | 00:00:00 | |
| BIOWL1-15 | 2026-08-30 11:24:26 | 48.85789 | 9.80116 | 80° | 106km/h | 12970m | 4.6m/s | -57.1°C | 10.4% | 177hPa | 2.8V | 18:12:15 | 01:06:05 | 00:00:00 | |
| DK7TD | 2026-08-30 11:24:20 | 48.85757 | 9.79882 | 78° | 104km/h | 12944m | 5.4m/s | -57.2°C | 10.1% | 177.7hPa | 2.8V | 18:12:15 | 01:05:59 | 00:00:00 | |
| DO3MHA-12 | 2026-08-30 11:24:19 | 48.85752 | 9.79843 | 78° | 106km/h | 12939m | 5.0m/s | -57.1°C | 11.7% | 177.7hPa | 2.8V | 00:00:00 | 01:05:58 | 00:00:00 | |
| DM0DOS-11 | 2026-08-30 11:24:18 | 48.85719 | 9.79601 | 78° | 110km/h | 12913m | 5.1m/s | -57.1°C | 11.3% | 178.5hPa | 2.8V | 08:30:00 | 01:05:52 | 00:00:00 | |
| BIOWL1-15 | 2026-08-30 11:24:13 | 48.85719 | 9.79601 | 78° | 110km/h | 12913m | 5.1m/s | -57.1°C | 9.4% | 0hPa | 2.8V | 18:12:15 | 01:05:52 | 00:00:00 | |
| DK7TD | 2026-08-30 11:24:09 | 48.85692 | 9.79444 | 75° | 104km/h | 12895m | 5.3m/s | -57.1°C | 9.1% | 179hPa | 2.7V | 18:12:15 | 01:05:48 | 00:00:00 | |
| DK7TD | 2026-08-30 11:23:59 | 48.85620 | 9.79055 | 75° | 104km/h | 12850m | 4m/s | -56.8°C | 8.8% | 180.3hPa | 2.7V | 18:12:15 | 01:05:38 | 00:00:00 | |
| DB0ND-19 | 2026-08-30 11:23:58 | 48.85613 | 9.79017 | 74° | 102km/h | 12845m | 5.3m/s | -56.9°C | 6.8% | 180.4hPa | 2.7V | 00:00:00 | 00:00:00 | 00:00:00 | |
| DM0DOS-11 | 2026-08-30 11:23:57 | 48.85576 | 9.78829 | 72° | 102km/h | 12825m | 4.9m/s | -56.8°C | 10.7% | 181hPa | 2.7V | 08:30:00 | 01:05:32 | 00:00:00 | |
| BIOWL1-15 | 2026-08-30 11:23:57 | 48.85591 | 9.78905 | 74° | 102km/h | 12832m | 4.8m/s | -56.8°C | 0% | 0hPa | 2.8V | 18:12:15 | 01:05:34 | 00:00:00 | |
| DK7TD | 2026-08-30 11:23:48 | 48.85536 | 9.78647 | 73° | 99km/h | 12803m | 4.1m/s | -56.8°C | 9% | 181.7hPa | 2.7V | 18:12:15 | 01:05:27 | 00:00:00 | |
| DJ8HS-15 | 2026-08-30 11:23:48 | 48.85536 | 9.78647 | 74° | 99km/h | 12803m | 4.1m/s | -56.7°C | 10.7% | 181.6hPa | 2.8V | 00:00:00 | 01:05:27 | 00:00:00 | |
| DM0DOS-11 | 2026-08-30 11:23:46 | 48.85502 | 9.78469 | 73° | 97km/h | 12781m | 4.2m/s | -56.6°C | 10.8% | 182.3hPa | 2.8V | 08:30:00 | 01:05:22 | 00:00:00 | |
| BIOWL1-15 | 2026-08-30 11:23:45 | 48.85516 | 9.78541 | 74° | 97km/h | 12789m | 5.2m/s | 0°C | 0% | 0hPa | 2.8V | 18:12:15 | 01:05:24 | 00:00:00 | |
| DK7TD | 2026-08-30 11:23:37 | 48.85461 | 9.78249 | 75° | 100km/h | 12755m | 4.7m/s | -56.6°C | 9.4% | 183hPa | 2.7V | 18:12:15 | 01:05:16 | 00:00:00 | |
| DM0DOS-11 | 2026-08-30 11:23:37 | 48.85434 | 9.78098 | 76° | 100km/h | 12738m | 5.1m/s | -56.5°C | 11.1% | 183.5hPa | 2.8V | 08:30:00 | 01:05:12 | 00:00:00 | |
| DG9SBQ-11 | 2026-08-30 11:23:35 | 48.85448 | 9.78174 | 76° | 104km/h | 12746m | 4.2m/s | -56.5°C | 7.2% | 183.3hPa | 2.7V | 00:00:00 | 00:00:00 | 00:00:00 | |
| DJTTGO | 2026-08-30 11:23:34 | 48.85448 | 9.78174 | 76° | 104km/h | 12746m | 4.2m/s | 0°C | 0% | 183.3hPa | 2.7V | 00:00:00 | 00:00:00 | 00:00:00 | |
| BIOWL1-15 | 2026-08-30 11:23:34 | 48.85441 | 9.78136 | 75° | 102km/h | 12742m | 3.2m/s | 0°C | 0% | 0hPa | 2.8V | 18:12:15 | 01:05:13 | 00:00:00 | |
| AZAK | 2026-08-30 11:23:30 | 48.85417 | 9.77987 | 77° | 99km/h | 12725m | 4.5m/s | -56.5°C | 7.4% | 183.9hPa | 2.7V | 00:00:00 | 00:00:00 | 00:00:00 | |
| DO3MHA-12 | 2026-08-30 11:23:29 | 48.85411 | 9.77950 | 76° | 97km/h | 12721m | 3.1m/s | -56.4°C | 11.2% | 184.0hPa | 2.7V | 00:00:00 | 01:05:08 | 00:00:00 | |
| DJ8HS-15 | 2026-08-30 11:23:28 | 48.85405 | 9.77914 | 76° | 97km/h | 12717m | 5.3m/s | -56.4°C | 11.3% | 184.1hPa | 2.7V | 00:00:00 | 01:05:07 | 08:30:00 | |
| DB0ND-19 | 2026-08-30 11:23:27 | 48.85399 | 9.77879 | 74° | 95km/h | 12713m | 3.7m/s | -56.5°C | 7.4% | 184.3hPa | 2.8V | 00:00:00 | 00:00:00 | 00:00:00 | |
| DM0DOS-11 | 2026-08-30 11:23:26 | 48.85372 | 9.77737 | 74° | 97km/h | 12696m | 3.5m/s | -56.5°C | 11.7% | 184.8hPa | 2.8V | 08:30:00 | 01:05:02 | 00:00:00 | |
| DK7TD | 2026-08-30 11:23:26 | 48.85392 | 9.77843 | 74° | 97km/h | 12709m | 4.7m/s | -56.5°C | 10% | 184.4hPa | 2.7V | 18:12:15 | 01:05:05 | 00:00:00 | |
| BIOWL1-15 | 2026-08-30 11:23:24 | 48.85365 | 9.77701 | 75° | 99km/h | 12692m | 4.7m/s | 0°C | 0% | 0hPa | 2.8V | 18:12:15 | 01:05:01 | 00:00:00 | |
| DL1ZP-14 | 2026-08-30 11:23:23 | 48.85372 | 9.77737 | 74° | 95km/h | 12696m | 3.6m/s | -56.5°C | 7.7% | 184.8hPa | 2.8V | 00:00:00 | 00:00:00 | 00:00:00 | |
| DG9SBQ-11 | 2026-08-30 11:23:22 | 48.85372 | 9.77736 | 75° | 97km/h | 12697m | 3.6m/s | -56.5°C | 7.7% | 184.8hPa | 2.7V | 00:00:00 | 00:00:00 | 00:00:00 | |
| BIOWL9-15 | 2026-08-30 11:23:20 | 48.85353 | 9.77626 | 76° | 99km/h | 12684m | 4.1m/s | -56.5°C | 7.8% | 185.1hPa | 2.7V | 00:00:00 | 00:00:00 | 00:00:00 | |
| DO3MHA-12 | 2026-08-30 11:23:19 | 48.85347 | 9.77589 | 77° | 97km/h | 12680m | 4.6m/s | -56.4°C | 11.9% | 185.2hPa | 2.7V | 00:00:00 | 01:04:58 | 00:00:00 | |
| DF7PN | 2026-08-30 11:23:17 | 48.85336 | 9.77516 | 77° | 97km/h | 12671m | 5.0m/s | -56.4°C | 8.0% | 185.5hPa | 2.7V | 00:00:00 | 00:00:00 | 00:00:00 | |
| DM0DOS-11 | 2026-08-30 11:23:16 | 48.85314 | 9.77374 | 74° | 93km/h | 12655m | 2.9m/s | -56.3°C | 12.2% | 186hPa | 2.7V | 08:30:00 | 01:04:52 | 00:00:00 | |
| DK7TD | 2026-08-30 11:23:16 | 48.85330 | 9.77480 | 78° | 97km/h | 12667m | 4.1m/s | -56.3°C | 10.7% | 185.6hPa | 2.8V | 18:12:15 | 01:04:55 | 00:00:00 | |
| DB0UT-7 | 2026-08-30 11:23:12 | 48.85307 | 9.77339 | 74° | 95km/h | 12651m | 5.4m/s | -56.3°C | 12.2% | 186.0hPa | 2.7V | 00:00:00 | 01:04:51 | 00:00:00 | |
| OE5DXL-15 | 2026-08-30 11:23:09 | 48.85284 | 9.77233 | 72° | 95km/h | 12639m | 3.9m/s | -56.3°C | 12.7% | 186.4hPa | 2.7V | 00:00:00 | 00:00:00 | 00:00:00 | |
| DJ8HS-15 | 2026-08-30 11:23:08 | 48.85276 | 9.77197 | 73° | 97km/h | 12635m | 3.9m/s | -56.3°C | 12.9% | 186.5hPa | 2.8V | 00:00:00 | 01:04:47 | 00:00:00 | |
| DM0DOS-11 | 2026-08-30 11:23:06 | 48.85248 | 9.77015 | 82° | 95km/h | 12612m | 3.5m/s | -56.3°C | 14.1% | 187.3hPa | 2.8V | 08:30:00 | 01:04:42 | 00:00:00 | |
| DK7TD | 2026-08-30 11:23:05 | 48.85256 | 9.77088 | 78° | 99km/h | 12622m | 4.1m/s | -56.3°C | 12.2% | 187hPa | 2.8V | 18:12:15 | 01:04:44 | 00:00:00 | |
| DK7TD | 2026-08-30 11:22:55 | 48.85198 | 9.76719 | 75° | 100km/h | 12567m | 6.6m/s | -56.4°C | 13.9% | 188.6hPa | 2.8V | 18:12:15 | 01:04:34 | 00:00:00 | |
| DM0DOS-11 | 2026-08-30 11:22:52 | 48.85162 | 9.76449 | 80° | 84km/h | 12511m | 4.3m/s | -56.4°C | 16.5% | 190.3hPa | 2.8V | 08:30:00 | 01:04:26 | 00:00:00 | |
| DK7TD | 2026-08-30 11:22:45 | 48.85155 | 9.76383 | 81° | 89km/h | 12500m | 5.9m/s | -56.4°C | 16.4% | 190.5hPa | 2.8V | 18:12:15 | 01:04:24 | 00:00:00 | |
| DF1GD-15 | 2026-08-30 11:22:43 | 48.85147 | 9.76314 | 80° | 93km/h | 12489m | 6.5m/s | -56.3°C | 12.3% | 190.9hPa | 2.8V | 00:00:00 | 00:00:00 | 00:00:00 | |
| DM0DOS-11 | 2026-08-30 11:22:42 | 48.85126 | 9.76104 | 84° | 91km/h | 12452m | 9.3m/s | -56.2°C | 19.2% | 192hPa | 2.8V | 08:30:00 | 01:04:16 | 00:00:00 | |
| DK7TD | 2026-08-30 11:22:34 | 48.85119 | 9.76001 | 85° | 89km/h | 12433m | 6.9m/s | -56.1°C | 20.5% | 192.6hPa | 2.8V | 18:12:15 | 01:04:13 | 00:00:00 | |
| DM0DOS-11 | 2026-08-30 11:22:32 | 48.85102 | 9.75764 | 81° | 88km/h | 12395m | 6.2m/s | -56.4°C | 22.1% | 193.7hPa | 2.8V | 08:30:00 | 01:04:06 | 00:00:00 | |
| DK7TD | 2026-08-30 11:22:23 | 48.85095 | 9.75631 | 89° | 89km/h | 12372m | 4m/s | -56.7°C | 26.1% | 194.4hPa | 2.8V | 18:12:15 | 01:04:02 | 00:00:00 | |
| DK7TD | 2026-08-30 11:22:13 | 48.85093 | 9.75264 | 87° | 95km/h | 12313m | 6.9m/s | -57.1°C | 32.8% | 196.2hPa | 2.8V | 18:12:15 | 01:03:52 | 00:00:00 | |
| DK7TD | 2026-08-30 11:22:02 | 48.85093 | 9.74838 | 98° | 102km/h | 12248m | 7.9m/s | -58°C | 39.8% | 198.2hPa | 2.8V | 18:12:15 | 01:03:41 | 00:00:00 | |
| DF1GD-15 | 2026-08-30 11:22:00 | 48.85096 | 9.74799 | 99° | 102km/h | 12242m | 5.4m/s | -58.0°C | 33.4% | 198.4hPa | 2.8V | 00:00:00 | 00:00:00 | 00:00:00 | |
| DO3MHA-12 | 2026-08-30 11:21:59 | 48.85103 | 9.74722 | 97° | 104km/h | 12233m | 6.6m/s | -58.0°C | 41.5% | 198.8hPa | 2.8V | 00:00:00 | 01:03:38 | 00:00:00 | |
| DM0DOS-11 | 2026-08-30 11:21:56 | 48.85111 | 9.74565 | 93° | 106km/h | 12212m | 4.4m/s | -57.9°C | 42.4% | 199.4hPa | 2.8V | 08:30:00 | 01:03:34 | 00:00:00 | |
| DK7TD | 2026-08-30 11:21:52 | 48.85118 | 9.74441 | 97° | 110km/h | 12198m | 4.6m/s | -57.9°C | 42.9% | 199.9hPa | 2.9V | 18:12:15 | 01:03:31 | 00:00:00 | |
| DL1ZP-14 | 2026-08-30 11:21:50 | 48.85126 | 9.74359 | 99° | 108km/h | 12190m | 3.2m/s | -57.8°C | 36.6% | 200.2hPa | 2.8V | 00:00:00 | 00:00:00 | 00:00:00 | |
| DK7TD | 2026-08-30 11:21:41 | 48.85156 | 9.73984 | 97° | 113km/h | 12150m | 3.5m/s | -57.7°C | 47.2% | 201.4hPa | 2.9V | 18:12:15 | 01:03:20 | 00:00:00 | |
| DF1GD-15 | 2026-08-30 11:21:40 | 48.85156 | 9.73984 | 98° | 113km/h | 12151m | 3.5m/s | -57.7°C | 40.4% | 201.4hPa | 2.7V | 00:00:00 | 00:00:00 | 00:00:00 | |
| DO3MHA-12 | 2026-08-30 11:21:39 | 48.85164 | 9.73899 | 99° | 113km/h | 12142m | 4.4m/s | -57.6°C | 49.2% | 201.5hPa | 2.7V | 00:00:00 | 01:03:18 | 00:00:00 | |
| DG1MJG | 2026-08-30 11:21:37 | 48.85168 | 9.73857 | 101° | 111km/h | 12138m | 3.7m/s | -57.6°C | 41.5% | 201.8hPa | 2.9V | 00:00:00 | 00:00:00 | 00:00:00 | |
| DM0DOS-11 | 2026-08-30 11:21:36 | 48.85183 | 9.73729 | 100° | 119km/h | 12124m | 4.2m/s | -57.7°C | 52.8% | 202.2hPa | 2.9V | 08:30:00 | 01:03:14 | 00:00:00 | |
| DK7TD | 2026-08-30 11:21:30 | 48.85213 | 9.73515 | 101° | 110km/h | 12103m | 5.9m/s | -57.8°C | 52.6% | 202.8hPa | 2.8V | 18:12:15 | 01:03:09 | 00:00:00 | |
| DK7TD | 2026-08-30 11:21:19 | 48.85278 | 9.73017 | 103° | 124km/h | 12046m | 6.2m/s | -57.7°C | 57.4% | 204.7hPa | 2.8V | 18:12:15 | 01:02:58 | 00:00:00 | |
| BIOWL1-15 | 2026-08-30 11:21:19 | 48.85289 | 9.72926 | 99° | 119km/h | 12036m | 5.2m/s | -57.7°C | 58% | 205hPa | 2.8V | 18:12:15 | 01:02:56 | 00:00:00 | |
| DK7TD | 2026-08-30 11:21:08 | 48.85321 | 9.72512 | 96° | 130km/h | 11983m | 4.9m/s | -57.6°C | 58% | 206.7hPa | 2.8V | 18:12:15 | 01:02:47 | 00:00:00 | |
| BIOWL1-15 | 2026-08-30 11:21:06 | 48.85327 | 9.72413 | 95° | 130km/h | 11973m | 4.4m/s | -57.5°C | 57.7% | 207hPa | 2.9V | 18:12:15 | 01:02:45 | 00:00:00 | |
| DK7TD | 2026-08-30 11:20:57 | 48.85356 | 9.71959 | 95° | 135km/h | 11934m | 5.8m/s | -57.3°C | 57.1% | 208.3hPa | 2.8V | 18:12:15 | 01:02:36 | 00:00:00 | |
| BIOWL1-15 | 2026-08-30 11:20:56 | 48.85358 | 9.71907 | 93° | 135km/h | 11928m | 6.1m/s | -57.2°C | 57% | 0hPa | 2.9V | 18:12:15 | 01:02:35 | 00:00:00 | |
| DK7TD | 2026-08-30 11:20:47 | 48.85391 | 9.71426 | 98° | 148km/h | 11881m | 3.5m/s | -57.1°C | 55.7% | 210.1hPa | 2.8V | 18:12:15 | 01:02:26 | 00:00:00 | |
| BIOWL1-15 | 2026-08-30 11:20:46 | 48.85395 | 9.71372 | 96° | 141km/h | 11878m | 2.6m/s | -57.1°C | 55.8% | 0hPa | 2.9V | 18:12:15 | 01:02:25 | 00:00:00 | |
| BIOWL9-15 | 2026-08-30 11:20:45 | 48.85398 | 9.71319 | 94° | 133km/h | 11873m | 6.4m/s | -57.1°C | 51.2% | 210.3hPa | 2.8V | 00:00:00 | 00:00:00 | 00:00:00 | |
| DK7TD | 2026-08-30 11:20:37 | 48.85421 | 9.70948 | 99° | 115km/h | 11827m | 5.8m/s | -56.8°C | 56.7% | 211.9hPa | 2.8V | 18:12:15 | 01:02:16 | 00:00:00 | |
| BIOWL1-15 | 2026-08-30 11:20:37 | 48.85428 | 9.70858 | 94° | 122km/h | 11816m | 5.3m/s | -56.8°C | 57.1% | 0hPa | 2.8V | 18:12:15 | 01:02:14 | 00:00:00 | |
| DK7TD | 2026-08-30 11:20:26 | 48.85456 | 9.70428 | 97° | 120km/h | 11760m | 5.4m/s | -56.4°C | 57.1% | 214.2hPa | 2.9V | 18:12:15 | 01:02:05 | 00:00:00 | |
| BIOWL1-15 | 2026-08-30 11:20:24 | 48.85464 | 9.70336 | 96° | 124km/h | 11747m | 5.6m/s | 0°C | 0% | 0hPa | 2.8V | 18:12:15 | 01:02:03 | 00:00:00 | |
| DM0DOS-11 | 2026-08-30 11:20:20 | 48.85476 | 9.70087 | 94° | 135km/h | 11717m | 8m/s | -56.2°C | 63.5% | 215.6hPa | 2.8V | 08:30:00 | 01:01:58 | 00:00:00 | |
| DK7TD | 2026-08-30 11:20:15 | 48.85492 | 9.69887 | 99° | 126km/h | 11694m | 6.9m/s | -56.1°C | 59.3% | 216.3hPa | 2.9V | 18:12:15 | 01:01:54 | 00:00:00 | |
| BIOWL1-15 | 2026-08-30 11:20:13 | 48.85502 | 9.69794 | 99° | 122km/h | 11685m | 5.4m/s | 0°C | 0% | 0hPa | 2.9V | 18:12:15 | 01:01:52 | 00:00:00 | |
| DK7TD | 2026-08-30 11:20:05 | 48.85523 | 9.69412 | 95° | 122km/h | 11641m | 6.3m/s | -55.6°C | 59.9% | 218.2hPa | 2.9V | 18:12:15 | 01:01:44 | 00:00:00 | |
| DL9SK-14 | 2026-08-30 11:20:03 | 48.85532 | 9.69271 | 96° | 122km/h | 11623m | 6.4m/s | -55.5°C | 55.3% | 218.9hPa | 2.9V | 00:00:00 | 00:00:00 | 00:00:00 | |
| DL6DJ-15 | 2026-08-30 11:20:02 | 48.85536 | 9.69224 | 97° | 124km/h | 11617m | 6.6m/s | -55.4°C | 55.1% | 219.1hPa | 2.9V | 00:00:00 | 00:00:00 | 00:00:00 | |
| OE3JTB-15 | 2026-08-30 11:19:59 | 48.85545 | 9.69127 | 99° | 113km/h | 11607m | 5.1m/s | 0°C | 0% | 0hPa | 2.9V | 00:00:00 | 00:00:00 | 00:00:00 | |
| DO3MHA-12 | 2026-08-30 11:19:58 | 48.85549 | 9.69078 | 99° | 126km/h | 11601m | 7.5m/s | -55.2°C | 65.6% | 219.6hPa | 2.9V | 00:00:00 | 01:01:37 | 00:00:00 | |
| DM0DOS-11 | 2026-08-30 11:19:54 | 48.85584 | 9.68647 | 93° | 122km/h | 11553m | 5m/s | -54.8°C | 64.8% | 221.2hPa | 2.9V | 08:30:00 | 01:01:28 | 00:00:00 | |
| DK7TD | 2026-08-30 11:19:54 | 48.85567 | 9.68883 | 98° | 128km/h | 11579m | 6.6m/s | -55.1°C | 60.7% | 220.3hPa | 2.9V | 18:12:15 | 01:01:33 | 00:00:00 | |
| DB0ND-19 | 2026-08-30 11:19:50 | 48.85582 | 9.68694 | 94° | 120km/h | 11559m | 6.5m/s | -54.9°C | 55.6% | 221.0hPa | 2.8V | 00:00:00 | 00:00:00 | 00:00:00 | |
| DL1ZP-14 | 2026-08-30 11:19:46 | 48.85593 | 9.68461 | 96° | 122km/h | 11532m | 5.0m/s | -54.6°C | 56.3% | 221.9hPa | 2.8V | 00:00:00 | 00:00:00 | 00:00:00 | |
| DK7TD | 2026-08-30 11:19:44 | 48.85596 | 9.68413 | 97° | 128km/h | 11527m | 5.6m/s | -54.6°C | 60.9% | 222.1hPa | 2.9V | 18:12:15 | 01:01:23 | 00:00:00 | |
| AZAK | 2026-08-30 11:19:43 | 48.85596 | 9.68413 | 98° | 128km/h | 11527m | 5.6m/s | -54.6°C | 56.2% | 222.1hPa | 2.9V | 00:00:00 | 00:00:00 | 00:00:00 | |
| DB0UT-7 | 2026-08-30 11:19:42 | 48.85603 | 9.68315 | 97° | 124km/h | 11515m | 6.8m/s | -54.5°C | 65.7% | 222.5hPa | 2.9V | 00:00:00 | 00:00:00 | 08:30:00 | |
| DM0DOS-11 | 2026-08-30 11:19:40 | 48.85616 | 9.68165 | 98° | 131km/h | 11500m | 3.8m/s | 0°C | 0% | 0hPa | 2.8V | 08:30:00 | 01:01:18 | 00:00:00 | |
| DO3MHA-12 | 2026-08-30 11:19:38 | 48.85620 | 9.68116 | 99° | 120km/h | 11495m | 5.6m/s | -54.3°C | 65.5% | 223.2hPa | 2.9V | 00:00:00 | 01:01:17 | 08:30:00 | |
| DF3TZ-5 | 2026-08-30 11:19:35 | 48.85638 | 9.67927 | 98° | 115km/h | 11473m | 5.9m/s | -54.2°C | 56.5% | 224.0hPa | 2.8V | 00:00:00 | 00:00:00 | 00:00:00 | |
| DM0DOS-11 | 2026-08-30 11:19:34 | 48.85654 | 9.67703 | 95° | 124km/h | 11448m | 6.2m/s | 0°C | 0% | 0hPa | 2.8V | 00:00:00 | 01:01:08 | 00:00:00 | |
| DK7TD | 2026-08-30 11:19:33 | 48.85642 | 9.67883 | 98° | 113km/h | 11468m | 4.9m/s | -54.1°C | 60.3% | 224.2hPa | 2.9V | 18:12:15 | 01:01:12 | 00:00:00 | |
| DK7TD | 2026-08-30 11:19:23 | 48.85686 | 9.67408 | 98° | 130km/h | 11413m | 3.8m/s | -53.6°C | 60.2% | 226.1hPa | 2.8V | 18:12:15 | 01:01:02 | 00:00:00 | |
| AZAK | 2026-08-30 11:19:22 | 48.85686 | 9.67408 | 99° | 130km/h | 11413m | 3.8m/s | -53.6°C | 57.7% | 226.1hPa | 2.9V | 00:00:00 | 00:00:00 | 00:00:00 | |
| DM0DOS-11 | 2026-08-30 11:19:20 | 48.85700 | 9.67218 | 95° | 120km/h | 11390m | 5.6m/s | 0°C | 0% | 0hPa | 2.9V | 00:00:00 | 01:00:58 | 00:00:00 | |
| DF1GD-15 | 2026-08-30 11:19:19 | 48.85700 | 9.67218 | 96° | 120km/h | 11390m | 5.6m/s | -53.4°C | 56.1% | 227.0hPa | 2.9V | 00:00:00 | 00:00:00 | 00:00:00 | |
| DO3MHA-12 | 2026-08-30 11:19:18 | 48.85702 | 9.67173 | 94° | 124km/h | 11384m | 7.5m/s | -53.4°C | 63.6% | 227.0hPa | 2.9V | 00:00:00 | 01:00:57 | 00:00:00 | |
| NBG1-10 | 2026-08-30 11:19:17 | 48.85704 | 9.67128 | 95° | 124km/h | 11377m | 5.3m/s | -53.3°C | 63.5% | 227.3hPa | 2.9V | 00:00:00 | 01:00:56 | 00:00:00 | |
| DL1ZP-14 | 2026-08-30 11:19:15 | 48.85711 | 9.66994 | 95° | 120km/h | 11359m | 5.9m/s | -53.2°C | 55.1% | 228.0hPa | 2.9V | 00:00:00 | 00:00:00 | 00:00:00 | |
| DM0DOS-11 | 2026-08-30 11:19:14 | 48.85732 | 9.66750 | 100° | 130km/h | 11330m | 7.3m/s | 0°C | 0% | 0hPa | 2.9V | 00:00:00 | 01:00:48 | 00:00:00 | |
| DK7TD | 2026-08-30 11:19:13 | 48.85714 | 9.66946 | 97° | 126km/h | 11354m | 3.9m/s | -53.1°C | 59.7% | 228.3hPa | 2.9V | 18:12:15 | 01:00:52 | 00:00:00 | |
| DK7TD | 2026-08-30 11:19:02 | 48.85771 | 9.66421 | 98° | 119km/h | 11289m | 8.4m/s | -52.6°C | 59.3% | 230.5hPa | 2.9V | 18:12:15 | 01:00:41 | 00:00:00 | |
| DL9SK-14 | 2026-08-30 11:19:00 | 48.85777 | 9.66328 | 94° | 124km/h | 11275m | 4.1m/s | -52.4°C | 55.5% | 231.0hPa | 2.9V | 00:00:00 | 00:00:00 | 00:00:00 | |
| DL6DJ-15 | 2026-08-30 11:18:59 | 48.85780 | 9.66280 | 94° | 126km/h | 11271m | 5.0m/s | -52.4°C | 55.3% | 231.2hPa | 2.9V | 00:00:00 | 00:00:00 | 00:00:00 | |
| DO3MHA-12 | 2026-08-30 11:18:58 | 48.85782 | 9.66232 | 96° | 124km/h | 11265m | 7.3m/s | -52.3°C | 63.6% | 231.3hPa | 2.9V | 00:00:00 | 01:00:37 | 00:00:00 | |
| DF1GD-15 | 2026-08-30 11:18:57 | 48.85782 | 9.66232 | 96° | 126km/h | 11265m | 7.3m/s | -52.4°C | 55.5% | 231.4hPa | 2.9V | 00:00:00 | 00:00:00 | 00:00:00 | |
| DM0DOS-11 | 2026-08-30 11:18:54 | 48.85800 | 9.65946 | 96° | 122km/h | 11229m | 7.8m/s | 0°C | 0% | 0hPa | 2.9V | 00:00:00 | 01:00:31 | 00:00:00 | |
| DK7TD | 2026-08-30 11:18:52 | 48.85800 | 9.65946 | 96° | 122km/h | 11229m | 7.9m/s | -52.1°C | 57% | 232.6hPa | 2.9V | 18:12:15 | 01:00:31 | 00:00:00 | |
| DB0ND-19 | 2026-08-30 11:18:48 | 48.85823 | 9.65759 | 103° | 126km/h | 11206m | 6.7m/s | -51.9°C | 52.9% | 233.4hPa | 2.9V | 00:00:00 | 00:00:00 | 00:00:00 | |
| DK7TD | 2026-08-30 11:18:41 | 48.85856 | 9.65425 | 94° | 126km/h | 11166m | 9.1m/s | -51.5°C | 56.7% | 234.9hPa | 2.9V | 18:12:15 | 01:00:20 | 00:00:00 | |
| DO3MHA-12 | 2026-08-30 11:18:38 | 48.85866 | 9.65278 | 99° | 122km/h | 11148m | 7.8m/s | -51.3°C | 60.4% | 235.6hPa | 2.7V | 00:00:00 | 01:00:17 | 00:00:00 | |
| DF1GD-15 | 2026-08-30 11:18:37 | 48.85866 | 9.65278 | 99° | 130km/h | 11148m | 7.9m/s | -51.4°C | 52.8% | 235.6hPa | 2.8V | 00:00:00 | 00:00:00 | 00:00:00 | |
| DG1MJG | 2026-08-30 11:18:35 | 48.85877 | 9.65181 | 103° | 126km/h | 11134m | 5.0m/s | -51.2°C | 53.8% | 236.1hPa | 2.8V | 00:00:00 | 00:00:00 | 00:00:00 | |
| BIOWL1-15 | 2026-08-30 11:18:35 | 48.85901 | 9.64998 | 98° | 117km/h | 11111m | 3.8m/s | -51°C | 58.7% | 236.9hPa | 2.8V | 18:12:15 | 01:00:11 | 00:00:00 | |
| DM0DOS-11 | 2026-08-30 11:18:34 | 48.85902 | 9.64998 | 98° | 117km/h | 11111m | 3.8m/s | 0°C | 0% | 0hPa | 2.8V | 00:00:00 | 01:00:11 | 00:00:00 | |
| DK7TD | 2026-08-30 11:18:31 | 48.85906 | 9.64954 | 98° | 117km/h | 11107m | 4.6m/s | -51°C | 58.8% | 237.1hPa | 2.9V | 18:12:15 | 01:00:10 | 00:00:00 | |
| BIOWL1-15 | 2026-08-30 11:18:25 | 48.85935 | 9.64678 | 98° | 126km/h | 11070m | 5.1m/s | -50.6°C | 58.7% | 238.4hPa | 2.9V | 18:12:15 | 01:00:04 | 00:00:00 | |
| DK7TD | 2026-08-30 11:18:21 | 48.85950 | 9.64486 | 96° | 124km/h | 11043m | 7.6m/s | -50.4°C | 57.6% | 239.4hPa | 2.8V | 18:12:15 | 01:00:00 | 00:00:00 | |
| BIOWL1-15 | 2026-08-30 11:18:14 | 48.85986 | 9.64123 | 96° | 124km/h | 10998m | 8.5m/s | -50°C | 57.9% | 241.1hPa | 2.9V | 18:12:15 | 00:59:52 | 00:00:00 | |
| DM0DOS-11 | 2026-08-30 11:18:14 | 48.85994 | 9.63980 | 95° | 124km/h | 10979m | 4.8m/s | 0°C | 0% | 0hPa | 2.9V | 00:00:00 | 00:59:49 | 00:00:00 | |
| DK7TD | 2026-08-30 11:18:10 | 48.85994 | 9.63980 | 96° | 124km/h | 10979m | 4.8m/s | -49.8°C | 57.6% | 241.9hPa | 2.9V | 18:12:15 | 00:59:49 | 00:00:00 | |
| BIOWL1-15 | 2026-08-30 11:18:04 | 48.86026 | 9.63698 | 98° | 126km/h | 10943m | 5.9m/s | -49.5°C | 57.9% | 243.3hPa | 2.9V | 18:12:15 | 00:59:43 | 00:00:00 | |
| DK7TD | 2026-08-30 11:18:00 | 48.86041 | 9.63504 | 98° | 122km/h | 10918m | 8.4m/s | -49.4°C | 58% | 244.2hPa | 2.9V | 18:12:15 | 00:59:39 | 00:00:00 | |
| BIOWL1-15 | 2026-08-30 11:17:53 | 48.86079 | 9.63101 | 96° | 124km/h | 10862m | 7.2m/s | -48.9°C | 59.8% | 246.3hPa | 2.8V | 18:12:15 | 00:59:30 | 00:00:00 | |
| DK7TD | 2026-08-30 11:17:50 | 48.86082 | 9.63053 | 97° | 128km/h | 10857m | 5m/s | -48.8°C | 60% | 246.5hPa | 2.8V | 18:12:15 | 00:59:29 | 00:00:00 | |
| DB0ND-19 | 2026-08-30 11:17:46 | 48.86101 | 9.62854 | 98° | 128km/h | 10830m | 7.3m/s | -48.7°C | 55.2% | 247.4hPa | 2.9V | 00:00:00 | 00:00:00 | 00:00:00 | |
| BIOWL1-15 | 2026-08-30 11:17:40 | 48.86129 | 9.62590 | 99° | 110km/h | 10790m | 3.9m/s | -48.4°C | 60.1% | 248.9hPa | 2.9V | 18:12:15 | 00:59:19 | 00:00:00 | |
| BIOWL1-15 | 2026-08-30 11:17:29 | 48.86193 | 9.61978 | 99° | 130km/h | 10714m | 4.8m/s | -48°C | 61.5% | 251.8hPa | 2.8V | 18:12:15 | 00:59:06 | 00:00:00 | |
| DK7TD | 2026-08-30 11:17:29 | 48.86183 | 9.62076 | 100° | 130km/h | 10728m | 8.5m/s | -48°C | 61.3% | 251.3hPa | 2.9V | 18:12:15 | 00:59:08 | 00:00:00 | |
| DK7TD | 2026-08-30 11:17:19 | 48.86220 | 9.61604 | 96° | 126km/h | 10667m | 5.6m/s | -47.8°C | 62.5% | 253.7hPa | 2.9V | 18:12:15 | 00:58:58 | 00:00:00 | |
| BIOWL1-15 | 2026-08-30 11:17:17 | 48.86226 | 9.61509 | 96° | 122km/h | 10655m | 5.4m/s | -47.7°C | 62.4% | 254.3hPa | 2.9V | 18:12:15 | 00:58:56 | 00:00:00 | |
| DK7TD | 2026-08-30 11:17:08 | 48.86258 | 9.61097 | 98° | 113km/h | 10599m | 5.5m/s | -47.3°C | 59.9% | 256.3hPa | 2.8V | 18:12:15 | 00:58:47 | 00:00:00 | |
| BIOWL1-15 | 2026-08-30 11:17:06 | 48.86268 | 9.61011 | 101° | 117km/h | 10589m | 4.3m/s | -47.2°C | 59.6% | 256.8hPa | 2.9V | 18:12:15 | 00:58:45 | 00:00:00 | |
| DK7TD | 2026-08-30 11:16:58 | 48.86298 | 9.60651 | 94° | 120km/h | 10548m | 5m/s | -47°C | 60% | 258.4hPa | 2.9V | 18:12:15 | 00:58:37 | 00:00:00 | |
| BIOWL1-15 | 2026-08-30 11:16:55 | 48.86308 | 9.60520 | 100° | 110km/h | 10532m | 5.7m/s | -46.9°C | 60.1% | 259hPa | 2.8V | 18:12:15 | 00:58:34 | 00:00:00 | |
| DK7TD | 2026-08-30 11:16:47 | 48.86346 | 9.60177 | 96° | 120km/h | 10477m | 5.2m/s | -46.5°C | 57.6% | 261.2hPa | 2.9V | 18:12:15 | 00:58:26 | 00:00:00 | |
| BIOWL1-15 | 2026-08-30 11:16:44 | 48.86355 | 9.60044 | 95° | 113km/h | 10461m | 6.7m/s | -46.3°C | 57.7% | 261.8hPa | 2.9V | 18:12:15 | 00:58:23 | 00:00:00 | |
| DK7TD | 2026-08-30 11:16:36 | 48.86375 | 9.59712 | 99° | 108km/h | 10414m | 7.5m/s | -46°C | 59.4% | 263.6hPa | 2.8V | 18:12:15 | 00:58:15 | 00:00:00 | |
| BIOWL1-15 | 2026-08-30 11:16:34 | 48.86410 | 9.59360 | 99° | 99km/h | 10362m | 3.8m/s | -45.6°C | 60.2% | 265.7hPa | 2.9V | 18:12:15 | 00:58:06 | 00:00:00 | |
| DK7TD | 2026-08-30 11:16:25 | 48.86417 | 9.59284 | 96° | 102km/h | 10352m | 6.4m/s | -45.5°C | 60.3% | 266.1hPa | 2.9V | 18:12:15 | 00:58:04 | 00:00:00 | |
| BIOWL1-15 | 2026-08-30 11:16:22 | 48.86425 | 9.59161 | 97° | 111km/h | 10336m | 4.9m/s | -45.3°C | 59.9% | 266.8hPa | 2.8V | 18:12:15 | 00:58:01 | 00:00:00 | |
| DK7TD | 2026-08-30 11:16:15 | 48.86450 | 9.58883 | 100° | 104km/h | 10294m | 6.6m/s | -45°C | 59.8% | 268.4hPa | 2.8V | 18:12:15 | 00:57:54 | 00:00:00 | |
| BIOWL1-15 | 2026-08-30 11:16:11 | 48.86463 | 9.58723 | 94° | 108km/h | 10271m | 3.9m/s | -44.8°C | 60.1% | 269.3hPa | 2.9V | 18:12:15 | 00:57:50 | 00:00:00 | |
| DK7TD | 2026-08-30 11:16:04 | 48.86486 | 9.58430 | 102° | 104km/h | 10234m | 4.2m/s | -44.5°C | 60.1% | 270.7hPa | 2.9V | 18:12:15 | 00:57:43 | 00:00:00 | |
| BIOWL1-15 | 2026-08-30 11:16:00 | 48.86504 | 9.58275 | 96° | 106km/h | 10211m | 5.1m/s | -44.3°C | 60.9% | 271.6hPa | 2.9V | 18:12:15 | 00:57:39 | 00:00:00 | |
| DK7TD | 2026-08-30 11:15:54 | 48.86518 | 9.58024 | 100° | 110km/h | 10178m | 4.8m/s | -44°C | 60.9% | 273.1hPa | 2.8V | 18:12:15 | 00:57:33 | 00:00:00 | |
| BIOWL1-15 | 2026-08-30 11:15:48 | 48.86544 | 9.57802 | 97° | 99km/h | 10145m | 6.5m/s | -43.7°C | 61.6% | 274.4hPa | 2.8V | 18:12:15 | 00:57:27 | 00:00:00 | |
| DK7TD | 2026-08-30 11:15:43 | 48.86557 | 9.57602 | 95° | 104km/h | 10109m | 5.7m/s | -43.5°C | 61.5% | 275.8hPa | 2.9V | 18:12:15 | 00:57:22 | 00:00:00 | |
| DB0UT-7 | 2026-08-30 11:15:42 | 48.86559 | 9.57563 | 95° | 100km/h | 10104m | 5.3m/s | -43.4°C | 65.6% | 276.0hPa | 2.9V | 00:00:00 | 00:00:00 | 00:00:00 | |
| DM0DOS-11 | 2026-08-30 11:15:40 | 48.86579 | 9.57288 | 94° | 104km/h | 10062m | 5.7m/s | 0°C | 0% | 0hPa | 2.9V | 00:00:00 | 00:57:14 | 00:00:00 | |
| DK7TD | 2026-08-30 11:15:33 | 48.86585 | 9.57208 | 100° | 106km/h | 10050m | 6.8m/s | -43.1°C | 61.7% | 278.2hPa | 2.8V | 18:12:15 | 00:57:12 | 00:00:00 | |
| DG1MJG | 2026-08-30 11:15:32 | 48.86585 | 9.57208 | 100° | 106km/h | 10050m | 6.8m/s | -43.1°C | 60.6% | 278.2hPa | 2.7V | 00:00:00 | 00:00:00 | 00:00:00 | |
| DF1GD-15 | 2026-08-30 11:15:31 | 48.86590 | 9.57169 | 103° | 102km/h | 10045m | 5.1m/s | -43.0°C | 61.3% | 278.4hPa | 2.7V | 00:00:00 | 00:00:00 | 00:00:00 | |
| DO3MHA-12 | 2026-08-30 11:15:28 | 48.86606 | 9.57025 | 94° | 99km/h | 10025m | 6.6m/s | -42.8°C | 67.0% | 279.2hPa | 2.7V | 00:00:00 | 00:57:07 | 00:00:00 | |
| DF3TZ-5 | 2026-08-30 11:15:27 | 48.86607 | 9.56952 | 88° | 95km/h | 10011m | 7.3m/s | -42.7°C | 59.8% | 279.8hPa | 2.7V | 00:00:00 | 00:00:00 | 00:00:00 | |
| NBG1-10 | 2026-08-30 11:15:26 | 48.86607 | 9.56952 | 89° | 99km/h | 10011m | 7.2m/s | -42.7°C | 66.0% | 279.8hPa | 2.7V | 00:00:00 | 00:57:05 | 00:00:00 | |
| DM0DOS-11 | 2026-08-30 11:15:24 | 48.86610 | 9.56801 | 98° | 100km/h | 9981m | 5.8m/s | 0°C | 0% | 0hPa | 2.9V | 00:00:00 | 00:57:01 | 00:00:00 | |
| DK7TD | 2026-08-30 11:15:23 | 48.86607 | 9.56839 | 94° | 100km/h | 9987m | 7.4m/s | -42.6°C | 62.4% | 280.6hPa | 2.9V | 18:12:15 | 00:57:02 | 00:00:00 | |
| DK7TD | 2026-08-30 11:15:12 | 48.86639 | 9.56420 | 99° | 106km/h | 9922m | 5.8m/s | -42°C | 63.9% | 283.4hPa | 2.8V | 18:12:15 | 00:56:51 | 00:00:00 | |
| DB0UT-7 | 2026-08-30 11:15:12 | 48.86639 | 9.56420 | 99° | 97km/h | 9922m | 5.7m/s | -42.0°C | 67.2% | 283.4hPa | 2.7V | 00:00:00 | 00:56:51 | 08:30:00 | |
| DF1GD-15 | 2026-08-30 11:15:10 | 48.86643 | 9.56379 | 100° | 108km/h | 9916m | 5.5m/s | -42.0°C | 61.2% | 283.8hPa | 2.9V | 00:00:00 | 00:00:00 | 00:00:00 | |
| DJ8HS-15 | 2026-08-30 11:15:08 | 48.86653 | 9.56262 | 98° | 95km/h | 9897m | 4.9m/s | -41.7°C | 66.8% | 284.5hPa | 2.9V | 00:00:00 | 00:56:47 | 00:00:00 | |
| DL1ZP-14 | 2026-08-30 11:15:06 | 48.86661 | 9.56190 | 99° | 95km/h | 9882m | 9.3m/s | -41.7°C | 60.8% | 285.1hPa | 2.9V | 00:00:00 | 00:00:00 | 00:00:00 | |
| DM0DOS-11 | 2026-08-30 11:15:05 | 48.86687 | 9.55978 | 95° | 93km/h | 9848m | 4.7m/s | 0°C | 0% | 0hPa | 2.9V | 00:00:00 | 00:56:39 | 00:00:00 | |
| BIOWL1-15 | 2026-08-30 11:15:03 | 48.86676 | 9.56084 | 102° | 93km/h | 9865m | 3m/s | -41.5°C | 63.1% | 285.9hPa | 2.9V | 18:12:15 | 00:56:42 | 00:00:00 | |
| DK7TD | 2026-08-30 11:15:01 | 48.86684 | 9.56013 | 97° | 93km/h | 9854m | 6.1m/s | -41.5°C | 63.7% | 286.2hPa | 2.9V | 18:12:15 | 00:56:40 | 00:00:00 | |
| BIOWL1-15 | 2026-08-30 11:14:52 | 48.86704 | 9.55649 | 92° | 97km/h | 9791m | 4.5m/s | -41°C | 63.8% | 288.9hPa | 2.9V | 18:12:15 | 00:56:30 | 00:00:00 | |
| DK7TD | 2026-08-30 11:14:50 | 48.86706 | 9.55611 | 94° | 97km/h | 9787m | 5m/s | -41°C | 63.6% | 289.2hPa | 2.8V | 18:12:15 | 00:56:29 | 00:00:00 | |
| DG9SBQ-11 | 2026-08-30 11:14:50 | 48.86706 | 9.55612 | 95° | 97km/h | 9787m | 5.0m/s | -41.0°C | 60.7% | 289.2hPa | 2.8V | 00:00:00 | 00:00:00 | 00:00:00 | |
| DF1GD-15 | 2026-08-30 11:14:49 | 48.86706 | 9.55612 | 95° | 97km/h | 9787m | 5.0m/s | -41.0°C | 60.7% | 289.2hPa | 2.8V | 00:00:00 | 00:00:00 | 00:00:00 | |
| DO3MHA-12 | 2026-08-30 11:14:48 | 48.86710 | 9.55538 | 97° | 93km/h | 9772m | 7.0m/s | -40.8°C | 65.8% | 289.6hPa | 2.8V | 00:00:00 | 00:56:27 | 00:00:00 | |
| DM0DOS-11 | 2026-08-30 11:14:45 | 48.86726 | 9.55320 | 94° | 91km/h | 9739m | 5.2m/s | 0°C | 0% | 0hPa | 2.8V | 00:00:00 | 00:56:21 | 00:00:00 | |
| BIOWL1-15 | 2026-08-30 11:14:42 | 48.86726 | 9.55320 | 95° | 91km/h | 9739m | 5.2m/s | -40.6°C | 61.3% | 291.1hPa | 2.8V | 18:12:15 | 00:56:21 | 00:00:00 | |
| DK7TD | 2026-08-30 11:14:39 | 48.86733 | 9.55217 | 97° | 89km/h | 9727m | 3.9m/s | -40.4°C | 61.4% | 291.7hPa | 2.9V | 18:12:15 | 00:56:18 | 00:00:00 | |
| DO3MHA-12 | 2026-08-30 11:14:38 | 48.86736 | 9.55182 | 97° | 93km/h | 9723m | 5.7m/s | -40.4°C | 65.5% | 291.8hPa | 2.9V | 00:00:00 | 00:56:17 | 00:00:00 | |
| DM7RM-13 | 2026-08-30 11:14:36 | 48.86738 | 9.55146 | 95° | 97km/h | 9717m | 4.9m/s | -40.4°C | 59.2% | 292.1hPa | 2.9V | 00:00:00 | 00:00:00 | 00:00:00 | |
| DM0DOS-11 | 2026-08-30 11:14:35 | 48.86738 | 9.54960 | 92° | 93km/h | 9693m | 5.9m/s | 0°C | 0% | 0hPa | 2.9V | 00:00:00 | 00:56:11 | 00:00:00 | |
| BIOWL1-15 | 2026-08-30 11:14:31 | 48.86750 | 9.54827 | 99° | 84km/h | 9670m | 5.2m/s | -40°C | 60.7% | 294.1hPa | 2.9V | 18:12:15 | 00:56:07 | 00:00:00 | |
| DK7TD | 2026-08-30 11:14:29 | 48.86746 | 9.54859 | 101° | 84km/h | 9676m | 6.2m/s | -40.1°C | 60.5% | 293.9hPa | 2.9V | 18:12:15 | 00:56:08 | 00:00:00 | |
| BIOWL1-15 | 2026-08-30 11:14:24 | 48.86784 | 9.54557 | 102° | 88km/h | 9630m | 4.9m/s | -39.7°C | 60.6% | 296hPa | 2.9V | 18:12:15 | 00:55:59 | 00:00:00 | |
| DK7TD | 2026-08-30 11:14:19 | 48.86788 | 9.54524 | 99° | 89km/h | 9625m | 4.9m/s | -39.6°C | 60.8% | 296.2hPa | 2.9V | 18:12:15 | 00:55:58 | 00:00:00 | |
| DK7TD | 2026-08-30 11:14:08 | 48.86794 | 9.54147 | 93° | 89km/h | 9559m | 2.8m/s | -39°C | 60.1% | 299hPa | 2.8V | 18:12:15 | 00:55:47 | 00:00:00 | |
| DK7TD | 2026-08-30 11:13:57 | 48.86794 | 9.53783 | 88° | 84km/h | 9495m | 4.8m/s | -38.5°C | 61.6% | 301.9hPa | 2.9V | 18:12:15 | 00:55:36 | 00:00:00 | |
| DF3TZ-5 | 2026-08-30 11:13:53 | 48.86787 | 9.53646 | 84° | 95km/h | 9476m | 5.2m/s | -38.3°C | 60.4% | 302.7hPa | 2.9V | 00:00:00 | 00:00:00 | 00:00:00 | |
| DL9SK-14 | 2026-08-30 11:13:50 | 48.86782 | 9.53501 | 90° | 91km/h | 9458m | 4.0m/s | -38.1°C | 61.2% | 303.5hPa | 2.9V | 00:00:00 | 00:00:00 | 00:00:00 | |
| DL6DJ-15 | 2026-08-30 11:13:49 | 48.86782 | 9.53467 | 90° | 88km/h | 9453m | 5.4m/s | -38.1°C | -1.0% | 303.8hPa | 2.9V | 00:00:00 | 00:00:00 | 00:00:00 | |
| DJ8HS-15 | 2026-08-30 11:13:48 | 48.86782 | 9.53467 | 91° | 91km/h | 9453m | 5.3m/s | -38.0°C | 66.4% | 303.7hPa | 2.9V | 00:00:00 | 00:55:27 | 00:00:00 | |
| NBG1-10 | 2026-08-30 11:13:47 | 48.86782 | 9.53433 | 91° | 93km/h | 9449m | 4.0m/s | -38.0°C | 66.5% | 303.9hPa | 2.9V | 00:00:00 | 00:55:26 | 08:30:00 | |
| DK7TD | 2026-08-30 11:13:47 | 48.86782 | 9.53433 | 91° | 86km/h | 9448m | 4.1m/s | -38°C | 62.9% | 304hPa | 2.9V | 18:12:15 | 00:55:26 | 00:00:00 | |
| DM0DOS-11 | 2026-08-30 11:13:45 | 48.86782 | 9.53263 | 87° | 88km/h | 9426m | 5.4m/s | 0°C | 0% | 0hPa | 2.9V | 00:00:00 | 00:55:21 | 00:00:00 | |
| DK7TD | 2026-08-30 11:13:36 | 48.86774 | 9.53059 | 91° | 91km/h | 9397m | 6m/s | -37.6°C | 61.7% | 306.1hPa | 2.8V | 18:12:15 | 00:55:15 | 00:00:00 | |
| BIOWL1-15 | 2026-08-30 11:13:35 | 48.86775 | 9.53024 | 92° | 91km/h | 9391m | 4.8m/s | -37.6°C | 61.7% | 306.4hPa | 2.8V | 18:12:15 | 00:55:14 | 00:00:00 | |
| DK7TD | 2026-08-30 11:13:25 | 48.86760 | 9.52656 | 81° | 91km/h | 9343m | 5.8m/s | -37.2°C | 62.3% | 308.5hPa | 2.9V | 18:12:15 | 00:55:04 | 00:00:00 | |
| DK7TD | 2026-08-30 11:13:15 | 48.86748 | 9.52301 | 92° | 100km/h | 9283m | 6.3m/s | -36.8°C | 63.2% | 311.3hPa | 2.9V | 18:12:15 | 00:54:54 | 00:00:00 | |
| BIOWL1-15 | 2026-08-30 11:13:04 | 48.86729 | 9.51903 | 86° | 91km/h | 9211m | 5.5m/s | -36.3°C | 65% | 314.5hPa | 2.9V | 18:12:15 | 00:54:42 | 00:00:00 | |
| DK7TD | 2026-08-30 11:13:04 | 48.86731 | 9.51938 | 84° | 91km/h | 9217m | 6.4m/s | -36.4°C | 65.1% | 314.2hPa | 2.9V | 18:12:15 | 00:54:43 | 00:00:00 | |
| DG9SBQ-11 | 2026-08-30 11:13:03 | 48.86731 | 9.51938 | 85° | 91km/h | 9217m | 6.4m/s | -36.4°C | 62.2% | 314.2hPa | 2.8V | 00:00:00 | 00:00:00 | 00:00:00 | |
| DL1ZP-14 | 2026-08-30 11:13:02 | 48.86726 | 9.51834 | 87° | 89km/h | 9199m | 7.7m/s | -36.2°C | 61.8% | 315.1hPa | 2.8V | 00:00:00 | 00:00:00 | 00:00:00 | |
| DM0DOS-11 | 2026-08-30 11:12:59 | 48.86724 | 9.51668 | 88° | 89km/h | 9171m | 4.7m/s | 0°C | 0% | 0hPa | 2.9V | 00:00:00 | 00:54:35 | 00:00:00 | |
| DK7TD | 2026-08-30 11:12:53 | 48.86722 | 9.51564 | 90° | 91km/h | 9157m | 4.7m/s | -35.9°C | 63.5% | 317hPa | 2.8V | 18:12:15 | 00:54:32 | 00:00:00 | |
| BIOWL1-15 | 2026-08-30 11:12:52 | 48.86722 | 9.51528 | 91° | 93km/h | 9153m | 4.4m/s | -35.8°C | 63.9% | 317.2hPa | 2.9V | 18:12:15 | 00:54:31 | 00:00:00 | |
| DF3TZ-5 | 2026-08-30 11:12:51 | 48.86722 | 9.51492 | 90° | 91km/h | 9148m | 4.0m/s | -35.8°C | 64.6% | 317.4hPa | 2.9V | 00:00:00 | 00:00:00 | 00:00:00 | |
| DL9SK-14 | 2026-08-30 11:12:48 | 48.86723 | 9.51349 | 92° | 95km/h | 9127m | 7.4m/s | -35.7°C | 63.4% | 318.4hPa | 2.9V | 00:00:00 | 00:00:00 | 00:00:00 | |
| DL6DJ-15 | 2026-08-30 11:12:47 | 48.86724 | 9.51312 | 91° | 99km/h | 9120m | 7.1m/s | 0°C | -1.0% | -1.0hPa | 2.9V | 00:00:00 | 00:00:00 | 00:00:00 | |
| DK7TD | 2026-08-30 11:12:43 | 48.86726 | 9.51202 | 92° | 89km/h | 9102m | 6.4m/s | -35.5°C | 65.4% | 319.6hPa | 2.9V | 18:12:15 | 00:54:22 | 00:00:00 | |
| BIOWL1-15 | 2026-08-30 11:12:42 | 48.86726 | 9.51169 | 91° | 82km/h | 9096m | 5.7m/s | -35.4°C | 65.5% | 319.9hPa | 2.9V | 18:12:15 | 00:54:21 | 00:00:00 | |
| DB0UT-7 | 2026-08-30 11:12:42 | 48.86726 | 9.51169 | 91° | 84km/h | 9096m | 5.6m/s | -35.3°C | 69.0% | 319.8hPa | 2.9V | 00:00:00 | 00:00:00 | 00:00:00 | |
| DM0DOS-11 | 2026-08-30 11:12:38 | 48.86703 | 9.50890 | 80° | 82km/h | 9043m | 6.6m/s | 0°C | 0% | 0hPa | 2.9V | 00:00:00 | 00:54:12 | 00:00:00 | |
| DK7TD | 2026-08-30 11:12:32 | 48.86701 | 9.50859 | 85° | 82km/h | 9036m | 5.8m/s | -34.9°C | 63.9% | 322.7hPa | 2.9V | 18:12:15 | 00:54:11 | 00:00:00 | |
| BIOWL1-15 | 2026-08-30 11:12:31 | 48.86699 | 9.50828 | 87° | 82km/h | 9030m | 6.3m/s | -34.8°C | 63.8% | 323hPa | 2.9V | 18:12:15 | 00:54:10 | 00:00:00 | |
| DL1ZP-14 | 2026-08-30 11:12:31 | 48.86699 | 9.50795 | 90° | 86km/h | 9024m | 6.3m/s | -34.7°C | 63.2% | 323.2hPa | 2.9V | 00:00:00 | 00:00:00 | 00:00:00 | |
| DG9SBQ-11 | 2026-08-30 11:12:29 | 48.86699 | 9.50795 | 92° | 86km/h | 9025m | 6.3m/s | -34.7°C | 63.2% | 323.3hPa | 2.9V | 00:00:00 | 00:00:00 | 00:00:00 | |
| DO3MHA-12 | 2026-08-30 11:12:28 | 48.86700 | 9.50729 | 89° | 84km/h | 9013m | 4.4m/s | -34.6°C | 69.6% | 323.7hPa | 2.9V | 00:00:00 | 00:54:07 | 00:00:00 | |
| DM0DOS-11 | 2026-08-30 11:12:25 | 48.86682 | 9.50571 | 72° | 86km/h | 8990m | 6.3m/s | 0°C | 0% | 0hPa | 2.9V | 00:00:00 | 00:54:02 | 00:00:00 | |
| DK7TD | 2026-08-30 11:12:22 | 48.86675 | 9.50540 | 72° | 84km/h | 8984m | 6m/s | -34.4°C | 65.8% | 325.1hPa | 2.9V | 18:12:15 | 00:54:01 | 00:00:00 | |
| BIOWL1-15 | 2026-08-30 11:12:20 | 48.86665 | 9.50479 | 81° | 80km/h | 8974m | 4.9m/s | -34.4°C | 65.6% | 325.6hPa | 2.9V | 18:12:15 | 00:53:59 | 00:00:00 | |
| DM0DOS-11 | 2026-08-30 11:12:18 | 48.86655 | 9.50238 | 83° | 95km/h | 8936m | 5.8m/s | 0°C | 0% | 0hPa | 2.9V | 00:00:00 | 00:53:52 | 00:00:00 | |
| DK7TD | 2026-08-30 11:12:12 | 48.86652 | 9.50202 | 83° | 91km/h | 8929m | 7m/s | -34.1°C | 64.3% | 327.8hPa | 2.8V | 18:12:15 | 00:53:51 | 00:00:00 | |
| BIOWL1-15 | 2026-08-30 11:12:09 | 48.86635 | 9.49873 | 93° | 84km/h | 8872m | 7.7m/s | -33.8°C | 66.2% | 330.3hPa | 2.9V | 18:12:15 | 00:53:40 | 00:00:00 | |
| DO3MHA-12 | 2026-08-30 11:12:08 | 48.86639 | 9.50081 | 78° | 80km/h | 8909m | 4.6m/s | -34.0°C | 68.7% | 328.6hPa | 2.9V | 00:00:00 | 00:53:47 | 08:30:00 | |
| DM0DOS-11 | 2026-08-30 11:12:05 | 48.86631 | 9.49741 | 83° | 88km/h | 8847m | 3.3m/s | 0°C | 0% | 0hPa | 2.8V | 00:00:00 | 00:53:36 | 00:00:00 | |
| DK7TD | 2026-08-30 11:12:02 | 48.86633 | 9.49904 | 95° | 82km/h | 8880m | 7.9m/s | -33.8°C | 66.3% | 330hPa | 2.8V | 18:12:15 | 00:53:41 | 00:00:00 | |
| BIOWL1-15 | 2026-08-30 11:11:58 | 48.86623 | 9.49605 | 86° | 84km/h | 8823m | 4.6m/s | -33.4°C | 66.4% | 332.6hPa | 2.9V | 18:12:15 | 00:53:32 | 00:00:00 | |
| DK7TD | 2026-08-30 11:11:52 | 48.86622 | 9.49573 | 85° | 80km/h | 8818m | 5.5m/s | -33.3°C | 66.2% | 332.8hPa | 2.8V | 18:12:15 | 00:53:31 | 00:00:00 | |
| BIOWL1-15 | 2026-08-30 11:11:46 | 48.86619 | 9.49392 | 88° | 82km/h | 8790m | 5m/s | -33.1°C | 65.3% | 334.1hPa | 2.9V | 18:12:15 | 00:53:25 | 00:00:00 | |
| DL9SK-14 | 2026-08-30 11:11:45 | 48.86617 | 9.49361 | 83° | 82km/h | 8786m | 4.7m/s | -33.1°C | 63.6% | 334.3hPa | 2.9V | 00:00:00 | 00:00:00 | 00:00:00 | |
| DK7TD | 2026-08-30 11:11:41 | 48.86608 | 9.49233 | 85° | 84km/h | 8768m | 4m/s | -32.9°C | 63.8% | 335.2hPa | 2.9V | 18:12:15 | 00:53:20 | 00:00:00 | |
| BIOWL1-15 | 2026-08-30 11:11:35 | 48.86608 | 9.49034 | 92° | 82km/h | 8742m | 4.7m/s | -32.8°C | 63.9% | 336.4hPa | 2.9V | 18:12:15 | 00:53:14 | 00:00:00 | |
| DK7TD | 2026-08-30 11:11:30 | 48.86606 | 9.48870 | 87° | 82km/h | 8712m | 5m/s | -32.6°C | 65.8% | 338hPa | 2.9V | 18:12:15 | 00:53:09 | 00:00:00 | |
| BIOWL1-15 | 2026-08-30 11:11:25 | 48.86604 | 9.48720 | 85° | 77km/h | 8682m | 6.8m/s | -32.3°C | 65.2% | 339.4hPa | 2.9V | 18:12:15 | 00:53:04 | 00:00:00 | |
| DK7TD | 2026-08-30 11:11:19 | 48.86592 | 9.48540 | 91° | 84km/h | 8648m | 6.7m/s | -32°C | 64.9% | 340.9hPa | 2.8V | 18:12:15 | 00:52:58 | 00:00:00 | |
| BIOWL1-15 | 2026-08-30 11:11:16 | 48.86573 | 9.48262 | 81° | 91km/h | 8601m | 4.3m/s | -31.6°C | 0% | 343.3hPa | 2.9V | 18:12:15 | 00:52:49 | 00:00:00 | |
| DK7TD | 2026-08-30 11:11:09 | 48.86570 | 9.48228 | 81° | 88km/h | 8597m | 4.3m/s | -31.6°C | 65.9% | 343.5hPa | 2.8V | 18:12:15 | 00:52:48 | 00:00:00 | |
| BIOWL1-15 | 2026-08-30 11:11:01 | 48.86564 | 9.47974 | 88° | 88km/h | 8551m | 6.3m/s | 0°C | 0% | 345.9hPa | 2.9V | 18:12:15 | 00:52:40 | 00:00:00 | |
| DK7TD | 2026-08-30 11:10:59 | 48.86562 | 9.47908 | 89° | 86km/h | 8538m | 6.3m/s | -31.1°C | 61.5% | 346.4hPa | 2.9V | 18:12:15 | 00:52:38 | 00:00:00 | |
| BIOWL1-15 | 2026-08-30 11:10:51 | 48.86539 | 9.47657 | 82° | 80km/h | 8501m | 2.8m/s | 0°C | 0% | 0hPa | 2.9V | 18:12:15 | 00:52:30 | 00:00:00 | |
| DK7TD | 2026-08-30 11:10:48 | 48.86535 | 9.47561 | 89° | 84km/h | 8487m | 5.4m/s | -30.9°C | 62.9% | 348.9hPa | 2.8V | 18:12:15 | 00:52:27 | 00:00:00 | |
| DF3TZ-5 | 2026-08-30 11:10:47 | 48.86535 | 9.47529 | 87° | 82km/h | 8481m | 8.1m/s | -30.8°C | 59.8% | 349.2hPa | 2.9V | 00:00:00 | 00:00:00 | 00:00:00 | |
| BIOWL1-15 | 2026-08-30 11:10:41 | 48.86518 | 9.47355 | 86° | 77km/h | 8446m | 4.1m/s | 0°C | 0% | 0hPa | 2.9V | 18:12:15 | 00:52:20 | 00:00:00 | |
| DK7TD | 2026-08-30 11:10:38 | 48.86516 | 9.47263 | 89° | 84km/h | 8431m | 5.2m/s | -30.4°C | 62.7% | 351.5hPa | 2.9V | 18:12:15 | 00:52:17 | 00:00:00 | |
| BIOWL1-15 | 2026-08-30 11:10:30 | 48.86502 | 9.47028 | 93° | 71km/h | 8396m | 5m/s | 0°C | 0% | 0hPa | 2.8V | 18:12:15 | 00:52:09 | 00:00:00 | |
| DK7TD | 2026-08-30 11:10:27 | 48.86503 | 9.46945 | 88° | 73km/h | 8384m | 4.3m/s | -29.9°C | 61.7% | 353.9hPa | 2.9V | 18:12:15 | 00:52:06 | 00:00:00 | |
| DK7TD | 2026-08-30 11:10:17 | 48.86481 | 9.46678 | 88° | 69km/h | 8337m | 8.4m/s | -29.6°C | 64.5% | 356.1hPa | 2.9V | 18:12:15 | 00:51:56 | 00:00:00 | |
| DK7TD | 2026-08-30 11:10:07 | 48.86475 | 9.46389 | 84° | 69km/h | 8287m | 5m/s | -29.1°C | 57.4% | 358.7hPa | 2.9V | 18:12:15 | 00:51:46 | 00:00:00 | |
| DK7TD | 2026-08-30 11:09:56 | 48.86463 | 9.46087 | 79° | 80km/h | 8245m | 4.2m/s | -29°C | 31.5% | 360.8hPa | 2.9V | 18:12:15 | 00:51:35 | 00:00:00 | |
| DK7TD | 2026-08-30 11:09:45 | 48.86438 | 9.45774 | 82° | 82km/h | 8195m | 5.3m/s | -28.5°C | 32.2% | 363.4hPa | 2.9V | 18:12:15 | 00:51:24 | 00:00:00 | |
| DF3TZ-5 | 2026-08-30 11:09:45 | 48.86438 | 9.45774 | 82° | 82km/h | 8195m | 5.3m/s | -28.5°C | 29.4% | 363.4hPa | 2.8V | 00:00:00 | 00:00:00 | 00:00:00 | |
| DK7TD | 2026-08-30 11:09:35 | 48.86417 | 9.45474 | 88° | 69km/h | 8145m | 5.7m/s | -28.1°C | 30.2% | 365.8hPa | 2.8V | 18:12:15 | 00:51:14 | 00:00:00 | |
| DK7TD | 2026-08-30 11:09:24 | 48.86411 | 9.45124 | 84° | 82km/h | 8079m | 5.3m/s | -27.5°C | 20% | 369.3hPa | 2.9V | 18:12:15 | 00:51:03 | 00:00:00 | |
| DK7TD | 2026-08-30 11:09:14 | 48.86411 | 9.44845 | 76° | 86km/h | 8028m | 5.2m/s | -27.3°C | 17.8% | 371.8hPa | 2.9V | 18:12:15 | 00:50:53 | 00:00:00 | |
| DK7TD | 2026-08-30 11:09:03 | 48.86394 | 9.44512 | 83° | 86km/h | 7962m | 5m/s | -27°C | 19.4% | 375.2hPa | 2.9V | 18:12:15 | 00:50:42 | 00:00:00 | |
| DK7TD | 2026-08-30 11:08:52 | 48.86375 | 9.44170 | 92° | 77km/h | 7913m | 3.7m/s | -26.5°C | 18.7% | 377.8hPa | 2.9V | 18:12:15 | 00:50:31 | 00:00:00 | |
| DF7PN | 2026-08-30 11:08:48 | 48.86364 | 9.44030 | 79° | 71km/h | 7890m | 6.8m/s | -26.5°C | 15.9% | 378.9hPa | 2.9V | 00:00:00 | 00:00:00 | 00:00:00 | |
| DK7TD | 2026-08-30 11:08:41 | 48.86350 | 9.43849 | 82° | 88km/h | 7850m | 6.8m/s | -26.2°C | 19% | 381.1hPa | 2.9V | 18:12:15 | 00:50:20 | 00:00:00 | |
| DK7TD | 2026-08-30 11:08:30 | 48.86331 | 9.43537 | 92° | 71km/h | 7791m | 5m/s | -25.7°C | 18.5% | 384.2hPa | 2.9V | 18:12:15 | 00:50:09 | 00:00:00 | |
| DK7TD | 2026-08-30 11:08:20 | 48.86311 | 9.43244 | 77° | 80km/h | 7731m | 5.1m/s | -25.2°C | 20.7% | 387.5hPa | 2.9V | 18:12:15 | 00:49:59 | 00:00:00 | |
| DK7TD | 2026-08-30 11:08:09 | 48.86288 | 9.42923 | 82° | 84km/h | 7668m | 6.5m/s | -24.6°C | 19.6% | 390.8hPa | 2.8V | 18:12:15 | 00:49:48 | 00:00:00 | |
| DK7TD | 2026-08-30 11:07:59 | 48.86261 | 9.42596 | 90° | 82km/h | 7611m | 6.1m/s | -24.1°C | 18.9% | 393.9hPa | 2.9V | 18:12:15 | 00:49:38 | 00:00:00 | |
| DK7TD | 2026-08-30 11:07:48 | 48.86242 | 9.42286 | 77° | 68km/h | 7554m | 3.5m/s | -23.6°C | 18.4% | 397hPa | 2.9V | 18:12:15 | 00:49:27 | 00:00:00 | |
| DF7PN | 2026-08-30 11:07:45 | 48.86233 | 9.42208 | 84° | 69km/h | 7537m | 7.6m/s | -23.5°C | 15.9% | 397.9hPa | 2.9V | 00:00:00 | 00:00:00 | 00:00:00 | |
| DK7TD | 2026-08-30 11:07:38 | 48.86226 | 9.42000 | 82° | 78km/h | 7495m | 5.2m/s | -23.1°C | 18.4% | 400.3hPa | 2.9V | 18:12:15 | 00:49:17 | 00:00:00 | |
| DK7TD | 2026-08-30 11:07:27 | 48.86204 | 9.41681 | 78° | 71km/h | 7445m | 5.4m/s | -22.7°C | 14.9% | 403hPa | 2.9V | 18:12:15 | 00:49:06 | 00:00:00 | |
| DK7TD | 2026-08-30 11:07:17 | 48.86174 | 9.41414 | 85° | 82km/h | 7390m | 6.1m/s | -22.4°C | 7.7% | 406.1hPa | 2.9V | 18:12:15 | 00:48:56 | 00:00:00 | |
| DK7TD | 2026-08-30 11:07:07 | 48.86160 | 9.41121 | 84° | 69km/h | 7326m | 6.3m/s | -21.9°C | 7.3% | 409.5hPa | 2.9V | 18:12:15 | 00:48:46 | 00:00:00 | |
| DK7TD | 2026-08-30 11:06:56 | 48.86129 | 9.40814 | 82° | 75km/h | 7275m | 5m/s | -21.5°C | 6.8% | 412.6hPa | 2.9V | 18:12:15 | 00:48:35 | 00:00:00 | |
| DK7TD | 2026-08-30 11:06:46 | 48.86100 | 9.40533 | 83° | 68km/h | 7230m | 4.3m/s | -21.2°C | 6.2% | 415.1hPa | 2.9V | 18:12:15 | 00:48:25 | 00:00:00 | |
| DK7TD | 2026-08-30 11:06:35 | 48.86079 | 9.40211 | 76° | 69km/h | 7177m | 5.7m/s | -20.9°C | 6.5% | 418.2hPa | 2.9V | 18:12:15 | 00:48:14 | 00:00:00 | |
| DK7TD | 2026-08-30 11:06:25 | 48.86051 | 9.39925 | 87° | 66km/h | 7108m | 6.4m/s | -20.3°C | 7.3% | 422.1hPa | 2.9V | 18:12:15 | 00:48:04 | 00:00:00 | |
| DK7TD | 2026-08-30 11:06:08 | 48.86045 | 9.39495 | 86° | 69km/h | 7011m | 7.5m/s | -19.7°C | 6.4% | 427.7hPa | 2.9V | 18:12:15 | 00:47:47 | 00:00:00 | |
| DK7TD | 2026-08-30 11:05:57 | 48.86018 | 9.39211 | 82° | 57km/h | 6950m | 5.1m/s | -19.2°C | 6.5% | 431.2hPa | 2.9V | 18:12:15 | 00:47:36 | 00:00:00 | |
| DK7TD | 2026-08-30 11:05:46 | 48.86014 | 9.38947 | 80° | 64km/h | 6874m | 6.7m/s | -18.5°C | 5.5% | 435.5hPa | 2.9V | 18:12:15 | 00:47:25 | 00:00:00 | |
| DK7TD | 2026-08-30 11:05:36 | 48.86007 | 9.38692 | 73° | 60km/h | 6810m | 6m/s | -18°C | 5.3% | 439.6hPa | 2.9V | 18:12:15 | 00:47:14 | 00:00:00 | |
| DK7TD | 2026-08-30 11:05:25 | 48.85996 | 9.38449 | 90° | 66km/h | 6744m | 5.7m/s | -17.4°C | 4.6% | 443.2hPa | 2.9V | 18:12:15 | 00:47:04 | 00:00:00 | |
| DK7TD | 2026-08-30 11:05:12 | 48.85967 | 9.38124 | 90° | 57km/h | 6668m | 8.2m/s | -17.1°C | 4.3% | 447.6hPa | 2.9V | 18:12:15 | 00:46:51 | 00:00:00 | |
| DK7TD | 2026-08-30 11:05:01 | 48.85966 | 9.37852 | 79° | 58km/h | 6605m | 6.2m/s | -16.7°C | 9.8% | 451.6hPa | 2.9V | 18:12:15 | 00:46:40 | 00:00:00 | |
| DK7TD | 2026-08-30 11:04:51 | 48.85939 | 9.37606 | 89° | 73km/h | 6539m | 6.8m/s | -16.3°C | 9.3% | 455.3hPa | 2.9V | 18:12:15 | 00:46:30 | 00:00:00 | |
| DB0ND-19 | 2026-08-30 11:04:50 | 48.85938 | 9.37579 | 88° | 69km/h | 6534m | 4.6m/s | -16.2°C | 8.7% | 455.7hPa | 2.9V | 00:00:00 | 00:00:00 | 00:00:00 | |
| DK7TD | 2026-08-30 11:04:40 | 48.85925 | 9.37350 | 81° | 55km/h | 6472m | 6.2m/s | -15.7°C | 9.6% | 459.4hPa | 2.9V | 18:12:15 | 00:46:19 | 00:00:00 | |
| DK7TD | 2026-08-30 11:04:30 | 48.85906 | 9.37090 | 84° | 68km/h | 6418m | 6.4m/s | -15.4°C | 9.1% | 462.7hPa | 3V | 18:12:15 | 00:46:09 | 00:00:00 | |
| DK7TD | 2026-08-30 11:04:19 | 48.85888 | 9.36831 | 84° | 73km/h | 6364m | 6.2m/s | -15°C | 9.3% | 466.1hPa | 2.9V | 18:12:15 | 00:45:58 | 00:00:00 | |
| DK7TD | 2026-08-30 11:04:08 | 48.85866 | 9.36609 | 90° | 60km/h | 6303m | 4.2m/s | -14.6°C | 10.8% | 469.9hPa | 2.9V | 18:12:15 | 00:45:47 | 00:00:00 | |
| DK7TD | 2026-08-30 11:03:57 | 48.85854 | 9.36365 | 82° | 46km/h | 6242m | 6.7m/s | -14°C | 11% | 473.7hPa | 2.9V | 18:12:15 | 00:45:36 | 00:00:00 | |
| DK7TD | 2026-08-30 11:03:47 | 48.85821 | 9.36177 | 83° | 60km/h | 6180m | 5.1m/s | -13.5°C | 9.8% | 477.5hPa | 3V | 18:12:15 | 00:45:26 | 00:00:00 | |
| DK7TD | 2026-08-30 11:03:37 | 48.85823 | 9.35982 | 87° | 68km/h | 6134m | 4.4m/s | -13.2°C | 11.1% | 480.4hPa | 3V | 18:12:15 | 00:45:16 | 00:00:00 | |
| DK7TD | 2026-08-30 11:03:27 | 48.85788 | 9.35775 | 77° | 44km/h | 6085m | 4.7m/s | -12.8°C | 10% | 483.5hPa | 3V | 18:12:15 | 00:45:06 | 00:00:00 | |
| DK7TD | 2026-08-30 11:03:16 | 48.85758 | 9.35547 | 78° | 60km/h | 6031m | 4.5m/s | -12.4°C | 13.3% | 486.9hPa | 3V | 18:12:15 | 00:44:55 | 00:00:00 | |
| DK7TD | 2026-08-30 11:03:06 | 48.85754 | 9.35352 | 88° | 51km/h | 5981m | 5.9m/s | -12.1°C | 11.7% | 490hPa | 3V | 18:12:15 | 00:44:45 | 00:00:00 | |
| DK7TD | 2026-08-30 11:02:56 | 48.85736 | 9.35156 | 70° | 60km/h | 5938m | 4m/s | -11.7°C | 11.9% | 492.8hPa | 3V | 18:12:15 | 00:44:35 | 00:00:00 | |
| DK7TD | 2026-08-30 11:02:45 | 48.85716 | 9.34930 | 86° | 62km/h | 5882m | 3.8m/s | -11.3°C | 11% | 496.4hPa | 3V | 18:12:15 | 00:44:24 | 00:00:00 | |
| DK7TD | 2026-08-30 11:02:35 | 48.85712 | 9.34707 | 91° | 68km/h | 5837m | 4.5m/s | -10.9°C | 13.2% | 499.3hPa | 3V | 18:12:15 | 00:44:14 | 00:00:00 | |
| DK7TD | 2026-08-30 11:02:24 | 48.85695 | 9.34488 | 80° | 66km/h | 5782m | 4.1m/s | -10.5°C | 12.7% | 502.8hPa | 3V | 18:12:15 | 00:44:03 | 00:00:00 | |
| DK7TD | 2026-08-30 11:02:13 | 48.85688 | 9.34234 | 94° | 58km/h | 5730m | 5.7m/s | -10.1°C | 12.2% | 506.4hPa | 3V | 18:12:15 | 00:43:52 | 00:00:00 | |
| DK7TD | 2026-08-30 11:02:02 | 48.85683 | 9.33974 | 91° | 66km/h | 5680m | 4.6m/s | -9.8°C | 12.8% | 509.6hPa | 3V | 18:12:15 | 00:43:41 | 00:00:00 | |
| DK7TD | 2026-08-30 11:01:51 | 48.85674 | 9.33734 | 89° | 71km/h | 5631m | 4.6m/s | -9.5°C | 14.2% | 512.8hPa | 3V | 18:12:15 | 00:43:30 | 00:00:00 | |
| DK7TD | 2026-08-30 11:01:40 | 48.85671 | 9.33491 | 77° | 64km/h | 5581m | 3.8m/s | -9.2°C | 15.3% | 516.1hPa | 3V | 18:12:15 | 00:43:19 | 00:00:00 | |
| DK7TD | 2026-08-30 11:01:29 | 48.85664 | 9.33262 | 84° | 58km/h | 5526m | 4.6m/s | -8.8°C | 12.2% | 520hPa | 3V | 18:12:15 | 00:43:08 | 00:00:00 | |
| DK7TD | 2026-08-30 11:01:19 | 48.85675 | 9.33049 | 86° | 46km/h | 5483m | 5.5m/s | -8.5°C | 10.8% | 522.9hPa | 3V | 18:12:15 | 00:42:58 | 00:00:00 | |
| DK7TD | 2026-08-30 11:01:08 | 48.85677 | 9.32847 | 105° | 57km/h | 5427m | 5.3m/s | -8.3°C | 3.5% | 526.6hPa | 3V | 18:12:15 | 00:42:47 | 00:00:00 | |
| DK7TD | 2026-08-30 11:00:57 | 48.85659 | 9.32626 | 87° | 55km/h | 5368m | 4.6m/s | -8°C | 3.5% | 530.6hPa | 3V | 18:12:15 | 00:42:36 | 00:00:00 | |
| DK7TD | 2026-08-30 11:00:46 | 48.85661 | 9.32409 | 95° | 46km/h | 5314m | 5m/s | -7.6°C | 3% | 534.4hPa | 3V | 18:12:15 | 00:42:25 | 00:00:00 | |
| DK7TD | 2026-08-30 11:00:35 | 48.85674 | 9.32189 | 103° | 55km/h | 5261m | 3.8m/s | -7.3°C | 3.8% | 538.1hPa | 3V | 18:12:15 | 00:42:14 | 00:00:00 | |
| DK7TD | 2026-08-30 11:00:24 | 48.85676 | 9.31981 | 83° | 53km/h | 5201m | 5.3m/s | -6.9°C | 6.8% | 542.2hPa | 3V | 18:12:15 | 00:42:03 | 00:00:00 | |
| DK7TD | 2026-08-30 11:00:14 | 48.85647 | 9.31771 | 90° | 55km/h | 5146m | 5.6m/s | -6.5°C | 8.6% | 546.1hPa | 3V | 18:12:15 | 00:41:53 | 00:00:00 | |
| DK7TD | 2026-08-30 11:00:03 | 48.85617 | 9.31583 | 86° | 49km/h | 5087m | 6.5m/s | -6.2°C | 10.9% | 550.3hPa | 3V | 18:12:15 | 00:41:42 | 00:00:00 | |
| DK7TD | 2026-08-30 10:59:53 | 48.85596 | 9.31414 | 92° | 47km/h | 5029m | 6.4m/s | -5.9°C | 9.6% | 554.2hPa | 3V | 18:12:15 | 00:41:32 | 00:00:00 | |
| DL9SK-14 | 2026-08-30 10:59:51 | 48.85597 | 9.31379 | 91° | 46km/h | 5017m | 7.2m/s | -5.8°C | 8.9% | 555.1hPa | 3V | 00:00:00 | 00:00:00 | 00:00:00 | |
| DK7TD | 2026-08-30 10:59:43 | 48.85573 | 9.31204 | 76° | 64km/h | 4978m | 5.4m/s | -5.6°C | 7.9% | 557.8hPa | 3V | 18:12:15 | 00:41:22 | 00:00:00 | |
| DK7TD | 2026-08-30 10:59:33 | 48.85536 | 9.31014 | 77° | 57km/h | 4931m | 4.6m/s | -5.6°C | 9.3% | 561.4hPa | 3V | 18:12:15 | 00:41:12 | 00:00:00 | |
| DK7TD | 2026-08-30 10:59:22 | 48.85519 | 9.30833 | 80° | 53km/h | 4874m | 8m/s | -5.3°C | 12.2% | 565.3hPa | 3V | 18:12:15 | 00:41:01 | 00:00:00 | |
| DK7TD | 2026-08-30 10:59:11 | 48.85478 | 9.30636 | 70° | 37km/h | 4810m | 5.8m/s | -4.9°C | 14.2% | 569.9hPa | 3V | 18:12:15 | 00:40:50 | 00:00:00 | |
| DK7TD | 2026-08-30 10:59:01 | 48.85423 | 9.30493 | 66° | 46km/h | 4757m | 4.2m/s | -4.4°C | 13.9% | 574hPa | 3V | 18:12:15 | 00:40:40 | 00:00:00 | |
| DK7TD | 2026-08-30 10:58:50 | 48.85380 | 9.30337 | 63° | 38km/h | 4698m | 5.4m/s | -4°C | 14.3% | 578.1hPa | 3V | 18:12:15 | 00:40:29 | 00:00:00 | |
| DL9SK-14 | 2026-08-30 10:58:49 | 48.85371 | 9.30308 | 67° | 44km/h | 4688m | 4.6m/s | -3.9°C | 13.2% | 578.7hPa | 3V | 00:00:00 | 00:00:00 | 00:00:00 | |
| DK7TD | 2026-08-30 10:58:39 | 48.85338 | 9.30155 | 63° | 42km/h | 4641m | 7.6m/s | -3.6°C | 13.3% | 582.2hPa | 3V | 18:12:15 | 00:40:18 | 00:00:00 | |
| DK7TD | 2026-08-30 10:58:28 | 48.85304 | 9.29966 | 86° | 47km/h | 4579m | 4.9m/s | -3.1°C | 13.1% | 586.7hPa | 3V | 18:12:15 | 00:40:07 | 00:00:00 | |
| DK7TD | 2026-08-30 10:58:17 | 48.85283 | 9.29780 | 72° | 49km/h | 4523m | 5.3m/s | -2.5°C | 10.1% | 591hPa | 3V | 18:12:15 | 00:39:56 | 00:00:00 | |
| DK7TD | 2026-08-30 10:58:08 | 48.85233 | 9.29602 | 67° | 49km/h | 4463m | 6.2m/s | -2.1°C | 9.5% | 595.6hPa | 3V | 18:12:15 | 00:39:45 | 00:00:00 | |
| DK7TD | 2026-08-30 10:57:58 | 48.85189 | 9.29452 | 70° | 44km/h | 4411m | 4.6m/s | -1.6°C | 9.2% | 599.4hPa | 3V | 18:12:15 | 00:39:35 | 00:00:00 | |
| DK7TD | 2026-08-30 10:57:45 | 48.85170 | 9.29264 | 84° | 44km/h | 4352m | 4.7m/s | -1.1°C | 8.8% | 603.8hPa | 3V | 18:12:15 | 00:39:24 | 00:00:00 | |
| DK7TD | 2026-08-30 10:57:35 | 48.85126 | 9.29118 | 78° | 53km/h | 4295m | 7.7m/s | -0.6°C | 7.7% | 608.2hPa | 3V | 18:12:15 | 00:39:14 | 00:00:00 | |
| DK7TD | 2026-08-30 10:57:24 | 48.85090 | 9.28937 | 78° | 38km/h | 4231m | 6.2m/s | -0°C | 5.7% | 613.2hPa | 3V | 18:12:15 | 00:39:03 | 00:00:00 | |
| DK7TD | 2026-08-30 10:57:22 | 48.85057 | 9.28765 | 87° | 49km/h | 4175m | 8.3m/s | 0.4°C | 9.1% | 617.5hPa | 3V | 18:12:15 | 00:38:53 | 00:00:00 | |
| DK7TD | 2026-08-30 10:57:10 | 48.85017 | 9.28570 | 61° | 47km/h | 4114m | 4.5m/s | 0.9°C | 8.8% | 622.3hPa | 3V | 18:12:15 | 00:38:42 | 00:00:00 | |
| DK7TD | 2026-08-30 10:56:53 | 48.85002 | 9.28407 | 75° | 44km/h | 4059m | 6.7m/s | 1.2°C | 4.5% | 626.7hPa | 3V | 18:12:15 | 00:38:32 | 00:00:00 | |
| DF3TZ-5 | 2026-08-30 10:56:48 | 48.84986 | 9.28322 | 74° | 37km/h | 4030m | 4.5m/s | 1.4°C | 6.0% | 628.9hPa | 3V | 00:00:00 | 00:00:00 | 00:00:00 | |
| DK7TD | 2026-08-30 10:56:42 | 48.84962 | 9.28228 | 68° | 46km/h | 3994m | 6.7m/s | 1.6°C | 1.7% | 631.6hPa | 3V | 18:12:15 | 00:38:21 | 00:00:00 | |
| DK7TD | 2026-08-30 10:56:31 | 48.84949 | 9.28052 | 91° | 42km/h | 3935m | 5.8m/s | 1.9°C | 2.6% | 636.5hPa | 3V | 18:12:15 | 00:38:10 | 00:00:00 | |
| DK7TD | 2026-08-30 10:56:21 | 48.84945 | 9.27863 | 102° | 46km/h | 3874m | 6.4m/s | 2.3°C | 3.5% | 641hPa | 3V | 18:12:15 | 00:37:59 | 00:00:00 | |
| DK7TD | 2026-08-30 10:56:10 | 48.84928 | 9.27714 | 85° | 49km/h | 3818m | 7.7m/s | 2.5°C | 9.7% | 645.6hPa | 3V | 18:12:15 | 00:37:49 | 00:00:00 | |
| DK7TD | 2026-08-30 10:55:59 | 48.84924 | 9.27518 | 87° | 40km/h | 3748m | 6.7m/s | 2.1°C | 14.5% | 651.1hPa | 3V | 18:12:15 | 00:37:38 | 00:00:00 | |
| DK7TD | 2026-08-30 10:55:50 | 48.84897 | 9.27354 | 67° | 55km/h | 3685m | 6.5m/s | 2.3°C | 24.6% | 656.3hPa | 3V | 18:12:15 | 00:37:28 | 00:00:00 | |
| DF3TZ-5 | 2026-08-30 10:55:46 | 48.84884 | 9.27289 | 79° | 58km/h | 3669m | 5.0m/s | 2.4°C | 22.3% | 657.6hPa | 3V | 00:00:00 | 00:00:00 | 00:00:00 | |
| DK7TD | 2026-08-30 10:55:38 | 48.84858 | 9.27125 | 80° | 57km/h | 3628m | 6.3m/s | 2.7°C | 23.8% | 660.7hPa | 3V | 18:12:15 | 00:37:17 | 00:00:00 | |
| DK7TD | 2026-08-30 10:55:28 | 48.84825 | 9.26930 | 86° | 49km/h | 3578m | 5.2m/s | 3.1°C | 18.3% | 665.1hPa | 3V | 18:12:15 | 00:37:07 | 00:00:00 | |
| DK7TD | 2026-08-30 10:55:18 | 48.84798 | 9.26734 | 86° | 60km/h | 3522m | 7.4m/s | 3.4°C | 19.1% | 669.6hPa | 3V | 18:12:15 | 00:36:57 | 00:00:00 | |
| DK7TD | 2026-08-30 10:55:08 | 48.84765 | 9.26525 | 71° | 55km/h | 3464m | 4.1m/s | 3.3°C | 23.9% | 674.4hPa | 3V | 18:12:15 | 00:36:46 | 00:00:00 | |
| DK7TD | 2026-08-30 10:54:56 | 48.84726 | 9.26319 | 64° | 53km/h | 3406m | 4.6m/s | 2°C | 84.7% | 679.2hPa | 3V | 18:12:15 | 00:36:35 | 00:00:00 | |
| DK7TD | 2026-08-30 10:54:45 | 48.84681 | 9.26105 | 72° | 47km/h | 3352m | 5m/s | 2.3°C | 70.3% | 683.7hPa | 3V | 18:12:15 | 00:36:24 | 00:00:00 | |
| DK7TD | 2026-08-30 10:54:34 | 48.84635 | 9.25903 | 76° | 38km/h | 3292m | 4.5m/s | 2.3°C | 72.7% | 688.9hPa | 3V | 18:12:15 | 00:36:13 | 00:00:00 | |
| DK7TD | 2026-08-30 10:54:23 | 48.84595 | 9.25702 | 67° | 60km/h | 3234m | 4.3m/s | 2.5°C | 76.8% | 693.9hPa | 3V | 18:12:15 | 00:36:02 | 00:00:00 | |
| DK7TD | 2026-08-30 10:54:12 | 48.84534 | 9.25495 | 56° | 51km/h | 3176m | 5.3m/s | 2.8°C | 78.2% | 698.7hPa | 3V | 18:12:15 | 00:35:51 | 00:00:00 | |
| DK7TD | 2026-08-30 10:54:02 | 48.84475 | 9.25312 | 62° | 46km/h | 3121m | 5.5m/s | 3.2°C | 84.3% | 703.6hPa | 3V | 18:12:15 | 00:35:41 | 00:00:00 | |
| DK7TD | 2026-08-30 10:53:52 | 48.84418 | 9.25138 | 57° | 44km/h | 3067m | 4.6m/s | 3.5°C | 84% | 708.2hPa | 3V | 18:12:15 | 00:35:31 | 00:00:00 | |
| DF7PN | 2026-08-30 10:53:47 | 48.84388 | 9.25028 | 60° | 53km/h | 3037m | 4.2m/s | 3.7°C | -1.0% | -1.0hPa | 3V | 00:00:00 | 00:00:00 | 00:00:00 | |
| DK7TD | 2026-08-30 10:53:42 | 48.84365 | 9.24961 | 68° | 49km/h | 3016m | 5m/s | 3.9°C | 87.2% | 712.5hPa | 3V | 18:12:15 | 00:35:21 | 00:00:00 | |
| DK7TD | 2026-08-30 10:53:32 | 48.84289 | 9.24793 | 61° | 46km/h | 2960m | 5.1m/s | 4.2°C | 88.6% | 717.7hPa | 3V | 18:12:15 | 00:35:11 | 00:00:00 | |
| DK7TD | 2026-08-30 10:53:22 | 48.84241 | 9.24633 | 58° | 42km/h | 2905m | 5.4m/s | 4.6°C | 94.5% | 722.5hPa | 3V | 18:12:15 | 00:35:01 | 00:00:00 | |
| DK7TD | 2026-08-30 10:53:11 | 48.84163 | 9.24484 | 49° | 49km/h | 2834m | 5.3m/s | 5°C | 93.3% | 728.7hPa | 3V | 18:12:15 | 00:34:50 | 00:00:00 | |
| DK7TD | 2026-08-30 10:53:03 | 48.84104 | 9.24341 | 58° | 44km/h | 2778m | 6.4m/s | 5.1°C | 95.8% | 733.6hPa | 3V | 18:12:15 | 00:34:40 | 00:00:00 | |
| DK7TD | 2026-08-30 10:52:51 | 48.84056 | 9.24150 | 64° | 58km/h | 2720m | 5.8m/s | 5.3°C | 100% | 738.8hPa | 3V | 18:12:15 | 00:34:30 | 00:00:00 | |
| DK7TD | 2026-08-30 10:52:40 | 48.84009 | 9.23958 | 70° | 53km/h | 2662m | 6.4m/s | 5.7°C | 100% | 744.2hPa | 3V | 18:12:15 | 00:34:19 | 00:00:00 | |
| DK7TD | 2026-08-30 10:52:30 | 48.83946 | 9.23765 | 72° | 49km/h | 2599m | 5.5m/s | 5.9°C | 99.3% | 750hPa | 3V | 18:12:15 | 00:34:08 | 00:00:00 | |
| DK7TD | 2026-08-30 10:52:18 | 48.83889 | 9.23591 | 60° | 44km/h | 2539m | 6.4m/s | 6.2°C | 100% | 755.6hPa | 3V | 18:12:15 | 00:33:57 | 00:00:00 | |
| DK7TD | 2026-08-30 10:52:08 | 48.83843 | 9.23439 | 75° | 44km/h | 2475m | 6.4m/s | 6.5°C | 99.9% | 761.4hPa | 3V | 18:12:15 | 00:33:47 | 00:00:00 | |
| DK7TD | 2026-08-30 10:51:57 | 48.83797 | 9.23264 | 78° | 47km/h | 2413m | 5.6m/s | 6.8°C | 97.6% | 767hPa | 3V | 18:12:15 | 00:33:36 | 00:00:00 | |
| DK7TD | 2026-08-30 10:51:46 | 48.83755 | 9.23076 | 60° | 46km/h | 2351m | 6m/s | 7.3°C | 97.4% | 773hPa | 3V | 18:12:15 | 00:33:25 | 00:00:00 | |
| DK7TD | 2026-08-30 10:51:35 | 48.83711 | 9.22901 | 63° | 42km/h | 2290m | 4.5m/s | 7.7°C | 96.7% | 778.7hPa | 3V | 18:12:15 | 00:33:14 | 00:00:00 | |
| DK7TD | 2026-08-30 10:51:24 | 48.83659 | 9.22742 | 67° | 42km/h | 2231m | 4.8m/s | 8.1°C | 94.7% | 784.4hPa | 3V | 18:12:15 | 00:33:03 | 00:00:00 | |
| DK7TD | 2026-08-30 10:51:13 | 48.83611 | 9.22599 | 59° | 38km/h | 2174m | 5.6m/s | 8.4°C | 96.6% | 789.6hPa | 3V | 18:12:15 | 00:32:52 | 00:00:00 | |
| DK7TD | 2026-08-30 10:51:02 | 48.83550 | 9.22449 | 67° | 49km/h | 2110m | 6.5m/s | 8.8°C | 95.8% | 795.4hPa | 3V | 18:12:15 | 00:32:41 | 00:00:00 | |
| DK7TD | 2026-08-30 10:50:52 | 48.83509 | 9.22305 | 61° | 33km/h | 2052m | 4.5m/s | 9.2°C | 95% | 801.2hPa | 3V | 18:12:15 | 00:32:31 | 00:00:00 | |
| DK7TD | 2026-08-30 10:50:41 | 48.83467 | 9.22182 | 57° | 33km/h | 1992m | 4.6m/s | 9.6°C | 93% | 806.8hPa | 3V | 18:12:15 | 00:32:20 | 00:00:00 | |
| DK7TD | 2026-08-30 10:50:40 | 48.83463 | 9.22171 | 62° | 31km/h | 1987m | 6.8m/s | 9.6°C | 93.4% | 807.5hPa | 3V | 18:12:15 | 00:32:19 | 00:00:00 | |
| DK7TD | 2026-08-30 10:50:38 | 48.83455 | 9.22152 | 51° | 31km/h | 1974m | 7.2m/s | 9.7°C | 94.5% | 808.7hPa | 3V | 18:12:15 | 00:32:17 | 00:00:00 | |
| DK7TD | 2026-08-30 10:50:36 | 48.83443 | 9.22131 | 50° | 42km/h | 1961m | 5.8m/s | 9.9°C | 93.6% | 809.9hPa | 3V | 18:12:15 | 00:32:15 | 00:00:00 | |
| DK7TD | 2026-08-30 10:50:35 | 48.83437 | 9.22118 | 57° | 44km/h | 1955m | 6.3m/s | 9.9°C | 93.5% | 810.6hPa | 3V | 18:12:15 | 00:32:14 | 00:00:00 | |
| DK7TD | 2026-08-30 10:50:34 | 48.83431 | 9.22104 | 60° | 42km/h | 1949m | 5.9m/s | 10°C | 93.2% | 811.3hPa | 3V | 18:12:15 | 00:32:13 | 00:00:00 | |
| DK7TD | 2026-08-30 10:50:32 | 48.83421 | 9.22075 | 63° | 40km/h | 1938m | 5m/s | 10.1°C | 92.8% | 812.2hPa | 3V | 18:12:15 | 00:32:11 | 00:00:00 | |
| DK7TD | 2026-08-30 10:50:30 | 48.83412 | 9.22048 | 61° | 40km/h | 1928m | 5.9m/s | 10.1°C | 93.6% | 813.1hPa | 3V | 18:12:15 | 00:32:09 | 00:00:00 | |
| DK7TD | 2026-08-30 10:50:29 | 48.83407 | 9.22034 | 66° | 40km/h | 1921m | 6.7m/s | 10°C | 93.4% | 813.8hPa | 3V | 18:12:15 | 00:32:08 | 00:00:00 | |
| DK7TD | 2026-08-30 10:50:27 | 48.83396 | 9.22002 | 54° | 27km/h | 1903m | 5.5m/s | 10.1°C | 93.1% | 815.6hPa | 3V | 18:12:15 | 00:32:05 | 00:00:00 | |
| DK7TD | 2026-08-30 10:50:27 | 48.83392 | 9.21993 | 53° | 27km/h | 1899m | 4.6m/s | 10.2°C | 93.5% | 816.1hPa | 3V | 18:12:15 | 00:32:04 | 00:00:00 | |
| DK7TD | 2026-08-30 10:50:23 | 48.83384 | 9.21977 | 59° | 26km/h | 1888m | 6.2m/s | 10.3°C | 94% | 817.2hPa | 3V | 18:12:15 | 00:32:02 | 00:00:00 | |
| DK7TD | 2026-08-30 10:50:22 | 48.83381 | 9.21969 | 60° | 22km/h | 1882m | 6m/s | 10.3°C | 94% | 817.8hPa | 3V | 18:12:15 | 00:32:01 | 00:00:00 | |
| DK7TD | 2026-08-30 10:50:21 | 48.83378 | 9.21962 | 59° | 20km/h | 1876m | 5.9m/s | 10.2°C | 94.1% | 818.5hPa | 3V | 18:12:15 | 00:32:00 | 00:00:00 | |
| DK7TD | 2026-08-30 10:50:19 | 48.83372 | 9.21950 | 45° | 22km/h | 1865m | 4.8m/s | 10.3°C | 93.4% | 819.5hPa | 3V | 18:12:15 | 00:31:58 | 00:00:00 | |
| DK7TD | 2026-08-30 10:50:17 | 48.83363 | 9.21937 | 53° | 26km/h | 1855m | 5.2m/s | 10.4°C | 93.8% | 820.4hPa | 3V | 18:12:15 | 00:31:56 | 00:00:00 | |
| DK7TD | 2026-08-30 10:50:15 | 48.83355 | 9.21920 | 50° | 27km/h | 1846m | 5.6m/s | 10.3°C | 96.2% | 821.3hPa | 3V | 18:12:15 | 00:31:54 | 00:00:00 | |
| DK7TD | 2026-08-30 10:50:14 | 48.83351 | 9.21913 | 43° | 26km/h | 1840m | 6.9m/s | 10.3°C | 96.1% | 822hPa | 3V | 18:12:15 | 00:31:53 | 00:00:00 | |
| DK7TD | 2026-08-30 10:50:12 | 48.83341 | 9.21899 | 53° | 26km/h | 1828m | 5.7m/s | 10.3°C | 94.9% | 823hPa | 3V | 18:12:15 | 00:31:51 | 00:00:00 | |
| DK7TD | 2026-08-30 10:50:11 | 48.83338 | 9.21891 | 56° | 20km/h | 1823m | 4.5m/s | 10.4°C | 94.7% | 823.6hPa | 3V | 18:12:15 | 00:31:50 | 00:00:00 | |
| DK7TD | 2026-08-30 10:50:09 | 48.83332 | 9.21878 | 56° | 22km/h | 1813m | 5.6m/s | 10.5°C | 94.4% | 824.5hPa | 3V | 18:12:15 | 00:31:48 | 00:00:00 | |
| DK7TD | 2026-08-30 10:50:07 | 48.83324 | 9.21862 | 49° | 29km/h | 1802m | 4.2m/s | 10.6°C | 93.8% | 825.7hPa | 3V | 18:12:15 | 00:31:46 | 00:00:00 | |
| DK7TD | 2026-08-30 10:50:05 | 48.83315 | 9.21843 | 55° | 33km/h | 1793m | 5.2m/s | 10.6°C | 93.9% | 826.5hPa | 3V | 18:12:15 | 00:31:44 | 00:00:00 | |
| DK7TD | 2026-08-30 10:50:05 | 48.83310 | 9.21833 | 58° | 29km/h | 1788m | 5.5m/s | 10.7°C | 93.4% | 826.9hPa | 3V | 18:12:15 | 00:31:43 | 00:00:00 | |
| DK7TD | 2026-08-30 10:50:02 | 48.83303 | 9.21813 | 63° | 31km/h | 1779m | 6.1m/s | 10.7°C | 95.4% | 828hPa | 3V | 18:12:15 | 00:31:41 | 00:00:00 | |
| DK7TD | 2026-08-30 10:50:01 | 48.83299 | 9.21802 | 65° | 33km/h | 1772m | 7.2m/s | 10.7°C | 95.2% | 828.5hPa | 3V | 18:12:15 | 00:31:40 | 00:00:00 | |
| DK7TD | 2026-08-30 10:49:59 | 48.83293 | 9.21777 | 71° | 37km/h | 1760m | 5.3m/s | 10.8°C | 94% | 829.7hPa | 3V | 18:12:15 | 00:31:38 | 00:00:00 | |
| DK7TD | 2026-08-30 10:49:58 | 48.83287 | 9.21750 | 71° | 37km/h | 1750m | 5.9m/s | 10.9°C | 94.2% | 830.9hPa | 3V | 18:12:15 | 00:31:36 | 00:00:00 | |
| DK7TD | 2026-08-30 10:49:57 | 48.83284 | 9.21738 | 68° | 35km/h | 1744m | 5.5m/s | 10.9°C | 93.4% | 831.5hPa | 3V | 18:12:15 | 00:31:35 | 00:00:00 | |
| DK7TD | 2026-08-30 10:49:54 | 48.83278 | 9.21714 | 68° | 33km/h | 1734m | 5.2m/s | 11°C | 93.7% | 832.7hPa | 3V | 18:12:15 | 00:31:33 | 00:00:00 | |
| DK7TD | 2026-08-30 10:49:53 | 48.83275 | 9.21702 | 72° | 35km/h | 1729m | 4.9m/s | 11°C | 93.9% | 833hPa | 3V | 18:12:15 | 00:31:32 | 00:00:00 | |
| DK7TD | 2026-08-30 10:49:51 | 48.83269 | 9.21676 | 67° | 35km/h | 1717m | 5.4m/s | 11.1°C | 93.2% | 834.1hPa | 3V | 18:12:15 | 00:31:30 | 00:00:00 | |
| DK7TD | 2026-08-30 10:49:50 | 48.83265 | 9.21664 | 67° | 33km/h | 1711m | 5.6m/s | 11.1°C | 93.3% | 834.7hPa | 3V | 18:12:15 | 00:31:29 | 00:00:00 | |
| DK7TD | 2026-08-30 10:49:49 | 48.83262 | 9.21652 | 67° | 33km/h | 1706m | 5.4m/s | 11.1°C | 93.3% | 835.4hPa | 3V | 18:12:15 | 00:31:28 | 00:00:00 | |
| DK7TD | 2026-08-30 10:49:48 | 48.83259 | 9.21641 | 66° | 33km/h | 1701m | 4.9m/s | 11.1°C | 93.6% | 835.6hPa | 3V | 18:12:15 | 00:31:27 | 00:00:00 | |
| DK7TD | 2026-08-30 10:49:47 | 48.83255 | 9.21629 | 62° | 37km/h | 1695m | 7.2m/s | 11.1°C | 94.2% | 836.4hPa | 3V | 18:12:15 | 00:31:26 | 00:00:00 | |
| DK7TD | 2026-08-30 10:49:45 | 48.83246 | 9.21606 | 57° | 31km/h | 1682m | 4.7m/s | 11.1°C | 93.2% | 837.7hPa | 3V | 18:12:15 | 00:31:24 | 00:00:00 | |
| DK7TD | 2026-08-30 10:49:44 | 48.83242 | 9.21595 | 59° | 31km/h | 1678m | 4.9m/s | 11.1°C | 93.5% | 837.9hPa | 3V | 18:12:15 | 00:31:23 | 00:00:00 | |
| DK7TD | 2026-08-30 10:49:42 | 48.83234 | 9.21574 | 66° | 31km/h | 1667m | 5.1m/s | 11.1°C | 95.2% | 839hPa | 3V | 18:12:15 | 00:31:21 | 00:00:00 | |
| DK7TD | 2026-08-30 10:49:41 | 48.83231 | 9.21563 | 65° | 29km/h | 1662m | 5.3m/s | 11.1°C | 96% | 839.6hPa | 3V | 18:12:15 | 00:31:20 | 00:00:00 | |
| DK7TD | 2026-08-30 10:49:39 | 48.83225 | 9.21544 | 60° | 29km/h | 1652m | 5.1m/s | 11.1°C | 96.5% | 840.5hPa | 3V | 18:12:15 | 00:31:18 | 00:00:00 | |
| DK7TD | 2026-08-30 10:49:38 | 48.83221 | 9.21533 | 61° | 33km/h | 1647m | 6.4m/s | 11.1°C | 97.2% | 841hPa | 3V | 18:12:15 | 00:31:17 | 00:00:00 | |
| DK7TD | 2026-08-30 10:49:36 | 48.83214 | 9.21509 | 70° | 33km/h | 1635m | 4.7m/s | 11.2°C | 95.9% | 842.2hPa | 3V | 18:12:15 | 00:31:15 | 00:00:00 | |
| DK7TD | 2026-08-30 10:49:34 | 48.83208 | 9.21487 | 67° | 31km/h | 1627m | 5.5m/s | 11.3°C | 97.1% | 843hPa | 3V | 18:12:15 | 00:31:13 | 00:00:00 | |
| DK7TD | 2026-08-30 10:49:33 | 48.83195 | 9.21432 | 73° | 27km/h | 1600m | 5.7m/s | 11.4°C | 100% | 845.8hPa | 3V | 18:12:15 | 00:31:08 | 00:00:00 | |
| DK7TD | 2026-08-30 10:49:32 | 48.83194 | 9.21421 | 83° | 31km/h | 1594m | 5.8m/s | 11.4°C | 99.8% | 846.2hPa | 3V | 18:12:15 | 00:31:07 | 00:00:00 | |
| DK7TD | 2026-08-30 10:49:27 | 48.83193 | 9.21409 | 86° | 31km/h | 1590m | 3.7m/s | 11.4°C | 99.7% | 847hPa | 3V | 18:12:15 | 00:31:06 | 00:00:00 | |
| DK7TD | 2026-08-30 10:49:25 | 48.83191 | 9.21386 | 78° | 31km/h | 1580m | 5.7m/s | 11.5°C | 98.9% | 847.9hPa | 3V | 18:12:15 | 00:31:04 | 00:00:00 | |
| DK7TD | 2026-08-30 10:49:24 | 48.83190 | 9.21374 | 75° | 31km/h | 1574m | 5.1m/s | 11.5°C | 98.9% | 848.6hPa | 3V | 18:12:15 | 00:31:03 | 00:00:00 | |
| DK7TD | 2026-08-30 10:49:23 | 48.83186 | 9.21352 | 73° | 27km/h | 1564m | 5.1m/s | 11.5°C | 99.3% | 849.6hPa | 3V | 18:12:15 | 00:31:01 | 00:00:00 | |
| DK7TD | 2026-08-30 10:49:22 | 48.83183 | 9.21342 | 69° | 29km/h | 1558m | 6.6m/s | 11.6°C | 99.4% | 850.2hPa | 3V | 18:12:15 | 00:31:00 | 00:00:00 | |
| DK7TD | 2026-08-30 10:49:19 | 48.83178 | 9.21321 | 69° | 29km/h | 1547m | 5.6m/s | 11.7°C | 100% | 851.2hPa | 3V | 18:12:15 | 00:30:58 | 00:00:00 | |
| DK7TD | 2026-08-30 10:49:18 | 48.83175 | 9.21311 | 70° | 31km/h | 1542m | 5.5m/s | 11.7°C | 100% | 851.7hPa | 3V | 18:12:15 | 00:30:57 | 00:00:00 | |
| DK7TD | 2026-08-30 10:49:16 | 48.83170 | 9.21289 | 74° | 27km/h | 1531m | 5.7m/s | 11.8°C | 99.3% | 852.9hPa | 3V | 18:12:15 | 00:30:55 | 00:00:00 | |
| DK7TD | 2026-08-30 10:49:15 | 48.83169 | 9.21279 | 78° | 26km/h | 1526m | 4.8m/s | 11.8°C | 98.9% | 853.4hPa | 3V | 18:12:15 | 00:30:54 | 00:00:00 | |
| DK7TD | 2026-08-30 10:49:13 | 48.83167 | 9.21262 | 80° | 18km/h | 1516m | 4.8m/s | 11.8°C | 98.7% | 854.5hPa | 3V | 18:12:15 | 00:30:52 | 00:00:00 | |
| DK7TD | 2026-08-30 10:49:11 | 48.83164 | 9.21248 | 65° | 16km/h | 1504m | 6m/s | 11.9°C | 99.2% | 855.6hPa | 3V | 18:12:15 | 00:30:50 | 00:00:00 | |
| DK7TD | 2026-08-30 10:49:09 | 48.83159 | 9.21238 | 47° | 13km/h | 1492m | 5.9m/s | 11.9°C | 98.3% | 856.9hPa | 3V | 18:12:15 | 00:30:48 | 00:00:00 | |
| DK7TD | 2026-08-30 10:49:07 | 48.83153 | 9.21232 | 30° | 16km/h | 1481m | 4.9m/s | 12°C | 98.2% | 857.9hPa | 3V | 18:12:15 | 00:30:46 | 00:00:00 | |
| DK7TD | 2026-08-30 10:49:05 | 48.83147 | 9.21224 | 44° | 15km/h | 1468m | 6.5m/s | 12.1°C | 97.8% | 859.5hPa | 3V | 18:12:15 | 00:30:44 | 00:00:00 | |
| DK7TD | 2026-08-30 10:49:03 | 48.83141 | 9.21215 | 48° | 20km/h | 1457m | 4.8m/s | 12.1°C | 97.7% | 860.6hPa | 3V | 18:12:15 | 00:30:42 | 00:00:00 | |
| DK7TD | 2026-08-30 10:49:02 | 48.83131 | 9.21199 | 44° | 18km/h | 1438m | 6.8m/s | 12.4°C | 95.8% | 862.4hPa | 3V | 18:12:15 | 00:30:39 | 00:00:00 | |
| DK7TD | 2026-08-30 10:49:01 | 48.83128 | 9.21194 | 44° | 15km/h | 1432m | 5.3m/s | 12.5°C | 95.5% | 863hPa | 3V | 18:12:15 | 00:30:38 | 00:00:00 | |
| DK7TD | 2026-08-30 10:48:57 | 48.83123 | 9.21188 | 34° | 11km/h | 1418m | 7m/s | 12.6°C | 94.9% | 864.4hPa | 3V | 18:12:15 | 00:30:36 | 00:00:00 | |
| DK7TD | 2026-08-30 10:48:56 | 48.83121 | 9.21186 | 46° | 9km/h | 1411m | 7.1m/s | 12.7°C | 94% | 865.2hPa | 3V | 18:12:15 | 00:30:35 | 00:00:00 | |
| DK7TD | 2026-08-30 10:48:55 | 48.83120 | 9.21183 | 60° | 13km/h | 1405m | 5.9m/s | 12.7°C | 93.6% | 865.9hPa | 3V | 18:12:15 | 00:30:34 | 00:00:00 | |
| DK7TD | 2026-08-30 10:48:53 | 48.83118 | 9.21174 | 73° | 15km/h | 1392m | 7.3m/s | 12.8°C | 94.1% | 867.2hPa | 3V | 18:12:15 | 00:30:32 | 00:00:00 | |
| DK7TD | 2026-08-30 10:48:52 | 48.83116 | 9.21168 | 67° | 16km/h | 1385m | 6.8m/s | 12.9°C | 93.9% | 867.9hPa | 3V | 18:12:15 | 00:30:31 | 00:00:00 | |
| DK7TD | 2026-08-30 10:48:51 | 48.83115 | 9.21162 | 67° | 16km/h | 1379m | 5.8m/s | 13°C | 94.1% | 868.4hPa | 3V | 18:12:15 | 00:30:30 | 00:00:00 | |
| DK7TD | 2026-08-30 10:48:49 | 48.83113 | 9.21152 | 79° | 15km/h | 1364m | 8m/s | 13.1°C | 94.1% | 870hPa | 3V | 18:12:15 | 00:30:28 | 00:00:00 | |
| DK7TD | 2026-08-30 10:48:47 | 48.83112 | 9.21143 | 84° | 11km/h | 1351m | 5.8m/s | 13.1°C | 95% | 871.2hPa | 3V | 18:12:15 | 00:30:26 | 00:00:00 | |
| DK7TD | 2026-08-30 10:48:45 | 48.83112 | 9.21138 | 106° | 4km/h | 1338m | 6.5m/s | 13.2°C | 93.7% | 872.6hPa | 3V | 18:12:15 | 00:30:24 | 00:00:00 | |
| DK7TD | 2026-08-30 10:48:44 | 48.83113 | 9.21137 | 149° | 4km/h | 1332m | 5.2m/s | 13.4°C | 91.7% | 873.3hPa | 3V | 18:12:15 | 00:30:23 | 00:00:00 | |
| DK7TD | 2026-08-30 10:48:39 | 48.83114 | 9.21131 | 90° | 9km/h | 1306m | 5m/s | 13.9°C | 88.8% | 876hPa | 3V | 18:12:15 | 00:30:18 | 00:00:00 | |
| DK7TD | 2026-08-30 10:48:38 | 48.83114 | 9.21126 | 97° | 15km/h | 1301m | 6.2m/s | 13.9°C | 89.2% | 876.7hPa | 3V | 18:12:15 | 00:30:17 | 00:00:00 | |
| DK7TD | 2026-08-30 10:48:36 | 48.83116 | 9.21114 | 100° | 18km/h | 1289m | 6.4m/s | 14°C | 89% | 877.8hPa | 3V | 18:12:15 | 00:30:15 | 00:00:00 | |
| DK7TD | 2026-08-30 10:48:34 | 48.83117 | 9.21101 | 86° | 18km/h | 1276m | 6.9m/s | 14°C | 88.8% | 879.2hPa | 3V | 18:12:15 | 00:30:13 | 00:00:00 | |
| DK7TD | 2026-08-30 10:48:33 | 48.83116 | 9.21089 | 82° | 16km/h | 1264m | 6.5m/s | 14.2°C | 88.9% | 880.5hPa | 3V | 18:12:15 | 00:30:11 | 00:00:00 | |
| DK7TD | 2026-08-30 10:48:32 | 48.83115 | 9.21083 | 82° | 13km/h | 1258m | 6.4m/s | 14.2°C | 89.4% | 881.1hPa | 3V | 18:12:15 | 00:30:10 | 00:00:00 | |
| DK7TD | 2026-08-30 10:48:29 | 48.83115 | 9.21072 | 84° | 16km/h | 1246m | 6.1m/s | 14.3°C | 88.9% | 882.5hPa | 3V | 18:12:15 | 00:30:08 | 00:00:00 | |
| DK7TD | 2026-08-30 10:48:27 | 48.83114 | 9.21060 | 80° | 15km/h | 1235m | 5.6m/s | 14.2°C | 90.7% | 883.6hPa | 3V | 18:12:15 | 00:30:06 | 00:00:00 | |
| DK7TD | 2026-08-30 10:48:25 | 48.83114 | 9.21051 | 98° | 13km/h | 1224m | 5.8m/s | 14.1°C | 92.7% | 884.8hPa | 3V | 18:12:15 | 00:30:04 | 00:00:00 | |
| DK7TD | 2026-08-30 10:48:23 | 48.83115 | 9.21041 | 100° | 13km/h | 1214m | 5.8m/s | 14.2°C | 92.9% | 885.7hPa | 3V | 18:12:15 | 00:30:02 | 00:00:00 | |
| DK7TD | 2026-08-30 10:48:21 | 48.83115 | 9.21031 | 99° | 13km/h | 1203m | 5.2m/s | 14.2°C | 92.7% | 886.8hPa | 3V | 18:12:15 | 00:30:00 | 00:00:00 | |
| DK7TD | 2026-08-30 10:48:20 | 48.83116 | 9.21027 | 108° | 13km/h | 1198m | 5.4m/s | 14.3°C | 92.2% | 887.5hPa | 3V | 18:12:15 | 00:29:59 | 00:00:00 | |
| DK7TD | 2026-08-30 10:48:19 | 48.83117 | 9.21022 | 87° | 15km/h | 1193m | 4.4m/s | 14.3°C | 91.8% | 888hPa | 3V | 18:12:15 | 00:29:58 | 00:00:00 | |
| DK7TD | 2026-08-30 10:48:18 | 48.83116 | 9.21017 | 83° | 13km/h | 1189m | 4.4m/s | 14.4°C | 91.7% | 888.5hPa | 3V | 18:12:15 | 00:29:57 | 00:00:00 | |
| DK7TD | 2026-08-30 10:48:16 | 48.83116 | 9.21009 | 90° | 9km/h | 1180m | 4.4m/s | 14.5°C | 90.4% | 889.3hPa | 3V | 18:12:15 | 00:29:55 | 00:00:00 | |
| DK7TD | 2026-08-30 10:48:14 | 48.83115 | 9.20999 | 72° | 15km/h | 1173m | 3.7m/s | 14.6°C | 88.8% | 890.4hPa | 3V | 18:12:15 | 00:29:53 | 00:00:00 | |
| DK7TD | 2026-08-30 10:48:12 | 48.83112 | 9.20989 | 71° | 15km/h | 1166m | 3.5m/s | 0°C | 0% | 891.1hPa | 3V | 18:12:15 | 00:29:51 | 00:00:00 | |
| DK7TD | 2026-08-30 10:48:11 | 48.83111 | 9.20984 | 77° | 13km/h | 1163m | 3.5m/s | 0°C | 0% | 891.5hPa | 3V | 18:12:15 | 00:29:50 | 00:00:00 | |
| DK7TD | 2026-08-30 10:48:10 | 48.83111 | 9.20980 | 83° | 11km/h | 1159m | 3.5m/s | 0°C | 0% | 891.6hPa | 3V | 18:12:15 | 00:29:49 | 00:00:00 | |
| DK7TD | 2026-08-30 10:48:08 | 48.83109 | 9.20970 | 66° | 15km/h | 1151m | 4.4m/s | 0°C | 0% | 892.7hPa | 3V | 18:12:15 | 00:29:47 | 00:00:00 | |
| DK7TD | 2026-08-30 10:48:06 | 48.83105 | 9.20963 | 47° | 13km/h | 1141m | 4.9m/s | 0°C | 0% | 893.7hPa | 3V | 18:12:15 | 00:29:45 | 00:00:00 | |
| DK7TD | 2026-08-30 10:48:04 | 48.83101 | 9.20956 | 56° | 13km/h | 1132m | 5.3m/s | 0°C | 0% | 894.4hPa | 3V | 18:12:15 | 00:29:43 | 00:00:00 | |
| DK7TD | 2026-08-30 10:48:02 | 48.83096 | 9.20947 | 51° | 16km/h | 1122m | 4.7m/s | 0°C | 0% | 895.8hPa | 3V | 18:12:15 | 00:29:41 | 00:00:00 | |
| DK7TD | 2026-08-30 10:48:00 | 48.83088 | 9.20936 | 54° | 9km/h | 1108m | 4.7m/s | 0°C | 0% | 897.2hPa | 3V | 18:12:15 | 00:29:38 | 00:00:00 | |
| DK7TD | 2026-08-30 10:48:00 | 48.83087 | 9.20932 | 59° | 11km/h | 1103m | 4.5m/s | 0°C | 0% | 897.6hPa | 3V | 18:12:15 | 00:29:37 | 00:00:00 | |
| DK7TD | 2026-08-30 10:47:56 | 48.83083 | 9.20923 | 52° | 16km/h | 1093m | 5.8m/s | 0°C | 0% | 0hPa | 3V | 18:12:15 | 00:29:35 | 00:00:00 | |
| DK7TD | 2026-08-30 10:47:55 | 48.83080 | 9.20918 | 47° | 20km/h | 1088m | 5.4m/s | 0°C | 0% | 0hPa | 3V | 18:12:15 | 00:29:34 | 00:00:00 | |
| DK7TD | 2026-08-30 10:47:53 | 48.83074 | 9.20908 | 56° | 16km/h | 1077m | 4.6m/s | 0°C | 0% | 0hPa | 3V | 18:12:15 | 00:29:32 | 00:00:00 | |
| DK7TD | 2026-08-30 10:47:53 | 48.83072 | 9.20904 | 60° | 15km/h | 1072m | 5.4m/s | 0°C | 0% | 0hPa | 3V | 18:12:15 | 00:29:31 | 00:00:00 | |
| DK7TD | 2026-08-30 10:47:50 | 48.83068 | 9.20893 | 52° | 16km/h | 1063m | 4.7m/s | 0°C | 0% | 0hPa | 3V | 18:12:15 | 00:29:29 | 00:00:00 | |
| DK7TD | 2026-08-30 10:47:49 | 48.83065 | 9.20889 | 33° | 16km/h | 1057m | 5.5m/s | 0°C | 0% | 0hPa | 3V | 18:12:15 | 00:29:28 | 00:00:00 | |
| AZAK | 2026-08-30 10:47:35 | 48.83047 | 9.20835 | 62° | 20km/h | 1003m | 4.6m/s | 16.0°C | 0% | 0hPa | 0V | 00:00:00 | 00:00:00 | 00:00:00 | |
| DF3TZ-5 | 2026-08-30 10:47:30 | 48.83006 | 9.20754 | 79° | 11km/h | 938m | 4.9m/s | 0°C | -1.0% | -1.0hPa | 0V | 00:00:00 | 00:00:00 | 00:00:00 | |
| DL9SK-14 | 2026-08-30 10:47:26 | 48.83011 | 9.20763 | 35° | 15km/h | 952m | 5.3m/s | 16.5°C | 82.1% | 913.4hPa | 0V | 00:00:00 | 00:00:00 | 00:00:00 | |
| AZAK | 2026-08-30 10:47:11 | 48.82982 | 9.20711 | 107° | 11km/h | 917m | 1.7m/s | 16.8°C | 0% | 0hPa | 0V | 00:00:00 | 00:00:00 | 00:00:00 | |
| DL9SK-14 | 2026-08-30 10:46:54 | 48.82956 | 9.20595 | 39° | 16km/h | 879m | 2.2m/s | 17.1°C | 80.9% | 921.7hPa | 0V | 00:00:00 | 00:00:00 | 00:00:00 | |
| AZAK | 2026-08-30 10:46:25 | 48.82936 | 9.20445 | 54° | 22km/h | 818m | 1.7m/s | 0°C | 0% | 0hPa | 0V | 00:00:00 | 00:00:00 | 00:00:00 | |
| DL9SK-14 | 2026-08-30 10:46:23 | 48.82923 | 9.20430 | 20° | 15km/h | 810m | 1.5m/s | 0°C | -1.0% | 929.5hPa | 0V | 00:00:00 | 00:00:00 | 00:00:00 | |
| AZAK | 2026-08-30 10:46:04 | 48.82892 | 9.20364 | 317° | 2km/h | 771m | 4.5m/s | 0°C | 0% | 0hPa | 0V | 00:00:00 | 00:00:00 | 00:00:00 | |
| AZAK | 2026-08-30 10:45:43 | 48.82865 | 9.20248 | 277° | 11km/h | 683m | 7.3m/s | 0°C | 0% | 0hPa | 0V | 00:00:00 | 00:00:00 | 00:00:00 | |
| AZAK | 2026-08-30 10:45:22 | 48.82856 | 9.20181 | 37° | 27km/h | 543m | 6.9m/s | 0°C | 0% | 0hPa | 0V | 00:00:00 | 00:00:00 | 00:00:00 |